# Wetter Temperatur Luftdruck Luftfeuchtigkeit Sichtweite Windgeschwindigkeit Windrichtung Zeit
1 Clear 22 1018 60 10000 4.6 230 19:57 17.10.2019
2 Clear 22 1018 60 10000 4.6 230 19:38 17.10.2019
3 Clear 22 1019 64 10000 4.1 300 19:19 17.10.2019
4 Clear 22 1019 64 10000 4.1 300 19:19 17.10.2019
5 Clear 23 1018 56 10000 4.6 220 18:43 17.10.2019
6 Clear 23 1019 60 10000 4.6 290 18:21 17.10.2019
7 Clear 24 1019 60 10000 4.6 290 17:58 17.10.2019
8 Clouds 24 1017 53 10000 5.1 220 17:40 17.10.2019
9 Clouds 24 1019 64 10000 4.6 290 17:22 17.10.2019
10 Clouds 23 1019 64 10000 4.6 300 16:56 17.10.2019
11 Clouds 24 1018 53 10000 4.1 200 16:37 17.10.2019
12 Clouds 24 1018 53 10000 4.1 200 16:37 17.10.2019
13 Clouds 24 1020 60 10000 4.1 260 16:18 17.10.2019
14 Clouds 23 1020 64 10000 4.1 270 15:55 17.10.2019
15 Clouds 23 1020 60 10000 4.6 280 15:37 17.10.2019
16 Clear 23 1020 60 10000 4.6 280 15:18 17.10.2019
17 -273 0 0 0 0 0 14:42 17.10.2019
18 Clouds 23 1021 53 10000 3.1 270 14:23 17.10.2019
19 Clouds 23 1021 53 10000 3.1 270 14:23 17.10.2019
20 Clouds 22 1021 56 10000 3.1 290 13:55 17.10.2019
21 Clear 22 1020 53 10000 3.6 230 13:36 17.10.2019
22 Clouds 22 1021 60 10000 2.6 290 13:18 17.10.2019
23 Clear 21 1021 60 10000 7.2 260 12:41 17.10.2019
24 Clouds 20 1022 68 10000 2.1 320 12:20 17.10.2019
25 Clouds 20 1021 60 10000 1 0 11:58 17.10.2019
26 Clouds 20 1021 64 10000 5.7 270 11:40 17.10.2019
27 Clouds 19 1021 60 10000 0.5 0 11:19 17.10.2019
28 Clouds 18 1020 77 10000 4.1 260 10:54 17.10.2019
29 Clouds 18 1020 77 10000 4.1 260 10:54 17.10.2019
30 Clouds 18 1020 77 10000 4.1 260 10:54 17.10.2019
31 Clouds 17 1020 77 10000 4.1 260 10:36 17.10.2019
32 Clouds 17 1021 77 8000 1.5 70 10:18 17.10.2019
33 Clouds 17 1021 77 8000 1.5 70 10:18 17.10.2019
34 Clouds 17 1021 77 8000 1.5 70 10:18 17.10.2019
35 Clouds 16 1020 67 10000 4.6 240 09:41 17.10.2019
36 Clouds 16 1020 82 8000 3.1 90 09:22 17.10.2019
37 Clouds 15 1019 63 10000 4.1 240 08:58 17.10.2019
38 Clouds 15 1020 87 8000 2.6 80 08:39 17.10.2019
39 Clouds 15 1020 87 8000 2.6 80 08:21 17.10.2019
40 Clouds 15 1020 87 8000 2.6 80 08:21 17.10.2019
41 Clouds 15 1020 82 8000 2.6 90 07:55 17.10.2019
42 Clouds 15 1020 82 8000 2.6 90 07:55 17.10.2019
43 Clouds 15 1019 82 8000 2.6 90 07:36 17.10.2019
44 Clouds 15 1019 82 8000 2.6 90 07:18 17.10.2019
45 Clouds 14 1019 82 10000 2.6 90 06:39 17.10.2019
46 Clouds 14 1019 82 10000 2.6 90 06:20 17.10.2019
47 Clear 16 1019 82 10000 2.6 80 05:51 17.10.2019
48 Clear 15 1019 87 10000 2.6 80 05:31 17.10.2019
49 Clear 14 1019 82 10000 2.6 90 04:52 17.10.2019
50 Clear 15 1019 82 10000 2.6 90 03:55 17.10.2019
51 Clear 15 1020 76 10000 1.5 70 02:36 17.10.2019
52 Clear 17 1020 72 10000 2.6 90 00:57 17.10.2019
53 Clear 17 1020 72 10000 1.5 80 00:38 17.10.2019
54 Clear 17 1020 72 10000 1.5 80 00:18 17.10.2019
55 Clear 17 1020 72 10000 1.5 110 23:42 16.10.2019
56 Clear 17 1020 72 10000 1.5 110 23:21 16.10.2019
57 Clear 17 1020 72 10000 1.5 110 23:21 16.10.2019
58 Clear 18 1020 67 10000 1 0 22:55 16.10.2019
59 Clear 18 1019 63 10000 1 0 22:36 16.10.2019
60 Clear 18 1019 63 10000 1 0 22:18 16.10.2019
61 Clear 18 1019 67 10000 1 0 21:56 16.10.2019
62 Clear 18 1019 52 10000 3.1 220 21:37 16.10.2019
63 Clear 18 1019 63 10000 0.5 0 21:18 16.10.2019
64 Clear 19 1019 63 10000 0.5 0 20:56 16.10.2019
65 Clear 19 1019 63 10000 0.5 0 20:56 16.10.2019
66 Clear 19 1019 63 10000 0.5 0 20:56 16.10.2019
67 Clear 19 1018 37 10000 5.1 190 20:38 16.10.2019
68 Clear 19 1019 63 10000 3.1 310 20:20 16.10.2019
69 Clear 20 1018 60 10000 4.1 310 19:56 16.10.2019
70 Clear 20 1018 35 10000 4.6 200 19:38 16.10.2019
71 Clear 20 1018 56 10000 4.1 310 19:19 16.10.2019
72 Clear 21 1018 35 10000 4.6 200 18:39 16.10.2019
73 Clear 21 1018 52 10000 3.6 300 18:19 16.10.2019
74 Clear 21 1018 56 10000 3.6 290 17:56 16.10.2019
75 Clear 21 1018 37 10000 2.1 210 17:38 16.10.2019
76 Clear 21 1018 37 10000 2.1 210 17:38 16.10.2019
77 Clear 22 1018 60 10000 3.6 290 17:19 16.10.2019
78 Clear 22 1018 43 10000 2.6 110 16:58 16.10.2019
79 Clear 21 1019 53 10000 3.1 100 16:38 16.10.2019
80 Clear 21 1019 60 10000 4.1 280 16:20 16.10.2019
81 Clear 21 1019 60 10000 4.6 280 15:55 16.10.2019
82 Clear 21 1019 60 10000 4.6 280 15:54 16.10.2019
83 Clear 21 1019 60 10000 4.6 280 15:54 16.10.2019
84 Clear 21 1019 60 10000 4.6 280 15:54 16.10.2019
85 Clear 21 1019 56 10000 2.6 100 15:36 16.10.2019
86 Clear 21 1020 60 10000 5.1 280 15:18 16.10.2019
87 Clear 21 1020 60 10000 5.1 280 15:18 16.10.2019
88 Clear 22 1020 46 10000 3.1 110 14:55 16.10.2019
89 Clear 22 1020 46 10000 3.1 110 14:36 16.10.2019
90 Clear 22 1021 52 10000 4.6 280 14:18 16.10.2019
91 Clear 21 1021 45 10000 2.6 100 13:42 16.10.2019
92 Clear 21 1021 49 10000 3.1 280 13:23 16.10.2019
93 Clear 20 1021 52 10000 1 160 12:44 16.10.2019
94 Clear 20 1021 49 10000 1.5 300 12:21 16.10.2019
95 Clear 18 1021 55 10000 1 270 11:59 16.10.2019
96 Clear 18 1021 51 10000 1 250 11:41 16.10.2019
97 Clouds 17 1021 59 10000 1.5 80 11:18 16.10.2019
98 Clear 15 1021 58 10000 3.1 260 10:37 16.10.2019
99 Clear 14 1021 77 10000 2.6 90 10:19 16.10.2019
100 Clouds 13 1021 76 10000 2.6 80 09:54 16.10.2019
101 Clear 13 1021 62 10000 2.6 260 09:36 16.10.2019
102 Clear 13 1021 76 10000 2.1 80 09:18 16.10.2019
103 Clear 13 1020 81 10000 2.1 70 08:42 16.10.2019
104 Clear 13 1020 81 10000 2.1 70 08:23 16.10.2019
105 Clear 13 1020 81 10000 1.5 90 07:45 16.10.2019
106 Clear 13 1020 81 10000 2.6 70 07:24 16.10.2019
107 Clear 14 1020 76 10000 2.6 70 06:57 16.10.2019
108 Clear 14 1020 71 10000 2.6 80 06:35 16.10.2019
109 Clear 14 1020 71 10000 1.429 258 05:39 16.10.2019
110 Clouds 16 1021 71 10000 2.6 90 02:57 16.10.2019
111 Clouds 16 1022 76 10000 2.1 90 02:37 16.10.2019
112 Clouds 16 1022 76 10000 2.6 100 01:18 16.10.2019
113 Clouds 17 1022 76 10000 2.1 80 00:46 16.10.2019
114 Clouds 17 1022 76 10000 2.1 80 00:25 16.10.2019
115 Clouds 17 1022 71 10000 1 0 23:39 15.10.2019
116 Clouds 17 1022 71 10000 1 0 23:21 15.10.2019
117 Clouds 18 1021 63 10000 0.5 0 22:55 15.10.2019
118 Clouds 18 1021 59 10000 0.5 0 22:37 15.10.2019
119 Clouds 18 1021 59 10000 0.5 0 22:19 15.10.2019
120 Clouds 19 1021 59 10000 1 0 21:55 15.10.2019
121 Clouds 19 1021 59 10000 1 0 21:37 15.10.2019
122 Clouds 19 1021 59 10000 1 0 21:19 15.10.2019
123 Clouds 20 1021 55 10000 2.1 310 20:57 15.10.2019
124 Clouds 20 1021 55 10000 2.1 290 20:38 15.10.2019
125 Clouds 20 1021 55 10000 2.1 290 20:19 15.10.2019
126 Clouds 21 1021 52 10000 2.6 310 19:56 15.10.2019
127 Clouds 22 1020 40 10000 4.1 290 19:37 15.10.2019
128 Clouds 22 1020 40 10000 4.1 290 19:19 15.10.2019
129 Clouds 22 1020 40 10000 4.6 300 18:44 15.10.2019
130 Clouds 23 1020 42 10000 4.1 300 18:26 15.10.2019
131 Clouds 23 1020 42 10000 4.1 300 17:57 15.10.2019
132 Clouds 23 1021 45 10000 4.1 280 17:38 15.10.2019
133 Clouds 23 1021 45 10000 4.1 280 17:19 15.10.2019
134 Clouds 21 1021 45 10000 4.1 280 16:46 15.10.2019
135 Clouds 22 1021 35 10000 4.1 290 16:22 15.10.2019
136 Clouds 22 1020 43 10000 4.1 200 15:58 15.10.2019
137 Clouds 22 1020 31 10000 3.1 200 15:40 15.10.2019
138 Clouds 22 1021 30 10000 4.1 300 15:20 15.10.2019
139 Clear 22 1021 28 10000 3.1 210 14:57 15.10.2019
140 Clear 21 1021 28 10000 3.1 210 14:38 15.10.2019
141 Clouds 21 1022 52 10000 4.1 300 14:19 15.10.2019
142 Clouds 21 1022 42 10000 4.1 300 13:44 15.10.2019
143 Clouds 21 1023 45 10000 3.6 310 13:21 15.10.2019
144 Clear 21 1022 32 10000 5.1 260 12:59 15.10.2019
145 Clear 20 1022 42 10000 5.7 270 12:39 15.10.2019
146 Clouds 20 1023 52 10000 2.6 310 12:20 15.10.2019
147 Clear 19 1022 55 10000 4.1 250 11:44 15.10.2019
148 Clouds 19 1022 63 10000 2.1 320 11:21 15.10.2019
149 -273 0 0 0 0 0 10:58 15.10.2019
150 Clear 18 1021 67 10000 2.1 320 10:39 15.10.2019
151 Clouds 17 1022 68 10000 0.5 0 10:19 15.10.2019
152 Clear 16 1021 77 10000 2.1 280 09:57 15.10.2019
153 Clear 16 1021 77 10000 2.1 280 09:37 15.10.2019
154 Clouds 15 1021 77 10000 1 0 09:19 15.10.2019
155 Clouds 16 1021 77 10000 1.5 30 08:41 15.10.2019
156 Clouds 16 1021 72 10000 1 0 08:21 15.10.2019
157 Clouds 17 1021 72 10000 0.5 0 07:56 15.10.2019
158 Clouds 17 1021 72 10000 0.5 0 07:56 15.10.2019
159 Clouds 17 1021 77 10000 0.5 0 07:38 15.10.2019
160 Clouds 17 1021 77 10000 0.5 0 07:18 15.10.2019
161 Clouds 17 1021 72 10000 2.1 350 06:43 15.10.2019
162 Clouds 17 1021 72 10000 2.1 350 06:22 15.10.2019
163 Clouds 17 1021 77 10000 2.6 330 05:37 15.10.2019
164 Clouds 17 1021 77 10000 2.6 330 05:19 15.10.2019
165 Clouds 18 1021 77 10000 2.6 330 04:23 15.10.2019
166 Clouds 18 1021 77 10000 2.6 330 03:36 15.10.2019
167 Clouds 18 1021 77 10000 2.6 330 03:36 15.10.2019
168 Clouds 19 1021 77 10000 2.6 290 02:23 15.10.2019
169 Clouds 19 1021 77 10000 3.1 290 01:47 15.10.2019
170 Clouds 19 1021 77 10000 4.1 300 01:19 15.10.2019
171 Clouds 19 1021 77 10000 3.1 240 00:47 15.10.2019
172 Clouds 19 1021 82 10000 3.6 250 00:20 15.10.2019
173 Clouds 20 1021 77 10000 2.1 230 23:40 14.10.2019
174 Clouds 20 1021 77 10000 2.1 230 23:19 14.10.2019
175 Clouds 20 1020 72 10000 5.1 250 22:40 14.10.2019
176 Clouds 20 1020 72 10000 2.6 250 22:21 14.10.2019
177 Clouds 20 1020 72 10000 5.7 260 21:59 14.10.2019
178 Clouds 20 1020 72 10000 5.7 260 21:40 14.10.2019
179 Clouds 20 1020 82 10000 2.6 250 21:21 14.10.2019
180 Clouds 20 1019 77 10000 5.1 270 20:59 14.10.2019
181 Clouds 20 1019 72 10000 5.1 270 20:39 14.10.2019
182 Clouds 21 1020 77 10000 3.1 240 20:20 14.10.2019
183 Clouds 20 1019 77 10000 3.1 260 19:58 14.10.2019
184 Clouds 21 1019 68 10000 4.1 260 19:39 14.10.2019
185 Clouds 21 1019 68 10000 4.1 260 19:39 14.10.2019
186 Clouds 21 1019 68 10000 4.1 260 19:21 14.10.2019
187 Clouds 21 1019 68 10000 4.1 260 19:21 14.10.2019
188 Clouds 22 1018 60 10000 8.2 280 18:57 14.10.2019
189 Clouds 22 1018 60 10000 8.2 280 18:57 14.10.2019
190 Clouds 22 1018 60 10000 8.2 280 18:38 14.10.2019
191 Clouds 22 1019 68 10000 6.2 260 18:18 14.10.2019
192 Clouds 23 1017 53 10000 8.7 250 17:44 14.10.2019
193 Clouds 23 1019 64 10000 6.7 260 17:25 14.10.2019
194 -273 0 0 0 0 0 16:56 14.10.2019
195 Clouds 22 1017 68 10000 9.3 260 16:38 14.10.2019
196 Rain 23 1018 73 10000 7.2 250 16:19 14.10.2019
197 Clouds 22 1017 68 10000 7.7 270 15:41 14.10.2019
198 Clouds 22 1018 73 10000 7.2 250 15:21 14.10.2019
199 Rain 22 1017 64 10000 6.7 260 14:44 14.10.2019
200 Rain 22 1017 64 10000 6.7 260 14:44 14.10.2019
201 Rain 22 1018 73 6000 5.7 260 14:26 14.10.2019
202 Rain 21 1019 83 6000 5.1 240 13:58 14.10.2019
203 Rain 21 1018 68 10000 6.2 240 13:40 14.10.2019
204 Rain 21 1018 88 6000 4.1 230 13:21 14.10.2019
205 Rain 21 1017 73 10000 5.1 270 12:42 14.10.2019
206 Rain 21 1018 94 4000 4.1 220 12:21 14.10.2019
207 Rain 21 1018 94 5000 3.1 210 11:55 14.10.2019
208 Rain 21 1018 94 5000 3.1 210 11:54 14.10.2019
209 Rain 21 1017 93 10000 3.1 210 11:36 14.10.2019
210 Rain 21 1018 94 5000 3.1 200 11:18 14.10.2019
211 Rain 21 1018 93 2000 3.6 210 10:43 14.10.2019
212 Rain 20 1017 88 2000 4.6 200 10:21 14.10.2019
213 Rain 20 1017 88 2000 4.6 200 10:21 14.10.2019
214 Rain 22 1016 83 2000 3.6 190 09:57 14.10.2019
215 Rain 22 1016 83 10000 5.7 220 09:38 14.10.2019
216 Clouds 22 1016 83 8000 4.1 190 09:19 14.10.2019
217 Clouds 21 1016 83 8000 4.1 200 08:46 14.10.2019
218 Clouds 22 1016 83 8000 4.1 200 08:23 14.10.2019
219 Clouds 22 1016 83 8000 3.1 190 07:44 14.10.2019
220 Clouds 22 1016 83 8000 3.1 190 07:21 14.10.2019
221 Clouds 22 1015 83 8000 3.6 200 06:54 14.10.2019
222 Clouds 22 1015 83 9000 3.1 200 06:27 14.10.2019
223 Clouds 21 1016 88 7000 3.6 200 05:50 14.10.2019
224 Clouds 21 1015 88 7000 4.1 190 04:49 14.10.2019
225 Clouds 21 1015 83 7000 4.1 210 03:28 14.10.2019
226 Clouds 21 1014 83 8000 2.6 180 02:56 14.10.2019
227 Clouds 21 1014 83 7000 4.6 190 01:25 14.10.2019
228 Clouds 21 1015 88 9000 3.6 110 00:59 14.10.2019
229 Clear 22 1014 69 10000 2.6 210 00:21 14.10.2019
230 Clear 22 1014 69 10000 2.6 210 00:21 14.10.2019
231 Clear 22 1013 64 10000 1 0 23:46 13.10.2019
232 Clear 22 1013 60 10000 1.5 0 23:21 13.10.2019
233 Haze 22 1012 60 10000 5.7 90 22:59 13.10.2019
234 Haze 22 1012 60 10000 6.7 90 22:41 13.10.2019
235 Haze 22 1012 60 10000 6.7 90 22:21 13.10.2019
236 Haze 22 1011 60 10000 5.1 90 21:58 13.10.2019
237 Haze 22 1014 83 8000 3.6 100 21:38 13.10.2019
238 Haze 22 1011 57 10000 6.2 80 21:19 13.10.2019
239 Haze 22 1014 83 8000 3.6 120 20:58 13.10.2019
240 Haze 23 1014 83 8000 3.6 120 20:39 13.10.2019
241 Haze 23 1014 83 7000 4.6 140 20:21 13.10.2019
242 Haze 23 1014 83 6000 5.1 130 19:58 13.10.2019
243 -273 0 0 0 0 0 19:39 13.10.2019
244 Haze 24 1014 83 6000 5.1 130 19:39 13.10.2019
245 Haze 24 1011 42 10000 5.7 90 19:21 13.10.2019
246 Haze 25 1014 78 7000 4.6 120 18:57 13.10.2019
247 Haze 25 1014 78 7000 4.6 120 18:56 13.10.2019
248 -273 0 0 0 0 0 18:56 13.10.2019
249 Haze 25 1014 78 7000 4.6 120 18:56 13.10.2019
250 Haze 25 1014 78 7000 4.6 120 18:36 13.10.2019
251 Haze 25 1010 38 10000 7.2 80 18:18 13.10.2019
252 Haze 26 1015 73 7000 4.6 120 17:44 13.10.2019
253 Haze 26 1011 33 10000 6.7 100 17:26 13.10.2019
254 Haze 25 1015 73 8000 6.2 110 16:58 13.10.2019
255 Haze 26 1015 73 8000 6.2 110 16:40 13.10.2019
256 Haze 26 1011 31 10000 6.2 90 16:18 13.10.2019
257 Haze 25 1011 42 10000 6.7 70 15:56 13.10.2019
258 Haze 25 1011 42 10000 6.7 70 15:56 13.10.2019
259 Haze 25 1015 73 8000 5.1 110 15:36 13.10.2019
260 Haze 25 1012 48 10000 6.7 50 15:18 13.10.2019
261 Haze 24 1016 78 8000 4.6 100 14:56 13.10.2019
262 Haze 24 1016 78 8000 4.6 100 14:37 13.10.2019
263 Haze 24 1014 51 10000 4.6 40 14:18 13.10.2019
264 Haze 23 1017 78 8000 4.6 120 13:39 13.10.2019
265 Haze 23 1017 78 8000 4.6 120 13:39 13.10.2019
266 Haze 23 1015 57 10000 4.1 40 13:21 13.10.2019
267 Haze 22 1015 61 10000 3.6 50 12:57 13.10.2019
268 Haze 22 1017 83 8000 3.6 120 12:39 13.10.2019
269 Haze 22 1017 83 8000 3.6 120 12:39 13.10.2019
270 Haze 22 1015 64 10000 4.6 50 12:19 13.10.2019
271 Haze 21 1017 88 7000 4.1 90 11:58 13.10.2019
272 Haze 21 1017 88 7000 4.1 90 11:38 13.10.2019
273 Haze 21 1015 69 10000 3.1 60 11:19 13.10.2019
274 Haze 20 1017 94 7000 3.6 110 10:42 13.10.2019
275 Haze 20 1015 77 10000 2.6 60 10:23 13.10.2019
276 Haze 20 1016 94 8000 3.1 110 09:58 13.10.2019
277 Haze 20 1016 94 8000 3.1 110 09:58 13.10.2019
278 Haze 20 1016 94 8000 3.1 110 09:38 13.10.2019
279 Haze 20 1015 82 8000 3.6 40 09:19 13.10.2019
280 Clouds 21 1015 88 7000 3.6 40 08:43 13.10.2019
281 Clouds 20 1015 88 7000 3.6 40 08:22 13.10.2019
282 Haze 20 1015 83 7000 1 30 07:47 13.10.2019
283 Haze 20 1015 83 6000 0.5 0 07:28 13.10.2019
284 Clouds 20 1015 83 6000 1.5 100 06:48 13.10.2019
285 Clouds 20 1015 83 6000 1 0 05:57 13.10.2019
286 Mist 20 1015 83 4000 1.5 150 04:52 13.10.2019
287 Mist 20 1015 88 4000 1.37 197.985 04:33 13.10.2019
288 Mist 20 1016 94 4000 0.5 0 02:47 13.10.2019
289 Mist 20 1016 94 4000 0.5 0 02:23 13.10.2019
290 Clouds 20 1016 93 6000 0.5 0 01:31 13.10.2019
291 Mist 20 1016 94 4500 1 80 00:52 13.10.2019
292 Mist 20 1016 94 4500 1 80 00:52 13.10.2019
293 Mist 20 1016 93 3500 1 80 00:22 13.10.2019
294 Mist 21 1017 94 2700 1 230 23:58 12.10.2019
295 Mist 21 1017 94 4000 2.1 240 23:39 12.10.2019
296 Mist 21 1017 94 4000 2.1 240 23:21 12.10.2019
297 Clouds 21 1017 88 5000 2.1 240 22:58 12.10.2019
298 Clouds 21 1017 88 5000 2.1 240 22:58 12.10.2019
299 Mist 21 1016 94 4000 2.6 260 22:38 12.10.2019
300 Mist 21 1016 94 4000 2.6 260 22:20 12.10.2019
301 Mist 21 1016 94 3000 1 0 21:55 12.10.2019
302 Mist 21 1016 94 4000 1 240 21:37 12.10.2019
303 Mist 21 1016 94 4000 1 240 21:19 12.10.2019
304 Clouds 22 1016 83 10000 4.1 120 20:41 12.10.2019
305 Clouds 22 1016 83 10000 4.1 120 20:41 12.10.2019
306 Clouds 22 1015 88 6000 2.1 260 20:23 12.10.2019
307 Clouds 22 1016 73 10000 3.1 120 19:40 12.10.2019
308 Clouds 22 1016 73 10000 3.1 120 19:40 12.10.2019
309 Clouds 22 1015 83 10000 2.6 270 19:22 12.10.2019
310 Clouds 23 1015 78 10000 4.6 270 18:59 12.10.2019
311 Clouds 23 1016 73 10000 3.1 110 18:40 12.10.2019
312 Clouds 23 1016 73 10000 3.1 110 18:40 12.10.2019
313 Clouds 23 1015 73 10000 2.6 260 18:22 12.10.2019
314 Clouds 23 1015 83 5000 2.6 280 17:43 12.10.2019
315 Clouds 24 1015 83 5000 2.6 290 17:19 12.10.2019
316 Mist 23 1015 83 4500 3.6 260 16:55 12.10.2019
317 Mist 23 1016 78 10000 5.1 130 16:36 12.10.2019
318 Mist 23 1015 88 3000 3.6 280 16:18 12.10.2019
319 Clouds 24 1015 78 5000 4.6 250 15:44 12.10.2019
320 Clouds 25 1015 65 10000 4.1 240 15:25 12.10.2019
321 Clouds 24 1016 69 10000 3.1 270 14:43 12.10.2019
322 Clear 24 1016 73 10000 4.6 230 14:22 12.10.2019
323 Clouds 24 1017 83 10000 4.1 100 13:59 12.10.2019
324 Clouds 24 1017 83 10000 4.1 100 13:40 12.10.2019
325 Clouds 24 1017 83 10000 4.1 100 13:40 12.10.2019
326 Clear 24 1016 69 10000 3.6 220 13:21 12.10.2019
327 Mist 24 1018 88 10000 3.6 110 12:39 12.10.2019
328 Mist 24 1016 54 10000 4.6 100 12:21 12.10.2019
329 Mist 23 1017 88 10000 5.1 80 11:58 12.10.2019
330 Mist 23 1017 88 10000 5.1 80 11:39 12.10.2019
331 Mist 23 1017 88 10000 5.1 80 11:39 12.10.2019
332 Mist 23 1015 65 10000 5.7 100 11:20 12.10.2019
333 Mist 22 1017 88 10000 6.2 80 10:43 12.10.2019
334 Mist 21 1015 73 10000 4.6 90 10:23 12.10.2019
335 Clouds 22 1016 94 10000 6.2 70 09:58 12.10.2019
336 Clouds 21 1016 94 10000 5.1 70 09:39 12.10.2019
337 Mist 21 1014 77 10000 4.1 80 09:21 12.10.2019
338 Mist 21 1015 77 10000 2.1 160 08:57 12.10.2019
339 Mist 21 1015 77 10000 2.1 160 08:57 12.10.2019
340 Mist 21 1015 77 10000 2.1 160 08:57 12.10.2019
341 Mist 21 1014 77 10000 4.1 80 08:38 12.10.2019
342 Mist 21 1014 77 10000 4.1 80 08:18 12.10.2019
343 Clear 21 1014 77 10000 4.1 100 07:33 12.10.2019
344 Clouds 21 1016 88 10000 5.1 90 06:50 12.10.2019
345 Clear 21 1013 73 10000 8.7 80 05:46 12.10.2019
346 Clear 21 1014 64 10000 9.3 80 04:52 12.10.2019
347 Clear 21 1014 64 10000 8.7 80 03:58 12.10.2019
348 Clear 22 1015 60 10000 8.7 70 02:57 12.10.2019
349 Clear 22 1015 64 10000 7.7 60 01:36 12.10.2019
350 Clear 22 1015 64 10000 7.7 60 01:36 12.10.2019
351 Clear 22 1016 64 10000 6.7 70 00:59 12.10.2019
352 Clear 22 1016 60 10000 7.2 60 00:39 12.10.2019
353 Clear 22 1016 69 10000 5.7 70 23:57 11.10.2019
354 Clear 22 1016 69 10000 6.2 80 23:39 11.10.2019
355 Clear 22 1016 69 10000 6.2 80 23:20 11.10.2019
356 Clear 22 1016 69 10000 6.2 80 23:20 11.10.2019
357 Clouds 22 1018 94 10000 3.1 80 22:40 11.10.2019
358 Clear 22 1015 69 10000 5.1 40 22:21 11.10.2019
359 Clear 22 1015 64 10000 5.1 70 21:56 11.10.2019
360 Clouds 22 1018 88 10000 2.6 50 21:38 11.10.2019
361 Clear 22 1015 64 10000 5.1 80 21:19 11.10.2019
362 Clouds 22 1017 88 10000 4.1 110 20:43 11.10.2019
363 Clear 22 1015 64 10000 6.2 80 20:25 11.10.2019
364 Clouds 23 1018 83 10000 4.1 120 19:56 11.10.2019
365 Clouds 23 1018 83 10000 4.1 120 19:38 11.10.2019
366 Clear 23 1015 57 10000 6.7 70 19:18 11.10.2019
367 Clear 23 1015 57 10000 7.2 70 18:57 11.10.2019
368 Clouds 23 1018 83 10000 5.1 110 18:37 11.10.2019
369 Clouds 23 1018 83 10000 5.1 110 18:37 11.10.2019
370 Clear 23 1015 54 10000 7.2 80 18:19 11.10.2019
371 Clear 23 1015 54 10000 8.7 80 17:58 11.10.2019
372 Clouds 23 1018 83 10000 6.2 90 17:37 11.10.2019
373 Clear 24 1015 54 10000 6.7 60 17:18 11.10.2019
374 Clear 23 1016 65 10000 6.2 40 16:54 11.10.2019
375 Clear 23 1016 65 10000 6.2 40 16:54 11.10.2019
376 Clouds 23 1019 78 10000 5.1 80 16:36 11.10.2019
377 Clouds 23 1016 57 9000 6.2 60 16:18 11.10.2019
378 Clear 24 1016 48 10000 8.2 80 15:39 11.10.2019
379 -273 0 0 0 0 0 15:19 11.10.2019
380 Clouds 24 1019 78 10000 6.7 80 14:49 11.10.2019
381 Clouds 24 1019 78 10000 6.7 80 14:30 11.10.2019
382 Clouds 24 1020 88 10000 5.1 80 13:58 11.10.2019
383 Clouds 24 1020 83 10000 7.2 80 13:40 11.10.2019
384 Clouds 24 1020 83 10000 7.2 80 13:40 11.10.2019
385 Clear 24 1018 54 10000 8.2 80 13:21 11.10.2019
386 Clouds 23 1020 83 10000 6.2 70 12:56 11.10.2019
387 Clouds 23 1020 83 10000 6.2 70 12:38 11.10.2019
388 Clear 23 1018 61 10000 8.7 80 12:19 11.10.2019
389 Rain 23 1020 83 10000 6.7 70 11:41 11.10.2019
390 Rain 23 1020 83 10000 6.7 70 11:41 11.10.2019
391 Clear 23 1017 65 10000 9.3 90 11:22 11.10.2019
392 Clear 23 1017 65 10000 9.3 90 11:22 11.10.2019
393 Clouds 23 1020 83 10000 7.2 70 10:59 11.10.2019
394 Clouds 22 1020 88 10000 6.2 70 10:59 11.10.2019
395 Clouds 22 1020 88 10000 6.2 70 10:41 11.10.2019
396 Clear 22 1017 69 10000 8.2 90 10:23 11.10.2019
397 Clouds 22 1019 88 10000 6.2 70 09:56 11.10.2019
398 Clouds 21 1019 88 10000 6.2 70 09:37 11.10.2019
399 Clouds 21 1019 88 10000 6.2 70 09:19 11.10.2019
400 Clear 21 1016 73 10000 7.7 80 08:55 11.10.2019
401 Clear 21 1016 73 10000 6.7 90 08:36 11.10.2019
402 Clear 21 1016 73 10000 6.7 90 08:18 11.10.2019
403 Clear 21 1016 68 10000 7.7 90 07:44 11.10.2019
404 Clear 21 1016 73 10000 7.7 90 07:25 11.10.2019
405 Clear 21 1016 68 10000 7.2 90 06:48 11.10.2019
406 Clear 21 1016 68 10000 7.7 80 06:23 11.10.2019
407 Clear 21 1015 68 10000 9.3 90 05:39 11.10.2019
408 Clouds 21 1019 88 10000 7.7 70 04:59 11.10.2019
409 Clear 21 1016 68 10000 8.7 80 04:25 11.10.2019
410 Clear 22 1016 64 10000 11.3 80 02:40 11.10.2019
411 Clear 22 1016 60 10000 10.8 80 00:50 11.10.2019
412 Clear 22 1016 64 10000 9.8 80 00:29 11.10.2019
413 Clear 22 1015 64 10000 10.3 80 23:44 10.10.2019
414 Clear 22 1015 64 10000 10.3 80 23:22 10.10.2019
415 Clear 22 1015 64 10000 10.3 70 22:58 10.10.2019
416 Clear 22 1015 64 10000 10.8 80 22:39 10.10.2019
417 Clear 22 1015 64 10000 10.8 80 22:21 10.10.2019
418 Clear 22 1015 64 10000 10.3 80 21:58 10.10.2019
419 Clear 22 1015 60 10000 9.8 80 21:39 10.10.2019
420 Clear 22 1015 60 10000 9.8 80 21:21 10.10.2019
421 Clear 22 1014 57 10000 9.8 80 20:43 10.10.2019
422 Clear 22 1014 57 10000 9.8 80 20:22 10.10.2019
423 Clear 23 1014 53 10000 10.3 70 19:59 10.10.2019
424 Clear 23 1014 50 10000 9.3 70 19:41 10.10.2019
425 Clear 23 1014 50 10000 9.3 70 19:41 10.10.2019
426 Clear 23 1014 50 10000 9.3 70 19:20 10.10.2019
427 Clear 24 1014 50 10000 11.8 80 18:57 10.10.2019
428 Clear 24 1014 51 10000 11.3 70 18:39 10.10.2019
429 Clear 24 1014 51 10000 11.3 70 18:20 10.10.2019
430 Clear 24 1014 51 10000 10.8 80 17:54 10.10.2019
431 Clouds 24 1018 88 10000 7.2 80 17:36 10.10.2019
432 Clouds 24 1018 88 10000 7.2 80 17:36 10.10.2019
433 Clear 24 1014 51 10000 10.8 70 17:18 10.10.2019
434 Clear 24 1014 51 10000 10.8 70 17:18 10.10.2019
435 Clear 24 1014 51 10000 10.8 70 17:18 10.10.2019
436 Clouds 24 1018 83 10000 6.7 70 16:41 10.10.2019
437 Clear 24 1014 45 10000 10.3 70 16:22 10.10.2019
438 Clear 24 1014 42 10000 11.3 70 15:44 10.10.2019
439 Clear 24 1015 45 10000 12.9 80 15:25 10.10.2019
440 Clouds 24 1018 88 10000 6.7 70 14:59 10.10.2019
441 Clouds 24 1019 88 10000 7.7 70 14:38 10.10.2019
442 Clear 24 1016 45 10000 12.3 90 14:19 10.10.2019
443 Clouds 24 1019 88 10000 8.2 80 13:59 10.10.2019
444 Clouds 24 1019 83 10000 6.7 80 13:41 10.10.2019
445 Clouds 24 1019 83 10000 6.7 80 13:41 10.10.2019
446 Clear 24 1016 47 10000 10.8 80 13:20 10.10.2019
447 Clouds 23 1019 83 10000 8.2 80 12:57 10.10.2019
448 Clouds 23 1019 83 10000 8.2 80 12:39 10.10.2019
449 Clear 23 1016 50 10000 11.3 80 12:19 10.10.2019
450 Clear 23 1016 50 10000 9.8 80 11:55 10.10.2019
451 Clear 23 1016 57 10000 9.3 70 11:37 10.10.2019
452 Clear 23 1016 57 10000 9.3 70 11:18 10.10.2019
453 Clouds 22 1019 88 10000 7.2 80 10:44 10.10.2019
454 Clear 22 1016 64 10000 7.7 80 10:25 10.10.2019
455 Clear 22 1016 64 10000 6.7 90 09:56 10.10.2019
456 Clouds 21 1018 88 10000 6.2 90 09:37 10.10.2019
457 Clear 21 1015 68 10000 6.2 90 09:19 10.10.2019
458 Clear 21 1015 73 10000 5.7 90 08:41 10.10.2019
459 Clear 21 1015 73 10000 5.7 90 08:23 10.10.2019
460 Clear 21 1015 73 10000 6.7 90 07:58 10.10.2019
461 Clear 21 1014 72 10000 6.2 90 07:40 10.10.2019
462 Clear 21 1014 72 10000 6.2 90 07:20 10.10.2019
463 Clear 21 1014 73 10000 5.7 100 06:45 10.10.2019
464 Clear 21 1014 73 10000 5.7 100 06:22 10.10.2019
465 Clear 21 1014 68 10000 4.6 80 05:24 10.10.2019
466 Clear 20 1014 72 10000 4.6 70 04:37 10.10.2019
467 Clear 21 1014 68 10000 4.1 50 02:54 10.10.2019
468 Clear 21 1014 68 10000 8.2 40 01:42 10.10.2019
469 Clear 21 1014 68 10000 8.2 40 01:42 10.10.2019
470 Clear 21 1014 68 10000 8.2 40 01:23 10.10.2019
471 Clear 21 1014 64 10000 7.7 40 00:45 10.10.2019
472 Clear 21 1014 64 10000 7.7 40 00:19 10.10.2019
473 Clear 21 1014 73 10000 8.2 50 23:39 09.10.2019
474 Clear 21 1014 73 10000 8.2 50 23:19 09.10.2019
475 Clear 21 1016 94 10000 2.6 40 22:42 09.10.2019
476 Clear 21 1016 94 10000 2.6 40 22:24 09.10.2019
477 Clear 21 1014 56 10000 4.6 30 21:59 09.10.2019
478 Clear 22 1014 44 10000 3.1 60 21:39 09.10.2019
479 Clear 22 1014 44 10000 3.1 60 21:20 09.10.2019
480 Clear 22 1014 44 10000 4.1 60 20:56 09.10.2019
481 Clear 22 1014 47 10000 6.2 50 20:37 09.10.2019
482 Clear 22 1014 47 10000 6.2 50 20:18 09.10.2019
483 Clear 22 1014 44 10000 6.7 40 19:45 09.10.2019
484 Clear 23 1013 41 10000 8.2 30 19:23 09.10.2019
485 Clear 23 1013 44 10000 7.2 30 18:58 09.10.2019
486 Clouds 24 1015 83 10000 3.6 100 18:37 09.10.2019
487 Clear 23 1013 42 10000 8.7 40 18:18 09.10.2019
488 Clouds 23 1016 78 10000 4.6 110 17:54 09.10.2019
489 Clouds 23 1016 78 10000 4.6 110 17:36 09.10.2019
490 Clouds 23 1016 78 10000 4.6 110 17:18 09.10.2019
491 Clouds 24 1016 78 10000 4.1 110 16:40 09.10.2019
492 Clear 24 1014 51 10000 8.2 40 16:22 09.10.2019
493 Clear 24 1014 51 10000 8.2 40 15:58 09.10.2019
494 Clouds 24 1016 78 10000 5.1 100 15:39 09.10.2019
495 Clouds 24 1016 78 10000 5.1 100 15:39 09.10.2019
496 Clear 24 1014 51 10000 6.7 40 15:20 09.10.2019
497 Clouds 24 1014 54 10000 3.1 250 14:56 09.10.2019
498 Clouds 24 1017 78 10000 4.6 100 14:37 09.10.2019
499 Clouds 24 1015 48 10000 4.6 20 14:18 09.10.2019
500 Clear 23 1015 61 10000 2.1 210 13:39 09.10.2019
501 Clear 23 1015 61 10000 2.1 210 13:21 09.10.2019
502 Clear 23 1015 69 10000 2.1 220 12:58 09.10.2019
503 Clouds 23 1017 83 10000 5.1 100 12:40 09.10.2019
504 Clear 23 1016 65 10000 2.6 0 12:21 09.10.2019
505 Clear 23 1015 44 10000 2.6 90 11:55 09.10.2019
506 Clouds 23 1018 77 10000 4.1 90 11:36 09.10.2019
507 Clear 22 1015 53 10000 2.1 50 11:18 09.10.2019
508 Clouds 22 1017 77 10000 3.1 80 10:43 09.10.2019
509 Clear 21 1015 68 10000 3.1 100 10:20 09.10.2019
510 Clouds 21 1017 77 10000 2.6 80 09:57 09.10.2019
511 Clouds 21 1017 77 10000 2.6 80 09:38 09.10.2019
512 Clouds 21 1017 77 10000 2.6 80 09:38 09.10.2019
513 Clear 21 1014 68 10000 3.6 70 09:18 09.10.2019
514 Clear 20 1014 68 10000 4.1 90 08:39 09.10.2019
515 Clear 20 1014 68 10000 4.1 90 08:21 09.10.2019
516 Clear 20 1014 68 10000 4.6 90 07:48 09.10.2019
517 Clear 20 1013 68 10000 4.6 80 07:27 09.10.2019
518 Clear 20 1013 68 10000 4.6 80 07:27 09.10.2019
519 Clear 21 1016 77 10000 3.1 80 06:59 09.10.2019
520 Clear 20 1013 64 10000 6.2 60 06:41 09.10.2019
521 Clear 21 1013 64 10000 5.7 50 05:53 09.10.2019
522 Clear 21 1013 64 10000 4.6 60 05:19 09.10.2019
523 Clear 21 1014 56 10000 5.1 60 03:54 09.10.2019
524 Clear 21 1013 44 10000 8.2 80 02:42 09.10.2019
525 Clear 21 1014 44 10000 7.2 70 01:42 09.10.2019
526 Clear 21 1014 44 10000 7.2 70 01:19 09.10.2019
527 Clear 21 1014 44 10000 9.3 70 00:56 09.10.2019
528 Clear 21 1014 44 10000 9.3 70 00:37 09.10.2019
529 Clear 21 1014 44 10000 9.3 70 00:19 09.10.2019
530 Clear 21 1014 41 10000 10.3 80 23:39 08.10.2019
531 Clear 22 1014 41 10000 10.3 80 23:18 08.10.2019
532 Clear 22 1014 41 10000 9.3 80 22:56 08.10.2019
533 Clear 22 1014 41 10000 9.8 80 22:37 08.10.2019
534 Clear 22 1014 41 10000 9.8 80 22:18 08.10.2019
535 Clear 22 1013 44 10000 9.8 80 21:56 08.10.2019
536 Clear 22 1014 47 10000 9.8 80 21:37 08.10.2019
537 Clear 22 1014 47 10000 9.8 80 21:18 08.10.2019
538 Clear 22 1014 47 10000 10.3 70 20:55 08.10.2019
539 Clear 22 1013 44 10000 10.3 70 20:37 08.10.2019
540 Clear 22 1013 44 10000 10.3 70 20:18 08.10.2019
541 Clear 23 1014 44 10000 9.8 80 19:54 08.10.2019
542 Clear 23 1014 44 10000 10.3 70 19:36 08.10.2019
543 Clear 23 1014 44 10000 10.3 70 19:36 08.10.2019
544 Clear 23 1014 44 10000 10.3 70 19:18 08.10.2019
545 Clear 24 1014 45 10000 9.8 80 18:41 08.10.2019
546 Clear 24 1014 45 10000 9.8 80 18:23 08.10.2019
547 Clear 24 1014 45 10000 9.3 60 17:57 08.10.2019
548 Clear 24 1014 45 10000 9.3 60 17:39 08.10.2019
549 Clear 24 1014 45 10000 9.3 60 17:18 08.10.2019
550 Clear 24 1014 45 10000 9.3 60 16:55 08.10.2019
551 Clouds 24 1017 78 10000 5.7 90 16:37 08.10.2019
552 Clear 24 1014 45 10000 9.3 60 16:18 08.10.2019
553 Clouds 24 1018 78 10000 5.7 80 15:38 08.10.2019
554 Clear 24 1015 45 10000 8.2 60 15:20 08.10.2019
555 Clouds 24 1019 83 10000 6.2 60 14:55 08.10.2019
556 Clouds 24 1019 83 10000 6.2 60 14:37 08.10.2019
557 Clear 24 1015 48 10000 9.8 60 14:19 08.10.2019
558 Clear 24 1016 45 10000 9.8 60 13:54 08.10.2019
559 Clear 24 1016 45 10000 9.8 60 13:54 08.10.2019
560 Clear 24 1016 51 10000 9.3 60 13:36 08.10.2019
561 Clear 24 1016 51 10000 9.3 60 13:18 08.10.2019
562 Clouds 23 1019 83 10000 5.1 90 12:40 08.10.2019
563 Clear 23 1016 54 10000 9.3 60 12:20 08.10.2019
564 Clear 23 1016 53 10000 8.7 60 11:57 08.10.2019
565 Clouds 23 1019 88 10000 5.1 90 11:38 08.10.2019
566 Clear 23 1016 53 10000 7.7 60 11:20 08.10.2019
567 Haze 21 1019 88 9000 5.7 90 10:42 08.10.2019
568 Haze 21 1016 64 10000 5.1 80 10:22 08.10.2019
569 Haze 21 1016 64 10000 4.6 80 09:58 08.10.2019
570 Haze 21 1018 88 9000 5.1 100 09:40 08.10.2019
571 Haze 21 1018 88 9000 5.1 100 09:40 08.10.2019
572 Haze 20 1015 64 10000 4.6 70 09:21 08.10.2019
573 Clear 20 1015 64 10000 3.1 90 08:45 08.10.2019
574 Clear 20 1015 64 10000 2.1 110 08:25 08.10.2019
575 Clear 20 1015 72 10000 3.1 70 07:47 08.10.2019
576 Clear 20 1015 68 10000 2.1 120 07:23 08.10.2019
577 Clear 20 1015 77 10000 2.1 100 06:57 08.10.2019
578 Clear 20 1015 77 10000 2.6 100 06:36 08.10.2019
579 Clouds 20 1017 88 10000 2.6 90 05:59 08.10.2019
580 Clear 21 1015 68 10000 2.6 80 05:40 08.10.2019
581 Clear 21 1015 68 10000 2.6 80 05:40 08.10.2019
582 Clear 20 1015 72 10000 4.1 60 04:55 08.10.2019
583 Clouds 19 1015 67 8000 2.6 60 03:30 08.10.2019
584 Clouds 19 1015 67 8000 2.6 60 03:30 08.10.2019
585 Clouds 20 1015 67 8000 1 0 02:40 08.10.2019
586 Clouds 21 1016 72 8000 1 0 01:51 08.10.2019
587 Clouds 20 1016 77 8000 1 0 01:32 08.10.2019
588 Clouds 21 1016 72 8000 1 0 00:55 08.10.2019
589 Clouds 21 1016 72 8000 0.5 0 00:22 08.10.2019
590 Clouds 21 1016 72 8000 1 0 23:43 07.10.2019
591 Clear 21 1016 72 10000 1.5 80 23:21 07.10.2019
592 Clear 21 1016 72 10000 1.5 30 22:58 07.10.2019
593 Clear 21 1016 72 10000 1.5 30 22:58 07.10.2019
594 Clouds 21 1016 93 8000 0.5 0 22:40 07.10.2019
595 Clouds 21 1016 93 8000 0.5 0 22:21 07.10.2019
596 Clouds 21 1016 93 8000 0.5 0 22:21 07.10.2019
597 Clouds 22 1016 93 8000 0.5 290 21:58 07.10.2019
598 Mist 22 1015 61 10000 3.1 230 21:40 07.10.2019
599 Mist 22 1016 93 10000 0.5 0 21:20 07.10.2019
600 Fog 22 1015 64 10000 4.1 220 20:58 07.10.2019
601 Fog 22 1015 64 10000 4.1 220 20:39 07.10.2019
602 Fog 23 1016 88 10000 2.1 240 20:21 07.10.2019
603 Mist 24 1014 51 10000 6.7 200 19:58 07.10.2019
604 Mist 24 1014 51 10000 6.7 200 19:40 07.10.2019
605 Mist 24 1016 83 10000 2.6 260 19:20 07.10.2019
606 Mist 24 1016 83 10000 2.6 260 19:20 07.10.2019
607 Fog 25 1014 54 10000 7.7 200 18:58 07.10.2019
608 Clear 25 1014 54 10000 7.7 200 18:38 07.10.2019
609 Clear 25 1014 57 10000 7.2 210 18:18 07.10.2019
610 Clear 25 1016 73 10000 3.1 260 17:43 07.10.2019
611 Clear 25 1016 73 10000 3.1 260 17:43 07.10.2019
612 Clear 25 1016 73 10000 3.6 260 17:23 07.10.2019
613 Clear 25 1015 51 10000 7.2 210 16:58 07.10.2019
614 Clear 25 1015 51 10000 7.2 210 16:58 07.10.2019
615 Clear 25 1015 51 10000 7.2 210 16:39 07.10.2019
616 Clear 25 1016 73 10000 3.6 260 16:20 07.10.2019
617 Clear 26 1015 57 10000 7.2 210 15:45 07.10.2019
618 Clear 26 1017 57 10000 3.6 260 15:26 07.10.2019
619 Clear 26 1017 57 10000 3.6 260 15:26 07.10.2019
620 Clear 26 1017 57 10000 3.6 260 15:26 07.10.2019
621 Clear 27 1017 53 10000 3.6 250 14:56 07.10.2019
622 Clear 27 1015 51 10000 5.1 210 14:38 07.10.2019
623 Clear 26 1017 57 10000 2.6 250 14:20 07.10.2019
624 Clear 25 1016 54 10000 5.1 210 13:43 07.10.2019
625 Clouds 25 1018 69 10000 3.6 250 13:20 07.10.2019
626 Clear 25 1018 64 10000 3.6 240 12:56 07.10.2019
627 Clear 25 1018 64 10000 3.6 240 12:38 07.10.2019
628 Clear 25 1018 64 10000 3.6 240 12:19 07.10.2019
629 Clear 25 1018 64 10000 3.6 240 12:19 07.10.2019
630 Clear 23 1018 60 10000 2.6 210 11:57 07.10.2019
631 Clear 23 1017 44 10000 3.6 240 11:37 07.10.2019
632 Clear 23 1018 56 10000 1 0 11:18 07.10.2019
633 Clear 22 1017 46 10000 3.1 230 10:41 07.10.2019
634 Clear 21 1016 60 10000 3.1 250 10:20 07.10.2019
635 Clear 18 1016 63 10000 3.1 260 09:42 07.10.2019
636 Clear 18 1016 72 10000 4.1 250 09:24 07.10.2019
637 Clear 18 1017 82 10000 2.1 80 08:57 07.10.2019
638 Clouds 18 1017 82 10000 2.1 80 08:39 07.10.2019
639 Clouds 18 1017 82 10000 2.1 80 08:19 07.10.2019
640 Clouds 18 1017 77 10000 1.5 70 07:41 07.10.2019
641 Clouds 19 1017 77 10000 1.5 70 07:23 07.10.2019
642 Clear 19 1016 82 10000 0.5 0 06:54 07.10.2019
643 Clear 19 1016 82 10000 0.5 0 06:34 07.10.2019
644 Clear 19 1017 87 10000 1.5 90 05:47 07.10.2019
645 Clear 19 1017 87 10000 1.5 90 05:22 07.10.2019
646 Clear 20 1017 77 10000 1 30 04:28 07.10.2019
647 Clear 20 1018 77 10000 2.6 90 03:45 07.10.2019
648 Clear 20 1018 77 10000 2.6 90 03:45 07.10.2019
649 Clear 20 1018 77 10000 2.6 90 03:21 07.10.2019
650 Clear 20 1018 77 10000 2.6 90 03:21 07.10.2019
651 Clear 20 1018 77 10000 2.6 80 02:22 07.10.2019
652 Clear 20 1018 77 10000 2.6 80 02:22 07.10.2019
653 Clear 20 1018 77 10000 1 100 01:52 07.10.2019
654 Clear 20 1019 77 10000 1 0 01:21 07.10.2019
655 Clear 20 1019 67 10000 1 0 00:39 07.10.2019
656 Clear 21 1019 67 10000 1 0 00:20 07.10.2019
657 Clouds 21 1019 77 10000 1 0 23:42 06.10.2019
658 Clouds 21 1019 77 10000 1 0 23:42 06.10.2019
659 Clouds 21 1019 77 10000 1 0 23:22 06.10.2019
660 Clouds 21 1018 82 10000 1 0 22:59 06.10.2019
661 Clouds 21 1018 77 10000 0.5 0 22:41 06.10.2019
662 Clouds 21 1018 77 10000 0.5 0 22:22 06.10.2019
663 Clouds 21 1018 88 10000 0.5 0 21:58 06.10.2019
664 Clear 21 1017 73 10000 5.1 220 21:38 06.10.2019
665 Clear 21 1017 73 10000 5.1 220 21:38 06.10.2019
666 Clear 21 1017 73 10000 5.1 220 21:38 06.10.2019
667 Clouds 22 1018 82 10000 0.5 0 21:19 06.10.2019
668 Clouds 22 1018 82 10000 1 0 20:58 06.10.2019
669 Clear 23 1017 64 10000 5.1 220 20:40 06.10.2019
670 Clouds 22 1018 77 10000 3.1 280 20:20 06.10.2019
671 Clouds 22 1018 77 10000 3.1 280 20:20 06.10.2019
672 Clouds 24 1018 73 10000 2.6 290 19:57 06.10.2019
673 Clear 24 1016 61 10000 7.2 200 19:37 06.10.2019
674 Clouds 24 1018 73 10000 3.1 290 19:19 06.10.2019
675 Clouds 24 1018 69 10000 2.6 280 18:56 06.10.2019
676 Clouds 24 1018 69 10000 3.6 270 18:38 06.10.2019
677 Clouds 24 1018 69 10000 3.6 270 18:19 06.10.2019
678 Clouds 24 1018 69 10000 3.1 260 17:57 06.10.2019
679 Clear 24 1016 69 10000 8.2 210 17:38 06.10.2019
680 Clouds 25 1018 69 10000 3.1 270 17:18 06.10.2019
681 Clouds 25 1018 69 10000 3.1 270 17:18 06.10.2019
682 Clear 24 1017 64 10000 8.7 200 16:42 06.10.2019
683 Clouds 24 1019 69 10000 2.6 260 16:23 06.10.2019
684 Clouds 24 1019 73 10000 3.6 250 15:45 06.10.2019
685 Clouds 24 1019 73 10000 3.6 250 15:23 06.10.2019
686 Clouds 25 1020 73 10000 4.6 260 14:59 06.10.2019
687 Clear 25 1018 54 10000 5.1 210 14:41 06.10.2019
688 Clouds 25 1020 73 10000 4.6 260 14:23 06.10.2019
689 Clear 25 1019 69 10000 4.1 240 13:55 06.10.2019
690 Clouds 25 1018 61 10000 3.6 220 13:37 06.10.2019
691 Clear 25 1020 69 10000 4.6 240 13:19 06.10.2019
692 Clear 24 1020 69 10000 4.6 240 12:55 06.10.2019
693 Clear 24 1018 57 10000 4.1 220 12:37 06.10.2019
694 Clear 24 1020 64 10000 2.1 210 12:19 06.10.2019
695 Clouds 23 1018 57 10000 4.1 240 11:43 06.10.2019
696 Clear 22 1019 77 10000 1.5 190 11:24 06.10.2019
697 Clear 22 1019 77 10000 1.5 190 11:24 06.10.2019
698 Clear 21 1019 82 10000 1.5 120 10:58 06.10.2019
699 Clouds 21 1018 64 10000 3.6 230 10:39 06.10.2019
700 Clouds 21 1019 82 6000 1.5 80 10:21 06.10.2019
701 Clouds 19 1017 72 10000 4.1 230 09:41 06.10.2019
702 Clouds 19 1019 93 6000 0.5 0 09:21 06.10.2019
703 Clouds 19 1018 87 6000 2.1 80 08:56 06.10.2019
704 Clouds 19 1018 93 8000 1.5 90 08:38 06.10.2019
705 Clouds 19 1018 93 8000 1.5 90 08:19 06.10.2019
706 Clouds 20 1018 87 9000 3.1 80 07:40 06.10.2019
707 Clouds 20 1018 87 9000 2.6 90 06:59 06.10.2019
708 Clouds 20 1018 87 9000 1 0 05:57 06.10.2019
709 Clouds 20 1018 87 10000 1.5 100 04:44 06.10.2019
710 Clouds 20 1018 87 10000 1.5 100 04:44 06.10.2019
711 Clouds 20 1018 87 10000 1 0 02:56 06.10.2019
712 Clouds 20 1018 77 10000 1 0 02:34 06.10.2019
713 Clear 21 1018 82 10000 1 90 01:50 06.10.2019
714 Clear 21 1018 82 10000 1 0 01:31 06.10.2019
715 Clear 21 1018 82 10000 1 0 01:31 06.10.2019
716 Clear 21 1018 82 10000 1.5 70 00:59 06.10.2019
717 Clear 21 1018 77 10000 1 0 00:38 06.10.2019
718 Clear 21 1018 77 10000 1 0 00:38 06.10.2019
719 Clear 21 1018 77 10000 1 0 00:19 06.10.2019
720 Clear 21 1018 82 10000 1 80 23:42 05.10.2019
721 Clear 21 1018 82 10000 1 80 23:20 05.10.2019
722 Clear 21 1017 72 10000 0.5 0 22:55 05.10.2019
723 Clear 22 1016 60 10000 5.1 240 22:37 05.10.2019
724 Clear 22 1017 77 10000 0.5 0 22:19 05.10.2019
725 Clear 22 1016 60 10000 5.1 260 21:42 05.10.2019
726 Clear 22 1017 82 10000 1.5 270 21:22 05.10.2019
727 Clear 22 1016 82 10000 1.5 0 20:57 05.10.2019
728 Clear 23 1015 57 10000 4.1 250 20:39 05.10.2019
729 Clear 23 1017 77 10000 2.6 290 20:19 05.10.2019
730 Clear 24 1016 77 10000 3.6 290 19:56 05.10.2019
731 Clear 24 1016 73 10000 3.6 280 19:36 05.10.2019
732 Clear 24 1016 73 10000 3.6 280 19:18 05.10.2019
733 Clear 24 1016 73 10000 3.6 290 18:54 05.10.2019
734 Clear 24 1015 57 10000 5.1 270 18:36 05.10.2019
735 Clear 24 1016 73 10000 4.1 290 18:18 05.10.2019
736 Clear 24 1016 73 10000 4.1 290 18:18 05.10.2019
737 Clear 24 1015 57 10000 6.2 270 17:40 05.10.2019
738 Clouds 24 1016 78 10000 4.1 270 17:21 05.10.2019
739 Clouds 24 1017 78 10000 4.6 260 16:55 05.10.2019
740 Clear 24 1015 61 10000 5.1 270 16:36 05.10.2019
741 Clouds 24 1017 69 10000 4.6 270 16:18 05.10.2019
742 Clouds 25 1017 69 10000 3.6 260 15:55 05.10.2019
743 Clouds 25 1017 69 10000 3.6 260 15:55 05.10.2019
744 Clear 25 1015 65 10000 5.7 260 15:36 05.10.2019
745 Clouds 25 1017 69 10000 4.1 260 15:18 05.10.2019
746 Clouds 25 1016 57 10000 5.7 260 14:41 05.10.2019
747 Clouds 25 1017 64 10000 4.1 240 14:20 05.10.2019
748 Clouds 25 1016 61 10000 3.6 240 13:43 05.10.2019
749 Clouds 25 1017 64 10000 3.6 240 13:24 05.10.2019
750 Clouds 24 1016 64 10000 3.6 260 12:57 05.10.2019
751 Clouds 23 1016 64 10000 3.6 260 12:39 05.10.2019
752 Clouds 23 1016 64 10000 3.6 260 12:39 05.10.2019
753 Clouds 23 1016 64 10000 3.6 260 12:39 05.10.2019
754 Clouds 23 1017 73 10000 2.6 200 12:18 05.10.2019
755 Clouds 23 1017 73 10000 2.6 200 12:18 05.10.2019
756 Clear 22 1016 69 10000 3.1 230 11:39 05.10.2019
757 Clouds 22 1017 77 10000 2.1 180 11:19 05.10.2019
758 Clouds 21 1016 77 10000 3.1 220 10:54 05.10.2019
759 Clouds 21 1016 77 10000 3.1 220 10:36 05.10.2019
760 Clouds 21 1017 82 8000 2.1 180 10:18 05.10.2019
761 Clouds 20 1015 82 10000 3.6 240 09:39 05.10.2019
762 Clouds 20 1016 93 6000 1 0 09:20 05.10.2019
763 Clouds 19 1016 87 6000 1 0 08:40 05.10.2019
764 Clouds 19 1016 87 6000 1 0 08:21 05.10.2019
765 Clouds 20 1016 87 6000 2.1 70 07:58 05.10.2019
766 Clouds 20 1016 88 6000 1 0 07:37 05.10.2019
767 Clouds 20 1016 88 6000 1 0 07:19 05.10.2019
768 Clouds 20 1016 82 6000 2.1 90 06:28 05.10.2019
769 Clouds 20 1016 87 6000 2.6 80 05:52 05.10.2019
770 Clouds 20 1016 88 6000 2.1 70 04:33 05.10.2019
771 Clouds 20 1016 88 6000 2.1 90 03:29 05.10.2019
772 Clouds 20 1017 82 5000 0.5 0 01:52 05.10.2019
773 Clouds 20 1017 88 6000 0.5 0 01:23 05.10.2019
774 Clouds 21 1017 88 6000 0.5 0 00:44 05.10.2019
775 Clouds 21 1017 82 6000 1 70 00:25 05.10.2019
776 Clouds 21 1017 82 6000 1 80 23:45 04.10.2019
777 Clouds 21 1017 82 6000 1 80 23:26 04.10.2019
778 Clouds 21 1017 82 6000 1 80 23:26 04.10.2019
779 Clouds 21 1017 82 6000 1 0 22:59 04.10.2019
780 Clouds 21 1017 88 6000 0.5 0 22:39 04.10.2019
781 Clouds 21 1017 88 6000 0.5 0 22:20 04.10.2019
782 Clouds 22 1017 82 6000 1 280 21:57 04.10.2019
783 Clear 22 1016 60 10000 3.6 240 21:39 04.10.2019
784 Clouds 21 1017 82 8000 1 280 21:20 04.10.2019
785 Clouds 22 1017 82 8000 1.5 280 20:56 04.10.2019
786 Clear 22 1015 69 10000 3.6 200 20:38 04.10.2019
787 Clouds 22 1017 83 8000 2.6 280 20:20 04.10.2019
788 Clouds 23 1016 77 10000 2.6 270 19:48 04.10.2019
789 Clear 23 1015 64 10000 1 110 19:29 04.10.2019
790 Clouds 24 1016 68 10000 3.6 280 18:59 04.10.2019
791 Clear 24 1015 57 10000 6.2 200 18:38 04.10.2019
792 Clouds 24 1016 69 10000 3.6 280 18:19 04.10.2019
793 Clouds 24 1017 69 10000 3.1 280 17:55 04.10.2019
794 Clear 24 1015 53 10000 7.2 190 17:36 04.10.2019
795 Clouds 24 1017 73 10000 4.1 260 17:18 04.10.2019
796 Clear 24 1016 57 10000 6.7 190 16:41 04.10.2019
797 Clouds 24 1017 73 10000 3.6 260 16:19 04.10.2019
798 Clear 24 1016 57 10000 6.7 200 15:59 04.10.2019
799 Clear 24 1016 57 10000 6.7 200 15:40 04.10.2019
800 Clouds 24 1018 73 8000 3.6 240 15:21 04.10.2019
801 Clear 24 1017 57 10000 5.7 200 14:59 04.10.2019
802 Clear 24 1017 61 10000 6.2 200 14:41 04.10.2019
803 Clouds 24 1019 73 6000 3.6 240 14:21 04.10.2019
804 Clouds 24 1019 78 8000 3.6 240 13:46 04.10.2019
805 Clouds 24 1019 83 8000 4.6 250 13:25 04.10.2019
806 Clear 24 1018 64 10000 4.1 220 12:59 04.10.2019
807 Mist 24 1018 69 10000 3.6 220 12:40 04.10.2019
808 Mist 24 1019 73 4000 3.6 240 12:22 04.10.2019
809 Clear 22 1018 73 10000 3.1 220 11:43 04.10.2019
810 Clear 22 1018 73 10000 3.1 220 11:43 04.10.2019
811 Clouds 22 1019 88 8000 2.6 200 11:22 04.10.2019
812 Clouds 21 1019 77 8000 2.1 190 10:56 04.10.2019
813 Clear 21 1018 73 10000 3.6 230 10:37 04.10.2019
814 Clouds 20 1018 68 8000 1 0 10:19 04.10.2019
815 Clouds 19 1017 77 10000 3.1 250 09:43 04.10.2019
816 Clouds 19 1018 82 8000 2.1 70 09:25 04.10.2019
817 Clouds 19 1018 82 8000 1.5 80 08:46 04.10.2019
818 Clouds 19 1018 82 8000 1.5 100 08:27 04.10.2019
819 Clouds 19 1018 82 8000 2.6 80 07:48 04.10.2019
820 Clouds 19 1018 82 8000 2.6 90 07:26 04.10.2019
821 Clouds 20 1018 82 6000 2.6 80 06:59 04.10.2019
822 Clouds 19 1018 82 8000 2.6 90 06:40 04.10.2019
823 Clouds 19 1018 82 8000 2.6 90 06:21 04.10.2019
824 Clouds 19 1018 82 8000 2.6 90 06:21 04.10.2019
825 Clouds 20 1018 87 6000 2.6 80 05:21 04.10.2019
826 Clouds 19 1018 87 6000 2.1 100 04:39 04.10.2019
827 Clouds 20 1019 87 6000 1 0 03:28 04.10.2019
828 Clouds 20 1019 87 8000 2.6 100 02:44 04.10.2019
829 Clouds 21 1019 88 6000 1.5 70 01:54 04.10.2019
830 Clouds 20 1019 82 6000 1 0 01:26 04.10.2019
831 Clouds 21 1020 88 8000 2.1 70 00:34 04.10.2019
832 Clear 21 1019 82 10000 0.5 0 23:41 03.10.2019
833 Clear 21 1019 82 10000 0.5 0 23:22 03.10.2019
834 Clear 21 1020 88 10000 0.5 0 22:58 03.10.2019
835 Clear 21 1020 88 10000 0.5 0 22:58 03.10.2019
836 Clouds 21 1019 82 8000 0.5 0 22:39 03.10.2019
837 Clouds 21 1019 82 8000 0.5 0 22:39 03.10.2019
838 Clouds 21 1019 82 8000 0.5 0 22:39 03.10.2019
839 Clouds 22 1019 82 8000 0.5 0 22:21 03.10.2019
840 Clouds 22 1019 82 10000 0.5 0 21:58 03.10.2019
841 Clouds 22 1019 77 10000 2.1 280 21:40 03.10.2019
842 Clouds 22 1019 77 10000 2.1 280 21:20 03.10.2019
843 Clouds 22 1019 82 10000 2.6 270 20:58 03.10.2019
844 Clear 23 1017 53 10000 6.7 260 20:39 03.10.2019
845 Clouds 23 1019 77 10000 3.6 280 20:20 03.10.2019
846 Clear 24 1019 77 10000 4.1 280 19:56 03.10.2019
847 Clear 24 1017 60 10000 8.2 270 19:38 03.10.2019
848 Clear 24 1019 73 10000 4.1 290 19:19 03.10.2019
849 Clear 24 1019 73 10000 5.7 280 18:56 03.10.2019
850 Clear 24 1017 57 10000 7.7 270 18:37 03.10.2019
851 Clear 25 1019 64 10000 4.6 270 18:18 03.10.2019
852 Clear 25 1019 64 10000 4.6 260 17:42 03.10.2019
853 Clear 25 1019 64 10000 4.6 260 17:21 03.10.2019
854 Clear 25 1019 64 10000 5.1 270 16:56 03.10.2019
855 Clouds 25 1018 50 10000 4.6 240 16:37 03.10.2019
856 Clear 25 1020 60 10000 4.1 250 16:19 03.10.2019
857 Clouds 26 1018 54 10000 5.1 220 15:44 03.10.2019
858 Clear 25 1020 60 10000 4.1 240 15:24 03.10.2019
859 Clear 25 1020 60 10000 4.1 240 15:24 03.10.2019
860 Clear 25 1020 60 10000 4.1 230 14:58 03.10.2019
861 Clouds 25 1019 50 10000 4.1 260 14:36 03.10.2019
862 Clouds 25 1019 50 10000 4.1 260 14:36 03.10.2019
863 Clouds 25 1019 50 10000 4.1 260 14:36 03.10.2019
864 Clear 25 1021 57 10000 4.1 230 14:18 03.10.2019
865 Clouds 24 1021 57 10000 4.6 230 13:43 03.10.2019
866 Clouds 24 1021 60 10000 3.6 210 13:24 03.10.2019
867 Clouds 23 1022 60 10000 3.1 0 12:58 03.10.2019
868 Clouds 23 1020 64 10000 6.2 270 12:39 03.10.2019
869 Clouds 23 1020 64 10000 6.2 270 12:39 03.10.2019
870 Clouds 23 1022 64 10000 3.6 200 12:20 03.10.2019
871 Clouds 22 1022 68 10000 3.6 210 11:57 03.10.2019
872 Clouds 22 1020 64 10000 5.1 240 11:39 03.10.2019
873 Clouds 22 1021 72 10000 3.1 190 11:21 03.10.2019
874 Clouds 21 1020 73 10000 4.6 240 10:56 03.10.2019
875 Clouds 21 1020 73 10000 4.6 240 10:38 03.10.2019
876 Clouds 21 1021 82 10000 3.1 180 10:18 03.10.2019
877 Clouds 20 1020 82 10000 2.1 180 09:56 03.10.2019
878 Clouds 20 1020 82 10000 2.6 180 09:37 03.10.2019
879 Clouds 20 1020 82 10000 2.6 180 09:19 03.10.2019
880 Clear 19 1020 82 10000 2.1 170 08:42 03.10.2019
881 Clear 19 1020 82 10000 2.1 170 08:23 03.10.2019
882 Clear 19 1019 88 10000 2.6 170 07:42 03.10.2019
883 Clear 19 1019 88 10000 2.6 170 07:20 03.10.2019
884 Clear 20 1019 88 10000 2.6 180 06:52 03.10.2019
885 Clear 20 1019 88 10000 2.1 170 06:26 03.10.2019
886 Clear 20 1019 82 10000 2.6 170 05:48 03.10.2019
887 Clear 20 1019 82 10000 2.1 170 05:25 03.10.2019
888 Clear 20 1019 82 10000 1.5 170 04:40 03.10.2019
889 Clear 20 1019 82 10000 2.1 170 03:36 03.10.2019
890 Clear 20 1019 82 10000 2.1 170 03:18 03.10.2019
891 Clear 20 1019 82 10000 2.1 170 03:18 03.10.2019
892 Clouds 20 1020 82 10000 2.1 180 02:20 03.10.2019
893 Clear 20 1020 88 10000 1 0 01:37 03.10.2019
894 Clear 21 1020 88 10000 1.5 170 00:52 03.10.2019
895 Clear 21 1020 82 10000 0.5 0 00:31 03.10.2019
896 Clear 21 1020 82 10000 1.5 210 23:44 02.10.2019
897 Clear 21 1020 82 10000 1.5 210 23:24 02.10.2019
898 Clear 21 1019 82 10000 2.1 230 22:57 02.10.2019
899 Clear 21 1019 82 10000 1.5 220 22:38 02.10.2019
900 Clear 21 1019 82 10000 1.5 220 22:18 02.10.2019
901 Clear 22 1017 60 10000 7.2 280 21:55 02.10.2019
902 Clear 22 1017 60 10000 7.2 280 21:54 02.10.2019
903 Clear 22 1017 60 10000 7.2 280 21:54 02.10.2019
904 Clear 22 1017 60 10000 7.2 280 21:54 02.10.2019
905 Clear 22 1017 60 10000 7.2 280 21:54 02.10.2019
906 Clear 22 1017 60 10000 7.2 280 21:36 02.10.2019
907 Clear 22 1019 77 10000 2.1 240 21:18 02.10.2019
908 Clear 22 1019 77 10000 3.1 260 20:54 02.10.2019
909 Clear 22 1019 77 10000 3.6 260 20:36 02.10.2019
910 Clear 22 1019 77 10000 3.6 260 20:18 02.10.2019
911 Clear 23 1019 68 10000 3.6 260 19:42 02.10.2019
912 Clear 23 1019 68 10000 3.6 260 19:21 02.10.2019
913 Clear 24 1017 44 10000 7.7 270 18:57 02.10.2019
914 Clear 24 1017 44 10000 7.7 270 18:38 02.10.2019
915 Clear 24 1018 68 10000 3.1 260 18:20 02.10.2019
916 Clouds 24 1019 64 10000 3.6 290 17:56 02.10.2019
917 Clouds 24 1019 60 10000 3.6 290 17:37 02.10.2019
918 Clouds 24 1019 60 10000 3.6 290 17:19 02.10.2019
919 Clouds 24 1019 60 10000 5.7 300 16:42 02.10.2019
920 Clouds 24 1019 60 10000 5.7 300 16:22 02.10.2019
921 Clouds 24 1018 49 10000 9.3 280 15:59 02.10.2019
922 Clouds 24 1020 64 10000 6.7 300 15:38 02.10.2019
923 Clouds 24 1020 64 10000 6.7 300 15:20 02.10.2019
924 Clouds 24 1017 53 10000 8.2 280 14:57 02.10.2019
925 Clouds 24 1020 60 10000 5.7 280 14:39 02.10.2019
926 Clouds 24 1020 60 10000 5.7 270 14:20 02.10.2019
927 Clouds 24 1020 60 10000 5.7 270 14:20 02.10.2019
928 Clouds 24 1020 60 10000 5.7 270 13:43 02.10.2019
929 Clouds 24 1020 60 10000 5.7 270 13:23 02.10.2019
930 Clouds 24 1020 64 10000 5.7 270 12:57 02.10.2019
931 Clouds 23 1020 64 10000 5.7 270 12:37 02.10.2019
932 Clouds 23 1020 64 10000 5.7 270 12:18 02.10.2019
933 Clouds 23 1020 69 10000 3.6 240 11:44 02.10.2019
934 Clouds 22 1020 83 10000 3.6 230 11:23 02.10.2019
935 Clouds 22 1018 68 10000 4.1 260 10:42 02.10.2019
936 Clouds 21 1019 83 8000 2.6 230 10:20 02.10.2019
937 Clear 21 1017 72 10000 5.1 270 09:58 02.10.2019
938 Clouds 21 1019 88 6000 2.1 210 09:37 02.10.2019
939 Clouds 20 1019 93 6000 2.1 190 09:18 02.10.2019
940 Clouds 21 1019 93 6000 2.1 180 08:43 02.10.2019
941 Clouds 21 1019 93 6000 1.5 180 08:23 02.10.2019
942 Clouds 21 1018 93 6000 2.1 200 07:57 02.10.2019
943 Clouds 21 1018 93 6000 2.1 200 07:38 02.10.2019
944 Clouds 21 1018 88 6000 2.1 200 07:19 02.10.2019
945 Clouds 21 1018 88 6000 1.5 190 06:31 02.10.2019
946 Clouds 21 1018 88 6000 1.5 190 06:31 02.10.2019
947 Clouds 21 1018 88 6000 1.5 190 05:52 02.10.2019
948 Clouds 21 1018 88 6000 2.1 200 05:23 02.10.2019
949 Clouds 21 1018 88 6000 2.6 200 04:43 02.10.2019
950 Clouds 22 1019 88 6000 3.1 190 03:51 02.10.2019
951 Clouds 22 1018 88 10000 3.1 190 02:39 02.10.2019
952 Clouds 22 1019 88 10000 2.1 170 02:21 02.10.2019
953 Clouds 22 1019 88 10000 2.6 190 01:19 02.10.2019
954 Clouds 22 1019 88 10000 2.1 200 00:42 02.10.2019
955 Clouds 22 1018 83 10000 2.6 190 00:23 02.10.2019
956 Clouds 22 1019 83 10000 1.5 180 23:42 01.10.2019
957 Clouds 22 1019 83 10000 1.5 180 23:24 01.10.2019
958 Clouds 22 1018 83 10000 2.1 190 22:58 01.10.2019
959 Clouds 22 1018 83 10000 2.1 190 22:38 01.10.2019
960 Clouds 22 1018 83 10000 2.1 220 22:18 01.10.2019
961 Clouds 23 1018 83 10000 2.1 230 21:44 01.10.2019
962 Clouds 23 1018 83 10000 1.5 230 21:25 01.10.2019
963 Clear 24 1017 78 10000 2.6 230 20:59 01.10.2019
964 Clear 24 1017 78 10000 2.6 230 20:39 01.10.2019
965 Clear 24 1017 78 10000 2.6 230 20:21 01.10.2019
966 Clear 25 1017 73 10000 3.6 230 19:59 01.10.2019
967 Clear 24 1017 73 10000 3.6 230 19:41 01.10.2019
968 Clear 25 1017 69 10000 4.1 250 19:23 01.10.2019
969 Clear 25 1017 69 10000 4.1 250 18:58 01.10.2019
970 Clear 25 1017 69 10000 4.1 250 18:38 01.10.2019
971 Clouds 26 1017 69 10000 4.1 250 18:19 01.10.2019
972 Clouds 26 1017 69 10000 5.1 260 17:55 01.10.2019
973 -273 0 0 0 0 0 17:54 01.10.2019
974 Clouds 26 1017 69 10000 5.1 260 17:36 01.10.2019
975 Clouds 25 1017 69 10000 5.1 260 17:18 01.10.2019
976 Clear 24 1015 69 10000 8.7 200 16:41 01.10.2019
977 Clear 24 1015 69 10000 8.7 200 16:41 01.10.2019
978 Clouds 25 1017 69 10000 4.1 260 16:22 01.10.2019
979 Clear 25 1015 64 10000 9.3 190 15:55 01.10.2019
980 Clouds 25 1018 69 10000 4.1 270 15:37 01.10.2019
981 Clouds 25 1018 69 10000 4.1 270 15:18 01.10.2019
982 -273 0 0 0 0 0 15:18 01.10.2019
983 Clouds 25 1018 73 10000 4.6 260 14:40 01.10.2019
984 Clouds 25 1018 73 10000 4.6 260 14:20 01.10.2019
985 Mist 25 1018 78 10000 4.6 240 13:56 01.10.2019
986 Mist 25 1018 78 10000 4.6 240 13:37 01.10.2019
987 Mist 25 1018 78 10000 5.1 240 13:18 01.10.2019
988 Mist 25 1018 78 10000 5.1 240 13:18 01.10.2019
989 Clouds 25 1018 69 10000 4.1 240 12:55 01.10.2019
990 Clouds 25 1018 69 10000 4.1 240 12:55 01.10.2019
991 Clouds 25 1018 64 10000 3.1 240 12:37 01.10.2019
992 Clouds 25 1018 64 10000 3.1 240 12:18 01.10.2019
993 Clouds 24 1018 69 10000 3.1 250 11:55 01.10.2019
994 Clouds 24 1017 73 10000 3.1 250 11:36 01.10.2019
995 Clouds 24 1017 73 10000 3.1 250 11:36 01.10.2019
996 Clouds 24 1017 73 10000 3.1 250 11:18 01.10.2019
997 Clear 23 1015 49 10000 4.6 220 10:46 01.10.2019
998 Clouds 23 1016 77 6000 1 0 10:27 01.10.2019
999 Clouds 22 1016 68 10000 0.5 0 09:45 01.10.2019
1000 Clouds 21 1016 72 10000 0.5 0 09:26 01.10.2019
1001 Clear 20 1014 64 10000 2.1 270 08:44 01.10.2019
1002 Clear 20 1014 64 10000 2.1 270 08:25 01.10.2019
1003 Clear 19 1015 63 10000 1.5 70 07:53 01.10.2019
1004 Clear 19 1015 63 10000 1.5 100 07:26 01.10.2019
1005 Clear 19 1015 55 10000 2.1 100 06:52 01.10.2019
1006 Clear 19 1013 56 10000 3.1 230 06:25 01.10.2019
1007 Clear 20 1015 63 10000 1.5 120 05:59 01.10.2019
1008 Clear 20 1015 63 10000 1.5 120 05:40 01.10.2019
1009 Clear 20 1015 63 10000 1.5 110 04:42 01.10.2019
1010 Clear 20 1015 55 10000 0.5 0 03:37 01.10.2019
1011 Clear 20 1015 49 10000 0.5 0 02:20 01.10.2019
1012 Clear 20 1015 48 10000 1.5 280 01:55 01.10.2019
1013 Clear 21 1015 45 10000 1 0 00:44 01.10.2019
1014 Clear 21 1015 45 10000 1 0 00:44 01.10.2019
1015 Clear 21 1015 43 10000 1 0 00:25 01.10.2019
1016 Clear 21 1015 37 10000 1.5 50 23:42 30.09.2019
1017 Clear 22 1015 38 10000 1 0 23:22 30.09.2019
1018 Clear 22 1014 37 10000 1 0 22:56 30.09.2019
1019 Clear 22 1014 35 10000 0.5 0 22:37 30.09.2019
1020 Clear 22 1014 35 10000 0.5 0 22:19 30.09.2019
1021 Clear 23 1014 33 10000 1 0 21:55 30.09.2019
1022 Clear 23 1014 33 10000 2.1 350 21:36 30.09.2019
1023 Clear 23 1014 33 10000 2.1 350 21:18 30.09.2019
1024 Clear 23 1014 83 10000 2.1 60 20:54 30.09.2019
1025 Clear 24 1014 24 10000 1 0 20:36 30.09.2019
1026 Clear 24 1014 24 10000 1 0 20:18 30.09.2019
1027 Clear 24 1014 24 10000 1 0 20:18 30.09.2019
1028 Clear 24 1014 24 10000 2.6 330 19:42 30.09.2019
1029 Clear 24 1014 20 10000 2.1 340 19:22 30.09.2019
1030 Clear 25 1014 18 10000 4.6 330 18:59 30.09.2019
1031 Clear 25 1014 18 10000 4.6 330 18:41 30.09.2019
1032 Clear 25 1014 15 10000 4.6 320 18:20 30.09.2019
1033 Clear 26 1015 73 10000 3.1 80 17:56 30.09.2019
1034 Clear 26 1014 15 10000 2.6 320 17:38 30.09.2019
1035 Clear 26 1014 15 10000 2.6 320 17:19 30.09.2019
1036 Clear 27 1015 50 10000 1.5 110 16:54 30.09.2019
1037 Clear 26 1015 14 10000 2.6 0 16:36 30.09.2019
1038 Clear 26 1015 14 10000 2.6 0 16:18 30.09.2019
1039 Clear 26 1015 14 10000 2.6 310 15:39 30.09.2019
1040 Clear 26 1015 15 10000 3.1 280 15:20 30.09.2019
1041 Clear 26 1016 57 10000 2.6 90 14:58 30.09.2019
1042 Clear 25 1016 20 10000 3.1 320 14:38 30.09.2019
1043 Clear 26 1016 22 10000 2.6 260 14:19 30.09.2019
1044 Clouds 26 1017 32 8000 2.1 250 13:59 30.09.2019
1045 Clouds 25 1017 42 8000 1.5 0 13:40 30.09.2019
1046 Clouds 25 1017 42 8000 1.5 0 13:21 30.09.2019
1047 Clear 25 1017 57 10000 1 70 12:44 30.09.2019
1048 Clouds 24 1017 54 8000 2.1 240 12:44 30.09.2019
1049 Clouds 25 1017 42 8000 1 0 12:25 30.09.2019
1050 Clear 22 1017 68 10000 0.5 290 11:59 30.09.2019
1051 Clouds 22 1017 53 8000 1 0 11:40 30.09.2019
1052 Clouds 21 1017 73 8000 2.1 90 11:21 30.09.2019
1053 Clear 19 1017 77 10000 1 250 10:56 30.09.2019
1054 Clouds 19 1017 93 5000 2.6 100 10:37 30.09.2019
1055 Clouds 19 1017 93 5000 2.6 100 10:18 30.09.2019
1056 Fog 18 1017 100 6000 3.6 70 09:40 30.09.2019
1057 Fog 18 1017 100 6000 2.6 90 09:22 30.09.2019
1058 Fog 18 1017 100 500 2.1 100 08:52 30.09.2019
1059 Mist 18 1017 100 1500 1.5 90 08:34 30.09.2019
1060 Fog 18 1017 100 200 1 50 07:59 30.09.2019
1061 Fog 18 1017 100 200 1 50 07:40 30.09.2019
1062 Fog 18 1017 100 150 1 0 07:18 30.09.2019
1063 Fog 19 1017 100 100 1 10 06:42 30.09.2019
1064 Fog 18 1017 100 100 0.5 0 06:23 30.09.2019
1065 Fog 18 1017 100 100 0.5 0 06:23 30.09.2019
1066 Fog 18 1017 100 100 1 0 05:40 30.09.2019
1067 Fog 20 1018 100 350 1 0 02:51 30.09.2019
1068 Fog 20 1018 100 350 1 0 02:20 30.09.2019
1069 Fog 20 1018 100 200 0.5 0 01:24 30.09.2019
1070 Fog 20 1018 100 200 0.5 0 01:24 30.09.2019
1071 Fog 20 1018 93 300 1 80 00:37 30.09.2019
1072 Fog 20 1018 93 300 1 80 00:19 30.09.2019
1073 Fog 20 1018 93 300 1 80 00:19 30.09.2019
1074 Fog 20 1018 93 250 0.5 0 23:42 29.09.2019
1075 Fog 20 1018 93 200 1.5 250 23:21 29.09.2019
1076 Haze 20 1018 88 6000 1 0 22:45 29.09.2019
1077 Haze 20 1018 88 8000 1 0 22:25 29.09.2019
1078 Haze 21 1017 83 9000 1 280 21:59 29.09.2019
1079 Fog 21 1017 88 8000 1.5 240 21:39 29.09.2019
1080 Clouds 21 1017 82 8000 1.5 250 21:20 29.09.2019
1081 Haze 22 1017 77 8000 2.1 270 20:59 29.09.2019
1082 Haze 22 1017 77 8000 2.1 270 20:41 29.09.2019
1083 Haze 22 1017 73 8000 1.5 270 20:19 29.09.2019
1084 Haze 22 1017 73 8000 1.5 270 20:19 29.09.2019
1085 Haze 23 1017 73 8000 1.5 140 19:57 29.09.2019
1086 Haze 23 1017 69 8000 1.5 260 19:37 29.09.2019
1087 Haze 23 1017 69 8000 1.5 260 19:37 29.09.2019
1088 Haze 23 1017 69 8000 1.5 230 19:18 29.09.2019
1089 Haze 23 1017 78 6000 2.1 260 18:55 29.09.2019
1090 Haze 24 1017 78 6000 2.6 260 18:36 29.09.2019
1091 Haze 24 1017 78 6000 2.6 260 18:18 29.09.2019
1092 Haze 24 1017 78 6000 2.6 260 18:18 29.09.2019
1093 -273 0 0 0 0 0 17:55 29.09.2019
1094 Haze 24 1017 73 6000 2.6 270 17:55 29.09.2019
1095 Haze 24 1018 78 6000 2.6 250 17:36 29.09.2019
1096 Haze 24 1018 78 6000 2.6 250 17:18 29.09.2019
1097 Mist 24 1018 69 10000 4.1 110 16:54 29.09.2019
1098 Mist 23 1018 83 8000 2.1 280 16:36 29.09.2019
1099 Mist 23 1018 83 8000 2.1 280 16:18 29.09.2019
1100 Mist 23 1018 78 8000 3.6 260 15:39 29.09.2019
1101 Clouds 24 1019 73 10000 4.1 260 15:19 29.09.2019
1102 Clouds 23 1019 73 10000 4.1 250 14:59 29.09.2019
1103 Clouds 24 1019 73 10000 4.1 250 14:38 29.09.2019
1104 Clear 24 1019 73 10000 4.1 250 14:19 29.09.2019
1105 Clouds 24 1020 73 10000 3.1 60 13:57 29.09.2019
1106 Clear 24 1019 69 10000 3.6 250 13:38 29.09.2019
1107 Clear 23 1019 73 10000 3.6 270 13:18 29.09.2019
1108 Clear 23 1019 73 10000 3.6 270 13:18 29.09.2019
1109 Clear 23 1019 69 10000 2.6 260 12:56 29.09.2019
1110 Clear 23 1019 69 10000 2.6 260 12:38 29.09.2019
1111 Clear 23 1019 57 10000 1.5 180 12:20 29.09.2019
1112 Haze 22 1019 60 10000 1.5 170 11:41 29.09.2019
1113 Haze 22 1018 64 10000 1.5 190 11:20 29.09.2019
1114 Haze 22 1019 88 8000 2.6 50 10:59 29.09.2019
1115 Haze 22 1018 64 10000 1 0 10:40 29.09.2019
1116 Haze 21 1018 68 10000 0.5 0 10:21 29.09.2019
1117 Haze 21 1018 68 10000 0.5 0 10:21 29.09.2019
1118 Haze 21 1018 94 5000 2.1 60 09:59 29.09.2019
1119 Haze 21 1018 73 10000 0.5 0 09:41 29.09.2019
1120 Haze 20 1017 82 10000 2.1 90 09:19 29.09.2019
1121 Haze 20 1018 94 6000 1.5 50 08:43 29.09.2019
1122 Haze 21 1017 77 10000 2.6 80 08:22 29.09.2019
1123 Clear 21 1016 77 10000 3.1 80 07:45 29.09.2019
1124 Clear 21 1016 77 10000 2.6 80 07:27 29.09.2019
1125 Clear 21 1016 72 10000 2.6 90 06:50 29.09.2019
1126 Clear 21 1016 77 10000 3.6 80 06:22 29.09.2019
1127 Clear 21 1016 73 10000 5.1 80 04:52 29.09.2019
1128 Clear 21 1016 73 10000 4.6 70 04:24 29.09.2019
1129 Clear 21 1016 64 10000 3.1 80 02:59 29.09.2019
1130 Clear 21 1016 64 10000 3.6 80 02:19 29.09.2019
1131 Clear 21 1016 64 10000 5.1 50 01:45 29.09.2019
1132 Clear 21 1016 64 10000 5.1 50 01:19 29.09.2019
1133 Clear 21 1016 60 10000 5.1 50 00:40 29.09.2019
1134 Clear 21 1016 60 10000 4.6 60 00:19 29.09.2019
1135 Clear 21 1016 60 10000 4.6 60 00:19 29.09.2019
1136 Clear 21 1016 60 10000 4.6 50 23:38 28.09.2019
1137 Clear 21 1016 60 10000 4.6 50 23:19 28.09.2019
1138 Clear 21 1016 53 10000 5.7 60 22:40 28.09.2019
1139 Clear 21 1016 50 10000 5.7 50 22:22 28.09.2019
1140 Fog 21 1016 47 10000 4.6 60 21:58 28.09.2019
1141 Fog 21 1016 47 10000 4.6 60 21:58 28.09.2019
1142 Fog 21 1016 47 10000 4.6 60 21:40 28.09.2019
1143 Fog 21 1016 50 10000 4.1 80 21:21 28.09.2019
1144 Fog 21 1018 93 1200 2.1 300 20:58 28.09.2019
1145 Fog 21 1018 93 1200 2.1 300 20:58 28.09.2019
1146 Fog 22 1015 50 10000 4.1 70 20:39 28.09.2019
1147 Fog 22 1015 47 10000 4.1 80 20:20 28.09.2019
1148 Fog 23 1018 83 2800 4.6 100 19:56 28.09.2019
1149 Fog 23 1016 37 10000 6.2 30 19:38 28.09.2019
1150 Fog 23 1018 83 2500 4.6 90 19:20 28.09.2019
1151 Fog 24 1015 37 10000 6.2 40 18:57 28.09.2019
1152 Haze 24 1015 37 10000 6.2 40 18:38 28.09.2019
1153 Haze 24 1016 37 10000 7.7 40 18:20 28.09.2019
1154 Haze 24 1016 35 10000 4.6 50 17:55 28.09.2019
1155 Haze 24 1016 35 10000 4.6 50 17:55 28.09.2019
1156 Haze 25 1016 33 10000 4.6 60 17:37 28.09.2019
1157 Haze 25 1016 33 10000 4.6 60 17:18 28.09.2019
1158 Haze 25 1016 26 10000 2.1 260 16:41 28.09.2019
1159 Haze 25 1016 27 10000 3.1 260 16:23 28.09.2019
1160 Haze 25 1016 31 10000 2.1 230 15:41 28.09.2019
1161 Haze 24 1017 33 10000 2.1 260 15:23 28.09.2019
1162 Haze 24 1017 35 10000 2.1 250 14:56 28.09.2019
1163 Haze 24 1017 35 10000 2.1 250 14:38 28.09.2019
1164 Haze 24 1017 35 10000 2.1 250 14:38 28.09.2019
1165 Haze 24 1018 38 10000 2.6 250 14:20 28.09.2019
1166 Clear 24 1018 40 10000 2.1 240 13:56 28.09.2019
1167 Clear 23 1018 45 10000 3.1 250 13:37 28.09.2019
1168 Clear 23 1018 45 10000 3.1 250 13:19 28.09.2019
1169 Clear 23 1018 48 10000 1.5 260 12:40 28.09.2019
1170 Clear 23 1019 54 10000 2.1 260 12:19 28.09.2019
1171 Haze 22 1020 83 8000 3.1 80 11:54 28.09.2019
1172 Haze 22 1019 57 10000 1 0 11:36 28.09.2019
1173 Haze 22 1019 57 10000 1 0 11:18 28.09.2019
1174 Haze 21 1018 64 10000 1 0 10:40 28.09.2019
1175 Haze 20 1018 68 10000 1 120 10:20 28.09.2019
1176 Haze 19 1019 93 4000 2.1 50 09:42 28.09.2019
1177 Haze 18 1018 77 7000 1 60 09:24 28.09.2019
1178 Haze 18 1018 77 5000 1.5 60 08:58 28.09.2019
1179 Haze 19 1018 77 5000 1.5 60 08:40 28.09.2019
1180 Haze 18 1017 82 10000 2.1 70 08:22 28.09.2019
1181 Clear 18 1017 77 10000 2.1 90 07:44 28.09.2019
1182 Clear 18 1017 77 10000 1.5 80 07:21 28.09.2019
1183 Clear 18 1017 77 10000 2.1 70 06:53 28.09.2019
1184 Clear 18 1017 77 10000 1.5 80 06:31 28.09.2019
1185 Clear 19 1017 77 10000 2.1 70 05:43 28.09.2019
1186 Clear 19 1017 72 10000 1 60 05:20 28.09.2019
1187 Clear 19 1017 72 10000 1.5 80 04:38 28.09.2019
1188 Clear 19 1017 67 10000 1.5 70 03:49 28.09.2019
1189 Clear 19 1018 72 10000 2.1 60 03:21 28.09.2019
1190 Clear 19 1018 63 10000 1.5 90 02:44 28.09.2019
1191 Clear 20 1018 63 10000 1 90 02:26 28.09.2019
1192 Clear 20 1018 63 10000 1.5 80 01:47 28.09.2019
1193 Clear 20 1018 59 10000 1 0 01:26 28.09.2019
1194 Clear 20 1018 68 10000 1 60 00:51 28.09.2019
1195 Clear 20 1018 59 10000 1.5 70 00:31 28.09.2019
1196 Clear 20 1018 63 10000 1.5 40 23:55 27.09.2019
1197 Clear 20 1018 63 10000 1.5 70 23:36 27.09.2019
1198 Clear 20 1018 63 10000 1.5 70 23:18 27.09.2019
1199 Haze 21 1018 72 10000 1 0 22:41 27.09.2019
1200 Haze 21 1018 77 10000 1 0 22:19 27.09.2019
1201 Haze 21 1018 77 10000 1 0 22:19 27.09.2019
1202 Haze 21 1018 77 10000 1 0 22:19 27.09.2019
1203 Haze 21 1018 77 10000 1 350 21:55 27.09.2019
1204 Haze 21 1018 73 10000 1.5 0 21:36 27.09.2019
1205 Haze 21 1018 73 10000 1.5 0 21:18 27.09.2019
1206 Clear 22 1017 60 10000 3.6 320 20:43 27.09.2019
1207 Clear 22 1017 64 10000 4.6 320 20:20 27.09.2019
1208 Clear 23 1017 60 10000 5.1 320 19:59 27.09.2019
1209 Clear 24 1017 60 10000 5.1 320 19:41 27.09.2019
1210 Clear 24 1017 60 10000 5.1 320 19:23 27.09.2019
1211 Clear 24 1017 57 10000 4.6 310 18:55 27.09.2019
1212 Clear 24 1017 69 10000 3.1 260 18:37 27.09.2019
1213 Clear 24 1017 69 10000 3.1 260 18:19 27.09.2019
1214 Clear 24 1017 69 10000 3.6 270 17:40 27.09.2019
1215 Clear 24 1017 69 10000 3.6 270 17:40 27.09.2019
1216 Clear 24 1017 65 10000 3.1 260 17:20 27.09.2019
1217 Clear 24 1018 69 10000 3.1 270 16:59 27.09.2019
1218 Clear 23 1018 69 10000 3.1 270 16:41 27.09.2019
1219 Clear 23 1018 73 10000 3.6 260 16:19 27.09.2019
1220 Clear 24 1018 69 10000 3.1 260 15:55 27.09.2019
1221 Clear 23 1018 69 10000 3.1 260 15:37 27.09.2019
1222 Clear 23 1018 73 10000 3.1 270 15:19 27.09.2019
1223 Clear 23 1019 73 10000 3.1 260 14:55 27.09.2019
1224 Clear 23 1019 73 10000 3.1 260 14:37 27.09.2019
1225 Clear 23 1019 78 10000 3.6 260 14:18 27.09.2019
1226 Clear 23 1019 73 10000 3.6 260 13:41 27.09.2019
1227 Clear 23 1019 73 10000 3.6 260 13:21 27.09.2019
1228 Clouds 23 1019 78 10000 3.1 100 12:57 27.09.2019
1229 Clear 23 1019 64 10000 3.6 260 12:38 27.09.2019
1230 Clear 23 1019 57 10000 1.5 0 12:19 27.09.2019
1231 Clear 23 1019 60 10000 0.5 0 11:39 27.09.2019
1232 Clear 22 1019 60 10000 1.5 90 11:21 27.09.2019
1233 Clouds 22 1019 78 10000 2.6 70 10:57 27.09.2019
1234 Clear 22 1019 64 10000 2.1 80 10:38 27.09.2019
1235 Clear 22 1019 64 10000 2.1 80 10:38 27.09.2019
1236 Clear 21 1019 72 10000 2.6 90 10:20 27.09.2019
1237 Clear 20 1018 88 10000 1.5 80 09:42 27.09.2019
1238 Clouds 20 1018 88 10000 1.5 80 09:21 27.09.2019
1239 Clear 20 1018 77 10000 2.1 110 08:57 27.09.2019
1240 Clear 20 1018 77 10000 2.1 110 08:37 27.09.2019
1241 Clear 20 1018 77 10000 2.1 110 08:37 27.09.2019
1242 Clouds 20 1018 77 10000 2.1 110 08:19 27.09.2019
1243 Clouds 20 1018 77 10000 2.1 110 08:19 27.09.2019
1244 Clear 20 1018 77 10000 1.5 60 07:45 27.09.2019
1245 Clear 20 1018 77 10000 1.5 60 07:22 27.09.2019
1246 Clear 20 1017 82 10000 1.5 100 06:42 27.09.2019
1247 Clear 20 1017 82 10000 1.5 100 06:23 27.09.2019
1248 Mist 20 1017 82 10000 0.5 0 05:49 27.09.2019
1249 Mist 20 1017 82 10000 1.5 120 05:31 27.09.2019
1250 Mist 20 1018 77 10000 1.5 110 03:54 27.09.2019
1251 Fog 21 1018 60 10000 2.6 80 01:59 27.09.2019
1252 Fog 21 1018 60 10000 2.6 80 01:36 27.09.2019
1253 Fog 21 1018 68 10000 1 0 00:55 27.09.2019
1254 Fog 21 1018 68 10000 1 0 00:55 27.09.2019
1255 Fog 21 1018 68 10000 1 0 00:19 27.09.2019
1256 Fog 21 1018 68 10000 2.1 10 23:55 26.09.2019
1257 Fog 21 1018 73 10000 2.6 30 23:37 26.09.2019
1258 Fog 21 1018 73 10000 2.6 30 23:37 26.09.2019
1259 Fog 21 1018 73 10000 2.6 30 23:18 26.09.2019
1260 Fog 21 1018 73 10000 2.6 30 23:18 26.09.2019
1261 Fog 21 1018 78 10000 2.1 340 22:55 26.09.2019
1262 Fog 22 1017 73 10000 7.2 40 22:36 26.09.2019
1263 Fog 22 1017 73 10000 7.2 40 22:18 26.09.2019
1264 Clear 22 1016 69 10000 8.7 30 21:54 26.09.2019
1265 Clear 22 1016 60 10000 8.7 30 21:36 26.09.2019
1266 Clear 22 1016 60 10000 8.7 30 21:18 26.09.2019
1267 Clouds 23 1018 88 10000 3.1 40 20:55 26.09.2019
1268 Clear 23 1016 50 10000 7.2 30 20:37 26.09.2019
1269 Clear 23 1016 50 10000 5.7 40 20:19 26.09.2019
1270 Clear 24 1016 47 10000 5.1 40 19:40 26.09.2019
1271 Clear 24 1016 48 10000 6.2 40 19:18 26.09.2019
1272 Clouds 25 1017 83 10000 3.1 90 18:58 26.09.2019
1273 Clear 25 1016 42 10000 6.7 40 18:38 26.09.2019
1274 Clear 25 1016 42 10000 6.7 40 18:38 26.09.2019
1275 Clear 25 1016 42 10000 6.7 40 18:20 26.09.2019
1276 Clear 25 1016 39 10000 6.7 40 17:39 26.09.2019
1277 Clear 25 1016 33 10000 5.7 30 17:19 26.09.2019
1278 Clouds 25 1018 83 10000 5.7 90 16:59 26.09.2019
1279 Clear 25 1016 33 10000 6.2 30 16:39 26.09.2019
1280 Clear 25 1017 35 10000 5.7 30 16:20 26.09.2019
1281 Clouds 25 1018 83 10000 4.1 70 15:57 26.09.2019
1282 Clear 25 1017 31 10000 3.6 30 15:37 26.09.2019
1283 Clear 25 1017 37 10000 1.5 0 15:18 26.09.2019
1284 Clear 25 1017 42 10000 1.5 240 14:42 26.09.2019
1285 Clear 25 1018 45 10000 2.1 220 14:23 26.09.2019
1286 Clear 25 1018 45 10000 2.1 220 14:23 26.09.2019
1287 Clear 24 1018 54 10000 3.1 250 13:58 26.09.2019
1288 Clear 24 1018 54 10000 3.1 250 13:58 26.09.2019
1289 Clear 24 1018 54 10000 3.1 250 13:58 26.09.2019
1290 Clear 24 1018 54 10000 3.1 250 13:40 26.09.2019
1291 Clear 24 1018 54 10000 3.1 250 13:19 26.09.2019
1292 Clear 23 1019 57 10000 3.1 270 12:56 26.09.2019
1293 Clear 23 1019 57 10000 3.1 270 12:38 26.09.2019
1294 Clear 23 1019 57 10000 3.1 270 12:19 26.09.2019
1295 Clear 24 1019 47 10000 1 0 11:42 26.09.2019
1296 Clear 23 1019 57 10000 1 0 11:21 26.09.2019
1297 Clear 23 1019 57 10000 1 0 11:21 26.09.2019
1298 Clear 21 1018 52 10000 1.5 100 10:55 26.09.2019
1299 Clear 21 1018 52 10000 1.5 100 10:37 26.09.2019
1300 Clear 21 1018 52 10000 1.5 100 10:19 26.09.2019
1301 Clear 20 1018 59 10000 2.1 90 09:41 26.09.2019
1302 Clear 19 1018 67 10000 2.6 100 09:23 26.09.2019
1303 Clear 19 1017 72 10000 3.1 80 08:54 26.09.2019
1304 Clear 18 1017 72 10000 2.1 90 08:32 26.09.2019
1305 Clear 19 1017 77 10000 3.1 90 07:59 26.09.2019
1306 Clear 19 1017 77 10000 3.1 90 07:41 26.09.2019
1307 Clear 19 1017 77 10000 2.6 80 07:20 26.09.2019
1308 Clear 19 1017 77 10000 2.6 90 06:43 26.09.2019
1309 Clear 19 1017 77 10000 2.6 90 06:24 26.09.2019
1310 Clear 20 1017 77 10000 3.1 90 05:40 26.09.2019
1311 Clear 20 1017 77 10000 2.6 80 05:21 26.09.2019
1312 Clear 21 1017 82 10000 2.6 80 02:41 26.09.2019
1313 Clear 22 1018 82 10000 1.5 80 01:49 26.09.2019
1314 Clear 22 1018 82 10000 1 50 01:27 26.09.2019
1315 Clear 22 1018 77 10000 0.5 0 00:54 26.09.2019
1316 Clear 22 1018 77 10000 0.5 0 00:36 26.09.2019
1317 Clear 22 1017 77 10000 0.5 0 23:45 25.09.2019
1318 Clear 22 1017 72 10000 1.5 90 23:27 25.09.2019
1319 Clear 23 1017 72 10000 1 90 22:56 25.09.2019
1320 Clear 23 1017 72 10000 1 90 22:56 25.09.2019
1321 Clear 23 1017 72 10000 1 90 22:56 25.09.2019
1322 Clear 23 1017 72 10000 1 90 22:38 25.09.2019
1323 Clear 23 1017 72 10000 0.5 0 22:20 25.09.2019
1324 Clear 23 1017 72 10000 0.5 0 22:20 25.09.2019
1325 Clear 23 1017 68 10000 1.5 300 21:56 25.09.2019
1326 Clear 24 1017 68 10000 1.5 300 21:37 25.09.2019
1327 Clear 24 1017 68 10000 1.5 300 21:18 25.09.2019
1328 Clear 25 1015 47 10000 5.1 240 20:56 25.09.2019
1329 Clear 25 1017 64 10000 2.6 280 20:37 25.09.2019
1330 Clear 25 1017 64 10000 2.6 280 20:19 25.09.2019
1331 Clear 25 1017 64 10000 2.6 280 20:19 25.09.2019
1332 Clear 25 1017 64 10000 4.1 290 19:41 25.09.2019
1333 Clear 25 1017 64 10000 4.1 290 19:41 25.09.2019
1334 Clear 25 1017 64 10000 4.1 290 19:21 25.09.2019
1335 Clear 26 1017 64 10000 5.7 300 18:57 25.09.2019
1336 Clear 26 1017 64 10000 5.7 300 18:39 25.09.2019
1337 Clear 26 1017 64 10000 5.7 300 18:20 25.09.2019
1338 Clear 26 1017 60 10000 4.6 290 17:58 25.09.2019
1339 Clear 27 1017 60 10000 4.6 290 17:36 25.09.2019
1340 Clear 27 1017 60 10000 4.6 290 17:18 25.09.2019
1341 Clear 26 1017 69 10000 4.6 290 16:44 25.09.2019
1342 Clear 26 1018 69 10000 5.1 300 16:25 25.09.2019
1343 Clouds 26 1018 69 10000 5.1 290 15:57 25.09.2019
1344 Clouds 26 1018 69 10000 5.1 290 15:39 25.09.2019
1345 Clouds 26 1018 69 10000 4.6 280 15:20 25.09.2019
1346 Clouds 26 1018 69 10000 4.6 280 15:20 25.09.2019
1347 Clouds 26 1018 69 10000 4.6 280 15:20 25.09.2019
1348 Clear 26 1016 57 10000 5.1 190 14:43 25.09.2019
1349 Clouds 25 1019 69 8000 4.6 270 14:25 25.09.2019
1350 Clouds 25 1019 69 8000 4.1 250 13:58 25.09.2019
1351 Clouds 25 1019 69 8000 4.1 250 13:40 25.09.2019
1352 Clouds 25 1019 73 8000 3.6 230 13:20 25.09.2019
1353 Clouds 24 1019 73 8000 3.1 220 12:57 25.09.2019
1354 Clouds 24 1019 78 8000 3.1 200 12:37 25.09.2019
1355 Clouds 24 1019 78 8000 3.1 200 12:19 25.09.2019
1356 Clouds 23 1019 83 6000 2.6 190 11:41 25.09.2019
1357 Clouds 23 1019 83 6000 2.6 190 11:20 25.09.2019
1358 Clouds 23 1019 82 8000 2.6 200 10:48 25.09.2019
1359 Clouds 23 1018 77 8000 2.1 190 10:27 25.09.2019
1360 Clouds 21 1018 72 8000 2.6 190 09:59 25.09.2019
1361 Clouds 21 1018 72 8000 2.6 190 09:41 25.09.2019
1362 Clouds 21 1018 77 8000 2.1 190 09:23 25.09.2019
1363 Clouds 22 1018 77 8000 2.1 200 08:57 25.09.2019
1364 Clouds 22 1018 77 8000 2.1 200 08:39 25.09.2019
1365 Clouds 22 1018 77 8000 2.1 180 08:19 25.09.2019
1366 Clear 22 1018 82 10000 0.5 0 07:40 25.09.2019
1367 Clear 22 1018 82 10000 0.5 0 07:22 25.09.2019
1368 Clear 22 1018 82 10000 1 0 06:55 25.09.2019
1369 Clear 22 1018 82 10000 0.5 0 06:34 25.09.2019
1370 Clear 22 1018 82 10000 0.5 0 05:43 25.09.2019
1371 Clear 22 1018 77 10000 1.5 80 04:58 25.09.2019
1372 Clear 21 1018 82 10000 2.1 80 02:50 25.09.2019
1373 Clear 22 1019 77 10000 1.5 90 01:29 25.09.2019
1374 Clear 22 1019 72 10000 0.5 0 00:38 25.09.2019
1375 Clear 22 1019 72 10000 0.5 0 00:20 25.09.2019
1376 Clear 23 1019 82 10000 0.5 0 23:42 24.09.2019
1377 Clear 23 1019 82 10000 0.5 0 23:22 24.09.2019
1378 Clear 24 1019 77 10000 0.5 0 22:57 24.09.2019
1379 Clear 23 1019 77 10000 0.5 0 22:38 24.09.2019
1380 Clear 24 1018 77 10000 0.5 0 22:18 24.09.2019
1381 Clear 23 1018 83 10000 1 0 21:55 24.09.2019
1382 Clear 23 1018 78 10000 1.5 290 21:36 24.09.2019
1383 Clear 23 1018 78 10000 1.5 290 21:18 24.09.2019
1384 Clear 24 1018 78 10000 2.6 300 20:55 24.09.2019
1385 Clear 24 1018 78 10000 2.6 300 20:37 24.09.2019
1386 Clear 24 1018 73 10000 2.6 270 20:18 24.09.2019
1387 Clear 25 1018 64 10000 2.6 290 19:42 24.09.2019
1388 Clear 25 1017 57 10000 4.6 300 19:19 24.09.2019
1389 Clear 26 1017 57 10000 5.1 290 18:57 24.09.2019
1390 Clear 26 1017 57 10000 5.1 290 18:57 24.09.2019
1391 Clear 26 1017 57 10000 4.1 290 18:39 24.09.2019
1392 Clear 26 1017 57 10000 4.1 290 18:39 24.09.2019
1393 Clear 26 1017 57 10000 4.1 290 18:20 24.09.2019
1394 Clear 26 1017 57 10000 4.1 290 18:20 24.09.2019
1395 Clear 26 1018 39 10000 4.6 300 17:56 24.09.2019
1396 Clear 26 1018 54 10000 5.7 290 17:37 24.09.2019
1397 Clear 26 1018 54 10000 5.7 290 17:19 24.09.2019
1398 Clear 26 1018 54 10000 5.7 290 16:42 24.09.2019
1399 Clear 26 1018 57 10000 4.6 280 16:21 24.09.2019
1400 Clear 26 1018 50 10000 4.1 280 15:58 24.09.2019
1401 Clear 26 1018 50 10000 4.1 280 15:39 24.09.2019
1402 Clear 25 1018 30 10000 5.1 200 15:21 24.09.2019
1403 Clear 25 1019 57 10000 4.1 270 14:39 24.09.2019
1404 Clear 25 1020 57 10000 4.1 270 14:18 24.09.2019
1405 Clear 25 1020 50 10000 3.1 270 13:45 24.09.2019
1406 Clear 25 1020 53 10000 2.6 280 13:21 24.09.2019
1407 Clear 25 1020 47 10000 1.5 240 12:56 24.09.2019
1408 Clear 24 1020 53 10000 2.6 270 12:36 24.09.2019
1409 Clear 24 1020 53 10000 2.6 270 12:18 24.09.2019
1410 Clear 22 1020 60 10000 2.6 280 11:41 24.09.2019
1411 Clear 22 1020 60 10000 1.5 260 11:21 24.09.2019
1412 Clear 21 1020 60 10000 0.5 0 10:42 24.09.2019
1413 Clear 20 1020 68 10000 0.5 0 10:23 24.09.2019
1414 Clear 19 1020 68 10000 1.5 250 09:59 24.09.2019
1415 Clear 18 1019 72 10000 1 70 09:41 24.09.2019
1416 Clear 18 1019 82 10000 2.1 90 09:20 24.09.2019
1417 Clear 18 1019 82 10000 2.1 90 08:57 24.09.2019
1418 Clear 18 1019 82 10000 2.1 90 08:38 24.09.2019
1419 Clear 18 1018 77 10000 0.5 0 08:19 24.09.2019
1420 Clouds 18 1018 82 10000 2.1 120 07:46 24.09.2019
1421 Clouds 18 1018 87 8000 1 0 07:24 24.09.2019
1422 Clouds 18 1018 87 8000 1 0 06:48 24.09.2019
1423 Clouds 18 1018 87 8000 1.5 100 06:30 24.09.2019
1424 Clouds 18 1018 82 8000 1 70 05:51 24.09.2019
1425 Clouds 18 1018 82 8000 1 0 05:18 24.09.2019
1426 Clouds 19 1019 72 10000 1 120 03:43 24.09.2019
1427 Clear 19 1019 72 10000 0.5 0 02:46 24.09.2019
1428 Clouds 20 1019 72 8000 1 90 01:51 24.09.2019
1429 Clouds 20 1019 68 8000 1 0 00:43 24.09.2019
1430 Clear 21 1019 68 10000 1 110 00:23 24.09.2019
1431 Clear 21 1019 68 10000 1 0 23:56 23.09.2019
1432 Clouds 21 1019 73 10000 2.1 60 23:37 23.09.2019
1433 Clouds 21 1019 73 10000 2.1 60 23:19 23.09.2019
1434 Clear 21 1019 68 10000 2.6 340 22:39 23.09.2019
1435 Clear 22 1019 64 10000 3.1 340 22:20 23.09.2019
1436 Clear 22 1019 64 10000 2.1 360 21:57 23.09.2019
1437 Clear 22 1019 64 10000 2.1 360 21:38 23.09.2019
1438 Clear 22 1019 64 10000 2.1 350 21:19 23.09.2019
1439 Clear 23 1018 64 10000 3.1 330 20:41 23.09.2019
1440 Clear 23 1018 60 10000 4.1 330 20:20 23.09.2019
1441 Clear 24 1018 60 10000 4.1 330 19:58 23.09.2019
1442 Clear 24 1018 60 10000 4.1 330 19:38 23.09.2019
1443 Clear 24 1018 57 10000 4.1 320 19:20 23.09.2019
1444 Clear 24 1018 57 10000 4.1 320 19:20 23.09.2019
1445 Clear 24 1018 57 10000 5.7 320 18:43 23.09.2019
1446 Clear 24 1018 53 10000 6.7 310 18:21 23.09.2019
1447 Clouds 25 1018 54 10000 4.6 200 17:59 23.09.2019
1448 Clear 24 1018 53 10000 5.1 310 17:39 23.09.2019
1449 Clear 25 1019 47 10000 5.1 300 17:21 23.09.2019
1450 Clear 25 1019 57 10000 5.1 300 16:59 23.09.2019
1451 Clear 25 1019 57 10000 5.1 300 16:38 23.09.2019
1452 Clear 25 1019 57 10000 6.2 300 16:19 23.09.2019
1453 Clear 25 1019 53 10000 5.7 290 15:57 23.09.2019
1454 Clear 25 1019 53 10000 5.7 290 15:39 23.09.2019
1455 Clear 25 1019 50 10000 5.7 290 15:19 23.09.2019
1456 Clear 26 1019 47 10000 4.6 290 14:40 23.09.2019
1457 Clear 25 1019 53 10000 5.1 290 14:21 23.09.2019
1458 Clear 25 1020 57 10000 4.6 280 13:59 23.09.2019
1459 Clear 25 1020 57 10000 4.6 280 13:39 23.09.2019
1460 Clear 25 1020 50 10000 3.6 280 13:19 23.09.2019
1461 Clear 24 1019 69 10000 5.7 200 12:56 23.09.2019
1462 Clear 24 1020 57 10000 2.6 270 12:37 23.09.2019
1463 Clear 24 1020 57 10000 2.6 270 12:19 23.09.2019
1464 Clear 23 1020 60 10000 1.5 270 11:44 23.09.2019
1465 Clear 23 1020 68 10000 1 0 11:26 23.09.2019
1466 Clear 21 1019 68 10000 2.1 260 10:55 23.09.2019
1467 Clear 21 1020 82 10000 2.1 80 10:37 23.09.2019
1468 Clear 21 1020 82 10000 2.1 80 10:19 23.09.2019
1469 Clear 20 1019 82 10000 2.1 80 09:40 23.09.2019
1470 Clear 20 1019 87 10000 1.5 60 09:21 23.09.2019
1471 Clear 19 1019 87 10000 2.6 80 08:51 23.09.2019
1472 Clear 19 1019 87 10000 2.6 80 08:33 23.09.2019
1473 Clear 19 1019 87 10000 2.6 80 07:59 23.09.2019
1474 Clear 19 1018 87 10000 2.6 80 07:33 23.09.2019
1475 Clear 20 1018 87 10000 2.6 90 06:44 23.09.2019
1476 Clear 20 1018 87 10000 2.1 80 06:18 23.09.2019
1477 Clear 20 1018 82 10000 0.5 50 05:22 23.09.2019
1478 Clear 19 1018 82 10000 2.6 90 04:55 23.09.2019
1479 Clear 20 1019 82 10000 2.6 80 03:54 23.09.2019
1480 Clouds 21 1019 82 10000 0.5 0 01:22 23.09.2019
1481 Clouds 21 1019 77 10000 2.1 350 00:23 23.09.2019
1482 Clouds 21 1019 77 10000 1 0 23:57 22.09.2019
1483 Clear 21 1019 82 10000 0.5 0 23:33 22.09.2019
1484 Clear 21 1019 82 10000 1 0 22:59 22.09.2019
1485 Clear 21 1019 82 10000 1 0 22:41 22.09.2019
1486 Clear 21 1018 77 10000 1.5 280 22:22 22.09.2019
1487 Clear 21 1018 77 10000 2.1 270 21:55 22.09.2019
1488 Clear 21 1018 77 10000 2.1 270 21:55 22.09.2019
1489 Clear 22 1018 72 10000 2.1 250 21:36 22.09.2019
1490 Clear 22 1018 72 10000 2.1 250 21:18 22.09.2019
1491 Clear 22 1018 68 10000 2.6 260 20:42 22.09.2019
1492 Clear 22 1018 68 10000 3.1 270 20:23 22.09.2019
1493 Clear 23 1018 68 10000 3.1 270 19:55 22.09.2019
1494 Clear 23 1018 68 10000 3.1 270 19:55 22.09.2019
1495 Clouds 23 1018 64 10000 3.1 280 19:37 22.09.2019
1496 Clouds 23 1018 64 10000 3.1 280 19:18 22.09.2019
1497 Clear 23 1018 64 10000 4.6 280 18:42 22.09.2019
1498 Clouds 24 1018 56 10000 4.6 270 18:20 22.09.2019
1499 Clouds 24 1017 53 10000 4.1 270 17:59 22.09.2019
1500 Clouds 23 1017 53 10000 4.1 270 17:41 22.09.2019
1501 Clouds 23 1017 56 10000 3.6 290 17:20 22.09.2019
1502 Clouds 24 1017 60 10000 4.1 290 16:45 22.09.2019
1503 Clouds 24 1017 60 10000 4.6 290 16:27 22.09.2019
1504 Clouds 24 1016 61 10000 5.1 240 15:57 22.09.2019
1505 Clouds 24 1017 64 10000 4.6 290 15:38 22.09.2019
1506 Clouds 23 1017 68 10000 4.6 300 15:19 22.09.2019
1507 Clouds 23 1018 83 5000 4.1 270 14:45 22.09.2019
1508 Clouds 23 1018 88 5000 4.1 260 14:26 22.09.2019
1509 Clouds 24 1017 73 10000 6.2 250 13:59 22.09.2019
1510 Clouds 23 1018 88 5000 3.1 260 13:40 22.09.2019
1511 Clouds 23 1017 88 5000 3.1 270 13:21 22.09.2019
1512 Rain 23 1017 83 10000 5.7 280 12:55 22.09.2019
1513 Rain 24 1017 73 10000 6.2 240 12:36 22.09.2019
1514 Rain 24 1017 73 10000 6.2 240 12:18 22.09.2019
1515 Clouds 23 1017 73 8000 4.1 200 11:41 22.09.2019
1516 Clouds 23 1017 73 8000 4.1 200 11:23 22.09.2019
1517 Clouds 23 1017 73 8000 4.1 200 11:23 22.09.2019
1518 Clouds 22 1017 78 8000 3.1 180 10:45 22.09.2019
1519 Clouds 22 1016 77 8000 3.1 170 10:20 22.09.2019
1520 Clouds 21 1016 77 8000 3.1 180 09:59 22.09.2019
1521 Clouds 21 1016 77 8000 3.1 180 09:40 22.09.2019
1522 Clouds 21 1016 82 8000 2.6 0 09:20 22.09.2019
1523 Clouds 21 1015 82 8000 3.1 170 08:45 22.09.2019
1524 Clouds 21 1015 82 8000 2.6 170 08:25 22.09.2019
1525 Clouds 21 1015 82 8000 2.6 170 07:56 22.09.2019
1526 Clouds 21 1015 82 8000 2.6 170 07:37 22.09.2019
1527 Clouds 21 1015 82 8000 2.6 170 07:18 22.09.2019
1528 Clouds 20 1015 82 8000 2.1 170 06:54 22.09.2019
1529 Clouds 21 1015 77 8000 2.6 170 05:30 22.09.2019
1530 Clouds 22 1015 83 10000 1.5 160 03:33 22.09.2019
1531 Clouds 21 1015 83 10000 1.5 160 02:38 22.09.2019
1532 Clouds 21 1015 83 10000 1.5 160 02:38 22.09.2019
1533 Clouds 21 1015 83 10000 1.5 180 02:18 22.09.2019
1534 Clouds 22 1015 83 10000 2.1 170 01:20 22.09.2019
1535 Clouds 22 1016 83 10000 1.5 190 00:33 22.09.2019
1536 Clouds 22 1015 88 10000 1 0 23:59 21.09.2019
1537 Clouds 22 1015 88 10000 1 0 23:40 21.09.2019
1538 Clouds 22 1015 88 10000 1.5 170 23:19 21.09.2019
1539 Clouds 22 1015 83 10000 1.5 170 22:39 21.09.2019
1540 Clouds 22 1015 88 10000 1.5 200 22:21 21.09.2019
1541 Clouds 22 1014 83 10000 1 0 21:43 21.09.2019
1542 Clouds 22 1014 83 10000 2.1 240 21:20 21.09.2019
1543 Clouds 23 1014 83 10000 3.6 260 20:58 21.09.2019
1544 Clouds 23 1014 83 10000 3.6 260 20:38 21.09.2019
1545 Clouds 23 1014 78 10000 4.1 260 20:19 21.09.2019
1546 Clouds 23 1014 78 10000 4.1 260 20:19 21.09.2019
1547 Clouds 23 1014 83 10000 4.1 260 19:47 21.09.2019
1548 Clouds 23 1014 73 10000 4.1 250 19:23 21.09.2019
1549 Clear 24 1014 73 10000 4.1 260 18:55 21.09.2019
1550 Clear 24 1014 64 10000 3.6 260 18:36 21.09.2019
1551 Clear 24 1014 64 10000 3.6 260 18:18 21.09.2019
1552 Clear 24 1014 60 10000 3.1 250 17:39 21.09.2019
1553 Clear 24 1014 64 10000 3.6 270 17:19 21.09.2019
1554 Clear 24 1014 64 10000 3.1 260 16:43 21.09.2019
1555 Clear 24 1014 64 10000 3.1 270 16:24 21.09.2019
1556 Clear 24 1014 64 10000 3.6 270 15:48 21.09.2019
1557 Clear 24 1014 65 10000 3.1 180 15:25 21.09.2019
1558 Clear 24 1015 57 10000 3.1 270 14:50 21.09.2019
1559 Clear 24 1015 53 10000 3.6 270 14:32 21.09.2019
1560 Clear 23 1015 69 10000 3.6 220 13:58 21.09.2019
1561 Clear 23 1015 57 10000 3.6 260 13:40 21.09.2019
1562 Clear 23 1015 64 10000 3.6 250 13:22 21.09.2019
1563 Clear 24 1015 64 10000 1.5 180 12:56 21.09.2019
1564 Clear 23 1015 64 10000 1.5 0 12:38 21.09.2019
1565 Clear 23 1015 64 10000 1.5 0 12:20 21.09.2019
1566 Clear 22 1015 68 10000 1 0 11:44 21.09.2019
1567 Clouds 22 1015 73 8000 1.5 150 11:24 21.09.2019
1568 Clouds 22 1015 73 8000 1.5 150 11:24 21.09.2019
1569 Clouds 22 1015 82 8000 0.5 0 10:55 21.09.2019
1570 Clouds 22 1015 82 6000 0.5 0 10:36 21.09.2019
1571 Clouds 22 1015 82 6000 0.5 0 10:18 21.09.2019
1572 Clear 22 1014 82 10000 1.5 10 09:40 21.09.2019
1573 Clear 20 1014 82 10000 1.5 10 09:21 21.09.2019
1574 Clouds 20 1013 88 10000 2.6 80 08:52 21.09.2019
1575 Clouds 20 1013 88 10000 2.6 80 08:29 21.09.2019
1576 Clear 20 1013 88 10000 2.6 70 07:42 21.09.2019
1577 Clouds 20 1013 88 10000 2.6 70 07:24 21.09.2019
1578 Clear 20 1014 88 10000 2.6 80 06:58 21.09.2019
1579 Clear 20 1014 88 10000 2.6 80 06:33 21.09.2019
1580 Clouds 20 1014 88 10000 1 0 05:36 21.09.2019
1581 Clouds 20 1014 88 10000 1.5 90 04:36 21.09.2019
1582 Clouds 20 1014 88 10000 0.5 50 03:22 21.09.2019
1583 Clouds 21 1015 88 8000 0.5 0 02:21 21.09.2019
1584 Clouds 21 1015 88 10000 1 0 01:46 21.09.2019
1585 Clear 21 1015 88 10000 1.5 210 00:51 21.09.2019
1586 Clouds 21 1015 88 10000 2.6 200 00:20 21.09.2019
1587 Clouds 21 1015 88 10000 1.5 220 23:46 20.09.2019
1588 Clouds 21 1015 88 9000 1.5 220 23:28 20.09.2019
1589 Clouds 22 1015 77 10000 1.5 210 22:42 20.09.2019
1590 Clouds 22 1015 77 10000 1 210 22:24 20.09.2019
1591 Haze 22 1014 83 10000 1 210 21:57 20.09.2019
1592 Haze 22 1014 83 10000 1 210 21:38 20.09.2019
1593 Haze 23 1014 77 10000 2.1 280 21:20 20.09.2019
1594 Haze 23 1014 73 10000 1.5 290 20:56 20.09.2019
1595 Haze 23 1014 73 10000 3.6 280 20:37 20.09.2019
1596 Haze 23 1014 73 10000 3.6 280 20:18 20.09.2019
1597 Haze 23 1014 73 10000 3.6 270 19:45 20.09.2019
1598 Haze 23 1014 78 8000 3.1 290 19:25 20.09.2019
1599 Haze 23 1014 78 8000 2.6 230 18:58 20.09.2019
1600 Haze 23 1014 78 6000 3.1 280 18:38 20.09.2019
1601 Haze 23 1014 78 6000 3.1 280 18:38 20.09.2019
1602 Haze 23 1014 78 6000 3.1 280 18:38 20.09.2019
1603 Haze 24 1014 78 6000 3.1 280 18:18 20.09.2019
1604 Haze 24 1014 73 6000 3.6 280 17:45 20.09.2019
1605 Haze 24 1014 73 6000 3.6 280 17:45 20.09.2019
1606 Haze 24 1014 73 6000 3.6 280 17:45 20.09.2019
1607 Haze 24 1014 73 6000 3.6 280 17:45 20.09.2019
1608 Haze 24 1014 73 8000 3.1 270 17:26 20.09.2019
1609 Haze 24 1014 78 8000 4.1 270 16:43 20.09.2019
1610 Haze 24 1014 69 8000 4.1 270 16:22 20.09.2019
1611 Haze 24 1014 64 10000 3.6 270 15:59 20.09.2019
1612 Haze 24 1014 64 10000 3.6 270 15:40 20.09.2019
1613 Haze 24 1015 69 10000 3.6 260 15:22 20.09.2019
1614 Clouds 24 1015 78 10000 2.1 90 14:43 20.09.2019
1615 Clouds 25 1015 83 10000 2.6 100 14:19 20.09.2019
1616 -273 0 0 0 0 0 13:55 20.09.2019
1617 Haze 24 1015 73 10000 3.1 250 13:36 20.09.2019
1618 Haze 24 1015 69 8000 3.1 250 13:18 20.09.2019
1619 Haze 24 1015 69 8000 2.6 240 12:37 20.09.2019
1620 Haze 24 1015 69 8000 2.6 240 12:19 20.09.2019
1621 Haze 23 1015 64 8000 1 0 11:50 20.09.2019
1622 Clear 23 1015 73 10000 0.5 0 11:22 20.09.2019
1623 Clouds 22 1015 83 10000 2.6 110 10:57 20.09.2019
1624 Clear 23 1015 68 10000 1.5 70 10:39 20.09.2019
1625 Clear 22 1015 77 10000 2.1 80 10:19 20.09.2019
1626 Mist 21 1015 77 10000 2.6 80 09:38 20.09.2019
1627 Mist 20 1014 82 10000 2.6 80 09:18 20.09.2019
1628 Mist 20 1014 82 10000 2.6 90 08:43 20.09.2019
1629 Mist 20 1014 82 10000 2.6 90 08:43 20.09.2019
1630 Mist 21 1014 82 10000 2.1 70 08:25 20.09.2019
1631 Clear 20 1014 82 10000 1.5 80 07:48 20.09.2019
1632 Clear 20 1014 82 10000 0.5 0 07:28 20.09.2019
1633 Clear 20 1014 82 10000 0.5 0 06:48 20.09.2019
1634 Clear 20 1014 82 10000 1 90 06:30 20.09.2019
1635 Clear 20 1014 82 10000 1 90 06:30 20.09.2019
1636 Clear 21 1014 82 10000 2.1 80 05:58 20.09.2019
1637 Clear 20 1015 77 10000 2.6 80 03:51 20.09.2019
1638 Clear 20 1015 82 10000 0.5 0 03:25 20.09.2019
1639 Clear 21 1015 82 10000 0.5 0 01:45 20.09.2019
1640 Clear 21 1015 77 10000 1.5 290 01:24 20.09.2019
1641 Clear 21 1015 73 10000 1.5 330 00:32 20.09.2019
1642 Clear 22 1015 73 10000 2.6 320 23:46 19.09.2019
1643 Clear 22 1015 64 10000 2.6 320 23:24 19.09.2019
1644 Clear 22 1015 68 10000 3.1 330 22:57 19.09.2019
1645 Clear 22 1015 68 10000 3.1 330 22:38 19.09.2019
1646 Clear 22 1015 68 10000 3.1 330 22:19 19.09.2019
1647 Clear 22 1014 64 10000 3.1 330 21:56 19.09.2019
1648 Clear 22 1014 64 10000 3.1 330 21:37 19.09.2019
1649 Clouds 23 1014 68 10000 2.6 330 21:18 19.09.2019
1650 Clear 23 1014 68 10000 5.1 330 20:43 19.09.2019
1651 Clear 24 1014 68 10000 5.1 330 20:23 19.09.2019
1652 Clear 24 1014 73 10000 5.7 320 19:56 19.09.2019
1653 Clear 24 1014 50 10000 3.1 210 19:38 19.09.2019
1654 Clear 24 1014 69 10000 6.7 310 19:19 19.09.2019
1655 Clear 24 1014 69 10000 6.7 310 19:19 19.09.2019
1656 Clear 24 1014 69 10000 6.7 310 19:19 19.09.2019
1657 Clear 25 1014 57 10000 4.1 210 18:55 19.09.2019
1658 Clear 25 1015 64 10000 5.7 300 18:36 19.09.2019
1659 Clear 25 1015 64 10000 5.7 300 18:18 19.09.2019
1660 Clear 25 1015 64 10000 5.1 290 17:42 19.09.2019
1661 Clear 25 1015 64 10000 5.1 290 17:23 19.09.2019
1662 Clear 26 1015 65 10000 5.1 290 16:57 19.09.2019
1663 Clear 26 1015 65 10000 5.1 290 16:38 19.09.2019
1664 Clear 26 1015 69 10000 4.1 300 16:18 19.09.2019
1665 Clear 26 1016 69 10000 4.6 270 15:39 19.09.2019
1666 Clear 26 1016 69 10000 4.1 290 15:18 19.09.2019
1667 Clear 25 1016 69 10000 4.6 260 14:42 19.09.2019
1668 Clear 25 1016 69 10000 4.1 270 14:23 19.09.2019
1669 Clear 25 1017 69 10000 3.6 260 13:59 19.09.2019
1670 Clear 25 1017 69 10000 3.6 260 13:39 19.09.2019
1671 Clear 25 1017 69 10000 4.1 260 13:19 19.09.2019
1672 Clear 24 1017 64 10000 3.6 260 12:40 19.09.2019
1673 Clear 24 1017 64 10000 3.1 250 12:19 19.09.2019
1674 Clear 23 1017 64 10000 1.5 0 11:56 19.09.2019
1675 Clear 23 1017 69 10000 1 0 11:38 19.09.2019
1676 Clear 23 1017 69 10000 1 0 11:19 19.09.2019
1677 Clear 21 1017 68 10000 1.5 80 10:41 19.09.2019
1678 Clear 20 1017 72 10000 2.6 80 10:22 19.09.2019
1679 Clouds 19 1016 82 10000 3.6 270 09:58 19.09.2019
1680 Clear 19 1016 82 10000 3.1 90 09:40 19.09.2019
1681 Clear 19 1016 82 10000 2.1 90 09:20 19.09.2019
1682 Clear 19 1016 82 10000 2.6 100 08:52 19.09.2019
1683 Clear 19 1016 82 10000 2.6 100 08:27 19.09.2019
1684 Clear 19 1016 82 10000 2.1 80 07:55 19.09.2019
1685 Clear 19 1016 82 10000 2.1 80 07:37 19.09.2019
1686 Clear 19 1016 82 10000 2.1 80 07:18 19.09.2019
1687 Clear 19 1016 82 10000 2.1 70 06:42 19.09.2019
1688 Clear 20 1016 82 10000 2.1 70 06:24 19.09.2019
1689 Clear 20 1016 82 10000 2.1 80 05:50 19.09.2019
1690 Clear 20 1016 88 10000 2.1 80 04:24 19.09.2019
1691 Clear 21 1017 82 10000 2.1 80 03:21 19.09.2019
1692 Clear 21 1017 77 10000 1 50 01:45 19.09.2019
1693 Clear 21 1017 77 10000 1 50 01:20 19.09.2019
1694 Clear 21 1017 72 10000 0.5 0 00:45 19.09.2019
1695 Clear 21 1017 72 10000 0.5 0 00:20 19.09.2019
1696 Clear 22 1017 77 10000 0.5 0 23:38 18.09.2019
1697 Clear 22 1017 77 10000 0.5 0 23:20 18.09.2019
1698 Clear 23 1017 82 10000 0.5 0 22:42 18.09.2019
1699 Clear 23 1017 82 10000 0.5 0 22:42 18.09.2019
1700 Clear 23 1017 82 10000 0.5 0 22:20 18.09.2019
1701 Clear 23 1017 77 10000 2.1 280 21:58 18.09.2019
1702 Clear 23 1017 77 10000 2.1 280 21:40 18.09.2019
1703 Clear 23 1017 77 10000 2.1 280 21:18 18.09.2019
1704 Clear 23 1015 73 10000 7.2 210 20:58 18.09.2019
1705 Clear 24 1016 73 10000 3.1 290 20:39 18.09.2019
1706 Clear 24 1016 73 10000 3.1 290 20:21 18.09.2019
1707 Clear 25 1016 69 10000 4.1 300 19:57 18.09.2019
1708 Clear 25 1016 69 10000 4.1 300 19:57 18.09.2019
1709 Clear 24 1016 69 10000 4.1 300 19:38 18.09.2019
1710 Clear 24 1016 69 10000 4.1 300 19:19 18.09.2019
1711 Clouds 25 1016 64 10000 4.1 290 18:55 18.09.2019
1712 Clouds 25 1016 64 10000 4.1 290 18:37 18.09.2019
1713 Clouds 25 1016 64 10000 4.1 290 18:18 18.09.2019
1714 Clouds 25 1016 64 10000 4.1 290 18:18 18.09.2019
1715 Clouds 26 1015 65 10000 7.2 190 17:56 18.09.2019
1716 Clouds 26 1016 60 10000 4.6 290 17:38 18.09.2019
1717 Clouds 26 1016 60 10000 4.6 290 17:18 18.09.2019
1718 Clouds 26 1016 60 10000 4.6 290 17:18 18.09.2019
1719 Clouds 26 1017 60 10000 5.1 270 16:43 18.09.2019
1720 Clouds 26 1017 60 10000 5.1 270 16:22 18.09.2019
1721 Clouds 26 1017 64 10000 5.1 260 15:59 18.09.2019
1722 Clouds 26 1017 64 10000 5.1 260 15:41 18.09.2019
1723 Clouds 26 1017 64 10000 5.1 260 15:21 18.09.2019
1724 Clouds 26 1017 64 10000 5.1 270 14:59 18.09.2019
1725 Clouds 26 1017 64 10000 5.1 270 14:40 18.09.2019
1726 Clouds 26 1017 64 10000 5.1 270 14:22 18.09.2019
1727 Clouds 26 1017 64 10000 5.1 270 14:22 18.09.2019
1728 Clouds 26 1017 64 10000 5.7 270 13:59 18.09.2019
1729 Clouds 26 1017 64 10000 5.7 270 13:59 18.09.2019
1730 Clouds 26 1017 64 10000 5.7 270 13:38 18.09.2019
1731 Clouds 25 1017 64 10000 5.7 270 13:18 18.09.2019
1732 Clouds 25 1017 69 10000 4.1 260 12:45 18.09.2019
1733 Clouds 24 1017 69 10000 4.1 260 12:27 18.09.2019
1734 Haze 23 1017 73 8000 2.6 270 11:41 18.09.2019
1735 Haze 23 1017 73 8000 2.6 270 11:41 18.09.2019
1736 Haze 23 1017 73 8000 2.6 270 11:41 18.09.2019
1737 Haze 23 1017 73 8000 2.6 270 11:41 18.09.2019
1738 Haze 23 1017 73 8000 2.6 270 11:21 18.09.2019
1739 Haze 24 1017 78 10000 2.1 270 10:58 18.09.2019
1740 Haze 23 1017 78 10000 2.1 270 10:40 18.09.2019
1741 Haze 23 1017 78 10000 2.1 270 10:20 18.09.2019
1742 Haze 23 1016 83 8000 2.1 260 09:58 18.09.2019
1743 Haze 23 1016 83 8000 2.1 260 09:37 18.09.2019
1744 Haze 23 1016 83 8000 2.1 260 09:37 18.09.2019
1745 Haze 22 1016 83 8000 2.1 260 09:19 18.09.2019
1746 Haze 21 1016 83 8000 1.5 260 08:41 18.09.2019
1747 Haze 21 1015 83 8000 2.1 260 08:23 18.09.2019
1748 Haze 21 1015 83 8000 1.5 260 07:52 18.09.2019
1749 Haze 21 1015 78 8000 1.5 310 07:33 18.09.2019
1750 Haze 21 1015 73 8000 1.5 320 06:55 18.09.2019
1751 Haze 21 1015 77 8000 2.6 310 06:31 18.09.2019
1752 Clouds 22 1015 78 6000 3.1 310 05:41 18.09.2019
1753 Clouds 22 1015 78 8000 2.1 320 04:42 18.09.2019
1754 Clouds 22 1015 83 6000 1.5 360 02:41 18.09.2019
1755 Clouds 23 1015 83 6000 2.1 330 01:54 18.09.2019
1756 Clouds 22 1015 83 10000 1.5 360 01:18 18.09.2019
1757 Clear 22 1015 88 10000 0.5 0 00:42 18.09.2019
1758 Clear 22 1015 88 10000 0.5 0 00:19 18.09.2019
1759 Clear 22 1015 88 8000 1 230 23:42 17.09.2019
1760 Clear 22 1015 83 8000 2.1 270 23:22 17.09.2019
1761 Clear 24 1014 69 10000 1 0 22:42 17.09.2019
1762 Clear 24 1014 69 10000 1 0 22:24 17.09.2019
1763 Clear 24 1013 73 10000 3.1 50 21:55 17.09.2019
1764 Clear 24 1013 73 10000 3.1 50 21:37 17.09.2019
1765 Clear 25 1013 73 10000 3.1 50 21:18 17.09.2019
1766 Clear 25 1013 73 10000 3.1 50 21:18 17.09.2019
1767 Haze 26 1013 65 10000 5.7 40 20:57 17.09.2019
1768 Haze 26 1013 65 10000 5.7 40 20:39 17.09.2019
1769 Haze 26 1013 65 10000 5.7 40 20:21 17.09.2019
1770 Haze 26 1013 65 10000 5.7 40 20:21 17.09.2019
1771 Haze 26 1013 65 10000 5.7 40 20:21 17.09.2019
1772 Haze 26 1013 61 10000 5.7 40 19:58 17.09.2019
1773 Haze 26 1013 61 10000 5.7 40 19:39 17.09.2019
1774 Haze 26 1013 61 10000 5.7 40 19:39 17.09.2019
1775 Haze 26 1013 61 10000 5.7 40 19:19 17.09.2019
1776 Haze 26 1013 61 10000 5.7 40 19:19 17.09.2019
1777 Haze 26 1013 61 10000 7.2 30 18:55 17.09.2019
1778 Haze 26 1013 61 10000 7.2 30 18:55 17.09.2019
1779 Haze 26 1013 61 10000 7.2 30 18:36 17.09.2019
1780 Haze 26 1013 61 10000 7.2 30 18:18 17.09.2019
1781 Haze 26 1014 61 10000 7.2 30 17:44 17.09.2019
1782 Haze 26 1014 61 10000 7.2 30 17:19 17.09.2019
1783 Haze 26 1014 61 10000 7.2 30 17:19 17.09.2019
1784 Haze 26 1014 58 10000 5.7 40 16:56 17.09.2019
1785 Clear 26 1014 58 10000 5.7 40 16:37 17.09.2019
1786 Clear 26 1014 58 10000 5.7 40 16:19 17.09.2019
1787 Clear 26 1014 57 10000 3.1 250 15:39 17.09.2019
1788 Clear 26 1014 57 10000 3.1 250 15:19 17.09.2019
1789 Rain 26 1016 78 8000 4.1 90 14:56 17.09.2019
1790 Haze 25 1015 65 10000 4.6 240 14:37 17.09.2019
1791 Haze 25 1015 65 10000 4.6 240 14:19 17.09.2019
1792 Haze 26 1015 57 10000 4.1 250 13:43 17.09.2019
1793 Haze 26 1015 57 10000 2.1 240 13:25 17.09.2019
1794 Haze 26 1015 57 10000 2.1 240 13:25 17.09.2019
1795 Haze 25 1015 61 10000 2.1 250 12:56 17.09.2019
1796 Haze 25 1015 57 10000 2.1 120 12:37 17.09.2019
1797 Haze 25 1015 57 10000 2.1 120 12:18 17.09.2019
1798 Haze 25 1015 57 10000 2.1 120 12:18 17.09.2019
1799 Haze 24 1015 57 10000 2.6 80 11:42 17.09.2019
1800 Haze 24 1015 65 10000 2.1 100 11:24 17.09.2019
1801 Haze 22 1015 73 10000 2.1 100 10:56 17.09.2019
1802 Haze 22 1015 73 10000 2.1 100 10:37 17.09.2019
1803 Haze 22 1015 73 10000 2.1 100 10:19 17.09.2019
1804 Haze 22 1015 73 10000 2.6 90 09:41 17.09.2019
1805 Haze 21 1015 82 10000 3.1 80 09:21 17.09.2019
1806 Haze 21 1015 82 10000 2.6 90 08:51 17.09.2019
1807 Haze 21 1016 88 7000 3.6 100 08:33 17.09.2019
1808 Haze 21 1014 82 10000 2.1 90 07:59 17.09.2019
1809 Haze 21 1014 82 10000 2.1 90 07:39 17.09.2019
1810 Haze 21 1014 82 10000 2.1 90 07:21 17.09.2019
1811 Clear 21 1014 77 10000 1 0 06:47 17.09.2019
1812 Clear 21 1014 77 10000 1 0 06:23 17.09.2019
1813 Clear 22 1014 77 10000 2.6 110 05:47 17.09.2019
1814 Clear 21 1015 73 10000 2.6 120 04:31 17.09.2019
1815 Clear 21 1016 73 10000 2.6 50 02:57 17.09.2019
1816 Clear 21 1016 73 10000 2.6 50 02:38 17.09.2019
1817 Clear 21 1016 73 10000 2.6 50 02:38 17.09.2019
1818 Clear 21 1017 77 10000 1.5 50 01:26 17.09.2019
1819 Clear 21 1016 77 10000 2.1 100 00:40 17.09.2019
1820 Clear 21 1016 77 10000 2.6 70 23:40 16.09.2019
1821 Clear 21 1016 77 10000 1 0 23:19 16.09.2019
1822 Clear 21 1016 77 10000 1 0 22:56 16.09.2019
1823 Clear 21 1016 77 10000 1 0 22:56 16.09.2019
1824 Clear 22 1016 78 10000 2.6 60 22:37 16.09.2019
1825 Clear 22 1016 78 10000 2.6 60 22:19 16.09.2019
1826 Haze 22 1016 73 10000 4.1 20 21:41 16.09.2019
1827 Haze 23 1016 73 10000 4.1 20 21:22 16.09.2019
1828 Clear 23 1016 73 10000 3.1 20 20:59 16.09.2019
1829 Clear 23 1016 73 10000 3.1 20 20:40 16.09.2019
1830 Clear 23 1016 73 10000 3.1 20 20:40 16.09.2019
1831 Clear 24 1016 64 10000 2.1 30 20:20 16.09.2019
1832 Clear 23 1016 64 10000 2.6 10 19:57 16.09.2019
1833 Clear 23 1016 64 10000 2.6 10 19:38 16.09.2019
1834 Clear 24 1016 57 10000 2.6 10 19:18 16.09.2019
1835 Clear 24 1016 64 10000 5.1 320 18:45 16.09.2019
1836 Clear 24 1016 61 10000 6.2 310 18:27 16.09.2019
1837 Clear 25 1017 69 10000 5.1 260 17:57 16.09.2019
1838 Clouds 25 1017 69 10000 5.1 260 17:38 16.09.2019
1839 Clouds 25 1017 69 10000 5.1 260 17:19 16.09.2019
1840 Clouds 25 1017 65 10000 5.7 270 16:44 16.09.2019
1841 Clouds 25 1017 65 10000 5.1 270 16:22 16.09.2019
1842 Clouds 25 1017 57 10000 4.6 280 15:57 16.09.2019
1843 Clouds 25 1017 57 10000 4.6 280 15:39 16.09.2019
1844 Clouds 25 1018 61 10000 4.1 280 15:20 16.09.2019
1845 Clouds 24 1018 60 10000 4.6 270 14:58 16.09.2019
1846 Clouds 24 1018 60 10000 4.6 270 14:40 16.09.2019
1847 Clouds 24 1018 69 10000 4.6 270 14:20 16.09.2019
1848 Mist 23 1019 69 10000 4.1 270 13:43 16.09.2019
1849 Haze 22 1019 77 8000 4.1 270 13:22 16.09.2019
1850 Haze 21 1019 77 8000 4.1 270 12:57 16.09.2019
1851 Haze 21 1019 77 8000 4.1 270 12:39 16.09.2019
1852 Haze 21 1019 77 8000 3.6 260 12:21 16.09.2019
1853 Haze 20 1019 93 8000 2.1 270 11:45 16.09.2019
1854 Haze 20 1019 93 8000 2.1 270 11:23 16.09.2019
1855 Haze 19 1019 93 500 1 0 10:56 16.09.2019
1856 Haze 21 1019 93 200 1 0 10:37 16.09.2019
1857 Haze 21 1019 93 200 1 0 10:18 16.09.2019
1858 Haze 21 1018 93 250 1 0 09:42 16.09.2019
1859 Haze 19 1018 93 200 1 0 09:21 16.09.2019
1860 Haze 19 1018 93 200 1 0 09:21 16.09.2019
1861 Haze 19 1018 88 300 1 0 08:55 16.09.2019
1862 Haze 19 1018 88 7000 1 0 08:35 16.09.2019
1863 Fog 19 1018 88 10000 1.5 80 07:59 16.09.2019
1864 Fog 19 1018 88 10000 1.5 80 07:41 16.09.2019
1865 Fog 19 1018 88 10000 1.5 80 07:21 16.09.2019
1866 Fog 19 1018 88 9000 1 0 06:51 16.09.2019
1867 Fog 19 1018 88 9000 1 0 06:50 16.09.2019
1868 Fog 19 1018 88 9000 1 0 06:32 16.09.2019
1869 Fog 19 1018 88 8000 1 90 05:58 16.09.2019
1870 Fog 19 1018 88 8000 1 90 05:39 16.09.2019
1871 Fog 19 1018 77 10000 2.6 260 05:18 16.09.2019
1872 Fog 19 1019 82 8000 1.5 70 03:35 16.09.2019
1873 Fog 20 1019 88 10000 0.5 0 00:58 16.09.2019
1874 Fog 20 1019 88 10000 0.5 0 00:58 16.09.2019
1875 Fog 20 1019 88 10000 0.5 0 00:37 16.09.2019
1876 Fog 20 1019 88 10000 0.5 0 00:19 16.09.2019
1877 Fog 21 1019 82 10000 1 290 23:39 15.09.2019
1878 Fog 21 1019 82 10000 1 290 23:20 15.09.2019
1879 Fog 21 1018 88 10000 0.5 0 22:39 15.09.2019
1880 Fog 21 1018 88 10000 0.5 0 22:20 15.09.2019
1881 Fog 22 1018 88 10000 1 0 21:57 15.09.2019
1882 Fog 22 1018 88 10000 1 0 21:38 15.09.2019
1883 Fog 22 1018 83 10000 1.5 240 21:20 15.09.2019
1884 Mist 23 1017 83 10000 2.1 250 20:46 15.09.2019
1885 Mist 23 1017 78 10000 2.6 270 20:27 15.09.2019
1886 Clear 24 1017 78 10000 2.6 270 19:58 15.09.2019
1887 Clear 24 1017 78 10000 2.6 270 19:40 15.09.2019
1888 Clear 25 1017 69 10000 2.6 270 19:22 15.09.2019
1889 Clear 25 1017 69 10000 2.6 290 18:40 15.09.2019
1890 Clear 25 1017 69 10000 3.1 260 18:22 15.09.2019
1891 Clear 25 1017 64 10000 3.1 280 17:43 15.09.2019
1892 Clear 25 1017 64 10000 3.1 280 17:23 15.09.2019
1893 Clear 25 1018 64 10000 3.1 270 16:59 15.09.2019
1894 Clear 25 1018 64 10000 3.1 270 16:41 15.09.2019
1895 Clear 25 1018 64 10000 3.1 270 16:22 15.09.2019
1896 Clear 25 1018 64 10000 3.1 270 15:57 15.09.2019
1897 Clear 25 1018 64 10000 3.1 270 15:38 15.09.2019
1898 Clear 25 1018 64 10000 4.1 260 15:19 15.09.2019
1899 Clear 25 1018 64 10000 4.1 260 15:19 15.09.2019
1900 Clouds 24 1018 69 10000 4.6 200 14:55 15.09.2019
1901 Clouds 24 1018 69 10000 4.6 200 14:55 15.09.2019
1902 Clouds 24 1018 69 10000 4.6 200 14:55 15.09.2019
1903 Clear 24 1019 64 10000 4.1 260 14:37 15.09.2019
1904 Clear 24 1019 64 10000 4.1 260 14:19 15.09.2019
1905 Clouds 25 1019 64 10000 3.6 260 13:43 15.09.2019
1906 Clouds 25 1019 69 10000 4.1 280 13:22 15.09.2019
1907 Clouds 25 1019 69 10000 4.1 280 13:22 15.09.2019
1908 Haze 24 1019 69 10000 4.1 280 12:43 15.09.2019
1909 Haze 24 1019 69 10000 3.6 260 12:24 15.09.2019
1910 Mist 24 1018 94 5000 1 160 11:58 15.09.2019
1911 Rain 23 1018 64 10000 2.1 200 11:40 15.09.2019
1912 Rain 23 1018 69 10000 2.1 190 11:20 15.09.2019
1913 Mist 22 1018 73 6000 2.1 170 10:42 15.09.2019
1914 Mist 22 1018 77 6000 2.1 190 10:22 15.09.2019
1915 Mist 21 1018 82 5000 1.5 180 09:58 15.09.2019
1916 Mist 21 1018 88 5000 1 0 09:37 15.09.2019
1917 Mist 21 1018 88 5000 1 0 09:19 15.09.2019
1918 Rain 21 1018 93 4000 1 0 08:45 15.09.2019
1919 Rain 21 1018 93 4000 1 240 08:26 15.09.2019
1920 Haze 21 1017 93 4000 1.73 258.417 07:48 15.09.2019
1921 Haze 20 1017 93 4000 0.5 0 07:25 15.09.2019
1922 Haze 20 1017 93 4000 1 210 06:39 15.09.2019
1923 Fog 21 1017 93 50 1 0 03:25 15.09.2019
1924 Mist 21 1017 88 3000 2.1 260 02:32 15.09.2019
1925 Mist 21 1017 88 4000 1.5 210 01:39 15.09.2019
1926 Mist 21 1017 77 10000 2.6 270 00:58 15.09.2019
1927 Mist 21 1017 77 10000 2.6 270 00:39 15.09.2019
1928 Mist 22 1017 64 10000 1 0 00:20 15.09.2019
1929 Mist 23 1017 60 10000 2.6 90 23:57 14.09.2019
1930 Mist 23 1017 60 10000 0.5 0 23:39 14.09.2019
1931 Mist 23 1017 60 10000 0.5 0 23:39 14.09.2019
1932 Mist 23 1017 60 10000 0.5 0 23:19 14.09.2019
1933 Mist 22 1017 60 10000 1.5 350 22:58 14.09.2019
1934 Mist 22 1017 60 10000 1.5 350 22:38 14.09.2019
1935 Mist 22 1016 60 10000 1.5 330 22:19 14.09.2019
1936 Mist 22 1016 56 10000 1.5 310 21:40 14.09.2019
1937 Mist 22 1016 56 10000 1.5 310 21:40 14.09.2019
1938 Mist 22 1016 73 10000 1.5 310 21:21 14.09.2019
1939 Mist 23 1015 69 10000 2.1 290 20:59 14.09.2019
1940 Mist 23 1015 69 10000 2.1 290 20:40 14.09.2019
1941 Mist 23 1015 64 10000 3.1 270 20:22 14.09.2019
1942 Mist 24 1015 61 10000 2.6 240 19:51 14.09.2019
1943 Mist 24 1015 61 10000 3.1 240 19:23 14.09.2019
1944 Mist 25 1015 57 10000 2.6 240 18:58 14.09.2019
1945 Mist 25 1015 51 10000 3.1 230 18:39 14.09.2019
1946 Mist 25 1015 51 10000 3.1 230 18:20 14.09.2019
1947 Mist 26 1015 32 10000 3.1 230 17:45 14.09.2019
1948 Mist 26 1015 32 10000 4.1 240 17:25 14.09.2019
1949 Mist 25 1015 47 10000 3.6 230 16:59 14.09.2019
1950 Mist 25 1015 47 10000 3.6 230 16:40 14.09.2019
1951 Mist 25 1015 54 10000 3.6 240 16:19 14.09.2019
1952 Mist 25 1015 54 10000 3.6 240 16:19 14.09.2019
1953 -273 0 0 0 0 0 15:42 14.09.2019
1954 Mist 26 1015 45 10000 4.6 240 15:23 14.09.2019
1955 Clouds 25 1015 51 10000 4.1 260 14:58 14.09.2019
1956 Clouds 25 1016 61 10000 3.6 270 14:39 14.09.2019
1957 Clouds 25 1016 61 10000 3.6 270 14:39 14.09.2019
1958 Clouds 25 1016 61 10000 3.6 270 14:18 14.09.2019
1959 Clouds 24 1016 61 10000 3.1 250 13:46 14.09.2019
1960 Clouds 25 1016 54 10000 5.7 70 13:21 14.09.2019
1961 Clouds 25 1016 54 10000 6.7 80 12:46 14.09.2019
1962 Clouds 24 1016 57 10000 6.7 70 12:23 14.09.2019
1963 Clouds 24 1016 61 10000 6.2 70 11:41 14.09.2019
1964 Clouds 24 1016 57 10000 6.2 80 11:20 14.09.2019
1965 Clouds 23 1016 65 10000 4.1 100 10:40 14.09.2019
1966 Clear 22 1016 69 10000 3.1 100 10:22 14.09.2019
1967 Clear 22 1016 78 10000 3.1 100 09:59 14.09.2019
1968 Rain 22 1016 78 10000 3.1 100 09:40 14.09.2019
1969 Rain 21 1016 77 10000 2.6 80 09:21 14.09.2019
1970 Rain 21 1016 77 10000 2.6 80 09:21 14.09.2019
1971 Clear 21 1016 77 10000 2.1 80 08:56 14.09.2019
1972 Clear 21 1016 77 10000 2.1 80 08:56 14.09.2019
1973 Clear 21 1016 77 10000 2.1 80 08:37 14.09.2019
1974 Clear 21 1016 77 10000 2.1 80 08:18 14.09.2019
1975 Rain 21 1015 73 0 11.77 92.923 07:42 14.09.2019
1976 Clear 21 1015 73 10000 11.77 92.923 07:20 14.09.2019
1977 Clear 22 1015 68 10000 2.1 70 06:32 14.09.2019
1978 Clear 21 1015 68 10000 8.24 99.78 05:43 14.09.2019
1979 Clear 22 1015 64 10000 8.24 99.78 03:59 14.09.2019
1980 Clear 22 1016 60 10000 6.2 90 02:57 14.09.2019
1981 Clear 22 1016 60 10000 6.2 90 02:57 14.09.2019
1982 Clear 22 1016 60 10000 6.2 90 02:30 14.09.2019
1983 Clear 22 1016 60 10000 6.2 70 01:44 14.09.2019
1984 Clear 22 1016 60 10000 6.2 70 01:19 14.09.2019
1985 Clear 22 1016 64 10000 8.7 70 00:40 14.09.2019
1986 Clear 22 1016 64 10000 8.7 70 00:21 14.09.2019
1987 Clear 23 1016 57 10000 9.3 70 23:55 13.09.2019
1988 Clear 22 1016 64 10000 9.3 70 23:36 13.09.2019
1989 Clear 22 1016 64 10000 9.3 70 23:18 13.09.2019
1990 Clouds 22 1016 64 10000 8.7 80 22:39 13.09.2019
1991 Clouds 22 1016 64 10000 8.7 80 22:21 13.09.2019
1992 Clouds 22 1016 64 10000 9.3 80 21:56 13.09.2019
1993 Clouds 22 1016 64 10000 9.3 80 21:38 13.09.2019
1994 Clouds 22 1015 60 10000 8.7 80 21:19 13.09.2019
1995 Clouds 23 1018 83 10000 3.6 70 20:57 13.09.2019
1996 Clouds 23 1015 53 10000 10.3 70 20:36 13.09.2019
1997 Clouds 23 1015 53 10000 10.3 70 20:18 13.09.2019
1998 Clouds 23 1015 53 10000 10.8 80 19:43 13.09.2019
1999 Clouds 23 1015 50 10000 10.3 80 19:22 13.09.2019
2000 Clouds 23 1017 78 10000 4.1 70 18:58 13.09.2019
2001 Clouds 25 1015 47 10000 10.3 90 18:37 13.09.2019
2002 Clouds 25 1015 47 10000 10.3 90 18:19 13.09.2019
2003 Clouds 25 1015 47 10000 10.3 70 17:43 13.09.2019
2004 Clouds 25 1015 47 10000 10.8 80 17:20 13.09.2019
2005 Clouds 25 1015 47 10000 10.8 70 16:55 13.09.2019
2006 -273 0 0 0 0 0 16:55 13.09.2019
2007 Clouds 26 1015 47 10000 11.3 70 16:37 13.09.2019
2008 Clouds 25 1015 47 10000 11.3 70 16:18 13.09.2019
2009 Clouds 25 1015 47 10000 11.3 70 16:18 13.09.2019
2010 Clouds 25 1015 47 10000 9.73 84.616 15:40 13.09.2019
2011 Clouds 25 1016 42 10000 9.8 80 15:21 13.09.2019
2012 Clouds 25 1016 44 10000 10.8 80 14:44 13.09.2019
2013 Clouds 25 1016 44 10000 10.8 80 14:23 13.09.2019
2014 Clouds 25 1018 83 10000 4.1 100 13:59 13.09.2019
2015 Clouds 25 1016 44 10000 11.3 80 13:40 13.09.2019
2016 Clouds 25 1016 44 10000 11.3 80 13:21 13.09.2019
2017 Clouds 24 1016 47 10000 11.3 90 12:44 13.09.2019
2018 Clouds 23 1016 47 10000 11.3 70 12:24 13.09.2019
2019 Clouds 23 1016 47 10000 9.8 90 11:57 13.09.2019
2020 Clouds 23 1016 47 10000 8.2 90 11:20 13.09.2019
2021 Clouds 22 1016 53 10000 8.2 80 10:41 13.09.2019
2022 Clouds 22 1016 60 10000 8.2 80 10:21 13.09.2019
2023 Clouds 22 1016 60 10000 8.2 80 10:21 13.09.2019
2024 -273 0 0 0 0 0 10:21 13.09.2019
2025 Clear 20 1016 64 10000 6.7 80 09:54 13.09.2019
2026 Clear 20 1016 64 10000 6.7 80 09:36 13.09.2019
2027 Clear 20 1016 64 10000 6.7 80 09:36 13.09.2019
2028 Clear 20 1016 64 10000 6.7 80 09:18 13.09.2019
2029 Clear 20 1016 64 10000 7.7 70 08:41 13.09.2019
2030 Clear 20 1016 64 10000 7.7 70 08:21 13.09.2019
2031 Clear 20 1016 68 10000 7.7 70 07:57 13.09.2019
2032 Clear 20 1016 68 10000 7.7 70 07:39 13.09.2019
2033 Clear 20 1016 64 10000 7.2 60 06:49 13.09.2019
2034 Clear 20 1017 64 10000 9.64 79.692 05:50 13.09.2019
2035 Clear 20 1017 64 10000 9.64 79.692 05:26 13.09.2019
2036 Clouds 21 1017 68 10000 8.7 60 03:42 13.09.2019
2037 Clouds 20 1018 68 10000 7.7 70 02:50 13.09.2019
2038 Clouds 20 1018 68 10000 7.7 70 02:19 13.09.2019
2039 Clouds 20 1019 68 10000 8.2 80 01:35 13.09.2019
2040 Clouds 20 1019 68 10000 8.2 80 01:35 13.09.2019
2041 Clouds 20 1019 68 10000 8.2 80 01:35 13.09.2019
2042 Clouds 20 1019 68 10000 8.7 80 00:59 13.09.2019
2043 Clouds 20 1019 68 10000 8.7 80 00:33 13.09.2019
2044 Clouds 20 1020 68 10000 6.2 50 23:42 12.09.2019
2045 Clouds 20 1020 68 10000 6.2 50 23:22 12.09.2019
2046 Clouds 20 1019 64 10000 7.7 50 22:44 12.09.2019
2047 Clouds 20 1019 64 10000 7.7 50 22:25 12.09.2019
2048 Clouds 21 1018 49 10000 10.8 50 21:58 12.09.2019
2049 Clouds 21 1018 49 10000 10.8 50 21:39 12.09.2019
2050 Clouds 23 1018 49 10000 10.8 50 21:20 12.09.2019
2051 Clouds 23 1019 46 10000 8.2 70 20:58 12.09.2019
2052 Clouds 23 1019 46 10000 8.2 70 20:40 12.09.2019
2053 Clouds 23 1019 46 10000 8.2 70 20:20 12.09.2019
2054 Clouds 24 1018 44 10000 11.3 80 19:56 12.09.2019
2055 Clouds 24 1018 44 10000 11.3 80 19:36 12.09.2019
2056 Clouds 24 1018 44 10000 11.3 80 19:18 12.09.2019
2057 Clouds 24 1018 41 10000 13.4 60 18:38 12.09.2019
2058 Clouds 24 1018 41 10000 13.4 60 18:20 12.09.2019
2059 Clouds 24 1018 41 10000 13.4 60 18:20 12.09.2019
2060 Clouds 24 1018 41 10000 10.8 70 17:57 12.09.2019
2061 Clouds 24 1018 41 10000 10.8 70 17:38 12.09.2019
2062 Clouds 24 1018 41 10000 10.8 70 17:19 12.09.2019
2063 Clouds 25 1019 39 10000 11.8 70 16:42 12.09.2019
2064 Clouds 25 1019 39 10000 11.8 70 16:22 12.09.2019
2065 Clouds 24 1019 36 10000 11.8 70 15:55 12.09.2019
2066 Clouds 24 1019 36 10000 11.8 70 15:55 12.09.2019
2067 Clouds 24 1019 36 10000 11.8 70 15:55 12.09.2019
2068 Clouds 24 1019 36 10000 11.8 70 15:36 12.09.2019
2069 Clouds 24 1019 36 10000 11.8 70 15:18 12.09.2019
2070 Clouds 24 1020 41 10000 9.8 80 14:41 12.09.2019
2071 Clouds 24 1020 41 10000 9.8 80 14:21 12.09.2019
2072 Clouds 24 1020 44 10000 9.3 60 13:40 12.09.2019
2073 Clouds 24 1020 44 10000 9.3 60 13:22 12.09.2019
2074 Rain 24 1022 73 10000 6.7 100 12:49 12.09.2019
2075 Clouds 23 1020 44 10000 8.2 90 12:20 12.09.2019
2076 Clouds 22 1021 73 10000 4.1 110 12:00 12.09.2019
2077 Clear 22 1020 44 10000 6.7 60 11:41 12.09.2019
2078 Clear 22 1020 44 10000 6.7 60 11:22 12.09.2019
2079 Clear 21 1019 56 10000 4.6 60 10:57 12.09.2019
2080 Clear 22 1019 56 10000 4.6 60 10:39 12.09.2019
2081 Clear 22 1019 56 10000 4.6 60 10:20 12.09.2019
2082 Clear 21 1018 49 10000 6.7 70 09:43 12.09.2019
2083 Clear 20 1018 49 10000 6.7 70 09:20 12.09.2019
2084 Clear 20 1018 49 10000 5.7 70 08:45 12.09.2019
2085 Clear 20 1018 56 10000 5.7 60 08:25 12.09.2019
2086 Clear 20 1018 60 10000 5.7 70 07:56 12.09.2019
2087 Clear 20 1018 60 10000 5.7 70 07:38 12.09.2019
2088 Clear 20 1018 56 10000 7.2 80 07:18 12.09.2019
2089 Clear 20 1017 56 10000 6.7 90 06:46 12.09.2019
2090 Clear 20 1017 52 10000 7.7 70 06:19 12.09.2019
2091 Clear 20 1017 56 10000 7.7 70 05:43 12.09.2019
2092 Clear 20 1017 56 10000 6.7 90 05:19 12.09.2019
2093 Clear 21 1018 45 10000 5.7 90 03:59 12.09.2019
2094 Clear 21 1018 56 10000 2.1 10 01:45 12.09.2019
2095 Clear 21 1018 60 10000 0.5 0 01:27 12.09.2019
2096 Clear 21 1019 60 10000 1.5 70 00:50 12.09.2019
2097 Clear 20 1019 64 10000 1.5 20 00:31 12.09.2019
2098 Clouds 21 1019 68 10000 1.5 320 23:47 11.09.2019
2099 Clear 21 1018 56 10000 1 0 23:27 11.09.2019
2100 Clear 21 1018 60 10000 1 0 22:58 11.09.2019
2101 Clear 21 1018 60 10000 1 0 22:38 11.09.2019
2102 Clouds 22 1018 60 10000 0.5 0 22:20 11.09.2019
2103 Clouds 22 1018 60 10000 0.5 0 22:20 11.09.2019
2104 Clouds 22 1017 53 10000 0.5 0 21:59 11.09.2019
2105 Clouds 22 1017 53 10000 0.5 0 21:41 11.09.2019
2106 Clouds 24 1017 53 10000 0.5 0 21:22 11.09.2019
2107 Clouds 25 1017 43 10000 3.1 260 20:56 11.09.2019
2108 Clouds 25 1017 43 10000 3.1 260 20:38 11.09.2019
2109 Clouds 25 1017 43 10000 3.1 260 20:19 11.09.2019
2110 Clouds 26 1017 38 10000 2.6 260 19:56 11.09.2019
2111 Clouds 26 1017 38 10000 2.6 260 19:56 11.09.2019
2112 Clouds 26 1017 38 10000 2.6 260 19:37 11.09.2019
2113 Clouds 26 1017 38 10000 2.6 260 19:19 11.09.2019
2114 Clouds 26 1017 36 10000 2.6 260 18:42 11.09.2019
2115 Clouds 26 1017 36 10000 2.6 260 18:23 11.09.2019
2116 Clouds 26 1017 47 10000 6.2 190 17:58 11.09.2019
2117 Clouds 26 1017 53 10000 4.1 250 17:40 11.09.2019
2118 Clouds 26 1017 53 10000 4.1 250 17:21 11.09.2019
2119 Clouds 25 1016 47 10000 7.7 190 16:56 11.09.2019
2120 Clouds 25 1017 56 10000 3.6 250 16:36 11.09.2019
2121 Clouds 25 1017 56 10000 3.6 250 16:18 11.09.2019
2122 Clouds 25 1018 56 10000 5.1 270 15:45 11.09.2019
2123 Clouds 25 1018 56 10000 5.1 270 15:22 11.09.2019
2124 Clouds 25 1018 60 10000 5.7 250 14:57 11.09.2019
2125 Clouds 25 1018 60 10000 5.7 250 14:38 11.09.2019
2126 Clouds 25 1018 60 10000 5.7 250 14:19 11.09.2019
2127 Clouds 25 1018 60 10000 5.7 250 13:54 11.09.2019
2128 Clouds 25 1019 64 10000 6.2 250 13:36 11.09.2019
2129 Clouds 25 1019 64 10000 6.2 250 13:18 11.09.2019
2130 Clear 25 1019 60 10000 6.2 250 12:40 11.09.2019
2131 Clear 24 1019 60 10000 4.1 250 12:20 11.09.2019
2132 Clouds 23 1019 56 10000 2.6 190 11:41 11.09.2019
2133 Clear 23 1018 60 10000 2.6 190 11:22 11.09.2019
2134 Clear 21 1018 60 10000 2.6 170 10:59 11.09.2019
2135 Clear 22 1018 60 10000 2.6 170 10:40 11.09.2019
2136 Clear 22 1018 60 10000 2.1 200 10:21 11.09.2019
2137 Clear 21 1018 72 10000 1.5 100 09:40 11.09.2019
2138 Clear 19 1018 72 10000 1.5 100 09:20 11.09.2019
2139 Clear 18 1017 77 10000 2.1 100 08:59 11.09.2019
2140 Clear 18 1017 72 10000 1.5 0 08:39 11.09.2019
2141 Clear 18 1017 72 10000 1.5 0 08:20 11.09.2019
2142 Clear 19 1017 72 10000 1.5 120 07:43 11.09.2019
2143 Clear 19 1017 72 10000 1.5 120 07:23 11.09.2019
2144 Clear 20 1016 68 10000 2.6 170 06:50 11.09.2019
2145 Clear 20 1016 68 10000 2.6 170 06:50 11.09.2019
2146 Clear 20 1016 68 10000 2.6 170 06:32 11.09.2019
2147 Clear 20 1016 68 10000 2.1 0 05:42 11.09.2019
2148 Clear 20 1016 68 10000 2.1 0 05:23 11.09.2019
2149 Clear 20 1017 72 10000 3.1 170 04:42 11.09.2019
2150 Clear 20 1017 68 10000 2.1 160 03:32 11.09.2019
2151 Clear 20 1018 72 10000 2.1 160 02:46 11.09.2019
2152 Clear 20 1018 68 10000 2.6 160 02:18 11.09.2019
2153 Clear 20 1018 68 10000 2.6 170 00:52 11.09.2019
2154 Clear 20 1018 68 10000 2.1 170 00:23 11.09.2019
2155 Clear 21 1018 72 10000 2.6 160 23:55 10.09.2019
2156 Clear 21 1018 72 10000 2.1 180 23:37 10.09.2019
2157 Clear 21 1018 72 10000 2.1 180 23:18 10.09.2019
2158 Clear 21 1018 72 10000 2.1 200 22:41 10.09.2019
2159 Clear 21 1018 68 10000 2.1 200 22:19 10.09.2019
2160 Clear 21 1017 72 10000 2.1 210 21:55 10.09.2019
2161 Clear 22 1017 72 10000 3.1 220 21:37 10.09.2019
2162 Clear 22 1017 72 10000 3.1 220 21:37 10.09.2019
2163 Clear 22 1017 72 10000 3.1 220 21:18 10.09.2019
2164 Clear 22 1017 72 10000 4.1 220 20:57 10.09.2019
2165 Clear 22 1017 72 10000 4.1 220 20:38 10.09.2019
2166 Clear 22 1017 68 10000 5.7 230 20:20 10.09.2019
2167 Clouds 23 1017 64 10000 4.6 230 19:56 10.09.2019
2168 Clouds 24 1017 64 10000 6.7 240 19:37 10.09.2019
2169 Clouds 24 1017 64 10000 6.7 240 19:19 10.09.2019
2170 Clouds 23 1017 64 10000 6.7 240 18:46 10.09.2019
2171 Clouds 23 1017 64 10000 6.7 240 18:46 10.09.2019
2172 Clouds 24 1017 64 10000 6.7 240 18:24 10.09.2019
2173 Clouds 24 1017 68 10000 6.7 240 17:59 10.09.2019
2174 Clouds 24 1017 68 10000 6.7 240 17:41 10.09.2019
2175 Clouds 24 1017 56 10000 7.2 270 17:21 10.09.2019
2176 Clouds 24 1017 60 10000 8.7 270 16:58 10.09.2019
2177 Clouds 24 1017 60 10000 8.2 250 16:39 10.09.2019
2178 Clouds 24 1017 60 10000 8.2 250 16:20 10.09.2019
2179 Clouds 24 1017 60 10000 6.2 250 15:56 10.09.2019
2180 Clouds 24 1017 60 10000 6.2 250 15:38 10.09.2019
2181 Clouds 24 1017 60 10000 6.2 250 15:38 10.09.2019
2182 Clouds 24 1017 64 10000 7.2 240 15:19 10.09.2019
2183 Clouds 24 1018 60 10000 7.7 260 14:40 10.09.2019
2184 Clouds 24 1018 60 10000 6.7 260 14:22 10.09.2019
2185 Clouds 23 1019 64 10000 6.7 270 13:49 10.09.2019
2186 Clouds 23 1015 53 10000 9.8 270 13:24 10.09.2019
2187 Clouds 23 1019 68 10000 6.7 270 12:56 10.09.2019
2188 Clouds 23 1016 60 10000 8.2 270 12:37 10.09.2019
2189 Clouds 22 1019 68 10000 7.2 270 12:19 10.09.2019
2190 Clouds 22 1019 68 10000 7.2 270 12:19 10.09.2019
2191 Clouds 22 1019 68 10000 5.1 270 11:42 10.09.2019
2192 Clouds 22 1019 68 10000 5.1 270 11:23 10.09.2019
2193 Clouds 21 1018 72 10000 6.2 270 10:59 10.09.2019
2194 Clouds 21 1018 72 10000 6.2 270 10:38 10.09.2019
2195 Clouds 21 1018 72 10000 6.2 270 10:18 10.09.2019
2196 Clouds 21 1018 77 10000 5.7 270 09:46 10.09.2019
2197 Clouds 21 1017 82 10000 2.6 250 09:20 10.09.2019
2198 Clouds 21 1017 82 10000 2.6 250 08:57 10.09.2019
2199 Clouds 21 1017 88 10000 2.6 270 08:38 10.09.2019
2200 Clear 22 1017 88 10000 2.6 260 08:20 10.09.2019
2201 Clear 22 1017 88 10000 3.1 230 07:44 10.09.2019
2202 Clear 22 1017 88 10000 3.1 230 07:25 10.09.2019
2203 Clear 23 1017 83 10000 3.6 220 06:46 10.09.2019
2204 Clear 23 1016 83 10000 3.1 210 06:28 10.09.2019
2205 Clear 23 1017 83 10000 2.1 210 04:38 10.09.2019
2206 Clouds 24 1018 78 10000 1 0 02:44 10.09.2019
2207 Clouds 24 1018 78 10000 1 0 02:22 10.09.2019
2208 Clouds 24 1018 78 10000 1 0 02:22 10.09.2019
2209 Clouds 23 1018 83 10000 1 0 01:52 10.09.2019
2210 Clouds 23 1018 83 10000 1 0 01:52 10.09.2019
2211 Clouds 23 1018 83 10000 1 0 01:52 10.09.2019
2212 Clouds 23 1018 83 10000 1 0 01:52 10.09.2019
2213 Clouds 23 1018 83 10000 1 0 01:52 10.09.2019
2214 Clouds 24 1018 83 10000 1 0 01:23 10.09.2019
2215 Clouds 24 1018 83 10000 0.5 0 00:43 10.09.2019
2216 Clouds 24 1018 83 10000 2.91 319.051 00:23 10.09.2019
2217 Clear 24 1018 83 10000 1 210 23:41 09.09.2019
2218 Clear 24 1018 83 10000 1 210 23:19 09.09.2019
2219 Clear 24 1018 78 10000 1 0 22:55 09.09.2019
2220 Clear 24 1017 78 10000 1 0 22:37 09.09.2019
2221 Clear 23 1017 78 10000 1 0 22:19 09.09.2019
2222 Clear 24 1017 64 10000 1.5 270 21:55 09.09.2019
2223 Clear 24 1017 64 10000 3.1 310 21:37 09.09.2019
2224 Clear 25 1016 54 10000 3.6 320 21:19 09.09.2019
2225 Clear 25 1016 54 10000 3.6 320 20:55 09.09.2019
2226 Clear 26 1016 54 10000 5.1 310 20:36 09.09.2019
2227 Clear 26 1016 54 10000 5.1 310 20:18 09.09.2019
2228 Clear 26 1016 54 10000 5.1 310 20:18 09.09.2019
2229 Clear 27 1016 51 10000 5.7 320 19:56 09.09.2019
2230 Clouds 27 1016 58 10000 1 110 19:37 09.09.2019
2231 Clear 27 1016 51 10000 7.7 320 19:19 09.09.2019
2232 Clear 27 1016 51 10000 7.7 320 19:19 09.09.2019
2233 Clouds 27 1016 58 10000 1 120 18:55 09.09.2019
2234 Clouds 28 1016 61 10000 3.1 100 18:37 09.09.2019
2235 Clouds 27 1016 48 10000 8.7 330 18:18 09.09.2019
2236 Clouds 28 1016 54 10000 3.6 120 17:56 09.09.2019
2237 Clouds 28 1015 42 10000 7.2 320 17:38 09.09.2019
2238 Clouds 28 1015 42 10000 7.2 320 17:20 09.09.2019
2239 Clouds 28 1016 38 10000 3.6 350 16:40 09.09.2019
2240 Clouds 28 1016 40 10000 4.6 10 16:21 09.09.2019
2241 Clouds 28 1016 38 10000 3.6 350 16:21 09.09.2019
2242 Clouds 28 1016 40 10000 4.6 10 15:56 09.09.2019
2243 Clouds 28 1016 40 10000 4.6 10 15:56 09.09.2019
2244 Clouds 29 1016 38 10000 3.6 20 15:38 09.09.2019
2245 Clouds 28 1016 38 10000 3.6 20 15:20 09.09.2019
2246 Clouds 28 1017 42 10000 4.1 20 14:57 09.09.2019
2247 Clouds 28 1017 42 10000 4.1 20 14:39 09.09.2019
2248 Clouds 28 1017 42 10000 4.1 20 14:39 09.09.2019
2249 Clouds 28 1017 42 10000 4.1 20 14:20 09.09.2019
2250 Clear 27 1017 42 10000 3.6 30 13:54 09.09.2019
2251 Clear 27 1017 42 10000 2.6 0 13:36 09.09.2019
2252 Clear 27 1017 42 10000 2.6 0 13:18 09.09.2019
2253 Clouds 26 1019 73 10000 2.1 120 12:41 09.09.2019
2254 Clear 26 1018 45 10000 3.1 90 12:21 09.09.2019
2255 Clear 25 1018 48 10000 3.1 80 11:57 09.09.2019
2256 Clear 24 1017 57 10000 4.1 90 11:39 09.09.2019
2257 Clear 24 1017 57 10000 4.1 90 11:18 09.09.2019
2258 Clear 22 1017 69 10000 5.7 90 10:42 09.09.2019
2259 Clear 22 1017 69 10000 5.7 90 10:23 09.09.2019
2260 Mist 21 1017 64 10000 4.6 90 09:58 09.09.2019
2261 Mist 20 1017 73 10000 4.6 90 09:39 09.09.2019
2262 Mist 20 1017 73 10000 4.6 90 09:21 09.09.2019
2263 Mist 20 1016 73 10000 5.1 100 08:39 09.09.2019
2264 Mist 20 1016 73 10000 5.1 100 08:20 09.09.2019
2265 Clouds 20 1016 73 10000 4.1 90 07:48 09.09.2019
2266 Clouds 20 1016 73 10000 4.1 70 07:28 09.09.2019
2267 Clear 20 1017 82 10000 1 250 06:59 09.09.2019
2268 Clouds 20 1016 73 10000 7.7 50 06:40 09.09.2019
2269 Clouds 20 1016 77 10000 6.2 50 05:34 09.09.2019
2270 Clouds 21 1016 64 10000 5.1 80 02:59 09.09.2019
2271 Clouds 21 1016 64 10000 4.1 80 02:39 09.09.2019
2272 Clouds 22 1017 60 10000 4.1 80 00:50 09.09.2019
2273 Clouds 21 1017 64 10000 4.1 60 00:22 09.09.2019
2274 Clouds 22 1017 60 10000 1.5 100 23:46 08.09.2019
2275 Clouds 22 1017 56 10000 2.6 100 23:26 08.09.2019
2276 Clouds 22 1018 78 10000 1 160 22:57 08.09.2019
2277 Clouds 22 1017 60 10000 4.6 50 22:38 08.09.2019
2278 Clouds 22 1017 60 10000 4.6 50 22:20 08.09.2019
2279 -273 0 0 0 0 0 21:55 08.09.2019
2280 Clouds 23 1015 50 10000 6.2 70 21:36 08.09.2019
2281 Clouds 23 1015 50 10000 6.2 70 21:18 08.09.2019
2282 Clouds 24 1015 39 10000 7.7 70 20:40 08.09.2019
2283 Clouds 24 1015 39 10000 7.7 70 20:22 08.09.2019
2284 Clouds 25 1015 34 10000 8.2 70 19:59 08.09.2019
2285 Clouds 25 1017 78 10000 3.6 90 19:38 08.09.2019
2286 Clouds 25 1015 37 10000 7.7 80 19:20 08.09.2019
2287 Clouds 25 1016 78 10000 4.1 120 18:57 08.09.2019
2288 Clouds 25 1016 78 10000 4.1 120 18:57 08.09.2019
2289 Clouds 25 1014 39 10000 5.7 110 18:38 08.09.2019
2290 Clouds 25 1014 39 10000 5.7 110 18:18 08.09.2019
2291 Clouds 25 1014 32 10000 8.2 80 17:56 08.09.2019
2292 Clouds 25 1014 35 10000 7.7 90 17:36 08.09.2019
2293 Clouds 25 1014 35 10000 7.7 90 17:18 08.09.2019
2294 Rain 24 1015 39 10000 6.7 80 16:43 08.09.2019
2295 Rain 24 1015 39 10000 6.7 80 16:22 08.09.2019
2296 Rain 23 1017 94 10000 1 50 15:58 08.09.2019
2297 Thunderstorm 23 1017 94 5000 3.1 90 15:40 08.09.2019
2298 Thunderstorm 23 1017 94 5000 3.1 90 15:21 08.09.2019
2299 Thunderstorm 22 1017 93 4000 2.1 220 14:56 08.09.2019
2300 Thunderstorm 21 1017 88 1000 3.6 140 14:37 08.09.2019
2301 Rain 23 1016 57 8000 7.7 90 14:19 08.09.2019
2302 Rain 22 1017 83 7000 6.2 130 13:55 08.09.2019
2303 Rain 23 1017 83 6000 5.7 90 13:36 08.09.2019
2304 Thunderstorm 23 1016 64 8000 5.1 110 13:18 08.09.2019
2305 Rain 23 1015 64 8000 7.7 100 12:41 08.09.2019
2306 Rain 23 1015 64 8000 7.7 100 12:23 08.09.2019
2307 Rain 23 1015 73 8000 7.7 90 11:58 08.09.2019
2308 Rain 23 1015 73 8000 7.7 90 11:58 08.09.2019
2309 Rain 23 1015 65 8000 7.7 90 11:38 08.09.2019
2310 Rain 23 1015 65 8000 7.7 90 11:20 08.09.2019
2311 Clouds 23 1014 65 8000 7.7 90 10:56 08.09.2019
2312 Clouds 23 1014 64 8000 8.7 80 10:38 08.09.2019
2313 Clouds 23 1014 64 8000 8.7 80 10:19 08.09.2019
2314 Rain 23 1014 64 8000 8.7 80 09:38 08.09.2019
2315 Rain 23 1014 64 8000 8.7 80 09:20 08.09.2019
2316 Clouds 23 1013 69 8000 8.2 80 08:56 08.09.2019
2317 Clouds 23 1013 69 8000 8.2 80 08:37 08.09.2019
2318 Clouds 23 1013 69 8000 8.2 80 08:18 08.09.2019
2319 Clouds 23 1013 73 10000 8.7 80 07:38 08.09.2019
2320 Clouds 23 1013 73 10000 8.7 80 07:20 08.09.2019
2321 Clouds 23 1013 73 10000 8.7 70 06:47 08.09.2019
2322 Clouds 23 1013 73 8000 8.74 84.695 05:57 08.09.2019
2323 Clouds 23 1013 73 8000 8.74 84.695 05:35 08.09.2019
2324 Clouds 23 1014 73 8000 5.1 90 03:51 08.09.2019
2325 Rain 23 1014 69 6000 5.1 90 02:54 08.09.2019
2326 Clouds 23 1015 69 10000 5.7 60 02:25 08.09.2019
2327 Clouds 24 1014 61 10000 3.1 100 01:35 08.09.2019
2328 Clouds 24 1013 61 10000 10.3 80 00:57 08.09.2019
2329 Clouds 24 1014 65 10000 8.7 80 00:37 08.09.2019
2330 Clouds 24 1014 65 10000 8.7 80 00:19 08.09.2019
2331 Clouds 24 1014 61 10000 13.4 100 23:38 07.09.2019
2332 Clouds 24 1014 61 10000 13.4 100 23:19 07.09.2019
2333 Clouds 24 1014 50 10000 12.9 90 22:57 07.09.2019
2334 Clouds 24 1011 50 10000 11.8 90 22:37 07.09.2019
2335 Clouds 24 1011 50 10000 11.8 90 22:19 07.09.2019
2336 Clouds 24 1013 65 10000 9.3 90 21:41 07.09.2019
2337 Clouds 24 1013 65 10000 9.3 90 21:23 07.09.2019
2338 Clouds 25 1012 61 10000 10.3 90 20:42 07.09.2019
2339 Clouds 25 1012 61 10000 10.3 90 20:23 07.09.2019
2340 Clouds 25 1012 61 10000 10.3 90 19:58 07.09.2019
2341 Clouds 25 1012 61 10000 11.3 90 19:39 07.09.2019
2342 Clouds 25 1012 61 10000 11.3 90 19:21 07.09.2019
2343 Clouds 25 1012 57 10000 12.9 70 18:59 07.09.2019
2344 Clouds 25 1014 78 10000 5.7 60 18:40 07.09.2019
2345 Clouds 25 1014 78 10000 5.7 60 18:22 07.09.2019
2346 Clouds 25 1012 54 10000 12.9 80 17:59 07.09.2019
2347 Clouds 26 1012 51 10000 14.4 80 17:40 07.09.2019
2348 Clouds 26 1012 51 10000 14.4 80 17:19 07.09.2019
2349 Clouds 26 1012 51 10000 14.4 80 17:19 07.09.2019
2350 Clouds 26 1012 51 10000 12.9 80 16:59 07.09.2019
2351 Clouds 26 1012 51 10000 12.9 80 16:59 07.09.2019
2352 Clouds 26 1013 51 10000 14.4 80 16:40 07.09.2019
2353 Clouds 27 1013 51 10000 14.4 80 16:19 07.09.2019
2354 Clouds 27 1013 48 10000 12.3 80 15:47 07.09.2019
2355 Clouds 27 1013 48 10000 12.9 70 15:26 07.09.2019
2356 Clouds 27 1013 45 10000 10.8 70 14:57 07.09.2019
2357 Clouds 27 1013 45 10000 10.8 70 14:37 07.09.2019
2358 Clouds 27 1013 45 10000 10.8 70 14:19 07.09.2019
2359 Clouds 27 1014 51 10000 10.8 70 13:57 07.09.2019
2360 Clouds 27 1014 51 10000 10.8 70 13:39 07.09.2019
2361 Clouds 27 1014 51 10000 10.8 70 13:20 07.09.2019
2362 Clouds 26 1014 51 10000 10.8 70 12:44 07.09.2019
2363 Clouds 26 1014 51 10000 10.8 70 12:25 07.09.2019
2364 Clouds 25 1013 54 10000 10.8 80 11:42 07.09.2019
2365 Clouds 25 1013 54 10000 10.8 80 11:23 07.09.2019
2366 Clouds 25 1013 54 10000 11.3 80 10:59 07.09.2019
2367 Clouds 24 1013 57 10000 11.3 80 10:38 07.09.2019
2368 Clouds 24 1013 57 10000 11.3 80 10:38 07.09.2019
2369 Clouds 24 1013 57 10000 11.3 80 10:19 07.09.2019
2370 Clouds 24 1013 61 10000 11.3 80 09:43 07.09.2019
2371 Clouds 24 1013 61 10000 11.3 80 09:25 07.09.2019
2372 Clouds 23 1012 61 0 11.85 94.303 08:57 07.09.2019
2373 Clouds 23 1015 88 10000 7.7 60 08:37 07.09.2019
2374 Clouds 23 1015 94 5000 2.1 70 08:19 07.09.2019
2375 Clear 24 1012 61 10000 12.42 92.516 07:45 07.09.2019
2376 Clear 24 1012 65 10000 10.8 80 07:24 07.09.2019
2377 Clear 23 1013 65 10000 12.42 92.516 06:45 07.09.2019
2378 Clear 23 1012 65 10000 11.3 70 06:19 07.09.2019
2379 Clear 24 1012 61 10000 10.8 70 04:38 07.09.2019
2380 Clear 24 1012 61 10000 11.8 70 03:49 07.09.2019
2381 Clear 24 1012 53 10000 10.3 60 02:43 07.09.2019
2382 Clear 24 1012 54 10000 11.8 60 01:44 07.09.2019
2383 Clouds 24 1012 57 10000 10.3 80 00:56 07.09.2019
2384 Clouds 24 1012 57 10000 10.3 80 00:37 07.09.2019
2385 Clouds 24 1012 57 10000 10.3 80 00:18 07.09.2019
2386 Clouds 24 1012 57 10000 9.3 70 23:38 06.09.2019
2387 Clouds 24 1012 57 10000 9.3 70 23:38 06.09.2019
2388 Clouds 24 1012 57 10000 9.3 70 23:20 06.09.2019
2389 Clouds 24 1012 57 10000 10.3 80 22:57 06.09.2019
2390 Clouds 24 1012 57 10000 10.3 80 22:37 06.09.2019
2391 Clouds 24 1012 57 10000 10.3 80 22:19 06.09.2019
2392 Clouds 24 1012 61 10000 9.3 80 21:56 06.09.2019
2393 Clouds 24 1012 57 10000 9.3 90 21:38 06.09.2019
2394 Clouds 24 1012 57 10000 9.3 90 21:19 06.09.2019
2395 Clouds 25 1015 78 10000 5.7 110 20:54 06.09.2019
2396 Clouds 26 1015 83 10000 6.2 100 20:36 06.09.2019
2397 Clouds 26 1014 78 7000 4.6 70 20:18 06.09.2019
2398 Clouds 27 1015 83 10000 6.2 80 19:41 06.09.2019
2399 Clouds 27 1015 83 10000 6.2 80 19:23 06.09.2019
2400 Clear 27 1011 42 10000 9.3 70 18:56 06.09.2019
2401 Clouds 27 1014 78 10000 6.7 80 18:38 06.09.2019
2402 Clear 27 1011 45 10000 10.3 80 18:19 06.09.2019
2403 Clear 28 1012 45 10000 13.4 70 17:40 06.09.2019
2404 Clear 28 1012 45 10000 13.4 70 17:20 06.09.2019
2405 Clear 28 1012 45 10000 13.9 80 16:56 06.09.2019
2406 Clear 28 1012 43 10000 12.9 80 16:38 06.09.2019
2407 Clear 28 1012 43 10000 12.9 80 16:18 06.09.2019
2408 Clear 28 1013 45 10000 12.3 80 15:41 06.09.2019
2409 Clear 28 1013 45 10000 12.3 80 15:22 06.09.2019
2410 Clear 28 1013 51 10000 13.4 90 14:47 06.09.2019
2411 Clear 28 1013 51 10000 13.4 90 14:19 06.09.2019
2412 Clear 28 1014 51 10000 12.9 90 13:44 06.09.2019
2413 Clear 28 1014 51 10000 12.9 90 13:24 06.09.2019
2414 Clouds 27 1017 78 10000 7.2 80 12:59 06.09.2019
2415 Clear 27 1014 54 10000 11.8 80 12:37 06.09.2019
2416 Clear 26 1014 54 10000 11.8 80 12:18 06.09.2019
2417 Mist 25 1014 58 10000 10.8 80 11:41 06.09.2019
2418 Mist 25 1014 58 10000 10.8 80 11:23 06.09.2019
2419 Mist 25 1013 57 10000 11.8 80 10:57 06.09.2019
2420 Mist 24 1013 57 10000 11.8 80 10:39 06.09.2019
2421 Mist 24 1013 57 10000 11.8 80 10:19 06.09.2019
2422 Fog 23 1013 65 10000 9.3 80 09:40 06.09.2019
2423 Fog 23 1013 65 10000 9.3 80 09:20 06.09.2019
2424 Fog 23 1013 65 10000 9.3 70 08:56 06.09.2019
2425 Fog 23 1013 65 10000 9.3 70 08:38 06.09.2019
2426 Fog 23 1013 65 10000 9.3 70 08:20 06.09.2019
2427 Fog 23 1013 65 10000 9.8 80 07:45 06.09.2019
2428 Fog 23 1013 65 10000 9.8 70 07:26 06.09.2019
2429 Fog 23 1013 65 10000 9.8 80 06:54 06.09.2019
2430 Fog 23 1013 65 10000 9.3 90 05:58 06.09.2019
2431 Fog 23 1013 69 10000 9.3 80 05:19 06.09.2019
2432 Fog 23 1013 65 10000 9.8 80 04:38 06.09.2019
2433 Fog 23 1013 65 10000 11.3 70 03:42 06.09.2019
2434 Mist 23 1013 65 10000 10.8 70 01:51 06.09.2019
2435 Mist 24 1013 54 10000 9.3 80 00:32 06.09.2019
2436 Fog 24 1013 51 10000 9.3 80 23:44 05.09.2019
2437 Fog 24 1013 47 10000 6.2 80 23:24 05.09.2019
2438 Haze 24 1013 47 10000 8.2 70 22:54 05.09.2019
2439 Haze 24 1013 47 10000 8.2 70 22:54 05.09.2019
2440 Haze 24 1013 47 10000 7.2 80 22:36 05.09.2019
2441 Haze 24 1013 47 10000 7.2 80 22:18 05.09.2019
2442 Haze 25 1013 45 10000 8.2 70 21:55 05.09.2019
2443 Haze 26 1013 45 10000 8.2 70 21:37 05.09.2019
2444 Haze 25 1013 45 10000 8.2 70 21:19 05.09.2019
2445 Haze 25 1013 54 10000 6.2 40 20:54 05.09.2019
2446 Haze 25 1013 54 10000 6.2 40 20:36 05.09.2019
2447 Haze 25 1013 54 10000 6.2 40 20:36 05.09.2019
2448 Haze 25 1013 54 10000 6.2 40 20:18 05.09.2019
2449 Haze 26 1015 88 8000 4.6 80 19:41 05.09.2019
2450 Haze 26 1015 88 8000 4.6 80 19:22 05.09.2019
2451 Haze 26 1015 88 8000 4.1 80 18:57 05.09.2019
2452 Haze 26 1015 88 8000 4.1 100 18:57 05.09.2019
2453 Haze 26 1015 88 8000 4.1 100 18:38 05.09.2019
2454 Haze 27 1013 61 10000 8.2 40 18:19 05.09.2019
2455 Clouds 27 1014 58 10000 3.6 50 17:41 05.09.2019
2456 Clouds 27 1014 58 10000 3.6 50 17:22 05.09.2019
2457 Clouds 26 1015 69 10000 4.6 270 16:58 05.09.2019
2458 Haze 26 1015 69 10000 4.6 270 16:40 05.09.2019
2459 Haze 26 1015 69 10000 4.6 270 16:20 05.09.2019
2460 Haze 26 1016 69 10000 4.1 260 15:55 05.09.2019
2461 Haze 25 1016 69 10000 4.1 260 15:37 05.09.2019
2462 Haze 25 1016 69 10000 4.1 260 15:37 05.09.2019
2463 Haze 25 1016 69 10000 4.1 260 15:18 05.09.2019
2464 Haze 26 1016 69 10000 4.1 250 14:42 05.09.2019
2465 Haze 26 1016 69 10000 4.1 250 14:20 05.09.2019
2466 Fog 25 1016 73 10000 4.1 250 13:44 05.09.2019
2467 Fog 25 1016 73 10000 4.1 260 13:23 05.09.2019
2468 Fog 25 1017 88 9000 3.1 100 12:58 05.09.2019
2469 Fog 25 1016 73 10000 4.1 260 12:38 05.09.2019
2470 Fog 25 1016 73 10000 4.1 260 12:20 05.09.2019
2471 Fog 25 1016 88 8000 3.1 100 11:43 05.09.2019
2472 Fog 25 1015 69 10000 1.5 170 11:20 05.09.2019
2473 Fog 23 1015 73 10000 1.5 180 10:43 05.09.2019
2474 Fog 23 1016 88 5000 3.1 90 10:23 05.09.2019
2475 Fog 23 1016 88 5000 3.1 90 10:23 05.09.2019
2476 Fog 22 1016 88 4000 5.1 110 09:59 05.09.2019
2477 Clear 23 1015 88 10000 1.5 210 09:40 05.09.2019
2478 Mist 22 1015 88 10000 1.5 210 09:19 05.09.2019
2479 Mist 22 1015 88 10000 1.5 210 09:19 05.09.2019
2480 Mist 22 1015 88 10000 1 0 08:46 05.09.2019
2481 Mist 22 1015 88 10000 1 0 08:27 05.09.2019
2482 Mist 22 1015 83 10000 1.5 120 07:48 05.09.2019
2483 Mist 22 1015 83 9000 1.5 120 07:29 05.09.2019
2484 Mist 22 1014 83 5000 1.5 170 06:58 05.09.2019
2485 Mist 22 1014 83 5000 1.5 170 06:32 05.09.2019
2486 Mist 23 1015 83 5000 1 0 05:51 05.09.2019
2487 Mist 22 1014 88 10000 2.6 230 05:32 05.09.2019
2488 Mist 22 1015 88 5000 1.5 210 04:55 05.09.2019
2489 Mist 22 1015 88 5000 2.1 230 04:29 05.09.2019
2490 Mist 22 1015 78 10000 1.5 220 03:40 05.09.2019
2491 Mist 23 1015 78 10000 2.6 200 02:53 05.09.2019
2492 Mist 23 1015 69 10000 3.6 70 02:27 05.09.2019
2493 Mist 23 1015 69 10000 4.6 80 01:41 05.09.2019
2494 Mist 24 1015 69 10000 4.6 80 00:48 05.09.2019
2495 Fog 23 1015 69 10000 5.7 80 00:22 05.09.2019
2496 Fog 24 1015 65 10000 4.1 70 23:56 04.09.2019
2497 Fog 24 1015 65 10000 2.6 70 23:37 04.09.2019
2498 Fog 24 1015 65 10000 2.6 70 23:18 04.09.2019
2499 Mist 24 1015 69 10000 3.1 50 22:46 04.09.2019
2500 Mist 24 1015 69 10000 5.1 50 22:19 04.09.2019
2501 Fog 25 1014 58 10000 1 0 21:41 04.09.2019
2502 Fog 25 1014 58 10000 1 0 21:20 04.09.2019
2503 Fog 25 1015 58 10000 2.6 20 20:58 04.09.2019
2504 Fog 26 1015 54 10000 4.1 50 20:40 04.09.2019
2505 Fog 26 1015 54 10000 4.1 50 20:19 04.09.2019
2506 Mist 26 1015 54 10000 4.1 40 19:57 04.09.2019
2507 Mist 26 1017 83 10000 3.1 120 19:38 04.09.2019
2508 Mist 26 1015 58 10000 6.7 30 19:19 04.09.2019
2509 Mist 27 1015 55 10000 3.1 40 18:39 04.09.2019
2510 Mist 27 1015 55 10000 3.1 40 18:20 04.09.2019
2511 Clouds 27 1015 65 10000 1.5 250 17:54 04.09.2019
2512 Clouds 27 1015 65 10000 1.5 250 17:54 04.09.2019
2513 Clouds 26 1016 69 10000 2.6 230 17:36 04.09.2019
2514 Clouds 26 1016 69 10000 2.6 230 17:18 04.09.2019
2515 Clouds 26 1016 69 10000 2.6 230 17:18 04.09.2019
2516 Clouds 26 1016 78 10000 3.6 250 16:46 04.09.2019
2517 Clouds 26 1016 78 10000 3.6 250 16:46 04.09.2019
2518 Clouds 26 1016 78 8000 3.6 250 16:27 04.09.2019
2519 Mist 25 1017 78 4000 4.1 260 15:56 04.09.2019
2520 Mist 25 1018 78 10000 6.2 100 15:38 04.09.2019
2521 Mist 25 1017 41 4000 4.6 250 15:20 04.09.2019
2522 Mist 25 1017 41 4000 4.6 250 15:20 04.09.2019
2523 -273 0 0 0 0 0 14:55 04.09.2019
2524 Mist 26 1019 78 10000 5.1 80 14:55 04.09.2019
2525 Mist 26 1018 78 3000 4.1 250 14:37 04.09.2019
2526 Mist 26 1018 78 3000 4.1 250 14:18 04.09.2019
2527 Clear 26 1017 65 10000 6.2 260 13:40 04.09.2019
2528 Clear 26 1017 65 10000 6.2 260 13:22 04.09.2019
2529 Clear 26 1017 65 10000 6.2 260 13:22 04.09.2019
2530 Mist 28 1019 83 10000 5.1 80 12:58 04.09.2019
2531 Mist 27 1017 48 10000 5.7 90 12:38 04.09.2019
2532 Mist 27 1017 48 10000 5.7 90 12:38 04.09.2019
2533 Mist 27 1017 48 10000 5.7 90 12:19 04.09.2019
2534 Mist 26 1017 54 10000 6.7 80 11:41 04.09.2019
2535 Mist 26 1017 54 10000 6.7 80 11:21 04.09.2019
2536 Mist 25 1017 58 10000 6.2 70 10:59 04.09.2019
2537 Mist 25 1017 58 10000 6.2 70 10:59 04.09.2019
2538 Mist 25 1017 65 10000 7.7 80 10:41 04.09.2019
2539 Mist 25 1017 65 10000 7.7 80 10:23 04.09.2019
2540 Mist 24 1017 69 10000 8.2 80 09:47 04.09.2019
2541 Mist 24 1017 73 8000 7.7 80 09:27 04.09.2019
2542 Mist 23 1017 78 8000 7.2 90 08:59 04.09.2019
2543 Mist 23 1017 78 8000 7.2 80 08:40 04.09.2019
2544 Mist 23 1017 78 8000 7.2 80 08:21 04.09.2019
2545 Mist 23 1016 78 8000 4.6 90 07:48 04.09.2019
2546 Mist 23 1016 83 8000 3.1 90 07:29 04.09.2019
2547 Mist 23 1016 83 10000 2.6 90 06:39 04.09.2019
2548 Mist 23 1017 78 10000 2.1 110 04:57 04.09.2019
2549 Mist 23 1017 78 10000 3.6 90 04:25 04.09.2019
2550 Mist 24 1017 73 10000 6.2 90 03:45 04.09.2019
2551 Mist 24 1017 73 10000 8.7 90 01:22 04.09.2019
2552 Clear 24 1017 73 10000 8.2 80 00:50 04.09.2019
2553 Clear 25 1017 69 10000 8.7 80 00:31 04.09.2019
2554 Clear 25 1017 69 10000 9.3 90 23:54 03.09.2019
2555 Clear 25 1017 65 10000 8.7 90 23:27 03.09.2019
2556 Clear 25 1016 65 10000 9.3 90 22:57 03.09.2019
2557 Clear 26 1016 57 10000 7.7 90 22:39 03.09.2019
2558 Clear 26 1016 57 10000 7.7 90 22:21 03.09.2019
2559 Clear 25 1016 57 10000 7.2 90 21:56 03.09.2019
2560 Clear 26 1016 51 10000 10.3 80 21:36 03.09.2019
2561 Clear 26 1016 51 10000 10.3 80 21:18 03.09.2019
2562 Clear 27 1015 51 10000 9.3 90 20:42 03.09.2019
2563 Clear 27 1015 51 10000 9.3 90 20:24 03.09.2019
2564 Clear 27 1015 51 10000 9.3 90 20:24 03.09.2019
2565 Clear 27 1016 48 10000 9.8 90 19:56 03.09.2019
2566 Clouds 27 1018 78 10000 5.1 100 19:37 03.09.2019
2567 Clear 28 1015 48 10000 9.8 90 19:18 03.09.2019
2568 Clouds 28 1018 69 10000 5.1 110 18:44 03.09.2019
2569 Clouds 28 1018 69 10000 5.1 110 18:26 03.09.2019
2570 Clear 29 1016 46 10000 8.7 80 17:58 03.09.2019
2571 Clear 29 1016 43 10000 8.2 80 17:39 03.09.2019
2572 Clear 29 1016 43 10000 8.2 80 17:19 03.09.2019
2573 Clear 29 1016 43 10000 8.2 80 17:19 03.09.2019
2574 Clear 29 1016 43 10000 8.7 90 16:55 03.09.2019
2575 Clear 29 1016 43 10000 8.7 80 16:36 03.09.2019
2576 Clear 29 1016 43 10000 8.7 80 16:18 03.09.2019
2577 Clear 29 1017 48 10000 10.3 80 15:40 03.09.2019
2578 Clear 29 1017 48 10000 10.3 80 15:21 03.09.2019
2579 Clear 28 1017 43 10000 10.3 90 14:58 03.09.2019
2580 Clear 29 1017 46 10000 9.8 80 14:40 03.09.2019
2581 Clear 29 1017 46 10000 9.8 80 14:20 03.09.2019
2582 Clouds 28 1020 74 10000 7.2 70 13:56 03.09.2019
2583 Clouds 28 1020 74 10000 7.2 70 13:56 03.09.2019
2584 Clouds 28 1017 54 10000 9.8 90 13:37 03.09.2019
2585 Clouds 27 1017 54 10000 9.8 90 13:19 03.09.2019
2586 Mist 27 1017 51 10000 10.3 80 12:48 03.09.2019
2587 Mist 27 1017 58 10000 9.3 80 12:30 03.09.2019
2588 Mist 26 1020 78 10000 7.7 70 11:58 03.09.2019
2589 Mist 26 1017 54 10000 8.7 80 11:38 03.09.2019
2590 Mist 26 1017 54 10000 8.7 80 11:19 03.09.2019
2591 Mist 25 1016 58 8000 10.3 80 10:54 03.09.2019
2592 Mist 25 1016 61 8000 9.3 80 10:36 03.09.2019
2593 Mist 25 1016 61 8000 9.3 80 10:18 03.09.2019
2594 Mist 25 1016 61 8000 9.3 80 10:18 03.09.2019
2595 Mist 24 1016 69 8000 9.3 80 09:41 03.09.2019
2596 Mist 24 1016 69 8000 9.3 80 09:41 03.09.2019
2597 Mist 24 1016 69 8000 9.3 80 09:23 03.09.2019
2598 Mist 24 1016 73 8000 9.3 80 08:39 03.09.2019
2599 Mist 24 1016 73 8000 9.3 80 08:21 03.09.2019
2600 Mist 24 1016 73 8000 8.2 90 07:54 03.09.2019
2601 Mist 24 1016 73 8000 5.1 100 07:36 03.09.2019
2602 Mist 24 1016 73 8000 5.1 100 07:18 03.09.2019
2603 Mist 24 1018 88 10000 8.7 70 06:41 03.09.2019
2604 Clouds 24 1015 73 8000 5.1 100 03:45 03.09.2019
2605 Rain 25 1015 69 8000 4.1 120 02:59 03.09.2019
2606 Clouds 25 1015 57 8000 1 0 02:38 03.09.2019
2607 Clouds 25 1015 57 8000 1 0 02:20 03.09.2019
2608 Clouds 25 1015 57 8000 6.2 100 01:43 03.09.2019
2609 Clouds 25 1014 57 10000 7.7 70 01:25 03.09.2019
2610 Clouds 25 1014 51 10000 9.3 80 00:31 03.09.2019
2611 Thunderstorm 25 1014 51 10000 9.3 80 23:57 02.09.2019
2612 Thunderstorm 25 1014 51 10000 9.3 80 23:57 02.09.2019
2613 Thunderstorm 25 1014 51 10000 9.3 80 23:37 02.09.2019
2614 Haze 25 1014 51 10000 9.3 80 23:18 02.09.2019
2615 Haze 25 1014 51 10000 9.3 80 23:18 02.09.2019
2616 Haze 25 1014 54 8000 8.2 80 22:55 02.09.2019
2617 Haze 26 1013 48 10000 7.7 80 22:36 02.09.2019
2618 Haze 26 1013 48 10000 7.7 80 22:18 02.09.2019
2619 Haze 26 1016 88 10000 5.1 80 21:55 02.09.2019
2620 Haze 26 1013 51 10000 10.3 80 21:36 02.09.2019
2621 Haze 26 1013 51 10000 10.3 80 21:18 02.09.2019
2622 Haze 27 1013 45 10000 9.3 80 20:41 02.09.2019
2623 Haze 27 1013 45 10000 9.3 80 20:23 02.09.2019
2624 Haze 27 1013 45 10000 9.3 80 20:23 02.09.2019
2625 Clouds 28 1015 83 10000 6.2 70 19:58 02.09.2019
2626 Clouds 28 1015 83 10000 6.2 70 19:40 02.09.2019
2627 Clouds 28 1012 48 10000 9.3 60 19:21 02.09.2019
2628 Clouds 28 1012 48 10000 10.3 70 18:56 02.09.2019
2629 Clouds 28 1015 78 10000 7.2 80 18:36 02.09.2019
2630 Clouds 28 1012 43 10000 10.3 90 18:18 02.09.2019
2631 Clouds 28 1013 51 10000 9.8 80 17:40 02.09.2019
2632 Clouds 28 1013 51 10000 9.8 80 17:21 02.09.2019
2633 Clouds 28 1013 33 10000 7.7 90 16:59 02.09.2019
2634 Clouds 28 1013 43 10000 6.7 50 16:39 02.09.2019
2635 Clouds 28 1013 43 10000 6.7 50 16:20 02.09.2019
2636 Clouds 28 1014 51 10000 3.1 230 15:46 02.09.2019
2637 Clouds 27 1014 51 10000 3.1 230 15:27 02.09.2019
2638 Clouds 27 1014 51 10000 3.1 230 15:27 02.09.2019
2639 Clouds 27 1014 54 10000 2.1 230 14:57 02.09.2019
2640 Clouds 27 1014 54 10000 2.1 230 14:39 02.09.2019
2641 Clouds 27 1014 54 10000 2.1 230 14:21 02.09.2019
2642 Haze 27 1014 61 10000 5.1 290 13:56 02.09.2019
2643 Haze 26 1016 78 9000 6.2 90 13:36 02.09.2019
2644 Haze 26 1014 69 10000 5.1 290 13:18 02.09.2019
2645 Haze 26 1014 69 10000 3.1 250 12:43 02.09.2019
2646 Haze 26 1014 69 10000 3.1 250 12:24 02.09.2019
2647 Haze 25 1014 65 10000 1 0 11:58 02.09.2019
2648 Haze 25 1014 65 8000 1 0 11:38 02.09.2019
2649 Haze 25 1014 65 8000 1 0 11:20 02.09.2019
2650 Haze 25 1014 65 8000 1 0 11:20 02.09.2019
2651 Haze 24 1014 69 8000 1.5 0 10:56 02.09.2019
2652 Haze 24 1013 73 8000 1 0 10:37 02.09.2019
2653 Haze 24 1013 73 8000 1 0 10:18 02.09.2019
2654 Haze 22 1013 88 8000 1.5 320 09:43 02.09.2019
2655 Haze 22 1013 88 6000 1.5 320 09:22 02.09.2019
2656 Haze 21 1013 83 8000 2.1 30 08:44 02.09.2019
2657 Haze 22 1013 83 8000 2.1 30 08:23 02.09.2019
2658 Haze 22 1013 83 7000 2.1 130 07:58 02.09.2019
2659 Haze 22 1013 83 7000 2.1 130 07:39 02.09.2019
2660 Haze 22 1013 83 7000 2.1 130 07:21 02.09.2019
2661 Mist 22 1013 88 10000 1.5 150 06:43 02.09.2019
2662 Mist 23 1013 78 10000 2.6 160 05:54 02.09.2019
2663 Mist 23 1013 78 10000 2.6 160 05:54 02.09.2019
2664 Mist 23 1013 78 10000 2.6 160 05:54 02.09.2019
2665 Mist 23 1013 78 10000 2.6 160 05:27 02.09.2019
2666 Mist 22 1013 83 10000 1.5 100 04:53 02.09.2019
2667 Mist 23 1012 78 10000 2.6 50 02:42 02.09.2019
2668 Mist 23 1012 78 10000 1.5 120 01:43 02.09.2019
2669 Mist 23 1012 78 10000 4.1 40 00:46 02.09.2019
2670 Mist 23 1012 78 10000 4.1 40 00:26 02.09.2019
2671 Mist 23 1012 78 10000 5.7 30 23:39 01.09.2019
2672 Mist 23 1012 78 10000 5.7 30 23:20 01.09.2019
2673 Haze 24 1012 78 10000 5.7 30 22:57 01.09.2019
2674 Haze 24 1012 78 10000 5.7 30 22:57 01.09.2019
2675 Haze 24 1012 73 10000 2.6 30 22:39 01.09.2019
2676 Haze 24 1012 73 10000 2.6 30 22:18 01.09.2019
2677 Haze 24 1011 73 10000 3.6 40 21:54 01.09.2019
2678 Haze 24 1013 83 8000 3.1 120 21:36 01.09.2019
2679 Haze 24 1011 65 10000 3.6 40 21:18 01.09.2019
2680 Haze 26 1011 54 10000 3.6 10 20:55 01.09.2019
2681 Haze 26 1013 78 8000 3.1 90 20:36 01.09.2019
2682 Clouds 26 1011 48 10000 3.6 10 20:18 01.09.2019
2683 Clouds 28 1012 83 10000 3.6 80 19:41 01.09.2019
2684 Clouds 28 1011 41 10000 1.5 0 19:21 01.09.2019
2685 Clouds 29 1012 78 10000 3.1 70 18:55 01.09.2019
2686 Clouds 29 1013 74 10000 3.1 70 18:37 01.09.2019
2687 Clouds 29 1011 33 10000 3.1 40 18:18 01.09.2019
2688 Clear 28 1012 51 10000 1.5 0 17:40 01.09.2019
2689 Clear 28 1012 51 10000 1.5 0 17:22 01.09.2019
2690 Clear 27 1013 61 10000 5.1 270 16:56 01.09.2019
2691 Clouds 27 1013 61 10000 5.1 270 16:37 01.09.2019
2692 Clouds 27 1013 61 10000 5.1 270 16:18 01.09.2019
2693 Clouds 27 1013 61 8000 4.6 270 15:42 01.09.2019
2694 Clouds 27 1013 61 8000 4.6 270 15:42 01.09.2019
2695 Clouds 27 1013 61 8000 4.6 270 15:23 01.09.2019
2696 Clouds 26 1014 69 6000 4.6 280 14:44 01.09.2019
2697 Clouds 26 1014 69 6000 4.6 280 14:26 01.09.2019
2698 Clouds 26 1014 73 6000 5.1 260 13:59 01.09.2019
2699 Clouds 26 1014 73 10000 5.1 260 13:41 01.09.2019
2700 Clouds 26 1014 73 10000 5.1 260 13:23 01.09.2019
2701 Haze 25 1014 73 10000 3.6 270 12:44 01.09.2019
2702 Haze 25 1014 73 10000 3.6 270 12:26 01.09.2019
2703 Haze 25 1014 69 10000 1.5 0 11:58 01.09.2019
2704 Haze 25 1014 69 10000 1.5 0 11:38 01.09.2019
2705 Haze 25 1014 69 10000 1.5 0 11:19 01.09.2019
2706 Haze 23 1014 78 6000 1 0 10:45 01.09.2019
2707 Haze 23 1014 78 5000 1 0 10:23 01.09.2019
2708 Haze 23 1014 94 5000 0.5 240 09:47 01.09.2019
2709 Haze 23 1014 94 5000 0.5 240 09:26 01.09.2019
2710 Haze 23 1014 88 5000 1 260 08:56 01.09.2019
2711 Haze 23 1014 88 5000 1 260 08:38 01.09.2019
2712 Haze 23 1014 88 5000 1 260 08:19 01.09.2019
2713 Haze 23 1014 94 6000 1 250 07:41 01.09.2019
2714 Haze 22 1013 83 5000 1 180 07:20 01.09.2019
2715 Haze 23 1014 94 6000 1 190 06:38 01.09.2019
2716 Haze 22 1014 94 6000 1 190 05:58 01.09.2019
2717 Clouds 22 1014 94 5000 1.5 180 04:40 01.09.2019
2718 Clear 22 1015 88 7000 2.1 110 03:45 01.09.2019
2719 Fog 22 1015 88 7000 2.1 110 03:19 01.09.2019
2720 Fog 22 1014 94 700 2.1 240 02:30 01.09.2019
2721 Fog 22 1014 94 600 1.5 280 01:58 01.09.2019
2722 Fog 22 1014 94 800 1.5 280 01:27 01.09.2019
2723 Clouds 22 1014 88 6000 1.5 290 00:47 01.09.2019
2724 Clouds 22 1014 88 6000 1.5 290 00:23 01.09.2019
2725 Clouds 22 1014 94 6000 1 0 23:56 31.08.2019
2726 Clouds 22 1014 94 6000 1 0 23:38 31.08.2019
2727 Haze 22 1014 94 6000 1 0 23:19 31.08.2019
2728 Haze 23 1014 88 6000 2.1 240 22:54 31.08.2019
2729 Haze 23 1014 88 6000 2.1 240 22:36 31.08.2019
2730 Haze 23 1014 88 6000 2.1 240 22:36 31.08.2019
2731 Haze 23 1014 88 6000 2.1 240 22:36 31.08.2019
2732 Fog 23 1014 88 6000 2.1 240 22:18 31.08.2019
2733 Fog 24 1014 88 10000 2.6 250 21:40 31.08.2019
2734 Fog 24 1014 88 10000 2.6 250 21:40 31.08.2019
2735 Fog 24 1014 88 10000 2.6 250 21:21 31.08.2019
2736 Fog 25 1014 83 10000 3.6 250 20:50 31.08.2019
2737 Fog 25 1013 78 10000 3.6 250 20:31 31.08.2019
2738 Haze 26 1013 69 10000 3.6 250 19:59 31.08.2019
2739 Haze 27 1013 69 10000 3.6 250 19:40 31.08.2019
2740 Haze 27 1013 69 10000 3.6 250 19:21 31.08.2019
2741 Haze 27 1014 51 8000 3.1 110 18:40 31.08.2019
2742 Clouds 27 1013 61 10000 2.6 250 18:21 31.08.2019
2743 Clouds 27 1013 61 10000 3.6 260 17:58 31.08.2019
2744 Clouds 27 1014 65 10000 3.6 270 17:37 31.08.2019
2745 Clouds 27 1014 65 10000 3.6 270 17:19 31.08.2019
2746 Clouds 27 1014 61 10000 3.6 260 16:59 31.08.2019
2747 Clouds 27 1014 61 10000 3.6 260 16:59 31.08.2019
2748 Clouds 27 1014 61 10000 3.6 260 16:40 31.08.2019
2749 Clouds 27 1014 61 10000 3.6 260 16:21 31.08.2019
2750 Clear 27 1015 61 10000 4.1 260 15:58 31.08.2019
2751 Clear 27 1015 61 10000 4.6 250 15:37 31.08.2019
2752 Clear 27 1015 61 10000 4.6 250 15:18 31.08.2019
2753 Clear 27 1015 61 10000 4.6 240 14:41 31.08.2019
2754 Clear 27 1015 61 10000 4.6 240 14:22 31.08.2019
2755 Clear 27 1015 55 10000 4.6 250 13:42 31.08.2019
2756 Clear 27 1015 55 10000 4.6 250 13:23 31.08.2019
2757 Clear 27 1015 43 10000 2.6 120 12:59 31.08.2019
2758 Clear 27 1015 48 10000 1.5 150 12:40 31.08.2019
2759 Clear 27 1015 48 10000 1.5 150 12:20 31.08.2019
2760 Clear 26 1015 54 10000 2.6 100 11:56 31.08.2019
2761 Clear 26 1015 61 10000 2.1 150 11:38 31.08.2019
2762 Clear 26 1015 61 10000 2.1 150 11:20 31.08.2019
2763 Haze 24 1015 65 10000 1.5 170 10:43 31.08.2019
2764 Haze 24 1015 65 10000 1.5 170 10:19 31.08.2019
2765 Haze 24 1015 65 10000 1.5 170 10:19 31.08.2019
2766 -273 0 0 0 0 0 09:59 31.08.2019
2767 Haze 24 1015 65 10000 1.5 120 09:38 31.08.2019
2768 Haze 23 1015 65 10000 1.5 120 09:19 31.08.2019
2769 Haze 23 1014 73 10000 2.6 80 08:43 31.08.2019
2770 Haze 23 1014 73 10000 2.6 80 08:23 31.08.2019
2771 Haze 24 1013 73 10000 5.1 90 07:41 31.08.2019
2772 Haze 23 1013 73 10000 5.1 90 07:22 31.08.2019
2773 Haze 23 1013 78 10000 5.7 90 06:44 31.08.2019
2774 Clear 23 1013 78 10000 5.7 90 06:20 31.08.2019
2775 Mist 23 1013 73 10000 5.7 100 05:34 31.08.2019
2776 Mist 23 1014 69 10000 7.2 100 04:36 31.08.2019
2777 Mist 23 1013 69 10000 5.7 100 03:45 31.08.2019
2778 Mist 23 1014 65 10000 7.7 80 02:49 31.08.2019
2779 Mist 24 1014 61 10000 6.2 70 01:56 31.08.2019
2780 Mist 24 1014 61 10000 5.1 80 01:35 31.08.2019
2781 Mist 24 1014 65 10000 5.7 90 00:52 31.08.2019
2782 Mist 24 1014 65 10000 5.7 90 00:52 31.08.2019
2783 Mist 24 1015 61 10000 5.7 100 00:30 31.08.2019
2784 Mist 24 1015 51 10000 5.7 80 23:59 30.08.2019
2785 Mist 24 1015 51 10000 4.6 100 23:39 30.08.2019
2786 Haze 25 1015 51 10000 4.6 100 23:18 30.08.2019
2787 Haze 24 1014 47 10000 5.7 60 22:42 30.08.2019
2788 Haze 24 1014 47 10000 5.7 60 22:24 30.08.2019
2789 Haze 24 1017 88 7000 3.1 90 21:59 30.08.2019
2790 Haze 24 1014 54 10000 6.2 40 21:38 30.08.2019
2791 Haze 24 1014 54 10000 6.2 40 21:20 30.08.2019
2792 Haze 24 1014 54 10000 6.2 40 21:20 30.08.2019
2793 Haze 25 1014 51 10000 5.7 40 20:59 30.08.2019
2794 Haze 25 1014 45 10000 5.7 40 20:40 30.08.2019
2795 Haze 25 1014 45 10000 5.7 40 20:20 30.08.2019
2796 Haze 26 1014 45 10000 7.7 40 19:58 30.08.2019
2797 Mist 26 1014 42 10000 7.2 40 19:39 30.08.2019
2798 Mist 26 1017 83 10000 4.6 110 19:19 30.08.2019
2799 Mist 26 1017 83 10000 4.6 110 19:19 30.08.2019
2800 Mist 26 1014 45 10000 8.2 40 18:54 30.08.2019
2801 Mist 26 1017 83 10000 5.1 100 18:36 30.08.2019
2802 Mist 27 1015 48 10000 8.2 40 18:18 30.08.2019
2803 -273 0 0 0 0 0 17:55 30.08.2019
2804 Mist 27 1015 48 10000 8.7 40 17:37 30.08.2019
2805 Mist 27 1015 48 10000 8.7 40 17:18 30.08.2019
2806 Mist 27 1016 55 10000 8.7 30 16:43 30.08.2019
2807 Mist 27 1016 55 10000 8.7 30 16:22 30.08.2019
2808 Clear 27 1016 55 10000 9.3 40 15:44 30.08.2019
2809 Clear 27 1016 55 10000 9.3 30 15:24 30.08.2019
2810 Clouds 28 1019 83 10000 4.6 110 14:55 30.08.2019
2811 Clouds 28 1019 83 10000 4.6 110 14:55 30.08.2019
2812 Clear 27 1016 51 10000 8.2 30 14:36 30.08.2019
2813 Clear 27 1016 51 10000 8.2 30 14:18 30.08.2019
2814 Clear 27 1017 45 10000 5.7 30 13:41 30.08.2019
2815 Clear 27 1017 45 10000 5.7 30 13:22 30.08.2019
2816 Clouds 27 1020 83 10000 5.1 110 12:55 30.08.2019
2817 -273 0 0 0 0 0 12:55 30.08.2019
2818 Clear 28 1017 40 10000 7.2 80 12:36 30.08.2019
2819 Clear 28 1017 40 10000 7.2 80 12:18 30.08.2019
2820 Clear 28 1017 40 10000 7.2 80 12:18 30.08.2019
2821 Mist 26 1017 48 10000 4.6 90 11:41 30.08.2019
2822 Mist 26 1017 48 10000 4.6 90 11:23 30.08.2019
2823 Mist 24 1017 61 10000 5.1 100 10:39 30.08.2019
2824 Mist 24 1017 61 10000 5.1 100 10:20 30.08.2019
2825 Mist 24 1019 83 10000 4.1 90 09:57 30.08.2019
2826 Mist 23 1017 69 10000 5.7 100 09:37 30.08.2019
2827 Mist 23 1017 69 10000 5.7 100 09:18 30.08.2019
2828 Fog 23 1017 69 10000 6.2 100 08:44 30.08.2019
2829 Fog 23 1017 69 10000 6.2 100 08:44 30.08.2019
2830 Fog 23 1019 83 10000 3.1 110 08:25 30.08.2019
2831 Mist 23 1016 78 10000 5.1 80 07:57 30.08.2019
2832 Mist 23 1016 78 10000 5.1 80 07:37 30.08.2019
2833 Mist 23 1016 78 10000 5.1 80 07:37 30.08.2019
2834 Mist 23 1016 78 10000 5.1 80 07:19 30.08.2019
2835 Mist 23 1016 78 10000 5.7 80 06:40 30.08.2019
2836 Mist 23 1016 78 10000 5.7 80 06:22 30.08.2019
2837 Mist 23 1016 78 10000 5.1 90 05:40 30.08.2019
2838 Mist 24 1017 73 10000 5.1 90 03:58 30.08.2019
2839 Mist 24 1017 73 10000 5.1 90 03:37 30.08.2019
2840 Mist 24 1017 73 10000 6.2 90 02:45 30.08.2019
2841 Mist 24 1017 73 10000 6.7 90 02:19 30.08.2019
2842 Clear 24 1018 73 10000 5.7 90 00:58 30.08.2019
2843 Clear 24 1018 73 10000 4.6 90 00:23 30.08.2019
2844 Clear 24 1018 65 10000 5.1 100 23:49 29.08.2019
2845 Clear 24 1018 69 10000 5.1 90 23:23 29.08.2019
2846 Clear 24 1017 69 10000 5.1 90 22:59 29.08.2019
2847 Clear 25 1017 61 10000 3.6 90 22:41 29.08.2019
2848 Clear 25 1017 61 10000 3.6 90 22:22 29.08.2019
2849 Clouds 25 1017 69 10000 5.7 40 21:42 29.08.2019
2850 Clouds 25 1017 69 10000 5.7 40 21:22 29.08.2019
2851 Clouds 25 1017 69 10000 5.7 40 21:22 29.08.2019
2852 Clouds 25 1017 65 10000 5.7 40 20:59 29.08.2019
2853 Clouds 26 1016 61 10000 5.7 40 20:41 29.08.2019
2854 Clouds 26 1018 88 10000 5.7 90 20:20 29.08.2019
2855 Clouds 27 1019 83 10000 5.7 90 19:57 29.08.2019
2856 Clouds 27 1019 83 10000 5.7 90 19:38 29.08.2019
2857 Clouds 26 1018 78 10000 5.1 80 19:20 29.08.2019
2858 Clouds 27 1018 78 10000 8.7 90 18:41 29.08.2019
2859 Clouds 27 1018 83 10000 9.3 80 18:20 29.08.2019
2860 Clouds 27 1016 51 10000 2.6 260 17:56 29.08.2019
2861 Clouds 27 1016 51 10000 2.6 260 17:56 29.08.2019
2862 Clouds 27 1018 83 10000 5.7 90 17:37 29.08.2019
2863 Clouds 27 1019 78 10000 7.7 90 17:19 29.08.2019
2864 Clouds 27 1019 78 10000 5.7 80 16:43 29.08.2019
2865 Clouds 27 1017 54 8000 2.6 50 16:24 29.08.2019
2866 Clouds 27 1019 78 10000 5.1 80 15:58 29.08.2019
2867 Clouds 27 1017 54 10000 2.1 330 15:37 29.08.2019
2868 Clouds 27 1017 54 10000 2.1 330 15:19 29.08.2019
2869 Clouds 27 1017 54 10000 2.1 330 15:19 29.08.2019
2870 Clouds 26 1017 61 10000 7.2 270 14:45 29.08.2019
2871 Clouds 28 1016 40 10000 6.2 120 14:22 29.08.2019
2872 Clouds 28 1016 38 10000 4.6 120 13:58 29.08.2019
2873 Clouds 27 1017 48 10000 1 0 13:39 29.08.2019
2874 Clouds 27 1017 48 10000 1 0 13:20 29.08.2019
2875 Clouds 27 1019 74 10000 7.2 80 12:58 29.08.2019
2876 Clouds 27 1016 48 10000 5.1 70 12:39 29.08.2019
2877 Clouds 27 1016 48 10000 5.1 70 12:20 29.08.2019
2878 Clouds 27 1016 51 10000 6.2 90 11:58 29.08.2019
2879 Clouds 26 1015 58 10000 7.2 100 11:37 29.08.2019
2880 Clouds 26 1015 58 10000 7.2 100 11:18 29.08.2019
2881 Clouds 25 1015 57 10000 8.2 80 10:42 29.08.2019
2882 Clouds 25 1015 57 10000 8.2 80 10:24 29.08.2019
2883 Clouds 24 1014 65 10000 7.7 90 09:42 29.08.2019
2884 Clouds 24 1014 65 10000 7.7 90 09:21 29.08.2019
2885 Clouds 24 1014 61 10000 8.7 80 08:58 29.08.2019
2886 Clouds 24 1014 61 10000 8.7 80 08:39 29.08.2019
2887 Clouds 24 1014 61 10000 8.7 80 08:21 29.08.2019
2888 Clouds 23 1014 60 10000 8.7 90 07:43 29.08.2019
2889 Clouds 23 1014 57 0 10.3 90 07:25 29.08.2019
2890 Clouds 23 1014 57 10000 6.2 90 06:43 29.08.2019
2891 Clouds 23 1014 57 10000 6.2 90 06:21 29.08.2019
2892 Clouds 23 1014 47 10000 4.6 90 05:38 29.08.2019
2893 Clouds 23 1014 57 10000 5.1 90 04:50 29.08.2019
2894 Clouds 23 1014 57 10000 6.2 100 04:28 29.08.2019
2895 Clouds 23 1014 44 10000 4.1 90 02:44 29.08.2019
2896 Clouds 24 1014 39 10000 6.2 70 01:42 29.08.2019
2897 Clouds 24 1014 41 10000 5.1 60 00:58 29.08.2019
2898 Clouds 24 1013 41 10000 7.2 50 00:40 29.08.2019
2899 Clouds 24 1013 41 10000 7.2 50 00:20 29.08.2019
2900 Clouds 23 1014 60 10000 7.7 40 23:41 28.08.2019
2901 Clouds 23 1014 60 10000 7.7 40 23:23 28.08.2019
2902 Clouds 24 1014 60 10000 6.7 40 22:58 28.08.2019
2903 Clouds 24 1013 60 10000 6.7 40 22:38 28.08.2019
2904 Clouds 24 1013 60 10000 6.7 40 22:18 28.08.2019
2905 Clouds 24 1013 60 10000 6.7 40 21:57 28.08.2019
2906 Clouds 24 1016 83 10000 3.1 100 21:38 28.08.2019
2907 Clouds 24 1016 83 10000 3.1 100 21:19 28.08.2019
2908 Haze 25 1013 51 10000 6.2 40 20:41 28.08.2019
2909 Haze 25 1013 51 10000 6.2 40 20:22 28.08.2019
2910 Haze 25 1015 78 10000 4.1 120 19:55 28.08.2019
2911 Haze 26 1015 78 10000 4.1 120 19:37 28.08.2019
2912 Haze 26 1015 78 10000 4.1 120 19:37 28.08.2019
2913 Clear 26 1013 48 10000 7.7 40 19:18 28.08.2019
2914 Clear 28 1015 78 10000 4.1 80 18:41 28.08.2019
2915 Clear 28 1013 38 10000 6.2 40 18:21 28.08.2019
2916 Clear 28 1013 35 10000 8.2 40 17:40 28.08.2019
2917 Clear 28 1013 35 10000 8.2 40 17:20 28.08.2019
2918 Clear 29 1014 33 10000 7.7 40 16:58 28.08.2019
2919 Clear 29 1014 33 10000 7.7 40 16:40 28.08.2019
2920 Clear 29 1014 33 10000 7.7 40 16:18 28.08.2019
2921 Clear 28 1014 37 10000 8.2 40 15:39 28.08.2019
2922 Clear 27 1014 37 10000 8.2 40 15:20 28.08.2019
2923 Clear 28 1014 35 10000 6.7 40 14:58 28.08.2019
2924 Clear 27 1015 40 10000 7.2 40 14:40 28.08.2019
2925 Clear 27 1015 40 10000 7.2 40 14:21 28.08.2019
2926 Clear 27 1015 40 10000 7.2 40 14:21 28.08.2019
2927 Clear 27 1017 69 10000 4.6 90 13:59 28.08.2019
2928 Clear 27 1015 42 10000 3.1 50 13:39 28.08.2019
2929 Clear 27 1015 42 10000 3.1 50 13:20 28.08.2019
2930 Clear 26 1017 69 10000 4.1 90 12:43 28.08.2019
2931 Clear 26 1017 69 10000 4.1 90 12:25 28.08.2019
2932 Clear 25 1016 57 10000 3.1 270 11:59 28.08.2019
2933 Clear 25 1015 54 10000 2.6 270 11:39 28.08.2019
2934 Clear 25 1015 54 10000 2.6 270 11:20 28.08.2019
2935 Clear 24 1015 41 10000 2.6 70 10:56 28.08.2019
2936 Clear 24 1015 57 10000 2.1 90 10:37 28.08.2019
2937 Clear 23 1015 57 10000 2.1 90 10:19 28.08.2019
2938 Clear 21 1015 82 10000 1.5 120 09:42 28.08.2019
2939 Clear 21 1015 82 10000 1.5 120 09:21 28.08.2019
2940 Clear 19 1015 88 10000 1 0 08:55 28.08.2019
2941 Clear 19 1015 88 10000 1 0 08:36 28.08.2019
2942 Haze 19 1015 88 10000 1 0 08:18 28.08.2019
2943 Haze 19 1015 88 10000 1 110 07:37 28.08.2019
2944 Clear 20 1015 88 10000 1 110 07:19 28.08.2019
2945 Clear 19 1015 88 8000 2.1 80 06:46 28.08.2019
2946 Clear 20 1015 82 10000 2.1 80 05:52 28.08.2019
2947 Clear 20 1015 82 10000 1 0 04:41 28.08.2019
2948 Clear 21 1016 82 10000 1 0 01:58 28.08.2019
2949 Clear 21 1016 78 10000 5.1 210 01:30 28.08.2019
2950 Clear 22 1016 82 10000 1 0 00:50 28.08.2019
2951 Clear 22 1016 77 10000 1 0 00:32 28.08.2019
2952 Clear 23 1016 77 10000 1.5 350 23:44 27.08.2019
2953 Clear 23 1016 83 10000 1.5 350 23:22 27.08.2019
2954 Clear 23 1015 83 10000 2.6 340 22:59 27.08.2019
2955 Clear 23 1015 78 8000 2.6 340 22:39 27.08.2019
2956 Clear 23 1015 78 8000 2.6 340 22:20 27.08.2019
2957 Clear 24 1015 78 8000 2.6 330 21:56 27.08.2019
2958 Clear 24 1015 78 10000 4.1 330 21:38 27.08.2019
2959 Clear 24 1015 78 10000 4.1 330 21:18 27.08.2019
2960 Clear 25 1015 73 10000 5.1 320 20:55 27.08.2019
2961 Clear 25 1015 73 10000 5.1 320 20:37 27.08.2019
2962 Clear 25 1015 73 10000 5.1 320 20:18 27.08.2019
2963 Clouds 26 1014 61 10000 6.7 210 19:42 27.08.2019
2964 Clouds 26 1014 61 10000 6.7 210 19:24 27.08.2019
2965 Clear 26 1015 64 10000 5.7 320 18:55 27.08.2019
2966 Clear 26 1015 64 10000 5.7 310 18:36 27.08.2019
2967 Clear 26 1015 64 10000 5.7 310 18:18 27.08.2019
2968 Clear 26 1016 57 10000 4.6 290 17:42 27.08.2019
2969 Clear 26 1016 57 10000 4.6 290 17:22 27.08.2019
2970 Clear 26 1016 57 10000 4.6 290 16:48 27.08.2019
2971 Clear 26 1016 57 10000 4.6 280 16:28 27.08.2019
2972 Clear 27 1016 54 10000 4.6 280 15:58 27.08.2019
2973 Clouds 26 1016 69 10000 4.6 270 15:40 27.08.2019
2974 Clouds 26 1016 69 10000 4.6 270 15:21 27.08.2019
2975 Clouds 27 1017 54 10000 4.6 270 14:58 27.08.2019
2976 Clouds 27 1017 54 10000 4.1 270 14:40 27.08.2019
2977 Clouds 27 1017 54 10000 4.1 270 14:20 27.08.2019
2978 Clouds 27 1017 54 10000 4.1 270 14:20 27.08.2019
2979 Clear 26 1017 57 10000 4.6 240 13:42 27.08.2019
2980 Clear 26 1017 57 10000 4.6 240 13:23 27.08.2019
2981 -273 0 0 0 0 0 12:55 27.08.2019
2982 -273 0 0 0 0 0 12:55 27.08.2019
2983 Clouds 25 1018 64 10000 3.6 220 12:36 27.08.2019
2984 Clouds 25 1018 64 10000 3.6 220 12:18 27.08.2019
2985 Clouds 25 1018 64 10000 3.6 220 12:18 27.08.2019
2986 Clouds 24 1018 69 10000 2.6 210 11:43 27.08.2019
2987 Clouds 24 1018 69 10000 2.6 210 11:23 27.08.2019
2988 Clouds 21 1016 73 10000 3.1 280 10:42 27.08.2019
2989 Clouds 21 1016 73 10000 3.1 280 10:20 27.08.2019
2990 Clouds 21 1016 77 10000 3.6 270 09:57 27.08.2019
2991 Clear 21 1016 73 10000 3.1 150 09:38 27.08.2019
2992 Clear 21 1016 73 10000 3.1 150 09:19 27.08.2019
2993 Clouds 20 1016 83 10000 1.5 150 08:46 27.08.2019
2994 Clouds 20 1016 83 10000 1.5 150 08:26 27.08.2019
2995 Clear 20 1015 83 10000 5.1 280 07:56 27.08.2019
2996 Clouds 20 1015 82 10000 1.5 160 07:37 27.08.2019
2997 Clouds 20 1015 82 10000 1.5 160 07:37 27.08.2019
2998 Clouds 20 1015 82 10000 1.5 160 07:18 27.08.2019
2999 Clouds 21 1014 77 10000 5.7 280 06:48 27.08.2019
3000 Clouds 21 1014 77 10000 5.7 280 06:20 27.08.2019
3001 Clouds 21 1014 73 10000 7.7 280 05:29 27.08.2019
3002 Clouds 21 1016 73 10000 1.5 190 03:45 27.08.2019
3003 Clouds 21 1015 73 10000 5.1 270 03:21 27.08.2019
3004 Clouds 22 1016 82 10000 2.1 140 01:48 27.08.2019
3005 Clouds 22 1016 82 10000 2.1 140 01:26 27.08.2019
3006 Clear 22 1016 77 10000 3.1 150 00:49 27.08.2019
3007 Clear 22 1016 77 10000 3.1 150 00:28 27.08.2019
3008 Clouds 23 1016 73 10000 1.5 160 23:44 26.08.2019
3009 Clouds 23 1016 73 10000 1.5 160 23:26 26.08.2019
3010 Clouds 23 1016 78 10000 1 0 22:59 26.08.2019
3011 Clouds 23 1015 77 10000 1.5 190 22:37 26.08.2019
3012 Clouds 23 1015 77 10000 1.5 190 22:19 26.08.2019
3013 Clouds 24 1013 65 10000 5.1 200 21:40 26.08.2019
3014 Clouds 23 1013 69 10000 5.1 190 21:22 26.08.2019
3015 Clear 24 1014 73 10000 4.1 220 20:59 26.08.2019
3016 Clouds 24 1013 73 10000 5.1 190 20:41 26.08.2019
3017 Clear 24 1013 68 10000 3.6 210 20:20 26.08.2019
3018 Clear 25 1013 64 10000 4.6 220 19:58 26.08.2019
3019 Clouds 25 1013 69 10000 4.6 200 19:39 26.08.2019
3020 Clouds 26 1013 74 10000 2.6 190 19:19 26.08.2019
3021 Clouds 25 1013 74 10000 1.5 90 18:40 26.08.2019
3022 Clouds 25 1014 64 10000 3.6 230 18:21 26.08.2019
3023 Clouds 25 1014 64 10000 3.6 230 18:21 26.08.2019
3024 Haze 26 1014 64 10000 3.6 250 17:59 26.08.2019
3025 Haze 26 1013 78 9000 3.1 100 17:41 26.08.2019
3026 Haze 26 1013 78 9000 3.1 100 17:19 26.08.2019
3027 Haze 25 1014 60 10000 4.1 240 16:56 26.08.2019
3028 Haze 25 1014 83 10000 2.1 90 16:38 26.08.2019
3029 Haze 26 1013 78 10000 1.5 180 16:18 26.08.2019
3030 Haze 26 1013 78 10000 1.5 180 16:18 26.08.2019
3031 Haze 26 1013 78 10000 4.1 90 15:42 26.08.2019
3032 Clouds 26 1014 78 10000 3.6 250 15:22 26.08.2019
3033 Clouds 26 1014 69 10000 3.1 240 14:56 26.08.2019
3034 Clouds 26 1014 83 10000 4.6 80 14:37 26.08.2019
3035 Clouds 26 1014 83 10000 4.6 80 14:37 26.08.2019
3036 Clouds 26 1014 83 10000 3.6 70 14:18 26.08.2019
3037 Clouds 26 1014 83 10000 4.1 70 13:40 26.08.2019
3038 Clouds 26 1015 78 10000 4.1 240 13:21 26.08.2019
3039 Clouds 25 1014 83 10000 4.6 70 12:45 26.08.2019
3040 Clouds 26 1014 69 10000 4.6 220 12:27 26.08.2019
3041 Clouds 26 1014 74 8000 4.1 210 11:56 26.08.2019
3042 Clouds 26 1014 83 10000 5.1 70 11:37 26.08.2019
3043 Mist 25 1013 83 10000 5.7 60 11:18 26.08.2019
3044 Mist 25 1013 83 10000 5.1 60 10:44 26.08.2019
3045 Mist 25 1013 83 10000 5.1 60 10:44 26.08.2019
3046 Mist 25 1013 78 8000 4.6 210 10:24 26.08.2019
3047 Mist 23 1013 88 10000 5.1 60 09:59 26.08.2019
3048 Mist 23 1013 88 10000 5.1 60 09:39 26.08.2019
3049 Mist 23 1013 78 10000 3.1 210 09:21 26.08.2019
3050 Mist 22 1013 94 10000 3.6 210 08:55 26.08.2019
3051 Mist 22 1012 94 10000 4.6 220 08:36 26.08.2019
3052 Mist 22 1012 94 10000 5.7 70 08:18 26.08.2019
3053 Mist 23 1012 88 10000 2.6 210 07:41 26.08.2019
3054 Mist 23 1012 88 10000 2.6 210 07:23 26.08.2019
3055 Mist 23 1012 83 10000 2.1 190 06:48 26.08.2019
3056 Mist 23 1012 83 10000 2.1 190 06:25 26.08.2019
3057 Mist 23 1012 83 10000 2.1 180 05:49 26.08.2019
3058 Mist 23 1012 78 10000 2.6 150 04:31 26.08.2019
3059 Mist 23 1012 73 10000 1.5 180 02:56 26.08.2019
3060 Clear 24 1013 73 10000 2.1 190 01:39 26.08.2019
3061 Clouds 24 1015 83 10000 8.2 130 01:18 26.08.2019
3062 Clear 24 1013 73 10000 3.1 180 00:38 26.08.2019
3063 Clouds 24 1013 88 10000 14.4 100 00:19 26.08.2019
3064 Clear 25 1012 65 10000 6.7 100 23:42 25.08.2019
3065 Clouds 25 1013 88 10000 11.3 80 23:19 25.08.2019
3066 Clear 25 1012 65 10000 3.6 100 22:56 25.08.2019
3067 Clear 24 1012 69 10000 7.2 110 22:38 25.08.2019
3068 Clouds 24 1014 88 10000 6.2 80 22:19 25.08.2019
3069 Clouds 25 1014 83 10000 7.2 100 21:55 25.08.2019
3070 Clear 25 1011 69 10000 7.2 100 21:37 25.08.2019
3071 Clouds 25 1013 83 10000 7.2 80 21:18 25.08.2019
3072 Clouds 25 1013 78 10000 7.7 80 20:39 25.08.2019
3073 Clouds 26 1014 83 10000 6.7 60 20:19 25.08.2019
3074 Clouds 26 1011 58 10000 9.3 100 19:56 25.08.2019
3075 Clouds 26 1015 83 10000 4.1 90 19:37 25.08.2019
3076 Clouds 28 1014 83 10000 5.7 90 19:18 25.08.2019
3077 Clouds 28 1011 43 10000 9.3 90 18:57 25.08.2019
3078 Clear 28 1011 43 10000 9.3 90 18:39 25.08.2019
3079 Clouds 28 1014 78 10000 6.2 90 18:18 25.08.2019
3080 Clouds 28 1014 78 10000 7.2 80 17:42 25.08.2019
3081 Clear 28 1011 46 10000 8.7 90 17:23 25.08.2019
3082 Clouds 28 1015 78 10000 6.2 80 16:45 25.08.2019
3083 Clear 28 1012 52 10000 8.7 90 16:24 25.08.2019
3084 Clear 28 1012 51 10000 8.7 80 15:59 25.08.2019
3085 Clouds 28 1015 78 10000 7.2 70 15:40 25.08.2019
3086 Clear 27 1013 51 10000 8.2 90 15:21 25.08.2019
3087 Clear 27 1013 51 10000 8.2 90 15:21 25.08.2019
3088 Clouds 27 1016 78 10000 6.2 70 14:41 25.08.2019
3089 Clear 27 1014 51 10000 8.7 80 14:23 25.08.2019
3090 Clouds 27 1016 78 10000 7.2 80 13:47 25.08.2019
3091 Clear 27 1014 54 10000 9.3 90 13:22 25.08.2019
3092 Clear 27 1014 54 10000 9.3 90 13:22 25.08.2019
3093 Clear 27 1014 54 10000 9.8 90 12:59 25.08.2019
3094 Clouds 27 1016 78 10000 6.7 80 12:40 25.08.2019
3095 Clear 27 1014 54 10000 8.7 90 12:22 25.08.2019
3096 Clear 26 1014 54 10000 8.7 90 11:57 25.08.2019
3097 Clouds 26 1016 83 10000 7.2 80 11:37 25.08.2019
3098 Clear 25 1014 61 10000 8.2 90 11:19 25.08.2019
3099 Clear 25 1014 61 10000 8.2 90 10:55 25.08.2019
3100 Clear 25 1014 61 10000 8.2 90 10:37 25.08.2019
3101 Clouds 24 1016 88 10000 7.2 90 10:18 25.08.2019
3102 Clouds 24 1016 88 10000 6.7 80 09:42 25.08.2019
3103 Clear 24 1014 69 10000 7.7 90 09:23 25.08.2019
3104 Clear 23 1013 73 10000 8.2 90 08:44 25.08.2019
3105 Clear 23 1013 73 10000 8.2 90 08:25 25.08.2019
3106 Clear 23 1013 73 10000 7.2 90 07:47 25.08.2019
3107 Clear 23 1013 73 10000 7.2 90 07:27 25.08.2019
3108 Clear 23 1013 73 10000 6.7 90 06:37 25.08.2019
3109 Clear 23 1013 73 10000 5.1 100 05:27 25.08.2019
3110 Clear 23 1014 69 10000 8.7 90 03:43 25.08.2019
3111 Clear 23 1013 69 10000 9.3 90 02:42 25.08.2019
3112 Clear 24 1014 65 10000 10.8 80 01:49 25.08.2019
3113 Clear 24 1014 69 10000 12.3 90 00:44 25.08.2019
3114 Clear 24 1014 69 10000 12.3 90 00:22 25.08.2019
3115 Clear 24 1014 65 10000 11.3 90 23:54 24.08.2019
3116 Clear 24 1014 65 10000 10.8 90 23:24 24.08.2019
3117 Clear 25 1013 61 10000 10.8 90 22:59 24.08.2019
3118 Clear 25 1013 65 10000 9.3 90 22:40 24.08.2019
3119 Clear 25 1016 83 10000 8.2 90 22:19 24.08.2019
3120 Clear 25 1016 83 10000 8.2 90 22:19 24.08.2019
3121 Clear 25 1013 61 10000 10.3 80 21:57 24.08.2019
3122 Clear 25 1013 61 10000 10.3 80 21:57 24.08.2019
3123 Clear 25 1013 61 10000 10.3 80 21:39 24.08.2019
3124 Clear 25 1013 61 10000 10.3 80 21:21 24.08.2019
3125 Clouds 26 1016 83 10000 6.7 110 20:57 24.08.2019
3126 Clouds 26 1016 83 10000 6.7 110 20:38 24.08.2019
3127 Clouds 27 1016 73 10000 6.7 110 20:18 24.08.2019
3128 Clear 27 1013 54 10000 10.3 80 19:57 24.08.2019
3129 Clouds 27 1016 78 10000 6.2 110 19:38 24.08.2019
3130 Clouds 26 1016 78 10000 5.1 100 19:19 24.08.2019
3131 Clouds 27 1016 78 10000 5.7 100 18:45 24.08.2019
3132 Clear 27 1013 43 10000 8.2 80 18:23 24.08.2019
3133 Clouds 28 1016 74 10000 6.2 100 17:46 24.08.2019
3134 Clear 28 1013 38 10000 9.8 60 17:27 24.08.2019
3135 Clear 28 1014 43 10000 9.8 60 16:56 24.08.2019
3136 Clouds 28 1017 74 10000 6.2 90 16:36 24.08.2019
3137 Clouds 27 1017 78 10000 6.2 80 16:18 24.08.2019
3138 Clouds 28 1017 74 10000 6.2 90 15:43 24.08.2019
3139 Clear 28 1014 36 10000 8.7 50 15:24 24.08.2019
3140 Clouds 28 1018 78 10000 6.7 80 14:55 24.08.2019
3141 Clouds 28 1018 78 10000 6.7 80 14:37 24.08.2019
3142 Clouds 28 1018 78 10000 7.2 80 14:18 24.08.2019
3143 Clouds 28 1018 78 10000 7.2 70 13:42 24.08.2019
3144 Clear 28 1015 48 10000 9.8 90 13:22 24.08.2019
3145 Clear 27 1015 48 10000 8.7 90 12:58 24.08.2019
3146 Clouds 26 1018 83 10000 7.2 80 12:39 24.08.2019
3147 Clear 26 1015 51 10000 9.8 80 12:20 24.08.2019
3148 Clouds 26 1018 83 10000 7.2 80 11:45 24.08.2019
3149 Clear 26 1015 58 10000 8.7 90 11:24 24.08.2019
3150 Clear 25 1015 57 10000 9.3 80 10:53 24.08.2019
3151 Clear 25 1014 57 10000 10.3 90 10:24 24.08.2019
3152 Clear 25 1024 54 10000 8.2 90 09:58 24.08.2019
3153 Clouds 25 1017 88 10000 6.2 100 09:38 24.08.2019
3154 Clouds 24 1017 88 10000 6.2 90 09:18 24.08.2019
3155 Clear 22 1014 88 10000 9.3 90 08:41 24.08.2019
3156 Clear 22 1014 88 10000 9.3 90 08:23 24.08.2019
3157 Clear 22 1014 88 10000 9.3 90 08:23 24.08.2019
3158 Clear 23 1014 73 10000 10.3 90 07:50 24.08.2019
3159 Clear 23 1014 73 10000 10.3 90 07:28 24.08.2019
3160 Clear 23 1014 73 10000 10.3 90 06:31 24.08.2019
3161 Clear 23 1014 69 10000 9.8 90 05:47 24.08.2019
3162 Clear 23 1014 69 10000 9.8 90 05:29 24.08.2019
3163 Clear 24 1014 69 10000 9.8 90 03:39 24.08.2019
3164 Clear 24 1014 65 10000 10.3 90 02:33 24.08.2019
3165 Clear 24 1014 65 10000 10.8 90 01:47 24.08.2019
3166 Clear 24 1014 65 10000 10.8 90 01:22 24.08.2019
3167 Clear 24 1014 69 10000 11.3 90 00:43 24.08.2019
3168 Clear 24 1017 88 10000 9.3 70 00:18 24.08.2019
3169 Clear 24 1013 41 10000 10.8 90 23:43 23.08.2019
3170 Clear 25 1017 88 10000 9.8 70 23:19 23.08.2019
3171 Clouds 24 1017 88 10000 7.2 70 22:43 23.08.2019
3172 Clear 25 1012 65 10000 12.3 90 22:24 23.08.2019
3173 Clear 25 1012 54 10000 13.4 90 21:54 23.08.2019
3174 Clouds 26 1016 83 10000 7.2 70 21:36 23.08.2019
3175 Clouds 26 1016 83 10000 7.7 70 21:18 23.08.2019
3176 Clouds 26 1016 83 10000 9.3 70 20:45 23.08.2019
3177 Clouds 26 1016 83 10000 7.2 70 20:27 23.08.2019
3178 Clouds 27 1016 78 10000 7.2 70 19:45 23.08.2019
3179 Clouds 27 1016 78 10000 7.2 70 19:19 23.08.2019
3180 Clouds 27 1016 78 10000 7.2 70 19:19 23.08.2019
3181 Clear 27 1012 45 10000 12.9 90 18:54 23.08.2019
3182 Clear 27 1012 45 10000 13.4 80 18:36 23.08.2019
3183 Clouds 28 1016 73 10000 7.2 70 18:18 23.08.2019
3184 Clouds 28 1017 73 10000 7.2 70 17:41 23.08.2019
3185 Clear 28 1012 46 10000 12.3 80 17:21 23.08.2019
3186 Clouds 28 1017 69 10000 7.7 70 16:49 23.08.2019
3187 Clear 28 1013 46 10000 12.3 90 16:30 23.08.2019
3188 Mist 27 1013 32 10000 12.9 90 15:59 23.08.2019
3189 Mist 28 1017 69 10000 7.2 80 15:39 23.08.2019
3190 Mist 28 1014 32 10000 12.9 90 15:21 23.08.2019
3191 Clouds 27 1018 69 10000 7.2 70 14:44 23.08.2019
3192 Clear 27 1014 46 10000 13.4 90 14:21 23.08.2019
3193 Clear 27 1014 45 10000 13.9 90 13:59 23.08.2019
3194 Clouds 26 1018 69 10000 7.2 80 13:41 23.08.2019
3195 Clear 26 1015 51 10000 13.4 90 13:22 23.08.2019
3196 Clear 25 1015 54 10000 13.9 90 12:58 23.08.2019
3197 Clear 25 1015 54 10000 13.9 90 12:58 23.08.2019
3198 Clouds 25 1018 78 10000 7.2 70 12:40 23.08.2019
3199 Drizzle 25 1018 73 10000 7.2 70 12:21 23.08.2019
3200 Drizzle 25 1015 57 10000 12.9 90 11:56 23.08.2019
3201 Drizzle 24 1018 78 10000 8.2 60 11:38 23.08.2019
3202 Clouds 24 1018 78 10000 7.7 60 11:18 23.08.2019
3203 Clouds 24 1018 83 10000 8.2 70 10:45 23.08.2019
3204 Clear 24 1014 65 10000 14.9 90 10:23 23.08.2019
3205 Clear 24 1014 65 10000 12.3 90 09:58 23.08.2019
3206 Clouds 24 1017 83 10000 8.2 70 09:39 23.08.2019
3207 Drizzle 24 1017 83 10000 8.2 70 09:20 23.08.2019
3208 Drizzle 23 1013 69 10000 12.3 90 08:44 23.08.2019
3209 Clouds 23 1017 88 10000 8.7 60 08:20 23.08.2019
3210 Clouds 23 1013 73 10000 13.4 90 07:43 23.08.2019
3211 Clouds 23 1013 73 10000 13.4 90 07:24 23.08.2019
3212 Clear 23 1017 88 10000 10.3 70 06:59 23.08.2019
3213 Clouds 23 1013 69 10000 10.3 90 06:40 23.08.2019
3214 Clouds 23 1013 69 10000 10.3 90 06:21 23.08.2019
3215 Clouds 23 1013 69 10000 10.8 90 05:43 23.08.2019
3216 Clouds 23 1013 69 10000 10.8 90 05:22 23.08.2019
3217 Clouds 24 1013 65 10000 11.3 90 03:23 23.08.2019
3218 Clouds 24 1013 65 10000 13.4 90 02:24 23.08.2019
3219 Clouds 24 1013 65 10000 12.3 90 01:47 23.08.2019
3220 Clouds 24 1013 61 10000 11.3 90 00:46 23.08.2019
3221 Clouds 24 1013 61 10000 11.3 90 00:22 23.08.2019
3222 Clouds 24 1013 61 10000 12.3 90 23:50 22.08.2019
3223 Clouds 24 1013 61 10000 12.3 90 23:32 22.08.2019
3224 Clouds 24 1013 61 10000 11.8 90 22:58 22.08.2019
3225 Clouds 25 1013 57 10000 12.3 90 22:40 22.08.2019
3226 Clouds 25 1013 57 10000 12.3 90 22:21 22.08.2019
3227 Clouds 25 1013 73 10000 12.9 90 21:56 22.08.2019
3228 Clouds 25 1017 83 10000 6.7 90 21:37 22.08.2019
3229 Clouds 25 1013 57 10000 12.9 80 21:19 22.08.2019
3230 Clouds 26 1012 57 10000 13.9 90 20:56 22.08.2019
3231 Clouds 27 1013 51 10000 14.4 90 20:38 22.08.2019
3232 Clouds 27 1016 78 10000 7.2 100 20:18 22.08.2019
3233 Clouds 27 1012 51 10000 13.9 90 19:54 22.08.2019
3234 Clouds 27 1012 51 10000 13.9 90 19:54 22.08.2019
3235 Clouds 27 1015 65 8000 7.7 110 19:36 22.08.2019
3236 Clouds 27 1016 73 10000 8.2 70 19:18 22.08.2019
3237 Clouds 28 1012 48 10000 14.4 100 18:55 22.08.2019
3238 Clouds 28 1012 48 10000 15.4 90 18:36 22.08.2019
3239 Clouds 28 1016 74 10000 8.2 80 18:18 22.08.2019
3240 Clouds 28 1016 78 10000 7.7 80 17:42 22.08.2019
3241 Clouds 28 1012 48 10000 14.9 90 17:21 22.08.2019
3242 Clouds 25 1017 74 10000 7.7 80 16:58 22.08.2019
3243 Clouds 25 1017 74 10000 7.7 80 16:39 22.08.2019
3244 Clouds 25 1013 88 10000 10.3 90 16:20 22.08.2019
3245 Clouds 28 1013 48 10000 14.4 80 15:57 22.08.2019
3246 Clouds 28 1013 48 10000 14.4 80 15:57 22.08.2019
3247 Clouds 28 1013 48 10000 14.4 80 15:57 22.08.2019
3248 Clouds 28 1013 48 10000 14.4 80 15:57 22.08.2019
3249 Clouds 28 1017 74 10000 8.2 70 15:38 22.08.2019
3250 Clouds 28 1017 74 10000 8.2 70 15:38 22.08.2019
3251 Clouds 28 1017 74 10000 8.7 70 15:19 22.08.2019
3252 Clouds 28 1017 74 10000 8.7 70 15:19 22.08.2019
3253 Clouds 28 1017 74 10000 8.7 70 15:19 22.08.2019
3254 Clouds 27 1013 51 10000 13.9 90 14:56 22.08.2019
3255 Clouds 28 1017 73 10000 8.2 70 14:38 22.08.2019
3256 Clouds 28 1017 74 10000 7.2 70 14:18 22.08.2019
3257 Clouds 27 1017 74 10000 8.2 70 13:41 22.08.2019
3258 Clear 27 1013 55 10000 14.4 90 13:22 22.08.2019
3259 Clear 26 1014 58 10000 15.4 90 12:59 22.08.2019
3260 Clouds 26 1018 73 10000 7.7 70 12:39 22.08.2019
3261 Clear 26 1014 54 10000 13.4 90 12:20 22.08.2019
3262 Clear 26 1014 54 10000 13.9 90 11:43 22.08.2019
3263 Clouds 25 1017 78 10000 7.2 70 11:22 22.08.2019
3264 Clear 25 1014 58 10000 14.4 90 10:59 22.08.2019
3265 Clear 25 1014 58 10000 14.4 90 10:59 22.08.2019
3266 Clouds 25 1017 78 10000 7.2 80 10:41 22.08.2019
3267 Mist 24 1017 78 10000 7.2 70 10:22 22.08.2019
3268 Mist 24 1013 69 10000 9.8 80 09:58 22.08.2019
3269 Mist 24 1017 83 10000 6.7 70 09:39 22.08.2019
3270 Mist 24 1017 83 10000 5.1 80 09:21 22.08.2019
3271 Mist 24 1017 83 10000 5.1 80 09:21 22.08.2019
3272 Mist 23 1013 69 10000 8.7 90 08:56 22.08.2019
3273 Mist 23 1013 69 10000 8.7 90 08:38 22.08.2019
3274 Mist 23 1013 69 10000 8.7 90 08:20 22.08.2019
3275 Mist 23 1013 69 10000 9.8 80 07:40 22.08.2019
3276 Mist 23 1017 94 10000 7.2 70 07:20 22.08.2019
3277 Mist 23 1013 69 10000 8.7 80 06:52 22.08.2019
3278 Mist 23 1013 69 10000 8.7 80 06:24 22.08.2019
3279 Mist 24 1014 65 10000 9.8 80 05:45 22.08.2019
3280 Mist 24 1014 69 10000 9.3 80 04:29 22.08.2019
3281 Mist 24 1015 69 10000 9.3 70 02:50 22.08.2019
3282 Mist 24 1015 69 10000 9.3 70 02:50 22.08.2019
3283 Mist 24 1015 69 10000 9.3 70 02:32 22.08.2019
3284 Mist 24 1014 69 10000 9.8 80 01:23 22.08.2019
3285 Mist 24 1014 69 10000 10.8 80 00:45 22.08.2019
3286 Mist 24 1014 69 10000 10.8 80 00:26 22.08.2019
3287 Mist 25 1014 69 10000 10.8 80 23:51 21.08.2019
3288 Mist 25 1014 69 10000 10.8 80 23:32 21.08.2019
3289 Mist 25 1014 69 10000 12.3 80 22:59 21.08.2019
3290 Mist 25 1013 65 10000 8.2 80 22:41 21.08.2019
3291 Mist 25 1013 65 10000 8.2 80 22:22 21.08.2019
3292 Mist 25 1017 88 10000 6.7 100 22:22 21.08.2019
3293 Haze 25 1013 65 10000 8.7 90 21:58 21.08.2019
3294 Haze 25 1016 88 10000 5.1 100 21:39 21.08.2019
3295 Haze 26 1016 83 10000 7.2 110 21:20 21.08.2019
3296 Haze 26 1013 61 10000 8.7 90 20:59 21.08.2019
3297 Haze 26 1016 83 10000 6.7 110 20:41 21.08.2019
3298 Haze 26 1013 58 10000 10.3 90 20:23 21.08.2019
3299 Haze 27 1016 83 10000 5.7 100 19:56 21.08.2019
3300 Haze 27 1013 45 10000 10.3 90 19:37 21.08.2019
3301 Haze 27 1016 83 10000 5.1 100 19:19 21.08.2019
3302 Haze 28 1015 83 10000 5.1 90 18:43 21.08.2019
3303 Haze 28 1013 43 10000 9.8 90 18:23 21.08.2019
3304 Haze 28 1013 40 10000 8.7 90 17:54 21.08.2019
3305 Haze 29 1016 78 8000 7.7 70 17:36 21.08.2019
3306 Haze 29 1016 78 10000 6.7 70 17:18 21.08.2019
3307 Haze 27 1016 78 10000 6.2 70 16:42 21.08.2019
3308 Haze 27 1014 65 10000 4.1 250 16:23 21.08.2019
3309 Haze 27 1014 65 10000 2.6 250 15:59 21.08.2019
3310 Haze 27 1017 78 10000 5.7 70 15:40 21.08.2019
3311 Haze 26 1015 50 10000 4.1 250 15:20 21.08.2019
3312 Clear 26 1015 65 10000 4.1 250 14:57 21.08.2019
3313 Clouds 26 1017 83 10000 5.1 70 14:38 21.08.2019
3314 Clouds 26 1017 78 10000 6.2 80 14:20 21.08.2019
3315 Clouds 26 1017 78 10000 6.2 80 14:20 21.08.2019
3316 Clouds 26 1017 78 10000 6.2 80 14:20 21.08.2019
3317 Clouds 26 1017 78 10000 6.2 80 13:45 21.08.2019
3318 Clear 26 1016 61 10000 3.1 260 13:22 21.08.2019
3319 Clear 25 1016 69 10000 4.1 270 12:59 21.08.2019
3320 Clear 25 1016 69 10000 4.1 270 12:59 21.08.2019
3321 Clouds 25 1017 83 10000 5.1 90 12:40 21.08.2019
3322 Clear 25 1016 69 10000 4.1 270 12:21 21.08.2019
3323 Clear 25 1016 57 10000 2.6 250 11:57 21.08.2019
3324 Clouds 25 1017 83 10000 5.1 100 11:39 21.08.2019
3325 Clouds 24 1017 83 10000 4.1 90 11:20 21.08.2019
3326 Haze 24 1015 57 10000 1 0 10:56 21.08.2019
3327 Haze 24 1017 88 7000 5.1 100 10:37 21.08.2019
3328 Haze 24 1015 57 10000 1 0 10:19 21.08.2019
3329 Haze 22 1017 88 7000 4.6 90 09:42 21.08.2019
3330 Haze 20 1017 88 7000 4.6 90 09:23 21.08.2019
3331 Haze 20 1015 77 10000 1.5 80 08:57 21.08.2019
3332 Haze 21 1015 77 10000 0.5 0 08:38 21.08.2019
3333 Haze 21 1015 77 10000 0.5 0 08:19 21.08.2019
3334 Haze 21 1015 68 10000 1 0 07:40 21.08.2019
3335 Haze 21 1015 68 10000 1 0 07:20 21.08.2019
3336 Clear 21 1014 68 10000 2.6 120 06:47 21.08.2019
3337 Clear 21 1016 88 10000 6.2 90 06:21 21.08.2019
3338 Clear 20 1015 72 10000 2.1 90 05:38 21.08.2019
3339 Clear 20 1016 94 10000 5.7 80 05:19 21.08.2019
3340 Clear 21 1015 72 10000 1 130 03:23 21.08.2019
3341 Clear 21 1016 72 10000 0.5 0 01:42 21.08.2019
3342 Clear 21 1016 77 10000 1.5 330 00:44 21.08.2019
3343 Clear 21 1016 77 10000 1.5 330 00:24 21.08.2019
3344 Clear 22 1016 77 10000 1 0 23:56 20.08.2019
3345 Clear 22 1016 77 10000 1 0 23:38 20.08.2019
3346 Clear 22 1016 73 10000 2.1 80 23:18 20.08.2019
3347 Clear 22 1015 77 10000 1 0 22:55 20.08.2019
3348 Clear 22 1015 77 10000 1 0 22:36 20.08.2019
3349 Clear 23 1015 78 10000 2.6 80 22:18 20.08.2019
3350 Clear 24 1015 68 10000 3.6 280 21:56 20.08.2019
3351 Clear 24 1015 68 10000 3.6 280 21:37 20.08.2019
3352 Clear 25 1014 57 10000 1 70 21:18 20.08.2019
3353 Clear 25 1014 53 10000 2.6 320 20:42 20.08.2019
3354 Clear 25 1014 53 10000 2.6 320 20:24 20.08.2019
3355 Clear 27 1015 57 10000 3.6 270 19:42 20.08.2019
3356 Clear 27 1015 57 10000 3.6 270 19:23 20.08.2019
3357 Clear 27 1015 50 10000 3.6 280 18:59 20.08.2019
3358 Clear 27 1015 50 10000 3.6 280 18:41 20.08.2019
3359 Clear 27 1015 50 10000 3.6 280 18:41 20.08.2019
3360 Clear 28 1015 57 10000 3.6 280 18:20 20.08.2019
3361 Clear 28 1015 57 10000 3.6 280 17:59 20.08.2019
3362 Clear 28 1015 57 10000 3.6 280 17:39 20.08.2019
3363 Clear 28 1015 57 10000 3.6 280 17:20 20.08.2019
3364 Clear 28 1016 61 10000 4.6 270 16:46 20.08.2019
3365 Clear 28 1016 61 10000 4.6 270 16:28 20.08.2019
3366 Clear 27 1016 64 10000 4.1 290 15:58 20.08.2019
3367 Clear 27 1016 64 10000 4.1 280 15:40 20.08.2019
3368 Clear 27 1016 64 10000 4.1 280 15:18 20.08.2019
3369 Clear 27 1016 64 10000 2.6 260 14:44 20.08.2019
3370 Clear 27 1016 64 10000 2.6 260 14:44 20.08.2019
3371 Clear 27 1016 64 10000 4.6 270 14:22 20.08.2019
3372 Clear 27 1016 64 10000 4.6 270 14:22 20.08.2019
3373 Clear 27 1017 64 10000 4.1 250 13:59 20.08.2019
3374 Clear 27 1017 69 10000 4.6 250 13:40 20.08.2019
3375 Clear 27 1017 69 10000 4.6 250 13:21 20.08.2019
3376 Clear 28 1017 69 10000 3.6 250 12:54 20.08.2019
3377 Clear 27 1017 69 10000 4.6 250 12:36 20.08.2019
3378 Clear 27 1017 69 10000 4.6 250 12:18 20.08.2019
3379 Clouds 26 1016 69 8000 4.1 230 11:42 20.08.2019
3380 Clouds 26 1016 69 8000 4.1 230 11:21 20.08.2019
3381 Clouds 25 1016 73 8000 3.1 220 10:57 20.08.2019
3382 Clouds 24 1016 78 8000 2.1 180 10:39 20.08.2019
3383 Clouds 24 1016 78 8000 2.1 180 10:39 20.08.2019
3384 Clouds 24 1016 78 8000 2.1 180 10:39 20.08.2019
3385 Clouds 24 1016 78 8000 2.1 180 10:20 20.08.2019
3386 Clouds 22 1016 83 8000 2.1 180 09:56 20.08.2019
3387 Clouds 22 1016 88 8000 2.1 180 09:38 20.08.2019
3388 Clouds 22 1016 88 8000 2.1 180 09:38 20.08.2019
3389 Clouds 22 1016 88 8000 2.1 180 09:20 20.08.2019
3390 Clouds 22 1016 88 8000 2.1 160 08:41 20.08.2019
3391 Clouds 22 1016 88 8000 2.1 160 08:23 20.08.2019
3392 Clouds 22 1015 88 8000 3.1 170 07:57 20.08.2019
3393 Clear 22 1015 88 10000 2.6 170 07:38 20.08.2019
3394 Clear 22 1015 88 10000 2.6 170 07:20 20.08.2019
3395 Clear 25 1014 60 10000 4.1 230 06:41 20.08.2019
3396 Clear 24 1013 18 10000 6.7 260 06:19 20.08.2019
3397 Clear 25 1014 60 10000 5.1 230 05:40 20.08.2019
3398 Clear 23 1015 88 10000 2.1 190 04:21 20.08.2019
3399 Clear 24 1016 83 10000 1.5 200 02:47 20.08.2019
3400 Clear 24 1016 77 10000 2.1 190 01:45 20.08.2019
3401 Clear 24 1016 77 10000 2.1 180 01:19 20.08.2019
3402 Clear 23 1013 77 10000 1.5 190 00:43 20.08.2019
3403 Clear 24 1013 77 10000 1.5 190 00:21 20.08.2019
3404 Clear 24 1016 73 10000 1 0 23:42 19.08.2019
3405 Clear 24 1016 73 10000 1 0 23:18 19.08.2019
3406 Clear 25 1016 73 10000 1 0 22:57 19.08.2019
3407 Clear 25 1015 68 10000 1.5 210 22:39 19.08.2019
3408 Clear 25 1015 68 10000 1.5 210 22:19 19.08.2019
3409 Clouds 24 1013 54 10000 4.6 240 21:56 19.08.2019
3410 Clear 26 1015 64 10000 2.1 260 21:37 19.08.2019
3411 Clear 26 1015 64 10000 2.1 260 21:37 19.08.2019
3412 Clear 28 1015 64 10000 2.1 260 21:18 19.08.2019
3413 Clear 28 1015 60 10000 2.1 260 20:40 19.08.2019
3414 Clear 28 1015 60 10000 2.1 260 20:20 19.08.2019
3415 Clear 29 1015 64 10000 3.1 250 19:59 19.08.2019
3416 Clear 28 1012 54 10000 6.2 230 19:40 19.08.2019
3417 Clear 29 1015 60 10000 4.1 270 19:19 19.08.2019
3418 Clear 30 1015 64 10000 2.1 260 18:47 19.08.2019
3419 Clouds 29 1013 45 10000 5.7 230 18:29 19.08.2019
3420 Clouds 30 1015 73 10000 3.1 300 17:59 19.08.2019
3421 Clouds 30 1015 69 10000 4.6 300 17:41 19.08.2019
3422 Clouds 30 1015 69 10000 4.6 300 17:22 19.08.2019
3423 Clouds 30 1015 73 6000 6.7 260 16:58 19.08.2019
3424 Clouds 30 1013 51 10000 7.2 270 16:37 19.08.2019
3425 Clouds 31 1016 69 6000 6.2 270 16:19 19.08.2019
3426 Clouds 31 1016 69 8000 6.7 270 15:55 19.08.2019
3427 Clear 30 1016 69 10000 4.6 270 15:37 19.08.2019
3428 Clear 31 1014 48 10000 5.1 210 15:18 19.08.2019
3429 Clear 30 1014 51 10000 5.7 220 14:41 19.08.2019
3430 Clear 29 1014 61 10000 7.2 200 14:22 19.08.2019
3431 Clouds 29 1016 69 10000 4.6 250 13:57 19.08.2019
3432 Clear 29 1014 61 10000 7.2 210 13:38 19.08.2019
3433 Clear 29 1014 61 10000 7.2 210 13:38 19.08.2019
3434 Clouds 28 1014 65 10000 6.2 220 13:19 19.08.2019
3435 Clouds 28 1014 65 10000 6.2 220 13:19 19.08.2019
3436 Clouds 28 1014 65 10000 5.7 220 12:45 19.08.2019
3437 Clouds 28 1016 65 10000 4.1 220 12:24 19.08.2019
3438 Clouds 27 1016 69 10000 3.1 220 11:59 19.08.2019
3439 Clouds 26 1015 69 10000 6.2 270 11:39 19.08.2019
3440 Clouds 25 1014 69 10000 6.7 270 11:20 19.08.2019
3441 Clouds 25 1014 73 10000 6.2 260 10:55 19.08.2019
3442 Clouds 25 1014 73 10000 6.2 260 10:36 19.08.2019
3443 Clouds 24 1014 78 10000 6.7 270 10:18 19.08.2019
3444 Clouds 23 1014 83 10000 7.2 280 09:41 19.08.2019
3445 Clouds 23 1014 88 10000 7.2 270 09:22 19.08.2019
3446 Clouds 23 1014 88 10000 7.2 270 09:22 19.08.2019
3447 Clouds 23 1016 93 6000 4.1 240 08:55 19.08.2019
3448 Mist 22 1015 93 4500 4.1 240 08:37 19.08.2019
3449 Mist 22 1013 88 10000 6.7 250 08:18 19.08.2019
3450 Mist 22 1013 88 10000 6.7 250 08:18 19.08.2019
3451 Clouds 22 1015 88 5000 2.6 220 07:42 19.08.2019
3452 Clouds 22 1015 88 5000 2.6 220 07:24 19.08.2019
3453 Clouds 22 1014 88 10000 2.1 220 06:45 19.08.2019
3454 Clouds 22 1014 88 10000 2.1 220 06:24 19.08.2019
3455 Mist 24 1015 88 4000 1 0 04:54 19.08.2019
3456 Clouds 24 1015 94 8000 1 0 04:23 19.08.2019
3457 Clouds 23 1016 94 8000 2.1 210 03:20 19.08.2019
3458 Clouds 24 1016 88 8000 1 0 01:48 19.08.2019
3459 Clouds 24 1016 88 8000 1 0 01:21 19.08.2019
3460 Clouds 25 1016 88 6000 1 0 00:43 19.08.2019
3461 Clouds 25 1016 88 6000 1 0 00:20 19.08.2019
3462 Clouds 25 1015 88 10000 1.5 180 23:41 18.08.2019
3463 Clear 26 1013 47 10000 6.7 250 23:21 18.08.2019
3464 Clouds 26 1015 88 10000 1.5 200 22:40 18.08.2019
3465 Clear 27 1013 54 10000 5.7 270 22:22 18.08.2019
3466 Clear 27 1013 48 10000 6.2 260 21:58 18.08.2019
3467 Clear 27 1013 48 10000 6.2 260 21:40 18.08.2019
3468 Clear 28 1014 83 10000 2.1 240 21:21 18.08.2019
3469 Clear 28 1014 83 10000 2.1 240 21:21 18.08.2019
3470 Clear 28 1012 54 10000 7.2 270 20:58 18.08.2019
3471 Clear 28 1012 54 10000 7.2 270 20:40 18.08.2019
3472 Clear 28 1014 83 10000 3.1 260 20:22 18.08.2019
3473 Clear 28 1012 45 10000 7.7 270 19:42 18.08.2019
3474 Clear 28 1014 78 10000 2.6 230 19:24 18.08.2019
3475 Clear 29 1012 35 10000 5.1 240 18:59 18.08.2019
3476 Clear 29 1012 35 10000 5.1 240 18:40 18.08.2019
3477 Clear 29 1012 33 10000 5.1 240 18:21 18.08.2019
3478 Clear 29 1013 38 10000 5.7 220 17:55 18.08.2019
3479 Clear 29 1013 38 10000 5.7 220 17:37 18.08.2019
3480 Clear 28 1013 45 10000 7.2 210 17:18 18.08.2019
3481 Clear 28 1015 69 10000 5.7 260 16:55 18.08.2019
3482 Clear 28 1015 69 10000 5.7 260 16:55 18.08.2019
3483 Clear 28 1013 45 10000 6.7 210 16:36 18.08.2019
3484 Clear 29 1013 40 10000 5.1 230 16:18 18.08.2019
3485 Clear 29 1015 69 10000 6.2 260 15:40 18.08.2019
3486 Clear 29 1013 40 10000 5.1 240 15:20 18.08.2019
3487 Clear 29 1013 40 10000 4.6 240 14:58 18.08.2019
3488 Clear 28 1013 40 10000 4.6 240 14:38 18.08.2019
3489 Clouds 28 1016 73 10000 7.2 240 14:19 18.08.2019
3490 Clouds 28 1016 73 10000 7.2 240 13:56 18.08.2019
3491 Clear 28 1014 48 10000 4.6 250 13:38 18.08.2019
3492 Clear 29 1014 54 10000 4.6 250 13:19 18.08.2019
3493 Clear 29 1014 54 10000 4.6 250 12:45 18.08.2019
3494 Clouds 27 1014 57 10000 4.6 250 12:23 18.08.2019
3495 Clouds 26 1015 73 10000 6.2 230 11:56 18.08.2019
3496 Clouds 26 1014 61 10000 3.6 250 11:37 18.08.2019
3497 Clouds 26 1015 73 10000 6.2 220 11:19 18.08.2019
3498 Clouds 24 1014 78 10000 3.1 220 10:41 18.08.2019
3499 Clouds 24 1014 78 10000 3.1 220 10:22 18.08.2019
3500 Mist 23 1014 83 10000 2.6 220 09:53 18.08.2019
3501 Mist 22 1014 88 10000 2.6 210 09:24 18.08.2019
3502 Mist 20 1014 83 10000 2.1 220 08:59 18.08.2019
3503 Mist 20 1014 83 10000 2.1 220 08:41 18.08.2019
3504 Mist 20 1014 83 10000 2.1 220 08:23 18.08.2019
3505 Mist 21 1013 83 10000 2.1 210 07:49 18.08.2019
3506 Mist 21 1013 83 10000 2.1 210 07:29 18.08.2019
3507 Mist 22 1013 78 10000 1.5 190 05:49 18.08.2019
3508 Mist 22 1013 78 10000 1.5 210 04:54 18.08.2019
3509 Mist 22 1013 77 10000 1 280 03:42 18.08.2019
3510 Mist 23 1013 73 10000 1 0 02:46 18.08.2019
3511 Mist 23 1013 73 10000 1 0 02:24 18.08.2019
3512 Mist 23 1013 73 10000 2.1 40 01:44 18.08.2019
3513 Mist 23 1013 88 7000 1.5 100 01:19 18.08.2019
3514 Mist 23 1012 69 10000 3.6 70 00:38 18.08.2019
3515 Mist 23 1012 69 10000 3.6 70 00:38 18.08.2019
3516 Clear 23 1013 88 7000 1 80 00:19 18.08.2019
3517 Clear 23 1012 69 10000 4.6 60 23:57 17.08.2019
3518 Clear 24 1012 57 10000 2.1 80 23:37 17.08.2019
3519 Clear 24 1013 88 9000 1.5 130 23:18 17.08.2019
3520 Clear 24 1012 61 10000 1.5 0 22:56 17.08.2019
3521 Clear 24 1012 61 10000 1.5 0 22:56 17.08.2019
3522 Clear 24 1011 51 10000 5.1 80 22:37 17.08.2019
3523 Clear 24 1013 94 6000 2.1 90 22:18 17.08.2019
3524 Haze 24 1012 88 7000 2.1 80 21:41 17.08.2019
3525 Haze 25 1012 88 7000 2.1 80 21:23 17.08.2019
3526 Haze 26 1012 88 5000 2.6 80 20:41 17.08.2019
3527 Haze 27 1012 83 5000 2.6 70 20:21 17.08.2019
3528 Haze 27 1013 88 6000 3.6 80 19:59 17.08.2019
3529 Haze 27 1013 88 6000 3.6 80 19:40 17.08.2019
3530 Haze 27 1010 40 10000 7.7 40 19:21 17.08.2019
3531 Haze 27 1011 38 10000 7.7 40 18:54 17.08.2019
3532 Haze 28 1011 36 10000 7.2 40 18:36 17.08.2019
3533 Haze 28 1014 83 7000 3.6 70 18:18 17.08.2019
3534 Haze 28 1014 83 9000 3.6 80 17:41 17.08.2019
3535 Haze 28 1014 83 9000 3.6 80 17:21 17.08.2019
3536 Haze 28 1014 83 9000 3.6 80 17:21 17.08.2019
3537 Haze 28 1014 78 9000 3.1 70 16:55 17.08.2019
3538 Haze 27 1014 78 9000 3.1 70 16:36 17.08.2019
3539 Haze 27 1015 83 9000 4.6 80 16:18 17.08.2019
3540 Clear 27 1015 78 10000 3.6 70 15:42 17.08.2019
3541 Clear 27 1013 54 10000 4.1 240 15:21 17.08.2019
3542 Clear 27 1013 51 10000 2.6 260 14:57 17.08.2019
3543 Clouds 27 1015 78 10000 3.6 80 14:37 17.08.2019
3544 Clouds 27 1015 78 10000 3.6 70 14:18 17.08.2019
3545 Clouds 27 1016 78 10000 3.1 70 13:42 17.08.2019
3546 Clear 26 1013 54 10000 3.6 260 13:19 17.08.2019
3547 Clouds 27 1016 83 10000 3.1 60 12:42 17.08.2019
3548 Clear 27 1014 51 10000 2.6 60 12:20 17.08.2019
3549 Clear 26 1014 51 10000 3.1 80 11:58 17.08.2019
3550 Clouds 25 1016 83 10000 2.6 40 11:38 17.08.2019
3551 Haze 25 1014 54 10000 3.1 30 11:19 17.08.2019
3552 Haze 24 1016 88 8000 2.6 40 10:39 17.08.2019
3553 Haze 24 1016 94 5000 2.1 40 10:20 17.08.2019
3554 Mist 23 1014 69 10000 3.1 60 09:52 17.08.2019
3555 Mist 23 1014 69 10000 3.1 60 09:33 17.08.2019
3556 Fog 22 1013 73 10000 3.1 70 08:58 17.08.2019
3557 Fog 22 1013 77 10000 3.6 70 08:28 17.08.2019
3558 Haze 22 1013 78 10000 3.1 70 07:56 17.08.2019
3559 Haze 22 1013 78 10000 3.1 70 07:38 17.08.2019
3560 Haze 22 1015 94 5000 0.5 200 07:19 17.08.2019
3561 Mist 22 1013 78 10000 3.1 90 05:58 17.08.2019
3562 Mist 23 1013 73 10000 3.6 100 04:32 17.08.2019
3563 Mist 23 1013 73 10000 3.6 100 04:31 17.08.2019
3564 Mist 23 1013 69 10000 3.6 80 03:37 17.08.2019
3565 Mist 23 1014 69 10000 8.2 60 01:59 17.08.2019
3566 Mist 23 1014 69 10000 8.2 70 01:36 17.08.2019
3567 Mist 23 1016 88 9000 1.5 80 01:18 17.08.2019
3568 Mist 23 1014 78 10000 8.2 60 00:31 17.08.2019
3569 Mist 23 1014 78 10000 7.2 60 23:57 16.08.2019
3570 Mist 23 1014 78 10000 7.2 60 23:37 16.08.2019
3571 Clear 23 1016 83 9000 3.1 40 23:18 16.08.2019
3572 Haze 23 1013 69 10000 7.2 50 22:40 16.08.2019
3573 Haze 24 1016 83 10000 2.1 70 22:19 16.08.2019
3574 Haze 24 1016 83 10000 2.1 70 22:19 16.08.2019
3575 Clear 24 1016 78 10000 2.1 60 21:42 16.08.2019
3576 Haze 24 1013 69 10000 6.7 50 21:21 16.08.2019
3577 Haze 25 1013 57 10000 6.7 50 20:58 16.08.2019
3578 Haze 26 1015 83 10000 3.1 60 20:39 16.08.2019
3579 Haze 26 1013 48 10000 6.7 50 20:19 16.08.2019
3580 Haze 27 1015 83 10000 3.6 50 19:44 16.08.2019
3581 Haze 27 1013 40 10000 6.2 40 19:23 16.08.2019
3582 Haze 27 1013 35 10000 6.2 30 18:55 16.08.2019
3583 Haze 28 1013 33 10000 7.2 40 18:36 16.08.2019
3584 Haze 27 1016 83 10000 4.1 60 18:18 16.08.2019
3585 Haze 28 1016 83 10000 4.1 70 17:44 16.08.2019
3586 Haze 28 1014 31 10000 8.2 40 17:25 16.08.2019
3587 Haze 28 1017 83 10000 4.1 70 16:56 16.08.2019
3588 Haze 28 1017 83 10000 4.1 70 16:37 16.08.2019
3589 Fog 28 1017 83 10000 4.6 80 16:18 16.08.2019
3590 Haze 28 1017 83 10000 4.1 80 15:41 16.08.2019
3591 Haze 28 1017 78 10000 5.1 100 15:22 16.08.2019
3592 Haze 28 1015 38 10000 8.2 60 14:58 16.08.2019
3593 Haze 28 1017 78 10000 5.1 90 14:39 16.08.2019
3594 Haze 27 1018 83 10000 5.1 90 14:19 16.08.2019
3595 Haze 27 1018 83 10000 5.1 90 14:19 16.08.2019
3596 Clear 27 1015 40 10000 8.2 70 13:57 16.08.2019
3597 Clear 27 1015 38 10000 7.2 60 13:37 16.08.2019
3598 Clear 27 1018 78 10000 4.1 70 13:18 16.08.2019
3599 Clear 27 1018 78 10000 4.1 80 12:38 16.08.2019
3600 Clear 26 1018 73 10000 3.6 80 12:20 16.08.2019
3601 Clear 26 1018 73 10000 3.6 60 11:42 16.08.2019
3602 Clear 26 1016 48 10000 2.1 110 11:24 16.08.2019
3603 Haze 25 1017 78 8000 2.6 70 10:45 16.08.2019
3604 Haze 24 1016 65 10000 2.6 100 10:27 16.08.2019
3605 Mist 23 1016 73 10000 2.1 120 09:58 16.08.2019
3606 Fog 22 1016 78 10000 5.12 91.958 09:37 16.08.2019
3607 Fog 21 1017 100 1600 0.5 160 09:18 16.08.2019
3608 Fog 21 1017 94 400 0.5 280 08:42 16.08.2019
3609 Fog 21 1017 94 400 0.5 280 08:21 16.08.2019
3610 Fog 21 1015 77 10000 1 0 07:59 16.08.2019
3611 Fog 21 1015 77 10000 1.5 130 07:41 16.08.2019
3612 Fog 21 1015 77 10000 1.5 130 07:21 16.08.2019
3613 Mist 22 1016 88 9000 1 360 06:32 16.08.2019
3614 Mist 22 1015 73 10000 2.1 70 05:42 16.08.2019
3615 Mist 22 1014 73 10000 4.1 80 04:31 16.08.2019
3616 Mist 23 1015 78 10000 8.2 60 02:47 16.08.2019
3617 Mist 23 1015 73 10000 5.1 70 01:42 16.08.2019
3618 Clear 23 1017 88 7000 3.6 80 01:19 16.08.2019
3619 Clear 23 1015 69 8000 7.2 60 00:41 16.08.2019
3620 Clear 23 1015 69 8000 7.2 60 00:21 16.08.2019
3621 Clear 23 1015 73 8000 8.2 60 23:45 15.08.2019
3622 Clear 23 1015 73 8000 8.2 60 23:22 15.08.2019
3623 Mist 23 1015 69 8000 8.7 60 22:58 15.08.2019
3624 Mist 24 1014 61 10000 8.2 60 22:39 15.08.2019
3625 Mist 24 1016 94 7000 3.1 60 22:20 15.08.2019
3626 Mist 24 1016 94 7000 3.1 60 22:20 15.08.2019
3627 Mist 24 1014 61 10000 7.7 70 21:55 15.08.2019
3628 Mist 24 1016 88 8000 3.1 70 21:37 15.08.2019
3629 Mist 24 1016 88 10000 3.1 70 21:18 15.08.2019
3630 Mist 25 1016 88 7000 3.1 80 20:42 15.08.2019
3631 Mist 25 1016 88 7000 3.1 80 20:42 15.08.2019
3632 Mist 27 1016 83 8000 3.1 80 20:21 15.08.2019
3633 Mist 27 1014 42 10000 6.2 60 19:57 15.08.2019
3634 Mist 28 1016 78 10000 4.1 100 19:38 15.08.2019
3635 Mist 28 1016 83 10000 3.1 90 19:20 15.08.2019
3636 Mist 28 1016 83 10000 3.1 80 18:47 15.08.2019
3637 Mist 27 1014 31 10000 8.2 60 18:23 15.08.2019
3638 Mist 28 1014 33 10000 9.3 60 17:57 15.08.2019
3639 Mist 28 1014 33 10000 9.3 60 17:57 15.08.2019
3640 Mist 28 1016 88 10000 4.1 60 17:37 15.08.2019
3641 Mist 28 1016 88 10000 4.1 70 17:19 15.08.2019
3642 Mist 28 1017 83 10000 4.6 90 16:48 15.08.2019
3643 Mist 28 1014 31 10000 8.7 60 16:28 15.08.2019
3644 Mist 29 1017 78 10000 4.1 80 15:59 15.08.2019
3645 Mist 29 1017 78 10000 4.1 80 15:38 15.08.2019
3646 Mist 29 1017 78 10000 4.1 80 15:19 15.08.2019
3647 Mist 29 1017 78 10000 4.1 80 15:19 15.08.2019
3648 Mist 29 1017 83 10000 4.1 70 14:43 15.08.2019
3649 Mist 28 1015 36 10000 6.2 70 14:24 15.08.2019
3650 Mist 28 1015 38 10000 5.1 60 13:59 15.08.2019
3651 Mist 28 1015 38 10000 5.1 60 13:59 15.08.2019
3652 Mist 28 1018 83 10000 4.1 80 13:41 15.08.2019
3653 Mist 28 1016 40 10000 3.6 70 13:21 15.08.2019
3654 Mist 27 1016 43 10000 2.6 90 12:59 15.08.2019
3655 Mist 27 1018 83 10000 3.1 70 12:39 15.08.2019
3656 Mist 27 1016 45 10000 3.1 100 12:20 15.08.2019
3657 Fog 26 1016 51 10000 4.1 130 11:57 15.08.2019
3658 Fog 25 1018 88 10000 2.6 60 11:37 15.08.2019
3659 Fog 25 1018 88 10000 2.6 60 11:37 15.08.2019
3660 Fog 24 1018 94 10000 2.1 80 11:18 15.08.2019
3661 Fog 24 1016 58 10000 5.1 120 10:57 15.08.2019
3662 Fog 24 1018 100 1500 2.1 60 10:36 15.08.2019
3663 Fog 23 1018 100 400 2.1 60 10:18 15.08.2019
3664 Mist 22 1018 100 1800 1 40 09:41 15.08.2019
3665 Mist 22 1015 83 10000 2.6 80 09:21 15.08.2019
3666 Fog 21 1017 100 250 2.6 70 08:38 15.08.2019
3667 Fog 21 1017 100 250 2.6 70 08:20 15.08.2019
3668 Fog 21 1015 88 10000 2.6 80 07:54 15.08.2019
3669 Fog 21 1015 83 10000 4.1 80 07:36 15.08.2019
3670 Fog 22 1017 100 100 2.6 90 07:18 15.08.2019
3671 Mist 22 1017 94 100 3.1 90 06:40 15.08.2019
3672 Mist 22 1017 94 100 3.1 90 06:40 15.08.2019
3673 Mist 22 1017 94 100 3.1 90 06:21 15.08.2019
3674 Mist 22 1017 94 100 3.1 70 05:29 15.08.2019
3675 Mist 21 1015 83 10000 6.7 80 04:51 15.08.2019
3676 Mist 21 1015 83 10000 7.2 70 03:49 15.08.2019
3677 Mist 22 1015 83 10000 8.2 70 02:52 15.08.2019
3678 Mist 22 1018 100 200 3.6 70 02:18 15.08.2019
3679 Mist 22 1015 83 10000 8.7 60 01:38 15.08.2019
3680 Clear 23 1016 83 10000 8.7 60 00:42 15.08.2019
3681 Clear 23 1016 83 10000 8.7 60 00:22 15.08.2019
3682 Clear 23 1015 83 10000 9.3 60 23:59 14.08.2019
3683 Clear 23 1015 83 10000 8.7 70 23:40 14.08.2019
3684 Clear 23 1018 94 9000 2.1 60 23:20 14.08.2019
3685 Clear 23 1015 73 10000 7.7 70 22:59 14.08.2019
3686 Clear 24 1017 94 9000 2.6 70 22:40 14.08.2019
3687 Clear 24 1017 94 9000 2.6 70 22:21 14.08.2019
3688 Clear 25 1014 51 10000 4.1 70 21:57 14.08.2019
3689 Clouds 25 1017 94 10000 3.1 70 21:37 14.08.2019
3690 Clouds 26 1017 88 10000 3.1 70 21:18 14.08.2019
3691 Clouds 26 1016 88 10000 3.1 60 20:42 14.08.2019
3692 Clear 26 1014 45 10000 6.2 70 20:22 14.08.2019
3693 Clear 27 1014 45 10000 7.2 70 19:56 14.08.2019
3694 Clear 27 1013 45 10000 6.7 80 19:38 14.08.2019
3695 Clouds 28 1017 83 10000 4.1 70 19:20 14.08.2019
3696 Clear 28 1014 40 10000 9.3 110 18:57 14.08.2019
3697 Clouds 27 1017 83 10000 3.6 60 18:38 14.08.2019
3698 Clouds 27 1017 83 10000 4.1 80 18:20 14.08.2019
3699 Clouds 28 1017 83 10000 5.1 100 17:56 14.08.2019
3700 Clouds 28 1017 83 10000 5.1 100 17:37 14.08.2019
3701 Clear 27 1014 48 10000 8.2 70 17:19 14.08.2019
3702 Clouds 28 1018 83 10000 5.1 100 16:43 14.08.2019
3703 Clear 28 1015 48 10000 8.7 60 16:20 14.08.2019
3704 Clear 28 1015 48 10000 9.3 60 15:55 14.08.2019
3705 Clouds 28 1018 83 10000 6.7 110 15:37 14.08.2019
3706 Clouds 28 1018 78 10000 7.2 110 15:18 14.08.2019
3707 Clouds 28 1019 83 10000 7.2 100 14:41 14.08.2019
3708 Fog 28 1019 88 10000 7.2 100 14:19 14.08.2019
3709 Clouds 28 1019 88 10000 8.2 100 13:59 14.08.2019
3710 Clouds 27 1019 88 10000 8.2 100 13:40 14.08.2019
3711 Fog 26 1019 88 10000 6.7 90 13:22 14.08.2019
3712 Mist 27 1016 43 10000 8.7 100 12:56 14.08.2019
3713 Mist 27 1019 88 10000 7.2 100 12:37 14.08.2019
3714 Fog 26 1019 94 5000 5.1 100 12:19 14.08.2019
3715 Fog 25 1019 100 600 5.1 90 11:46 14.08.2019
3716 Fog 25 1016 51 10000 8.2 100 11:23 14.08.2019
3717 Fog 24 1016 51 10000 8.7 100 10:58 14.08.2019
3718 Fog 24 1019 100 400 6.7 100 10:38 14.08.2019
3719 Fog 24 1019 100 400 6.7 100 10:38 14.08.2019
3720 Fog 23 1019 100 400 4.1 80 10:20 14.08.2019
3721 Fog 23 1018 100 100 4.6 90 09:44 14.08.2019
3722 Fog 23 1018 100 100 4.6 90 09:44 14.08.2019
3723 Fog 22 1018 93 100 3.1 70 09:21 14.08.2019
3724 Fog 23 1015 65 10000 8.2 100 08:47 14.08.2019
3725 Fog 23 1015 65 10000 8.2 100 08:29 14.08.2019
3726 Fog 22 1015 65 10000 7.2 90 07:57 14.08.2019
3727 Fog 22 1015 65 10000 7.2 90 07:38 14.08.2019
3728 Fog 22 1015 65 10000 7.2 90 07:19 14.08.2019
3729 Clouds 23 1018 94 6000 6.2 100 06:43 14.08.2019
3730 Clear 23 1014 65 10000 7.2 90 05:35 14.08.2019
3731 Clear 23 1015 65 10000 7.2 90 04:43 14.08.2019
3732 Clear 23 1015 78 10000 6.2 70 02:44 14.08.2019
3733 Clouds 23 1018 88 10000 6.2 90 02:18 14.08.2019
3734 Clear 23 1015 78 10000 7.2 70 01:30 14.08.2019
3735 Clear 23 1015 73 10000 4.6 70 00:38 14.08.2019
3736 Clear 23 1015 78 10000 7.2 70 23:43 13.08.2019
3737 Clouds 23 1017 88 10000 2.6 70 23:20 13.08.2019
3738 Clear 22 1015 83 10000 8.7 60 22:56 13.08.2019
3739 Clear 23 1014 78 10000 9.3 60 22:38 13.08.2019
3740 Clear 23 1014 78 10000 9.3 60 22:38 13.08.2019
3741 Clear 23 1014 78 10000 9.3 60 22:19 13.08.2019
3742 Clear 23 1014 78 10000 8.7 70 21:55 13.08.2019
3743 Clear 24 1014 69 10000 8.2 70 21:36 13.08.2019
3744 Clear 24 1014 69 10000 8.2 70 21:36 13.08.2019
3745 Clouds 25 1016 83 9000 4.1 90 21:18 13.08.2019
3746 Clouds 25 1014 57 0 8.7 60 20:43 13.08.2019
3747 Clouds 25 1014 57 0 8.7 60 20:20 13.08.2019
3748 Clouds 26 1016 78 10000 3.1 90 19:56 13.08.2019
3749 Clouds 26 1016 78 10000 3.1 90 19:38 13.08.2019
3750 Clouds 30 1016 78 10000 3.1 90 19:20 13.08.2019
3751 Clear 28 1014 27 10000 8.2 70 18:42 13.08.2019
3752 Clear 28 1014 27 10000 8.2 70 18:22 13.08.2019
3753 Clear 29 1014 31 10000 7.2 70 17:56 13.08.2019
3754 Clear 29 1014 31 10000 7.2 70 17:38 13.08.2019
3755 Clouds 29 1016 78 10000 4.1 100 17:18 13.08.2019
3756 Clouds 29 1017 78 10000 4.6 100 16:55 13.08.2019
3757 Clouds 29 1017 78 10000 4.6 100 16:36 13.08.2019
3758 Clouds 29 1017 78 10000 5.1 100 16:18 13.08.2019
3759 Clouds 28 1017 78 10000 4.1 100 15:38 13.08.2019
3760 Clouds 28 1017 78 10000 4.1 100 15:20 13.08.2019
3761 Clear 28 1015 22 10000 8.2 60 14:55 13.08.2019
3762 Clouds 28 1017 73 10000 3.1 90 14:37 13.08.2019
3763 Clouds 27 1017 73 10000 3.1 90 14:18 13.08.2019
3764 Clouds 26 1017 73 10000 4.1 100 13:41 13.08.2019
3765 Clear 26 1016 47 10000 4.1 270 13:21 13.08.2019
3766 Clear 26 1016 47 10000 3.6 280 12:57 13.08.2019
3767 Clear 26 1016 44 10000 4.1 270 12:39 13.08.2019
3768 Clear 26 1016 44 10000 4.1 270 12:21 13.08.2019
3769 Clear 25 1017 60 10000 5.1 110 11:43 13.08.2019
3770 Clear 25 1016 47 10000 3.6 80 11:23 13.08.2019
3771 Clouds 24 1017 69 10000 4.6 90 10:59 13.08.2019
3772 Clouds 23 1017 69 10000 4.6 90 10:39 13.08.2019
3773 Clear 23 1016 53 10000 2.1 260 10:20 13.08.2019
3774 Clouds 21 1016 73 10000 3.1 90 09:58 13.08.2019
3775 Clouds 20 1016 73 10000 3.1 90 09:40 13.08.2019
3776 Clear 20 1016 59 10000 1 0 09:22 13.08.2019
3777 Clear 18 1015 67 10000 1 0 08:42 13.08.2019
3778 Clear 18 1015 67 10000 1 0 08:22 13.08.2019
3779 Clear 18 1015 67 10000 3.11 90.295 07:51 13.08.2019
3780 Clear 18 1015 63 10000 3.11 90.295 07:31 13.08.2019
3781 Clear 19 1014 67 10000 0.5 0 06:45 13.08.2019
3782 Clouds 19 1015 56 10000 1.5 60 06:19 13.08.2019
3783 Clear 20 1014 63 10000 0.5 0 05:32 13.08.2019
3784 Clear 22 1015 68 10000 3.1 100 02:37 13.08.2019
3785 Clear 23 1016 72 10000 2.6 100 01:55 13.08.2019
3786 Clear 24 1016 72 10000 2.1 120 00:54 13.08.2019
3787 Clear 23 1016 72 10000 1 70 00:35 13.08.2019
3788 Clear 24 1016 73 10000 1.77 288.26 23:47 12.08.2019
3789 Clear 24 1016 73 10000 1.77 288.26 23:24 12.08.2019
3790 Clear 25 1016 68 10000 1.77 288.26 22:57 12.08.2019
3791 Clear 25 1014 32 10000 5.1 240 22:38 12.08.2019
3792 Clear 25 1015 64 10000 1.5 320 22:19 12.08.2019
3793 Clear 26 1015 60 10000 2.1 310 21:55 12.08.2019
3794 Clear 27 1013 32 10000 5.1 230 21:36 12.08.2019
3795 Clear 28 1013 36 10000 5.1 230 21:18 12.08.2019
3796 Clear 28 1012 30 10000 4.6 230 20:42 12.08.2019
3797 Clear 29 1014 41 10000 4.1 340 20:21 12.08.2019
3798 Clear 30 1014 44 10000 5.1 340 19:59 12.08.2019
3799 Clear 30 1012 27 10000 5.1 220 19:39 12.08.2019
3800 Clear 30 1012 32 10000 6.7 210 19:21 12.08.2019
3801 Clear 30 1014 44 10000 5.7 320 18:59 12.08.2019
3802 Clear 30 1012 32 10000 6.7 200 18:40 12.08.2019
3803 Clear 30 1012 32 10000 6.7 210 18:21 12.08.2019
3804 Clear 30 1014 44 10000 4.6 290 17:56 12.08.2019
3805 Clear 29 1012 32 10000 7.2 200 17:38 12.08.2019
3806 Clear 29 1015 44 10000 4.6 320 17:20 12.08.2019
3807 Clear 29 1015 50 10000 4.1 290 16:55 12.08.2019
3808 Clear 29 1013 39 10000 6.2 200 16:36 12.08.2019
3809 Clear 29 1014 35 10000 5.1 220 16:18 12.08.2019
3810 Clear 29 1014 37 10000 4.6 210 15:42 12.08.2019
3811 Clear 29 1014 37 10000 4.6 210 15:42 12.08.2019
3812 Clear 29 1016 41 10000 4.6 310 15:22 12.08.2019
3813 Clear 28 1015 28 10000 4.6 220 14:58 12.08.2019
3814 -273 0 0 0 0 0 14:39 12.08.2019
3815 Clear 28 1015 28 10000 4.6 220 14:39 12.08.2019
3816 Clear 28 1017 41 10000 4.6 310 14:21 12.08.2019
3817 Clear 27 1017 41 10000 4.6 320 13:57 12.08.2019
3818 Clear 26 1015 41 10000 5.7 220 13:39 12.08.2019
3819 Clear 26 1015 44 10000 5.1 220 13:20 12.08.2019
3820 Clear 26 1015 38 10000 5.1 250 12:43 12.08.2019
3821 Clear 26 1015 38 10000 5.1 250 12:43 12.08.2019
3822 Clear 26 1017 41 10000 4.6 340 12:19 12.08.2019
3823 -273 0 0 0 0 0 11:45 12.08.2019
3824 Clear 26 1016 44 10000 5.1 320 11:26 12.08.2019
3825 Clear 25 1016 46 10000 3.6 320 10:58 12.08.2019
3826 Clear 24 1014 38 10000 5.1 230 10:40 12.08.2019
3827 Clear 24 1016 52 10000 3.1 330 10:21 12.08.2019
3828 Clear 23 1016 56 10000 3.1 340 09:54 12.08.2019
3829 Clear 23 1016 56 10000 3.1 340 09:36 12.08.2019
3830 Clear 22 1014 43 10000 5.1 230 09:18 12.08.2019
3831 Clear 22 1016 63 10000 1.5 340 08:40 12.08.2019
3832 Clear 22 1016 63 10000 1.5 340 08:22 12.08.2019
3833 Clear 22 1016 63 10000 1.5 340 08:22 12.08.2019
3834 Clear 21 1015 68 10000 1 0 07:56 12.08.2019
3835 Clear 21 1014 43 10000 5.1 240 07:35 12.08.2019
3836 Clear 21 1015 68 10000 1 0 06:53 12.08.2019
3837 Clear 22 1015 64 10000 3.1 340 05:53 12.08.2019
3838 Clear 22 1016 77 10000 1.5 20 03:47 12.08.2019
3839 Clear 23 1017 72 10000 1.5 240 02:42 12.08.2019
3840 Clouds 23 1016 47 10000 6.7 240 01:23 12.08.2019
3841 Clear 23 1018 73 10000 2.1 220 00:59 12.08.2019
3842 Clear 23 1018 68 10000 2.1 210 00:40 12.08.2019
3843 Clouds 24 1016 50 10000 6.2 260 00:20 12.08.2019
3844 Clear 24 1018 73 10000 3.6 260 23:58 11.08.2019
3845 Clear 24 1018 68 10000 1.5 250 23:39 11.08.2019
3846 Clear 24 1018 68 10000 1.5 250 23:39 11.08.2019
3847 Clouds 24 1016 50 10000 5.1 260 23:19 11.08.2019
3848 Clear 24 1015 47 10000 5.7 260 22:56 11.08.2019
3849 Clear 24 1015 47 10000 5.7 260 22:36 11.08.2019
3850 Clear 24 1015 47 10000 5.7 260 22:36 11.08.2019
3851 Clear 25 1015 44 10000 7.2 260 22:18 11.08.2019
3852 Clear 25 1017 64 10000 2.1 240 21:55 11.08.2019
3853 Clear 25 1015 47 10000 8.2 270 21:36 11.08.2019
3854 Clear 27 1014 39 10000 8.7 280 21:18 11.08.2019
3855 Clear 27 1014 39 10000 8.2 290 20:42 11.08.2019
3856 Clear 27 1014 39 10000 8.2 290 20:42 11.08.2019
3857 Clear 27 1016 57 10000 4.6 300 20:23 11.08.2019
3858 Clear 28 1016 57 10000 6.2 310 19:54 11.08.2019
3859 Clear 28 1014 42 10000 8.2 280 19:36 11.08.2019
3860 Clear 29 1014 37 10000 7.7 270 19:18 11.08.2019
3861 Clear 30 1013 30 10000 7.7 280 18:38 11.08.2019
3862 Clear 29 1013 32 10000 8.7 280 18:19 11.08.2019
3863 Clear 30 1014 30 10000 8.2 280 17:42 11.08.2019
3864 Clouds 30 1017 44 10000 6.2 310 17:20 11.08.2019
3865 Clouds 30 1017 44 10000 5.7 320 16:59 11.08.2019
3866 Clear 30 1014 30 10000 7.7 280 16:40 11.08.2019
3867 Clear 30 1014 33 10000 7.7 280 16:22 11.08.2019
3868 Clear 30 1018 50 10000 6.7 300 15:56 11.08.2019
3869 Clear 29 1015 33 10000 6.7 270 15:38 11.08.2019
3870 Clear 29 1015 32 10000 7.2 280 15:19 11.08.2019
3871 Clear 29 1016 32 10000 5.1 250 14:40 11.08.2019
3872 Clear 28 1016 37 10000 6.2 260 14:22 11.08.2019
3873 Clear 28 1016 35 10000 5.1 240 13:46 11.08.2019
3874 Clear 28 1019 53 10000 5.1 310 13:26 11.08.2019
3875 Clear 26 1019 53 10000 4.1 290 12:58 11.08.2019
3876 Clear 26 1017 44 10000 4.6 220 12:38 11.08.2019
3877 Clear 26 1017 44 10000 5.1 220 12:20 11.08.2019
3878 Clear 26 1016 42 10000 3.1 240 11:40 11.08.2019
3879 Clear 26 1016 42 10000 3.1 240 11:40 11.08.2019
3880 Clear 26 1016 42 10000 3.1 240 11:40 11.08.2019
3881 Clear 24 1016 47 10000 3.1 220 11:22 11.08.2019
3882 Clear 24 1018 56 10000 3.1 300 10:56 11.08.2019
3883 Clear 24 1016 50 10000 3.1 240 10:38 11.08.2019
3884 Clear 24 1016 53 10000 3.6 250 10:19 11.08.2019
3885 Clear 23 1016 56 10000 5.1 260 09:44 11.08.2019
3886 Clear 23 1018 73 10000 3.1 320 09:26 11.08.2019
3887 Clear 23 1017 88 8000 2.1 260 08:58 11.08.2019
3888 Clear 23 1017 88 6000 1 0 08:39 11.08.2019
3889 Clear 22 1015 50 10000 3.6 230 08:21 11.08.2019
3890 Clear 22 1016 82 8000 2.1 210 07:43 11.08.2019
3891 Clear 22 1015 64 10000 4.1 250 07:18 11.08.2019
3892 Clear 23 1016 77 8000 1 300 06:37 11.08.2019
3893 Clear 23 1015 64 10000 7.2 210 05:19 11.08.2019
3894 Clear 24 1017 77 8000 2.6 220 02:53 11.08.2019
3895 Clear 23 1017 83 8000 1.5 200 01:58 11.08.2019
3896 Clear 23 1017 82 8000 0.5 0 01:32 11.08.2019
3897 Clear 24 1017 82 8000 1 0 00:56 11.08.2019
3898 Clear 24 1018 77 8000 2.1 250 00:36 11.08.2019
3899 Clear 25 1018 83 8000 1.5 220 23:56 10.08.2019
3900 Clear 25 1018 83 8000 2.1 280 23:37 10.08.2019
3901 Clear 26 1016 54 10000 4.6 230 23:18 10.08.2019
3902 Clear 26 1018 78 10000 1.5 280 22:38 10.08.2019
3903 Clear 26 1018 78 10000 1.5 280 22:20 10.08.2019
3904 Clear 27 1015 54 10000 5.1 230 21:41 10.08.2019
3905 Clear 27 1016 69 10000 3.6 300 21:22 10.08.2019
3906 Clear 27 1016 69 10000 3.6 300 21:22 10.08.2019
3907 Clear 28 1016 64 10000 3.6 310 20:59 10.08.2019
3908 Clear 28 1014 57 10000 5.1 210 20:41 10.08.2019
3909 Clear 29 1014 54 10000 5.1 210 20:20 10.08.2019
3910 Clear 30 1016 61 10000 5.7 310 19:56 10.08.2019
3911 Clear 30 1014 48 10000 4.6 220 19:37 10.08.2019
3912 Clear 31 1014 48 10000 5.1 220 19:18 10.08.2019
3913 Clear 32 1014 46 10000 4.6 230 18:39 10.08.2019
3914 Clear 32 1014 46 10000 4.6 240 18:20 10.08.2019
3915 Clear 32 1014 43 10000 4.6 220 17:41 10.08.2019
3916 Clear 32 1017 51 10000 5.1 320 17:23 10.08.2019
3917 Clear 31 1017 61 10000 4.1 300 16:45 10.08.2019
3918 Clear 31 1017 61 10000 4.1 300 16:26 10.08.2019
3919 Clear 32 1018 54 10000 4.1 280 15:53 10.08.2019
3920 Clear 32 1018 54 10000 3.6 280 15:23 10.08.2019
3921 Clouds 31 1016 52 10000 5.1 220 14:45 10.08.2019
3922 Clouds 30 1017 55 10000 5.1 210 14:21 10.08.2019
3923 Clouds 30 1017 55 10000 5.1 210 13:42 10.08.2019
3924 Clear 30 1019 61 10000 5.1 280 13:21 10.08.2019
3925 Clouds 29 1019 65 10000 5.1 280 12:58 10.08.2019
3926 Clouds 29 1017 58 10000 4.1 220 12:39 10.08.2019
3927 Clouds 28 1017 58 10000 5.1 240 12:21 10.08.2019
3928 Clouds 27 1017 65 10000 5.1 220 11:42 10.08.2019
3929 Clouds 27 1019 69 10000 4.6 250 11:23 10.08.2019
3930 Clouds 27 1019 69 10000 4.6 250 11:23 10.08.2019
3931 Clouds 26 1019 69 8000 3.6 250 10:58 10.08.2019
3932 Clouds 25 1017 69 10000 5.7 230 10:37 10.08.2019
3933 Clouds 24 1017 73 10000 5.7 240 10:19 10.08.2019
3934 Clouds 24 1017 73 10000 5.7 240 10:19 10.08.2019
3935 Clouds 24 1016 78 10000 4.6 230 09:43 10.08.2019
3936 Clouds 23 1018 88 6000 2.6 250 09:24 10.08.2019
3937 Clouds 23 1017 88 6000 1.5 260 08:56 10.08.2019
3938 Clouds 23 1017 88 6000 1.5 260 08:55 10.08.2019
3939 Clouds 23 1017 88 6000 1.5 260 08:37 10.08.2019
3940 Mist 22 1016 83 10000 7.2 250 08:18 10.08.2019
3941 Mist 22 1017 88 4500 1.5 310 07:43 10.08.2019
3942 Clouds 22 1016 88 10000 6.2 270 07:19 10.08.2019
3943 Clouds 23 1017 83 10000 1.5 310 06:43 10.08.2019
3944 Clouds 23 1018 83 10000 3.1 230 05:44 10.08.2019
3945 Clouds 23 1018 83 10000 3.1 230 05:44 10.08.2019
3946 Clear 23 1017 88 10000 8.2 270 05:18 10.08.2019
3947 Clouds 23 1019 83 10000 3.1 220 03:51 10.08.2019
3948 Clouds 23 1019 83 10000 3.6 240 02:38 10.08.2019
3949 Clouds 24 1019 83 10000 3.6 250 01:44 10.08.2019
3950 Clouds 24 1019 83 10000 3.6 250 01:23 10.08.2019
3951 Clouds 24 1019 83 10000 3.6 260 00:58 10.08.2019
3952 Clouds 24 1019 83 8000 3.1 260 00:39 10.08.2019
3953 Clear 24 1017 78 10000 10.3 270 00:18 10.08.2019
3954 Clouds 24 1018 83 8000 1.5 260 23:38 09.08.2019
3955 Clear 25 1016 78 10000 10.8 280 23:20 09.08.2019
3956 Clouds 25 1016 78 10000 8.7 280 22:41 09.08.2019
3957 Clouds 25 1018 83 8000 2.1 290 22:23 09.08.2019
3958 Clouds 26 1017 83 8000 2.1 270 21:59 09.08.2019
3959 Clouds 26 1015 65 10000 6.2 250 21:39 09.08.2019
3960 Clouds 26 1017 83 8000 2.1 280 21:21 09.08.2019
3961 Clouds 27 1017 78 8000 3.1 280 20:56 09.08.2019
3962 Clear 27 1015 61 10000 5.1 230 20:38 09.08.2019
3963 Clear 28 1014 58 10000 5.1 230 20:18 09.08.2019
3964 Clear 28 1014 58 10000 6.2 220 19:43 09.08.2019
3965 Clear 29 1016 69 10000 4.1 310 19:22 09.08.2019
3966 Clear 28 1014 51 10000 6.7 250 18:42 09.08.2019
3967 Clear 30 1017 61 10000 4.6 290 18:23 09.08.2019
3968 Clouds 29 1015 54 10000 5.1 230 17:59 09.08.2019
3969 Clouds 29 1015 54 10000 5.1 230 17:41 09.08.2019
3970 Clouds 30 1015 58 10000 6.2 210 17:23 09.08.2019
3971 -273 0 0 0 0 0 16:54 09.08.2019
3972 Clear 29 1016 61 10000 6.2 220 16:36 09.08.2019
3973 Clear 28 1016 65 10000 7.7 210 16:18 09.08.2019
3974 Clouds 27 1016 69 10000 9.3 200 15:41 09.08.2019
3975 Clouds 27 1019 65 8000 4.6 290 15:21 09.08.2019
3976 Clouds 27 1019 69 8000 4.1 290 14:57 09.08.2019
3977 -273 0 0 0 0 0 14:56 09.08.2019
3978 Clouds 27 1019 69 8000 4.1 290 14:56 09.08.2019
3979 Clouds 27 1019 73 8000 4.1 300 14:37 09.08.2019
3980 Clouds 27 1016 69 10000 8.7 200 14:19 09.08.2019
3981 Clouds 28 1016 61 10000 7.2 220 13:43 09.08.2019
3982 Clouds 27 1019 65 8000 5.1 310 13:20 09.08.2019
3983 Clouds 27 1016 65 10000 5.1 220 12:47 09.08.2019
3984 Clouds 26 1018 78 8000 4.1 270 12:24 09.08.2019
3985 Clouds 26 1018 78 8000 3.1 270 11:59 09.08.2019
3986 Clouds 26 1018 88 8000 2.6 270 11:37 09.08.2019
3987 Clouds 25 1016 69 10000 5.7 250 11:19 09.08.2019
3988 Clouds 25 1016 69 10000 5.7 250 11:19 09.08.2019
3989 Clouds 24 1016 73 10000 5.7 260 10:41 09.08.2019
3990 Clouds 24 1017 83 8000 3.6 320 10:22 09.08.2019
3991 Clouds 24 1016 78 10000 5.1 250 09:46 09.08.2019
3992 Clouds 23 1016 78 10000 5.1 250 09:20 09.08.2019
3993 Clouds 23 1017 88 10000 2.6 260 08:59 09.08.2019
3994 Clouds 23 1017 88 8000 2.6 260 08:40 09.08.2019
3995 Clouds 23 1017 88 8000 2.6 260 08:20 09.08.2019
3996 Clouds 23 1017 88 10000 2.1 230 07:53 09.08.2019
3997 Clouds 23 1017 88 10000 2.6 240 07:24 09.08.2019
3998 Clouds 23 1017 88 10000 2.6 220 06:56 09.08.2019
3999 Clouds 23 1017 88 10000 2.6 220 06:33 09.08.2019
4000 Clouds 23 1017 88 10000 4.56 269.071 05:58 09.08.2019
4001 Clouds 23 1017 88 10000 4.56 269.071 04:22 09.08.2019
4002 Clear 24 1015 53 10000 6.7 240 02:18 09.08.2019
4003 Clear 25 1016 83 10000 1 260 00:49 09.08.2019
4004 Clear 25 1016 83 10000 1 260 00:27 09.08.2019
4005 Clear 25 1016 83 10000 1.5 280 23:59 08.08.2019
4006 Clear 25 1016 83 10000 1 290 23:38 08.08.2019
4007 Clear 26 1014 61 10000 5.1 230 23:20 08.08.2019
4008 Clear 26 1015 83 10000 3.82 293.051 22:59 08.08.2019
4009 Clear 26 1014 83 10000 0.5 250 22:37 08.08.2019
4010 Clear 27 1013 65 10000 7.2 210 22:18 08.08.2019
4011 Clear 27 1013 65 10000 7.2 210 22:18 08.08.2019
4012 Clear 27 1014 78 10000 1.5 280 21:58 08.08.2019
4013 Clear 27 1012 65 10000 5.1 210 21:40 08.08.2019
4014 Clear 28 1012 61 10000 5.1 210 21:21 08.08.2019
4015 Clear 29 1012 54 10000 5.1 210 20:43 08.08.2019
4016 Clear 29 1013 61 10000 3.6 320 20:22 08.08.2019
4017 Clear 30 1013 61 10000 4.1 330 19:59 08.08.2019
4018 Clear 29 1012 54 10000 5.7 210 19:41 08.08.2019
4019 Clear 29 1013 57 10000 5.1 340 19:20 08.08.2019
4020 Clear 31 1012 51 10000 6.2 210 18:43 08.08.2019
4021 Clear 31 1014 54 10000 4.1 340 18:23 08.08.2019
4022 Clouds 31 1014 51 10000 3.6 310 17:56 08.08.2019
4023 Clouds 31 1014 51 10000 4.1 340 17:37 08.08.2019
4024 Clouds 31 1014 51 10000 4.1 340 17:19 08.08.2019
4025 Clear 32 1012 45 10000 5.1 200 16:42 08.08.2019
4026 Clouds 32 1014 48 10000 4.6 310 16:24 08.08.2019
4027 Clouds 32 1014 51 10000 5.1 300 15:58 08.08.2019
4028 Mist 31 1013 48 10000 5.7 200 15:39 08.08.2019
4029 Mist 31 1014 61 10000 4.6 280 15:21 08.08.2019
4030 Clear 30 1013 51 10000 5.7 210 14:42 08.08.2019
4031 Clouds 30 1015 61 6000 4.1 290 14:23 08.08.2019
4032 Clouds 31 1015 57 6000 4.1 270 13:58 08.08.2019
4033 Clear 30 1013 51 10000 5.1 210 13:38 08.08.2019
4034 Clear 29 1014 51 10000 4.6 220 13:18 08.08.2019
4035 Clear 29 1014 51 10000 4.6 220 13:18 08.08.2019
4036 Mist 29 1014 48 10000 3.6 240 12:40 08.08.2019
4037 Mist 27 1014 54 10000 3.1 250 12:20 08.08.2019
4038 -273 0 0 0 0 0 11:56 08.08.2019
4039 Mist 27 1015 73 10000 2.6 260 11:37 08.08.2019
4040 Mist 26 1014 61 10000 3.6 230 11:18 08.08.2019
4041 Mist 25 1014 65 10000 3.6 220 10:41 08.08.2019
4042 Mist 25 1014 65 10000 3.6 220 10:41 08.08.2019
4043 Mist 25 1015 88 4000 2.1 260 10:21 08.08.2019
4044 Clear 24 1013 64 10000 3.1 240 09:45 08.08.2019
4045 Clear 24 1015 88 10000 2.1 240 09:27 08.08.2019
4046 Clear 23 1014 88 10000 1.5 210 08:56 08.08.2019
4047 Clear 23 1013 60 10000 3.6 230 08:36 08.08.2019
4048 Clear 23 1013 60 10000 3.6 230 08:18 08.08.2019
4049 Clear 23 1014 94 10000 2.1 200 07:39 08.08.2019
4050 Clouds 23 1013 60 10000 4.1 240 07:19 08.08.2019
4051 Clear 23 1014 93 0 5.52 206.231 06:46 08.08.2019
4052 Clear 23 1012 64 10000 5.7 250 06:19 08.08.2019
4053 Clear 23 1014 93 0 2.86 288.283 05:51 08.08.2019
4054 Clear 23 1014 88 10000 1.5 100 04:48 08.08.2019
4055 Clear 24 1014 88 10000 2.86 288.283 03:51 08.08.2019
4056 Clear 24 1015 88 10000 1 0 01:59 08.08.2019
4057 Clear 24 1015 88 10000 1 280 01:33 08.08.2019
4058 Clear 25 1016 88 10000 2.6 220 00:25 08.08.2019
4059 Clear 26 1015 83 10000 1.5 240 23:46 07.08.2019
4060 Clear 26 1015 83 10000 1.5 240 23:19 07.08.2019
4061 Clear 26 1015 83 10000 1.5 270 22:55 07.08.2019
4062 Clear 26 1015 83 10000 2.1 260 22:36 07.08.2019
4063 Clear 27 1013 61 10000 5.7 210 22:18 07.08.2019
4064 Clear 28 1014 78 10000 2.6 250 21:54 07.08.2019
4065 Clear 27 1014 73 10000 3.1 270 21:36 07.08.2019
4066 Clear 29 1012 51 10000 6.2 220 21:18 07.08.2019
4067 Clear 29 1011 51 10000 6.2 210 20:41 07.08.2019
4068 Clear 29 1013 69 10000 3.1 280 20:23 07.08.2019
4069 Clear 29 1013 69 10000 3.1 280 20:23 07.08.2019
4070 Clear 30 1013 64 10000 3.6 290 19:56 07.08.2019
4071 Clear 30 1011 48 10000 6.2 210 19:38 07.08.2019
4072 Clear 31 1011 43 10000 5.1 230 19:20 07.08.2019
4073 Clear 31 1011 45 10000 5.7 230 18:42 07.08.2019
4074 Clear 31 1013 57 10000 4.1 290 18:21 07.08.2019
4075 Clear 31 1014 61 10000 4.6 300 17:58 07.08.2019
4076 Clear 31 1011 48 10000 6.7 210 17:39 07.08.2019
4077 Clouds 32 1013 57 8000 4.1 290 17:21 07.08.2019
4078 Clouds 31 1014 54 8000 4.1 290 16:57 07.08.2019
4079 Clear 31 1012 54 10000 6.7 200 16:39 07.08.2019
4080 Clouds 30 1014 57 8000 4.1 300 16:20 07.08.2019
4081 Clouds 31 1014 61 8000 3.6 310 15:56 07.08.2019
4082 Clear 31 1012 54 10000 6.2 200 15:37 07.08.2019
4083 Clear 31 1012 45 10000 6.7 210 15:18 07.08.2019
4084 Clear 30 1012 48 10000 6.2 230 14:45 07.08.2019
4085 Clear 30 1014 61 10000 3.6 280 14:26 07.08.2019
4086 Clear 30 1013 48 10000 4.1 240 13:44 07.08.2019
4087 Clear 29 1013 51 10000 3.6 230 13:19 07.08.2019
4088 Clouds 29 1015 69 8000 4.6 280 12:58 07.08.2019
4089 Clouds 29 1015 69 8000 4.6 280 12:58 07.08.2019
4090 Clouds 29 1015 69 8000 4.6 280 12:58 07.08.2019
4091 Clear 29 1013 51 10000 3.1 250 12:39 07.08.2019
4092 Clear 28 1013 54 10000 3.6 260 12:20 07.08.2019
4093 -273 0 0 0 0 0 11:59 07.08.2019
4094 Clear 27 1013 61 10000 4.6 270 11:40 07.08.2019
4095 Clouds 27 1015 69 8000 4.6 230 11:19 07.08.2019
4096 Clear 26 1013 65 10000 3.6 250 10:42 07.08.2019
4097 Clear 23 1013 69 10000 3.6 250 10:20 07.08.2019
4098 Clouds 23 1013 73 10000 3.6 240 09:59 07.08.2019
4099 Clouds 22 1013 73 10000 3.6 240 09:41 07.08.2019
4100 Clouds 23 1013 73 10000 2.6 240 09:21 07.08.2019
4101 Clouds 23 1013 88 8000 3.1 230 08:45 07.08.2019
4102 Clouds 23 1013 88 8000 3.1 230 08:25 07.08.2019
4103 Clouds 22 1013 83 8000 1.5 260 07:51 07.08.2019
4104 Clouds 22 1013 83 8000 2.1 220 07:32 07.08.2019
4105 Clouds 22 1013 88 8000 2.1 190 06:50 07.08.2019
4106 Clouds 22 1013 88 8000 3.1 220 06:27 07.08.2019
4107 Clouds 24 1013 88 8000 2.6 220 05:43 07.08.2019
4108 Clouds 24 1013 88 8000 2.6 200 04:43 07.08.2019
4109 Clear 25 1012 60 10000 8.7 270 03:20 07.08.2019
4110 Clear 25 1014 88 8000 2.1 210 02:42 07.08.2019
4111 Clear 25 1014 83 10000 3.91 270.483 01:53 07.08.2019
4112 Clear 25 1014 83 10000 1.5 260 01:23 07.08.2019
4113 Clear 25 1014 88 10000 1 310 00:37 07.08.2019
4114 Clear 25 1014 88 10000 1 310 00:37 07.08.2019
4115 Clear 25 1012 50 10000 6.7 240 00:18 07.08.2019
4116 Clear 26 1014 83 10000 1.5 230 23:38 06.08.2019
4117 Clear 26 1014 83 10000 1.5 230 23:20 06.08.2019
4118 Clear 27 1013 83 10000 2.1 240 22:41 06.08.2019
4119 Clear 27 1013 83 10000 2.1 240 22:22 06.08.2019
4120 Clear 27 1013 78 10000 2.6 300 21:57 06.08.2019
4121 Clear 27 1013 73 10000 1.5 270 21:39 06.08.2019
4122 Clear 28 1011 61 10000 7.2 210 21:19 06.08.2019
4123 Clear 28 1011 61 10000 7.2 210 21:19 06.08.2019
4124 Clear 27 1013 73 10000 1.5 270 21:19 06.08.2019
4125 Clear 28 1012 64 10000 3.1 300 20:46 06.08.2019
4126 Clear 28 1012 64 10000 3.1 300 20:28 06.08.2019
4127 Clear 29 1012 69 10000 4.1 310 19:57 06.08.2019
4128 Clear 29 1012 69 10000 5.1 300 19:38 06.08.2019
4129 Clear 30 1010 42 10000 8.7 210 19:19 06.08.2019
4130 Clear 31 1012 61 10000 5.1 280 18:43 06.08.2019
4131 Clear 31 1012 61 10000 5.1 280 18:25 06.08.2019
4132 Clear 31 1012 54 10000 4.1 290 17:58 06.08.2019
4133 Clear 31 1010 25 10000 8.7 200 17:38 06.08.2019
4134 Clear 30 1011 27 10000 8.7 200 17:19 06.08.2019
4135 Clear 31 1011 23 10000 8.7 200 16:48 06.08.2019
4136 Clear 30 1013 28 10000 3.6 280 16:25 06.08.2019
4137 Clear 29 1013 30 10000 3.6 270 15:59 06.08.2019
4138 Clear 28 1012 37 10000 8.2 210 15:41 06.08.2019
4139 Clear 29 1013 30 10000 3.6 280 15:22 06.08.2019
4140 Clear 29 1013 47 10000 3.6 270 14:59 06.08.2019
4141 Clear 28 1012 45 10000 7.7 210 14:37 06.08.2019
4142 Clear 28 1014 54 10000 3.1 290 14:19 06.08.2019
4143 Clear 28 1013 45 10000 7.7 210 13:45 06.08.2019
4144 Clouds 29 1015 65 10000 3.1 270 13:27 06.08.2019
4145 Clouds 29 1014 73 10000 3.6 290 12:59 06.08.2019
4146 Clear 28 1013 39 10000 4.1 210 12:40 06.08.2019
4147 Clouds 29 1015 73 10000 4.6 290 12:21 06.08.2019
4148 Clear 28 1013 28 10000 3.1 230 11:45 06.08.2019
4149 Clouds 27 1014 73 10000 4.1 280 11:21 06.08.2019
4150 Clouds 26 1014 73 10000 4.1 280 10:59 06.08.2019
4151 Clear 26 1013 36 10000 2.6 250 10:39 06.08.2019
4152 Clouds 26 1014 69 10000 1.5 250 10:21 06.08.2019
4153 Clear 23 1013 44 10000 5.1 220 09:43 06.08.2019
4154 Clouds 23 1014 77 10000 2.1 210 09:21 06.08.2019
4155 Clouds 21 1014 88 10000 5 214.993 08:51 06.08.2019
4156 Clouds 21 1014 88 10000 5 214.993 08:29 06.08.2019
4157 Clouds 22 1014 82 10000 1 110 07:59 06.08.2019
4158 Clouds 21 1014 82 10000 1 0 07:30 06.08.2019
4159 Clouds 21 1014 82 10000 1.5 40 06:45 06.08.2019
4160 Clouds 23 1014 82 10000 1.5 40 06:23 06.08.2019
4161 Clouds 22 1014 82 10000 1.5 40 05:31 06.08.2019
4162 Clear 24 1015 77 10000 3.61 246.5 02:48 06.08.2019
4163 Clear 25 1015 68 10000 3.35 237.339 01:25 06.08.2019
4164 Clear 25 1015 68 10000 3.35 237.339 00:52 06.08.2019
4165 Clear 25 1014 47 10000 5.1 240 00:19 06.08.2019
4166 Clear 24 1013 61 10000 6.2 220 23:20 05.08.2019
4167 Clear 24 1015 77 10000 3.03 231.978 22:57 05.08.2019
4168 Clear 24 1013 61 10000 5.1 220 22:38 05.08.2019
4169 Clear 26 1012 61 10000 5.1 230 22:20 05.08.2019
4170 Clear 26 1012 57 10000 5.1 230 21:42 05.08.2019
4171 Clear 26 1014 69 10000 2.1 300 21:20 05.08.2019
4172 Clear 26 1013 64 10000 3.1 310 20:57 05.08.2019
4173 Clear 26 1012 65 10000 6.7 210 20:39 05.08.2019
4174 Clear 27 1011 61 10000 5.1 210 20:21 05.08.2019
4175 Clear 28 1013 60 10000 3.6 310 19:55 05.08.2019
4176 Clear 28 1013 60 10000 3.6 310 19:55 05.08.2019
4177 Clear 28 1013 57 10000 3.6 300 19:37 05.08.2019
4178 Clear 28 1011 61 10000 5.1 190 19:18 05.08.2019
4179 Clear 28 1012 54 10000 6.7 200 18:41 05.08.2019
4180 Clear 29 1013 61 10000 4.1 290 18:20 05.08.2019
4181 Clear 29 1012 54 10000 4.6 180 17:48 05.08.2019
4182 Clear 28 1013 61 10000 4.1 290 17:29 05.08.2019
4183 Clear 28 1014 61 10000 5.1 280 16:59 05.08.2019
4184 Clear 27 1012 65 10000 2.6 90 16:40 05.08.2019
4185 Clear 28 1014 57 10000 4.6 280 16:22 05.08.2019
4186 Clear 28 1013 57 10000 5.1 190 15:40 05.08.2019
4187 Clear 27 1013 57 10000 9.3 200 15:20 05.08.2019
4188 Clear 28 1013 54 10000 8.2 210 14:42 05.08.2019
4189 Clear 28 1015 61 10000 4.6 270 14:21 05.08.2019
4190 Clear 27 1013 54 10000 6.7 210 13:48 05.08.2019
4191 Clouds 27 1015 69 10000 4.6 270 13:24 05.08.2019
4192 Clear 27 1013 61 10000 5.1 210 12:51 05.08.2019
4193 Clouds 27 1015 69 10000 4.6 250 12:22 05.08.2019
4194 Clouds 28 1015 73 10000 5.1 260 11:58 05.08.2019
4195 Clear 28 1013 54 10000 3.6 230 11:40 05.08.2019
4196 Clouds 27 1015 73 10000 5.1 270 11:22 05.08.2019
4197 Clear 24 1014 65 10000 4.1 240 10:44 05.08.2019
4198 Clouds 24 1015 78 8000 2.6 210 10:25 05.08.2019
4199 Clear 23 1014 69 10000 3.1 230 09:54 05.08.2019
4200 Clear 23 1015 88 10000 2.6 200 09:36 05.08.2019
4201 Clear 23 1014 64 10000 3.1 250 09:18 05.08.2019
4202 Clear 22 1014 88 8000 2.1 230 08:41 05.08.2019
4203 Clear 22 1014 83 10000 1 100 08:20 05.08.2019
4204 Clear 21 1014 88 8000 1.5 230 07:45 05.08.2019
4205 Clear 21 1014 88 8000 1.5 230 07:27 05.08.2019
4206 Clear 23 1014 83 8000 2.1 230 06:39 05.08.2019
4207 Clear 23 1014 83 8000 2.1 240 05:52 05.08.2019
4208 Clear 23 1014 83 8000 1 0 05:20 05.08.2019
4209 Clear 24 1014 83 8000 2.1 230 04:28 05.08.2019
4210 Clear 24 1015 72 8000 1.35 261.383 03:38 05.08.2019
4211 Clear 24 1015 77 8000 0.5 0 02:37 05.08.2019
4212 Clear 24 1015 82 8000 2.15 239.799 01:35 05.08.2019
4213 Clear 25 1015 83 8000 0.5 0 00:43 05.08.2019
4214 Clear 24 1014 57 10000 4.6 240 00:24 05.08.2019
4215 Clear 21 1015 83 8000 0.5 270 23:59 04.08.2019
4216 Clear 21 1015 77 8000 1 290 23:40 04.08.2019
4217 Clear 22 1013 65 10000 5.7 220 23:20 04.08.2019
4218 Clear 22 1015 77 10000 1 280 22:56 04.08.2019
4219 Clear 22 1014 73 10000 1 290 22:37 04.08.2019
4220 Clear 25 1013 69 10000 7.2 210 22:19 04.08.2019
4221 Clear 25 1013 73 10000 6.2 210 21:43 04.08.2019
4222 Clear 26 1012 65 10000 6.2 210 21:20 04.08.2019
4223 Clear 26 1012 69 10000 6.2 210 20:46 04.08.2019
4224 Clear 27 1012 65 10000 5.7 210 20:21 04.08.2019
4225 Clear 27 1014 65 10000 4.6 300 19:59 04.08.2019
4226 Clear 27 1012 65 10000 7.2 210 19:39 04.08.2019
4227 Clear 27 1014 61 10000 3.6 310 19:21 04.08.2019
4228 Clear 28 1012 58 10000 8.2 200 18:42 04.08.2019
4229 Clear 28 1012 57 10000 9.3 200 18:21 04.08.2019
4230 Clear 28 1012 51 10000 9.3 200 17:46 04.08.2019
4231 Clear 28 1014 57 10000 5.1 290 17:26 04.08.2019
4232 Clear 28 1014 61 10000 4.6 300 16:59 04.08.2019
4233 Clear 28 1013 54 10000 9.3 200 16:40 04.08.2019
4234 Clear 28 1013 51 10000 8.2 200 16:20 04.08.2019
4235 Clear 27 1013 57 10000 9.3 210 15:44 04.08.2019
4236 Clear 27 1015 61 10000 4.1 310 15:23 04.08.2019
4237 Clear 27 1014 61 10000 7.2 210 14:45 04.08.2019
4238 Clear 27 1015 65 10000 4.6 280 14:27 04.08.2019
4239 Clear 27 1014 61 10000 7.2 210 13:56 04.08.2019
4240 Clear 27 1014 61 10000 7.2 210 13:38 04.08.2019
4241 Clear 28 1014 54 10000 4.6 220 13:20 04.08.2019
4242 Clear 27 1014 61 10000 5.7 210 12:44 04.08.2019
4243 Clear 27 1015 61 10000 4.6 280 12:25 04.08.2019
4244 Clear 27 1015 65 8000 4.1 270 11:56 04.08.2019
4245 Clear 26 1014 51 10000 4.6 230 11:37 04.08.2019
4246 Clear 24 1014 57 10000 4.6 230 11:18 04.08.2019
4247 Clear 24 1014 57 10000 4.6 240 10:40 04.08.2019
4248 Fog 23 1014 60 10000 4.1 230 10:19 04.08.2019
4249 Fog 22 1014 64 10000 4.6 230 09:43 04.08.2019
4250 Fog 22 1015 78 10000 1.5 200 09:22 04.08.2019
4251 Fog 21 1015 83 6000 1.5 220 08:43 04.08.2019
4252 Fog 21 1015 83 6000 1.5 220 08:25 04.08.2019
4253 Mist 21 1015 83 6000 1.5 220 07:51 04.08.2019
4254 Mist 21 1015 88 10000 1 0 06:50 04.08.2019
4255 Mist 21 1014 73 10000 4.1 250 06:28 04.08.2019
4256 Clouds 22 1015 88 6000 2.6 230 03:46 04.08.2019
4257 Clouds 23 1015 83 6000 2.1 230 02:23 04.08.2019
4258 Clouds 22 1015 83 6000 3.6 230 01:33 04.08.2019
4259 Clouds 23 1015 88 6000 3.1 210 00:46 04.08.2019
4260 Clouds 23 1015 88 6000 3.1 210 00:26 04.08.2019
4261 Clouds 23 1015 88 6000 2.6 230 23:57 03.08.2019
4262 Clear 23 1015 83 6000 2.1 240 23:39 03.08.2019
4263 Clear 23 1014 73 10000 6.7 200 23:18 03.08.2019
4264 Clear 23 1014 83 6000 2.1 260 22:44 03.08.2019
4265 Clear 23 1014 83 6000 2.1 260 22:20 03.08.2019
4266 Clear 24 1013 69 10000 3.1 200 21:40 03.08.2019
4267 Clear 25 1013 69 10000 3.1 210 21:22 03.08.2019
4268 Clear 25 1013 61 10000 2.1 210 20:47 03.08.2019
4269 Clear 25 1013 73 10000 3.6 270 20:27 03.08.2019
4270 Clear 26 1013 65 10000 3.6 280 19:58 03.08.2019
4271 Clear 26 1013 61 10000 1 270 19:40 03.08.2019
4272 Clear 26 1013 65 10000 4.1 280 19:21 03.08.2019
4273 Clear 27 1013 57 10000 3.1 120 18:46 03.08.2019
4274 Clear 27 1013 57 10000 3.1 120 18:46 03.08.2019
4275 Clear 27 1013 61 10000 4.1 280 18:26 03.08.2019
4276 Clear 28 1013 58 10000 1 260 17:46 03.08.2019
4277 Clear 28 1014 57 10000 3.6 300 17:20 03.08.2019
4278 Clear 27 1014 54 10000 2.6 150 16:54 03.08.2019
4279 Clear 27 1014 54 10000 2.6 150 16:36 03.08.2019
4280 Clear 28 1014 48 10000 2.1 180 16:18 03.08.2019
4281 Clear 27 1014 54 10000 1.5 290 15:42 03.08.2019
4282 Clear 26 1014 58 10000 1.5 320 15:20 03.08.2019
4283 Clear 26 1015 65 10000 2.1 190 14:38 03.08.2019
4284 Clear 25 1015 69 10000 2.6 110 14:19 03.08.2019
4285 Clear 25 1015 65 10000 2.1 60 13:49 03.08.2019
4286 Clouds 26 1015 61 10000 4.1 290 13:23 03.08.2019
4287 Clear 26 1015 65 10000 3.1 130 12:56 03.08.2019
4288 Clear 25 1015 65 10000 3.1 130 12:37 03.08.2019
4289 Clear 24 1015 65 10000 3.6 100 12:19 03.08.2019
4290 Clear 24 1015 69 10000 2.1 100 11:40 03.08.2019
4291 Clouds 24 1015 69 10000 4.6 260 11:22 03.08.2019
4292 Clear 23 1015 73 10000 2.1 110 10:39 03.08.2019
4293 Clouds 23 1015 78 10000 2.1 190 10:20 03.08.2019
4294 Clear 21 1015 73 10000 1.5 250 09:38 03.08.2019
4295 Mist 20 1014 77 10000 2.1 270 09:18 03.08.2019
4296 Mist 19 1014 82 10000 2.1 200 08:44 03.08.2019
4297 Clear 19 1014 82 0 3.88 192.239 07:41 03.08.2019
4298 Clear 19 1014 82 0 3.88 192.239 06:58 03.08.2019
4299 Clear 20 1014 82 10000 0.5 0 06:21 03.08.2019
4300 Clear 20 1014 82 10000 3.25 205.224 03:36 03.08.2019
4301 Clear 22 1014 77 10000 1.5 250 02:27 03.08.2019
4302 Clear 22 1014 77 10000 1 330 00:59 03.08.2019
4303 Clear 22 1014 77 10000 1 310 00:32 03.08.2019
4304 Clear 22 1014 77 10000 1 310 00:32 03.08.2019
4305 Clear 23 1014 68 10000 0.5 0 23:43 02.08.2019
4306 Clear 23 1013 69 10000 2.6 190 23:21 02.08.2019
4307 Clear 23 1014 68 10000 2.38 273.862 22:59 02.08.2019
4308 Clear 23 1013 69 10000 1 120 22:40 02.08.2019
4309 Clear 24 1013 69 10000 2.1 210 22:22 02.08.2019
4310 Clear 24 1013 64 10000 1.5 300 21:56 02.08.2019
4311 Clear 24 1013 69 10000 2.6 200 21:38 02.08.2019
4312 Clear 25 1013 69 10000 4.6 200 21:20 02.08.2019
4313 Clear 25 1012 65 10000 1.5 160 20:43 02.08.2019
4314 Clear 25 1013 53 10000 3.1 340 20:23 02.08.2019
4315 Clear 26 1014 53 10000 4.6 330 19:55 02.08.2019
4316 Clear 25 1013 57 10000 3.6 330 19:33 02.08.2019
4317 Clear 26 1014 50 10000 4.1 340 18:57 02.08.2019
4318 Clear 26 1013 65 10000 3.1 90 18:38 02.08.2019
4319 Clear 28 1013 61 10000 3.1 70 18:18 02.08.2019
4320 Clear 28 1013 54 10000 2.1 50 17:39 02.08.2019
4321 Clear 28 1013 58 10000 2.1 30 17:20 02.08.2019
4322 Clear 27 1013 69 10000 2.6 80 16:40 02.08.2019
4323 Clouds 27 1015 57 10000 4.6 280 16:21 02.08.2019
4324 Clouds 29 1015 61 10000 5.1 280 15:57 02.08.2019
4325 Clouds 29 1015 65 10000 5.7 280 15:37 02.08.2019
4326 Clear 29 1013 48 10000 7.7 200 15:18 02.08.2019
4327 Clear 30 1013 45 10000 7.2 200 14:43 02.08.2019
4328 Clear 29 1013 51 10000 9.3 200 14:18 02.08.2019
4329 Clear 29 1013 54 10000 6.7 210 13:46 02.08.2019
4330 Clouds 28 1015 54 8000 5.7 240 13:21 02.08.2019
4331 Clear 27 1013 58 10000 5.7 220 12:44 02.08.2019
4332 Clear 27 1013 57 10000 5.1 210 12:20 02.08.2019
4333 Clear 27 1013 61 10000 5.1 220 11:42 02.08.2019
4334 Clear 25 1013 57 10000 4.1 210 11:23 02.08.2019
4335 Mist 25 1013 61 10000 4.1 250 10:48 02.08.2019
4336 Mist 24 1014 78 4000 4.6 230 10:24 02.08.2019
4337 Mist 23 1014 88 4000 3.6 230 09:58 02.08.2019
4338 Clear 23 1013 64 10000 3.6 240 09:40 02.08.2019
4339 Clouds 23 1014 83 6000 3.6 220 09:22 02.08.2019
4340 Clear 21 1014 83 10000 1.5 230 08:41 02.08.2019
4341 Clear 21 1014 83 10000 1.5 230 08:20 02.08.2019
4342 Haze 21 1014 83 10000 1.5 230 07:45 02.08.2019
4343 Haze 21 1014 83 10000 1.5 230 07:26 02.08.2019
4344 Haze 22 1014 83 10000 1.5 230 06:37 02.08.2019
4345 Clear 22 1014 77 10000 3.11 208.856 05:44 02.08.2019
4346 Clear 23 1014 77 10000 3.11 208.856 03:35 02.08.2019
4347 Clear 25 1014 73 10000 0.78 235.147 02:42 02.08.2019
4348 Clouds 25 1014 78 10000 0.78 235.147 01:38 02.08.2019
4349 Clouds 25 1014 78 10000 2.1 340 00:32 02.08.2019
4350 Clouds 25 1013 78 10000 5.1 350 23:44 01.08.2019
4351 Clouds 25 1013 78 10000 5.1 350 23:26 01.08.2019
4352 Clear 25 1012 69 10000 1 50 22:45 01.08.2019
4353 Clear 25 1012 69 10000 1 50 22:25 01.08.2019
4354 Clouds 26 1012 65 10000 6.2 10 21:57 01.08.2019
4355 Clear 26 1012 65 10000 0.5 100 21:39 01.08.2019
4356 Clear 26 1012 69 10000 1.5 200 21:21 01.08.2019
4357 Clear 27 1012 61 10000 1.5 120 20:46 01.08.2019
4358 Clouds 27 1011 61 10000 7.2 360 20:23 01.08.2019
4359 Clear 29 1011 61 10000 1.5 220 19:54 01.08.2019
4360 Clouds 29 1011 43 10000 5.1 60 19:36 01.08.2019
4361 Clear 29 1011 61 10000 2.1 220 19:18 01.08.2019
4362 Clear 29 1012 61 10000 3.6 120 18:42 01.08.2019
4363 Clouds 29 1011 43 10000 5.1 60 18:23 01.08.2019
4364 Clouds 29 1011 43 10000 5.1 60 18:23 01.08.2019
4365 Clear 29 1012 61 10000 5.1 120 17:47 01.08.2019
4366 Clouds 29 1011 43 10000 7.7 60 17:27 01.08.2019
4367 Clouds 29 1012 58 10000 5.1 120 16:45 01.08.2019
4368 Clouds 29 1011 46 10000 7.7 60 16:22 01.08.2019
4369 Clouds 29 1013 61 10000 4.1 110 15:46 01.08.2019
4370 -273 0 0 0 0 0 15:22 01.08.2019
4371 Clouds 28 1012 54 10000 3.6 230 14:59 01.08.2019
4372 Clouds 27 1013 65 10000 3.1 80 14:41 01.08.2019
4373 Clouds 26 1013 74 10000 3.6 70 14:18 01.08.2019
4374 Clouds 26 1014 73 10000 4.1 70 13:41 01.08.2019
4375 Clouds 26 1014 73 10000 4.1 70 13:41 01.08.2019
4376 Clouds 26 1013 65 10000 3.6 290 13:22 01.08.2019
4377 Clouds 25 1014 73 10000 3.1 40 12:59 01.08.2019
4378 Clouds 25 1014 73 10000 3.1 40 12:59 01.08.2019
4379 Clouds 25 1014 73 10000 3.1 40 12:41 01.08.2019
4380 Clouds 25 1013 69 10000 4.6 280 12:21 01.08.2019
4381 Haze 24 1013 78 9000 2.1 50 11:42 01.08.2019
4382 Haze 24 1013 78 9000 2.1 50 11:42 01.08.2019
4383 Haze 24 1012 69 10000 3.1 290 11:22 01.08.2019
4384 Haze 24 1013 78 9000 3.1 40 10:46 01.08.2019
4385 Haze 24 1012 69 10000 2.6 250 10:28 01.08.2019
4386 Haze 24 1012 78 10000 1 0 09:59 01.08.2019
4387 Haze 23 1013 83 8000 2.6 40 09:39 01.08.2019
4388 Haze 23 1012 78 10000 0.5 0 09:21 01.08.2019
4389 Clouds 23 1011 83 8000 1.5 260 08:42 01.08.2019
4390 Clouds 22 1012 83 10000 5.7 50 08:19 01.08.2019
4391 Clouds 22 1011 83 10000 2.1 300 07:47 01.08.2019
4392 Clouds 22 1011 83 10000 2.1 300 07:24 01.08.2019
4393 Clouds 22 1011 78 10000 2.6 70 06:47 01.08.2019
4394 Clear 23 1011 78 10000 2.6 80 05:48 01.08.2019
4395 Clear 23 1011 73 10000 2.6 110 03:53 01.08.2019
4396 Clear 23 1011 69 10000 4.6 100 02:26 01.08.2019
4397 Clear 24 1010 65 10000 6.7 110 00:41 01.08.2019
4398 Clear 24 1013 83 10000 6.2 90 00:19 01.08.2019
4399 Clear 24 1010 65 10000 7.7 100 23:42 31.07.2019
4400 Clear 24 1009 61 10000 6.7 100 23:20 31.07.2019
4401 Clear 24 1009 57 10000 8.2 100 22:47 31.07.2019
4402 Clear 24 1009 57 10000 8.2 100 22:29 31.07.2019
4403 Clouds 25 1012 78 10000 6.7 90 21:45 31.07.2019
4404 Clear 25 1009 54 10000 7.2 100 21:24 31.07.2019
4405 Clouds 26 1011 78 10000 6.2 80 20:56 31.07.2019
4406 Clouds 26 1011 78 10000 6.2 80 20:38 31.07.2019
4407 Clear 26 1008 51 10000 5.7 70 20:20 31.07.2019
4408 Clouds 27 1011 73 10000 4.1 80 19:41 31.07.2019
4409 Clear 27 1008 45 10000 8.7 100 19:22 31.07.2019
4410 Clouds 28 1012 73 10000 3.6 70 18:41 31.07.2019
4411 Clouds 28 1012 69 10000 3.6 80 18:22 31.07.2019
4412 Clouds 28 1012 69 10000 3.6 80 17:55 31.07.2019
4413 Clear 28 1009 40 10000 9.3 100 17:37 31.07.2019
4414 Clouds 29 1012 69 10000 4.1 80 17:18 31.07.2019
4415 Clouds 29 1012 73 10000 3.1 80 16:41 31.07.2019
4416 Clouds 29 1012 73 10000 3.1 80 16:41 31.07.2019
4417 Clouds 27 1013 73 10000 3.6 80 16:19 31.07.2019
4418 Clouds 27 1013 78 10000 4.1 90 15:44 31.07.2019
4419 Clear 27 1010 36 10000 8.2 90 15:24 31.07.2019
4420 Clouds 27 1013 78 10000 5.1 90 14:42 31.07.2019
4421 Clear 27 1010 40 10000 7.7 90 14:21 31.07.2019
4422 Clear 27 1010 43 10000 7.7 100 13:57 31.07.2019
4423 Clear 27 1010 43 10000 9.3 100 13:37 31.07.2019
4424 Clouds 26 1013 78 10000 5.7 90 13:19 31.07.2019
4425 Clouds 26 1013 83 10000 5.7 90 12:43 31.07.2019
4426 Clear 26 1011 51 10000 6.2 80 12:25 31.07.2019
4427 Clouds 25 1013 78 10000 5.7 80 11:41 31.07.2019
4428 Clouds 25 1011 54 10000 5.7 90 11:23 31.07.2019
4429 Mist 24 1011 61 10000 4.1 90 10:57 31.07.2019
4430 Mist 23 1013 83 10000 6.7 70 10:39 31.07.2019
4431 Mist 23 1012 65 10000 2.1 100 10:20 31.07.2019
4432 Mist 22 1013 83 10000 5.1 70 09:43 31.07.2019
4433 Mist 22 1013 83 10000 5.1 70 09:43 31.07.2019
4434 Mist 21 1012 83 10000 4.6 80 09:24 31.07.2019
4435 Mist 21 1012 88 10000 3.1 70 08:44 31.07.2019
4436 Mist 21 1012 88 10000 3.1 70 08:25 31.07.2019
4437 Mist 21 1011 83 10000 2.1 80 07:53 31.07.2019
4438 Mist 21 1010 83 10000 4.1 60 07:33 31.07.2019
4439 Clear 22 1010 64 10000 3.6 80 05:24 31.07.2019
4440 Clear 22 1010 53 10000 3.6 70 04:41 31.07.2019
4441 Clear 23 1011 49 10000 6.72 103.366 00:57 31.07.2019
4442 Clear 23 1012 56 10000 2.1 320 23:51 30.07.2019
4443 Clear 23 1012 56 10000 2.1 320 23:30 30.07.2019
4444 Clear 23 1012 56 10000 2.1 240 22:59 30.07.2019
4445 Clear 24 1011 53 10000 1.5 320 22:41 30.07.2019
4446 Clear 24 1011 53 10000 1.5 320 22:21 30.07.2019
4447 Clear 24 1010 39 10000 5.1 330 21:38 30.07.2019
4448 Clear 26 1010 73 10000 2.1 100 21:19 30.07.2019
4449 Clear 26 1010 39 10000 5.1 340 20:57 30.07.2019
4450 Clear 26 1010 34 10000 5.1 340 20:38 30.07.2019
4451 Clear 27 1010 64 10000 3.1 70 20:19 30.07.2019
4452 Clear 27 1011 34 10000 4.6 340 19:47 30.07.2019
4453 Clear 27 1011 34 10000 4.6 340 19:28 30.07.2019
4454 Clear 28 1011 39 10000 3.6 320 18:48 30.07.2019
4455 Clear 28 1011 39 10000 3.6 320 18:25 30.07.2019
4456 Clear 28 1011 42 10000 4.1 340 17:58 30.07.2019
4457 Clear 28 1011 51 10000 2.1 110 17:40 30.07.2019
4458 Clear 28 1011 57 10000 2.6 80 17:18 30.07.2019
4459 Clear 28 1011 47 10000 1.5 130 16:44 30.07.2019
4460 Clear 28 1011 51 10000 2.1 80 16:19 30.07.2019
4461 Clear 28 1011 48 10000 1.5 80 15:39 30.07.2019
4462 Clear 29 1012 47 10000 2.1 80 15:19 30.07.2019
4463 Clear 28 1012 37 10000 4.6 200 14:43 30.07.2019
4464 Clear 28 1012 37 10000 4.6 200 14:43 30.07.2019
4465 Clear 29 1013 53 10000 4.6 310 14:22 30.07.2019
4466 Clear 30 1014 50 10000 4.1 300 13:55 30.07.2019
4467 Clear 29 1012 39 10000 5.1 210 13:36 30.07.2019
4468 Clear 29 1012 42 10000 4.6 210 13:18 30.07.2019
4469 Clear 28 1012 44 10000 4.1 210 12:43 30.07.2019
4470 Clear 27 1014 57 10000 4.6 270 12:24 30.07.2019
4471 Clear 27 1012 50 10000 4.6 210 11:46 30.07.2019
4472 Clouds 26 1014 64 10000 4.6 260 11:23 30.07.2019
4473 Clouds 25 1014 73 10000 4.1 250 10:55 30.07.2019
4474 Clear 25 1012 53 10000 3.1 220 10:37 30.07.2019
4475 Clear 25 1012 53 10000 3.1 220 10:37 30.07.2019
4476 Clouds 25 1014 73 10000 3.6 230 10:19 30.07.2019
4477 Clear 23 1012 53 10000 4.6 230 09:46 30.07.2019
4478 Clouds 23 1014 83 10000 3.1 220 09:27 30.07.2019
4479 Clouds 22 1013 88 10000 3.1 220 08:35 30.07.2019
4480 Clouds 22 1013 82 10000 2.6 210 07:53 30.07.2019
4481 Clear 22 1013 82 10000 2.6 210 07:34 30.07.2019
4482 Clear 24 1013 82 10000 3.1 210 06:52 30.07.2019
4483 Clear 23 1013 82 10000 3.6 210 06:33 30.07.2019
4484 Clear 23 1013 82 10000 1.5 270 05:35 30.07.2019
4485 Clear 23 1013 82 10000 6.09 339.662 03:32 30.07.2019
4486 Clear 24 1014 77 10000 1 0 01:22 30.07.2019
4487 Clear 24 1014 82 10000 1 0 00:27 30.07.2019
4488 Clear 25 1014 83 10000 1 0 23:57 29.07.2019
4489 Clear 24 1014 83 10000 1 0 23:38 29.07.2019
4490 Clear 24 1014 83 10000 1 0 23:20 29.07.2019
4491 Clear 25 1013 83 10000 1 270 22:54 29.07.2019
4492 Clear 24 1013 77 10000 1.5 260 22:36 29.07.2019
4493 Clear 26 1011 65 10000 7.2 220 22:18 29.07.2019
4494 Clear 26 1012 69 10000 2.6 290 21:41 29.07.2019
4495 Clear 26 1012 69 10000 2.6 290 21:23 29.07.2019
4496 Clear 27 1012 60 10000 3.6 290 20:57 29.07.2019
4497 Clear 27 1010 65 10000 7.2 210 20:38 29.07.2019
4498 Clear 27 1010 61 10000 7.2 210 20:19 29.07.2019
4499 Clouds 27 1010 61 10000 7.7 200 19:43 29.07.2019
4500 Clear 27 1012 61 10000 4.1 310 19:22 29.07.2019
4501 Clear 27 1013 61 10000 4.1 310 18:55 29.07.2019
4502 Clouds 27 1011 57 10000 7.2 200 18:36 29.07.2019
4503 Clouds 27 1011 54 10000 8.7 200 18:18 29.07.2019
4504 Clouds 27 1011 57 10000 8.7 200 17:46 29.07.2019
4505 Clouds 28 1011 57 10000 9.8 200 17:26 29.07.2019
4506 Clouds 28 1011 57 10000 8.7 200 16:46 29.07.2019
4507 Clear 28 1013 54 10000 5.1 310 16:26 29.07.2019
4508 -273 0 0 0 0 0 15:53 29.07.2019
4509 Clouds 28 1013 57 10000 5.7 300 15:53 29.07.2019
4510 Clouds 28 1014 61 10000 5.1 300 15:35 29.07.2019
4511 Clouds 28 1012 57 10000 8.2 210 14:57 29.07.2019
4512 Clouds 27 1014 61 10000 6.2 250 14:38 29.07.2019
4513 Clouds 27 1014 61 10000 6.2 250 14:20 29.07.2019
4514 Clouds 27 1012 61 10000 6.2 210 14:20 29.07.2019
4515 Clouds 27 1012 61 10000 7.2 210 13:43 29.07.2019
4516 Clouds 27 1014 57 10000 5.1 250 13:23 29.07.2019
4517 Clouds 27 1013 61 10000 4.6 230 12:43 29.07.2019
4518 Clouds 26 1014 57 10000 5.1 250 12:24 29.07.2019
4519 Clouds 25 1013 69 10000 5.1 270 11:45 29.07.2019
4520 Clouds 25 1014 64 10000 5.1 240 11:23 29.07.2019
4521 Clouds 24 1014 64 10000 5.7 240 10:57 29.07.2019
4522 Clouds 24 1014 64 10000 5.7 240 10:57 29.07.2019
4523 Clouds 24 1014 60 10000 5.7 250 10:38 29.07.2019
4524 Clouds 23 1012 73 10000 3.6 240 10:19 29.07.2019
4525 Clouds 22 1013 68 10000 3.1 220 09:38 29.07.2019
4526 Clouds 21 1012 77 10000 5.1 250 09:19 29.07.2019
4527 Clouds 21 1013 72 10000 2.6 220 08:36 29.07.2019
4528 Clouds 21 1012 77 10000 5.1 250 08:18 29.07.2019
4529 Clouds 21 1012 77 10000 2.1 220 07:41 29.07.2019
4530 Clouds 21 1012 77 10000 2.1 220 07:20 29.07.2019
4531 Clouds 21 1012 72 10000 2.1 200 05:47 29.07.2019
4532 Clouds 21 1012 72 10000 1.5 220 04:53 29.07.2019
4533 Clouds 21 1013 73 10000 3.6 250 02:26 29.07.2019
4534 Clouds 22 1013 73 10000 3.1 240 01:43 29.07.2019
4535 Clear 22 1011 83 10000 6.7 270 01:22 29.07.2019
4536 Clouds 22 1013 73 10000 2.6 270 00:43 29.07.2019
4537 Clouds 22 1013 73 10000 2.6 270 00:20 29.07.2019
4538 Clouds 22 1013 73 10000 3.1 290 23:41 28.07.2019
4539 Clear 23 1011 64 10000 6.2 230 23:18 28.07.2019
4540 Clouds 23 1011 60 10000 5.1 240 22:39 28.07.2019
4541 Clouds 23 1012 77 10000 3.1 290 22:21 28.07.2019
4542 Clear 24 1010 57 10000 5.1 240 21:46 28.07.2019
4543 Clear 25 1010 61 10000 5.1 260 21:19 28.07.2019
4544 Clear 25 1009 57 10000 5.1 230 20:47 28.07.2019
4545 Clouds 25 1011 69 10000 4.1 290 20:29 28.07.2019
4546 Clouds 26 1009 57 10000 6.2 200 19:42 28.07.2019
4547 Clouds 26 1009 57 10000 6.2 200 19:42 28.07.2019
4548 Clouds 26 1011 60 10000 5.1 310 19:22 28.07.2019
4549 Clouds 27 1011 60 10000 5.1 320 18:58 28.07.2019
4550 Clouds 27 1009 51 10000 5.1 210 18:38 28.07.2019
4551 Clouds 27 1009 51 10000 5.1 210 18:38 28.07.2019
4552 Clouds 28 1009 54 10000 6.2 210 18:18 28.07.2019
4553 Clouds 28 1010 54 10000 6.7 220 17:41 28.07.2019
4554 Clouds 28 1011 57 10000 5.1 290 17:22 28.07.2019
4555 Clouds 27 1012 64 10000 5.1 280 16:57 28.07.2019
4556 Clouds 27 1010 54 10000 6.2 220 16:38 28.07.2019
4557 Clouds 27 1010 54 10000 6.7 220 16:19 28.07.2019
4558 Clouds 27 1011 57 10000 6.2 200 15:42 28.07.2019
4559 Clouds 27 1012 57 10000 5.7 280 15:21 28.07.2019
4560 Clouds 26 1011 51 10000 5.1 230 14:37 28.07.2019
4561 Clouds 26 1011 51 10000 5.1 230 14:37 28.07.2019
4562 Clouds 26 1011 51 10000 5.1 230 14:37 28.07.2019
4563 Clouds 26 1011 54 10000 4.6 200 14:19 28.07.2019
4564 Clouds 26 1011 61 10000 4.6 270 13:44 28.07.2019
4565 Clouds 25 1012 60 10000 4.1 300 13:23 28.07.2019
4566 Clouds 25 1012 64 10000 4.1 290 12:59 28.07.2019
4567 Clouds 24 1011 61 10000 3.6 240 12:40 28.07.2019
4568 Clouds 24 1012 68 10000 3.6 280 12:22 28.07.2019
4569 Clouds 23 1011 69 10000 4.6 280 11:46 28.07.2019
4570 Clouds 23 1012 77 10000 4.1 260 11:27 28.07.2019
4571 Clouds 23 1012 77 10000 4.1 260 11:27 28.07.2019
4572 Clouds 23 1011 73 10000 5.1 270 10:40 28.07.2019
4573 Clouds 22 1011 73 10000 5.1 280 10:21 28.07.2019
4574 Clouds 22 1011 73 10000 4.1 280 09:41 28.07.2019
4575 Clouds 22 1012 82 6000 3.6 300 09:23 28.07.2019
4576 Clouds 21 1012 82 6000 4.6 310 08:51 28.07.2019
4577 Clouds 21 1012 88 6000 3.6 300 08:28 28.07.2019
4578 Clouds 21 1011 94 6000 3.6 300 07:53 28.07.2019
4579 Clouds 21 1011 94 6000 3.6 300 07:35 28.07.2019
4580 Clouds 21 1011 94 6000 3.1 290 06:41 28.07.2019
4581 Clouds 22 1012 94 6000 3.6 250 05:26 28.07.2019
4582 Clouds 22 1013 88 6000 2.1 240 03:27 28.07.2019
4583 Rain 22 1012 83 10000 6.2 260 02:19 28.07.2019
4584 Rain 23 1013 83 10000 5.1 220 01:19 28.07.2019
4585 Clouds 23 1014 83 10000 5.1 230 00:44 28.07.2019
4586 Clouds 23 1013 78 10000 6.7 260 00:18 28.07.2019
4587 Clouds 22 1013 83 10000 5.1 260 23:44 27.07.2019
4588 Clouds 22 1013 83 10000 5.1 270 23:19 27.07.2019
4589 Clouds 22 1013 83 10000 6.2 260 22:40 27.07.2019
4590 Clouds 23 1012 78 10000 5.7 260 22:19 27.07.2019
4591 Clouds 23 1012 73 10000 7.2 260 21:39 27.07.2019
4592 Clouds 23 1013 73 10000 6.2 260 21:20 27.07.2019
4593 Clouds 24 1012 78 10000 8.2 260 20:50 27.07.2019
4594 Clouds 25 1012 73 10000 8.7 260 20:23 27.07.2019
4595 Clouds 25 1012 73 10000 8.7 260 19:46 27.07.2019
4596 Clouds 25 1013 64 10000 6.7 270 19:26 27.07.2019
4597 Clouds 25 1014 60 10000 6.7 260 18:52 27.07.2019
4598 Clouds 26 1014 57 10000 6.2 270 18:34 27.07.2019
4599 Clouds 27 1014 57 10000 6.2 260 17:52 27.07.2019
4600 Clouds 27 1014 57 10000 6.7 280 17:33 27.07.2019
4601 Clouds 27 1013 50 10000 7.7 260 16:59 27.07.2019
4602 Clouds 27 1013 50 10000 7.7 260 16:59 27.07.2019
4603 Clouds 27 1013 50 10000 7.7 260 16:40 27.07.2019
4604 Clouds 27 1015 53 10000 6.7 280 16:21 27.07.2019
4605 Clouds 27 1013 53 10000 8.7 270 15:48 27.07.2019
4606 Clouds 27 1013 50 10000 8.7 260 15:20 27.07.2019
4607 Clouds 27 1013 47 10000 7.2 260 14:50 27.07.2019
4608 Clouds 27 1016 53 10000 6.7 290 14:31 27.07.2019
4609 Clouds 26 1014 57 10000 8.2 270 13:55 27.07.2019
4610 Clouds 25 1016 53 10000 6.7 280 13:25 27.07.2019
4611 Clear 25 1014 53 10000 9.3 270 12:59 27.07.2019
4612 Clear 25 1014 53 10000 9.3 270 12:41 27.07.2019
4613 Clouds 25 1016 53 10000 5.7 290 12:21 27.07.2019
4614 Clouds 24 1014 53 10000 8.7 260 11:41 27.07.2019
4615 Clouds 23 1016 64 10000 5.1 300 11:23 27.07.2019
4616 Clouds 23 1014 64 10000 9.3 270 10:42 27.07.2019
4617 Clouds 23 1016 56 10000 4.1 290 10:23 27.07.2019
4618 Clouds 21 1014 64 10000 9.3 280 09:43 27.07.2019
4619 Clouds 21 1016 68 10000 4.6 290 09:23 27.07.2019
4620 Clouds 21 1015 72 8000 3.1 280 08:50 27.07.2019
4621 Clouds 21 1015 72 8000 3.1 280 08:32 27.07.2019
4622 Clouds 21 1015 77 8000 3.1 230 07:57 27.07.2019
4623 Clouds 21 1015 77 8000 3.6 260 07:34 27.07.2019
4624 Clouds 21 1015 77 8000 5.7 210 06:58 27.07.2019
4625 Clouds 21 1015 77 8000 5.7 210 06:37 27.07.2019
4626 Clouds 21 1013 73 10000 5.1 240 06:18 27.07.2019
4627 Clouds 21 1015 82 6000 5.1 210 05:32 27.07.2019
4628 Clouds 21 1015 82 8000 4.6 210 04:35 27.07.2019
4629 Clouds 22 1016 82 8000 5.1 210 03:39 27.07.2019
4630 Clouds 22 1016 77 8000 5.1 210 02:42 27.07.2019
4631 Clouds 22 1016 77 8000 4.6 210 01:54 27.07.2019
4632 Clouds 22 1016 77 8000 4.6 220 01:31 27.07.2019
4633 Clouds 22 1016 77 10000 4.1 230 00:33 27.07.2019
4634 Clouds 22 1016 77 10000 4.1 240 23:58 26.07.2019
4635 Clouds 22 1016 77 10000 3.6 250 23:40 26.07.2019
4636 Clouds 22 1016 77 10000 3.6 250 23:22 26.07.2019
4637 Clouds 23 1016 73 10000 4.1 260 22:42 26.07.2019
4638 Clouds 23 1016 73 10000 4.1 260 22:24 26.07.2019
4639 Clouds 24 1014 64 10000 7.2 270 21:49 26.07.2019
4640 Clouds 25 1013 60 10000 7.7 270 21:20 26.07.2019
4641 Clouds 25 1013 53 10000 8.7 270 20:48 26.07.2019
4642 Clouds 25 1015 64 10000 6.2 270 20:30 26.07.2019
4643 Clear 27 1013 42 10000 8.2 260 19:45 26.07.2019
4644 Clouds 27 1015 57 10000 6.7 280 19:26 26.07.2019
4645 Clouds 28 1016 53 10000 6.7 280 18:59 26.07.2019
4646 Clear 28 1013 39 10000 9.3 260 18:40 26.07.2019
4647 Clear 28 1014 47 10000 9.8 260 18:20 26.07.2019
4648 Clear 28 1014 47 10000 9.3 260 17:48 26.07.2019
4649 Clouds 28 1016 53 10000 5.1 310 17:20 26.07.2019
4650 Clouds 29 1016 50 10000 5.7 290 16:59 26.07.2019
4651 Clear 29 1014 42 10000 9.3 250 16:41 26.07.2019
4652 Clouds 28 1016 53 10000 5.1 290 16:21 26.07.2019
4653 Clouds 29 1016 53 10000 5.1 290 15:57 26.07.2019
4654 Clear 29 1014 45 10000 8.2 260 15:38 26.07.2019
4655 Clear 28 1014 54 10000 7.2 240 15:19 26.07.2019
4656 Clouds 28 1014 51 10000 8.2 250 14:43 26.07.2019
4657 Clouds 28 1017 64 10000 5.1 300 14:23 26.07.2019
4658 Clouds 26 1015 69 10000 8.2 270 13:46 26.07.2019
4659 Clouds 26 1017 73 10000 4.6 300 13:27 26.07.2019
4660 Clouds 26 1015 65 10000 6.2 260 12:49 26.07.2019
4661 Clouds 26 1016 69 10000 8.2 240 12:23 26.07.2019
4662 Clouds 25 1015 73 10000 7.2 270 11:48 26.07.2019
4663 Clouds 25 1016 69 10000 7.2 240 11:23 26.07.2019
4664 Clouds 25 1016 64 10000 6.7 240 10:59 26.07.2019
4665 Clouds 25 1015 73 10000 4.6 250 10:39 26.07.2019
4666 Clouds 24 1015 69 10000 5.1 240 10:19 26.07.2019
4667 Clouds 24 1015 78 10000 7.2 240 09:47 26.07.2019
4668 Clouds 24 1016 69 8000 5.7 220 09:26 26.07.2019
4669 Clouds 22 1015 73 8000 5.7 210 08:41 26.07.2019
4670 Clouds 22 1015 73 8000 5.7 210 08:21 26.07.2019
4671 Clouds 22 1015 73 8000 5.1 210 07:40 26.07.2019
4672 Clouds 22 1015 73 8000 5.1 210 07:21 26.07.2019
4673 Clouds 22 1015 83 8000 4.1 220 06:21 26.07.2019
4674 Clouds 22 1015 83 8000 4.1 220 04:30 26.07.2019
4675 Clouds 23 1015 78 10000 4.6 220 03:51 26.07.2019
4676 Clouds 24 1016 83 8000 4.6 230 01:46 26.07.2019
4677 Clear 24 1015 83 9000 6.2 230 01:18 26.07.2019
4678 Clouds 24 1016 83 8000 3.1 250 00:29 26.07.2019
4679 Clouds 24 1016 78 8000 2.6 250 23:46 25.07.2019
4680 Clear 25 1014 73 10000 6.2 210 23:20 25.07.2019
4681 Clear 25 1014 73 10000 5.1 220 22:41 25.07.2019
4682 Clouds 25 1015 78 8000 2.6 250 22:21 25.07.2019
4683 Haze 25 1013 57 9000 3.6 230 21:48 25.07.2019
4684 Haze 25 1015 78 8000 3.1 280 21:23 25.07.2019
4685 Haze 26 1013 61 9000 6.2 200 20:58 25.07.2019
4686 Haze 26 1013 61 9000 6.2 200 20:38 25.07.2019
4687 Haze 27 1012 58 9000 5.1 190 20:18 25.07.2019
4688 Haze 27 1012 54 9000 4.6 200 19:40 25.07.2019
4689 Haze 27 1014 69 10000 4.1 270 19:22 25.07.2019
4690 Haze 28 1013 54 9000 5.1 190 18:42 25.07.2019
4691 Haze 27 1013 61 9000 6.2 190 18:23 25.07.2019
4692 Haze 28 1014 65 10000 3.6 290 17:50 25.07.2019
4693 Haze 28 1014 65 10000 3.6 290 17:31 25.07.2019
4694 Haze 28 1014 62 9000 5.1 200 16:57 25.07.2019
4695 Haze 28 1014 62 9000 5.1 200 16:38 25.07.2019
4696 Clear 28 1014 61 10000 5.1 200 16:19 25.07.2019
4697 Clear 28 1014 61 10000 4.1 200 15:43 25.07.2019
4698 Clouds 28 1015 61 10000 4.6 260 15:19 25.07.2019
4699 Clear 27 1014 65 10000 3.6 210 14:42 25.07.2019
4700 Clouds 26 1015 65 6000 5.1 280 14:23 25.07.2019
4701 Mist 27 1015 69 10000 3.1 210 13:45 25.07.2019
4702 Mist 27 1015 69 4000 4.6 250 13:26 25.07.2019
4703 Mist 26 1014 74 10000 3.1 230 12:58 25.07.2019
4704 Mist 26 1015 73 4000 4.6 250 12:29 25.07.2019
4705 Mist 25 1014 69 10000 1 100 11:47 25.07.2019
4706 Mist 25 1015 78 4000 5.1 250 11:25 25.07.2019
4707 Mist 25 1014 78 4000 2.6 220 10:59 25.07.2019
4708 Mist 24 1014 78 10000 1 80 10:36 25.07.2019
4709 Mist 23 1014 83 10000 1 300 10:18 25.07.2019
4710 Mist 23 1014 88 10000 1 320 09:40 25.07.2019
4711 Haze 23 1014 88 8000 1 260 09:18 25.07.2019
4712 Haze 23 1013 83 5000 3.6 190 08:42 25.07.2019
4713 Haze 22 1013 83 4000 2.6 170 07:56 25.07.2019
4714 Haze 22 1013 83 6000 2.6 180 07:34 25.07.2019
4715 Mist 23 1013 83 4000 2.1 180 06:43 25.07.2019
4716 Mist 22 1013 88 4000 4.08 129.197 05:37 25.07.2019
4717 Clear 22 1013 88 8000 1.5 290 05:18 25.07.2019
4718 Mist 22 1013 83 4000 1.5 30 04:31 25.07.2019
4719 Clear 24 1013 73 10000 2.1 150 01:31 25.07.2019
4720 Clear 24 1013 73 10000 4.6 60 00:45 25.07.2019
4721 Clear 24 1014 83 10000 2.6 80 00:19 25.07.2019
4722 Clear 24 1012 69 10000 5.1 70 23:45 24.07.2019
4723 Clear 24 1012 69 10000 5.1 70 23:27 24.07.2019
4724 Clear 25 1013 73 10000 3.1 90 22:48 24.07.2019
4725 Clear 25 1011 61 10000 5.1 60 22:27 24.07.2019
4726 Clear 26 1013 74 10000 3.1 90 21:59 24.07.2019
4727 Clear 26 1013 74 10000 3.1 90 21:41 24.07.2019
4728 Clear 27 1013 74 10000 3.1 100 21:21 24.07.2019
4729 Clear 27 1013 74 10000 3.1 90 20:48 24.07.2019
4730 Clear 28 1010 45 10000 5.7 60 20:30 24.07.2019
4731 Clear 28 1010 45 10000 5.7 60 19:59 24.07.2019
4732 Clear 28 1013 78 10000 3.1 90 19:41 24.07.2019
4733 Clear 28 1011 45 10000 7.2 60 19:21 24.07.2019
4734 Clear 28 1013 69 10000 3.1 70 18:45 24.07.2019
4735 Clear 29 1011 48 10000 9.3 60 18:25 24.07.2019
4736 Clear 29 1011 48 10000 8.7 60 17:55 24.07.2019
4737 Clear 29 1014 61 10000 4.6 60 17:37 24.07.2019
4738 Clear 29 1014 61 10000 4.6 60 17:37 24.07.2019
4739 Clear 29 1014 65 10000 4.6 70 17:18 24.07.2019
4740 Clear 29 1014 65 10000 4.6 70 16:39 24.07.2019
4741 Clear 28 1012 48 10000 9.3 60 16:21 24.07.2019
4742 Clear 28 1014 74 10000 3.6 90 15:38 24.07.2019
4743 Clear 28 1015 65 10000 4.6 90 15:20 24.07.2019
4744 Clear 27 1015 65 10000 4.6 90 14:47 24.07.2019
4745 Clouds 27 1013 61 8000 4.1 0 14:22 24.07.2019
4746 Mist 26 1015 65 10000 5.1 100 13:42 24.07.2019
4747 Mist 26 1014 69 2000 3.1 300 13:24 24.07.2019
4748 Mist 25 1015 69 10000 4.6 100 12:55 24.07.2019
4749 Mist 25 1015 69 10000 4.6 100 12:37 24.07.2019
4750 Mist 25 1015 69 10000 4.6 100 12:18 24.07.2019
4751 Mist 24 1015 78 10000 3.6 80 11:37 24.07.2019
4752 Mist 25 1014 78 2000 3.1 280 11:19 24.07.2019
4753 Mist 24 1014 74 10000 4.1 40 10:42 24.07.2019
4754 Mist 24 1014 88 2000 1.5 290 10:24 24.07.2019
4755 Mist 24 1014 78 10000 1.5 70 09:44 24.07.2019
4756 Mist 24 1014 78 10000 1.5 70 09:44 24.07.2019
4757 Mist 23 1014 88 10000 0.5 200 09:23 24.07.2019
4758 Haze 22 1013 88 2000 1 0 08:53 24.07.2019
4759 Haze 23 1013 88 2000 2.1 300 08:27 24.07.2019
4760 Haze 23 1013 88 3000 2.1 200 07:47 24.07.2019
4761 Haze 23 1013 88 3000 2.1 200 07:23 24.07.2019
4762 Mist 23 1013 88 4000 4.55 98.796 06:28 24.07.2019
4763 Clouds 22 1014 88 6000 4.58 91.915 05:26 24.07.2019
4764 Clouds 23 1014 78 6000 3.84 122.067 01:56 24.07.2019
4765 Clear 23 1014 78 8000 1.5 70 01:22 24.07.2019
4766 Clear 24 1014 78 8000 3.6 70 00:50 24.07.2019
4767 Clear 24 1015 88 7000 2.6 60 00:19 24.07.2019
4768 Clear 24 1013 78 8000 4.1 60 23:37 23.07.2019
4769 Clear 24 1015 83 8000 4.6 30 23:19 23.07.2019
4770 Clear 24 1012 69 10000 5.1 60 22:39 23.07.2019
4771 Clear 25 1014 83 10000 4.6 40 22:19 23.07.2019
4772 Clear 25 1012 65 10000 6.2 60 21:46 23.07.2019
4773 Clear 25 1012 65 10000 6.2 60 21:28 23.07.2019
4774 Clear 26 1012 65 10000 8.2 60 20:57 23.07.2019
4775 Clear 26 1012 61 10000 7.2 60 20:39 23.07.2019
4776 Clouds 27 1014 78 10000 3.1 60 20:19 23.07.2019
4777 Clouds 28 1014 74 10000 3.6 70 19:37 23.07.2019
4778 Haze 28 1014 74 9000 3.6 80 19:18 23.07.2019
4779 Clouds 28 1014 74 10000 4.1 60 18:42 23.07.2019
4780 Clouds 28 1012 55 10000 8.2 60 18:22 23.07.2019
4781 Clouds 28 1015 74 10000 5.1 60 17:43 23.07.2019
4782 Clouds 28 1013 52 10000 6.2 60 17:22 23.07.2019
4783 Mist 27 1015 74 10000 5.1 60 16:48 23.07.2019
4784 Mist 27 1014 65 8000 3.1 290 16:27 23.07.2019
4785 Mist 27 1014 65 6000 4.1 280 15:52 23.07.2019
4786 Mist 27 1015 65 6000 4.6 280 15:34 23.07.2019
4787 Mist 27 1015 65 6000 3.6 270 14:59 23.07.2019
4788 Mist 26 1015 69 5000 4.1 270 14:37 23.07.2019
4789 Mist 26 1016 69 10000 5.1 70 14:18 23.07.2019
4790 Mist 26 1015 73 5000 4.6 280 13:56 23.07.2019
4791 Mist 26 1016 69 10000 4.6 70 13:37 23.07.2019
4792 Mist 26 1016 65 10000 5.1 70 13:19 23.07.2019
4793 Mist 26 1016 69 10000 5.1 70 12:42 23.07.2019
4794 Mist 25 1015 73 4000 4.1 260 12:22 23.07.2019
4795 Mist 25 1015 78 4000 4.1 260 11:41 23.07.2019
4796 Mist 25 1015 78 4000 4.1 260 11:22 23.07.2019
4797 Haze 24 1014 83 3500 3.1 260 10:51 23.07.2019
4798 Haze 24 1014 94 3000 2.1 260 10:23 23.07.2019
4799 Haze 23 1016 78 9000 5.7 60 09:43 23.07.2019
4800 Haze 23 1016 78 9000 5.7 60 09:43 23.07.2019
4801 Haze 23 1015 78 9000 5.1 60 09:22 23.07.2019
4802 Haze 23 1014 88 2000 0.5 280 08:54 23.07.2019
4803 Haze 23 1014 94 500 0.5 270 08:36 23.07.2019
4804 Haze 23 1014 94 500 0.5 270 08:36 23.07.2019
4805 Haze 23 1015 83 8000 4.6 50 08:18 23.07.2019
4806 Haze 23 1014 94 5000 1 300 07:38 23.07.2019
4807 Mist 23 1014 88 4000 0.5 290 06:57 23.07.2019
4808 Mist 23 1014 88 4000 1 310 06:36 23.07.2019
4809 Drizzle 23 1015 88 6000 2.1 240 04:27 23.07.2019
4810 Mist 24 1014 69 10000 7.7 110 01:40 23.07.2019
4811 Mist 25 1014 61 10000 7.2 100 00:46 23.07.2019
4812 Mist 25 1017 83 10000 7.7 60 00:19 23.07.2019
4813 Mist 25 1017 83 10000 7.7 60 00:19 23.07.2019
4814 Mist 25 1014 61 10000 6.2 110 23:39 22.07.2019
4815 Mist 25 1017 83 9000 8.7 70 23:19 22.07.2019
4816 Mist 25 1013 61 8000 5.7 100 22:45 22.07.2019
4817 Mist 25 1013 61 8000 5.7 100 22:23 22.07.2019
4818 Mist 26 1016 83 10000 6.2 100 21:44 22.07.2019
4819 Mist 26 1013 54 10000 6.2 100 21:24 22.07.2019
4820 Mist 26 1012 51 10000 7.2 100 21:00 22.07.2019
4821 Mist 26 1015 83 10000 5.7 90 20:41 22.07.2019
4822 Mist 26 1012 51 10000 6.7 100 20:21 22.07.2019
4823 Mist 27 1015 78 10000 5.7 90 19:42 22.07.2019
4824 Mist 27 1015 73 10000 5.1 90 19:22 22.07.2019
4825 Mist 28 1013 46 10000 6.2 100 18:48 22.07.2019
4826 Mist 28 1013 46 10000 6.2 100 18:28 22.07.2019
4827 Mist 28 1013 46 10000 6.7 90 17:59 22.07.2019
4828 Mist 28 1016 74 10000 5.1 90 17:38 22.07.2019
4829 Mist 28 1016 74 10000 5.1 90 17:38 22.07.2019
4830 Mist 28 1017 74 10000 6.2 90 17:20 22.07.2019
4831 Mist 28 1017 74 10000 6.2 90 16:41 22.07.2019
4832 Mist 28 1017 74 10000 6.2 90 16:41 22.07.2019
4833 Rain 27 1017 65 10000 7.2 100 16:21 22.07.2019
4834 Rain 26 1018 69 10000 7.2 100 15:46 22.07.2019
4835 Mist 27 1018 74 10000 6.2 90 15:21 22.07.2019
4836 Mist 27 1015 65 6000 5.1 280 14:59 22.07.2019
4837 Mist 27 1018 74 10000 6.7 100 14:40 22.07.2019
4838 Mist 27 1018 69 10000 7.2 100 14:18 22.07.2019
4839 Mist 29 1018 69 10000 7.7 110 13:40 22.07.2019
4840 Mist 28 1016 43 10000 5.7 100 13:22 22.07.2019
4841 Mist 28 1019 78 10000 7.2 100 12:36 22.07.2019
4842 Haze 26 1018 83 9000 6.2 90 11:59 22.07.2019
4843 Haze 26 1018 83 9000 6.2 90 11:41 22.07.2019
4844 Haze 25 1018 83 9000 6.2 90 11:20 22.07.2019
4845 Haze 25 1018 88 8000 6.2 90 10:41 22.07.2019
4846 Haze 25 1016 58 10000 6.7 100 10:23 22.07.2019
4847 Haze 25 1018 88 8000 6.7 90 09:42 22.07.2019
4848 Haze 24 1015 65 10000 5.1 100 09:22 22.07.2019
4849 Haze 23 1015 69 10000 6.2 110 08:43 22.07.2019
4850 Haze 23 1015 69 10000 6.2 110 08:23 22.07.2019
4851 Haze 24 1015 73 10000 5.1 100 07:53 22.07.2019
4852 Haze 23 1015 88 8000 1.5 0 07:31 22.07.2019
4853 Clear 23 1016 83 10000 1 0 05:51 22.07.2019
4854 Clear 24 1016 73 10000 1 40 03:46 22.07.2019
4855 Clear 24 1016 73 10000 7.2 70 01:44 22.07.2019
4856 Clear 24 1016 69 10000 7.7 70 00:50 22.07.2019
4857 Clear 24 1016 69 10000 7.7 70 00:50 22.07.2019
4858 Clear 24 1016 69 10000 7.7 70 00:22 22.07.2019
4859 Clear 24 1015 65 10000 6.7 60 23:50 21.07.2019
4860 Clear 24 1015 61 10000 5.7 60 22:59 21.07.2019
4861 Clear 24 1015 61 10000 5.7 60 22:41 21.07.2019
4862 Clear 24 1015 61 10000 5.7 60 22:41 21.07.2019
4863 Clear 25 1017 88 10000 4.6 70 22:21 21.07.2019
4864 Clear 25 1014 54 10000 6.2 60 21:55 21.07.2019
4865 Clear 25 1017 88 10000 4.1 60 21:36 21.07.2019
4866 Clear 26 1016 83 10000 4.1 60 21:18 21.07.2019
4867 Clear 27 1016 78 10000 4.1 80 20:41 21.07.2019
4868 Clear 27 1013 42 10000 5.7 60 20:23 21.07.2019
4869 Clear 28 1013 35 10000 5.1 60 19:53 21.07.2019
4870 Clear 28 1013 35 10000 5.7 60 19:29 21.07.2019
4871 Clear 29 1013 38 10000 7.7 60 18:56 21.07.2019
4872 Clouds 29 1016 78 10000 4.1 90 18:37 21.07.2019
4873 Clouds 29 1016 78 10000 3.1 80 18:19 21.07.2019
4874 Clouds 28 1016 78 10000 3.1 80 17:40 21.07.2019
4875 Clouds 28 1017 74 10000 3.1 90 17:19 21.07.2019
4876 Clouds 27 1017 78 10000 3.1 90 16:42 21.07.2019
4877 Clear 27 1015 58 10000 6.2 320 16:24 21.07.2019
4878 Clouds 27 1017 74 10000 3.6 100 15:43 21.07.2019
4879 Clear 27 1016 58 10000 4.6 330 15:22 21.07.2019
4880 Clear 27 1017 69 10000 3.1 70 14:53 21.07.2019
4881 Clear 27 1016 61 10000 4.6 300 14:25 21.07.2019
4882 Clear 26 1017 61 10000 4.6 290 13:53 21.07.2019
4883 Clear 26 1017 65 10000 4.6 280 13:34 21.07.2019
4884 Clear 26 1017 61 10000 4.1 290 12:58 21.07.2019
4885 Clear 26 1018 73 10000 2.6 80 12:39 21.07.2019
4886 Clear 25 1017 73 10000 2.6 80 12:20 21.07.2019
4887 Clear 25 1017 73 10000 2.6 80 11:45 21.07.2019
4888 Clouds 25 1016 65 10000 2.6 280 11:26 21.07.2019
4889 Clear 24 1017 73 10000 3.1 60 10:43 21.07.2019
4890 Clouds 24 1016 69 10000 2.8 147.576 10:24 21.07.2019
4891 Clear 23 1016 83 10000 2.1 280 09:54 21.07.2019
4892 Clear 23 1016 83 10000 1 0 09:34 21.07.2019
4893 Clear 22 1016 88 0 1.5 240 08:49 21.07.2019
4894 Clear 22 1016 88 0 1.5 240 08:29 21.07.2019
4895 Clear 22 1016 88 0 2.1 250 07:53 21.07.2019
4896 Clear 22 1015 83 10000 1.5 280 07:18 21.07.2019
4897 Clouds 22 1016 88 10000 1.5 240 06:23 21.07.2019
4898 Clouds 22 1016 88 8000 2.1 220 03:50 21.07.2019
4899 Clouds 24 1016 83 8000 3.6 230 01:51 21.07.2019
4900 Clear 23 1015 83 10000 1 0 00:44 21.07.2019
4901 Clear 24 1016 78 10000 1.5 110 00:20 21.07.2019
4902 Clear 24 1015 73 10000 1 230 23:44 20.07.2019
4903 Clear 24 1015 73 10000 1 230 23:23 20.07.2019
4904 Clear 24 1014 69 10000 1 160 22:50 20.07.2019
4905 Clear 24 1014 69 10000 2.1 340 22:23 20.07.2019
4906 Clear 25 1013 73 10000 2.6 350 21:59 20.07.2019
4907 Clear 25 1014 69 10000 1.5 80 21:39 20.07.2019
4908 Clear 25 1013 73 10000 4.1 340 21:21 20.07.2019
4909 Clear 26 1013 69 10000 1.5 250 20:42 20.07.2019
4910 Clear 26 1013 69 10000 2.6 90 20:21 20.07.2019
4911 Clear 26 1013 65 10000 2.6 70 19:48 20.07.2019
4912 Clear 27 1012 69 10000 6.7 340 19:25 20.07.2019
4913 Clear 28 1013 55 10000 3.6 120 18:45 20.07.2019
4914 Clear 28 1013 65 10000 5.1 330 18:24 20.07.2019
4915 Clear 28 1013 65 10000 5.7 310 17:55 20.07.2019
4916 Clear 29 1013 65 10000 5.1 300 17:26 20.07.2019
4917 Clear 29 1013 51 10000 6.2 110 16:45 20.07.2019
4918 Clear 29 1013 61 10000 4.6 290 16:27 20.07.2019
4919 Clear 29 1013 57 10000 4.6 290 15:58 20.07.2019
4920 Clear 29 1013 57 10000 4.6 290 15:58 20.07.2019
4921 Clear 29 1013 55 10000 3.1 210 15:40 20.07.2019
4922 Clear 28 1014 54 10000 3.6 210 15:20 20.07.2019
4923 Clear 28 1014 54 10000 2.6 200 14:48 20.07.2019
4924 Clear 28 1014 61 10000 4.6 270 14:29 20.07.2019
4925 Clear 28 1014 65 8000 4.6 270 13:54 20.07.2019
4926 Clear 28 1014 61 8000 4.6 290 13:36 20.07.2019
4927 Clear 28 1014 61 8000 4.6 290 13:36 20.07.2019
4928 Clear 28 1014 51 10000 3.6 110 13:18 20.07.2019
4929 Clear 27 1013 61 10000 3.6 280 12:38 20.07.2019
4930 Clear 27 1013 58 10000 1 280 12:18 20.07.2019
4931 Clear 26 1013 69 10000 1 270 11:40 20.07.2019
4932 Mist 25 1013 78 10000 2.1 280 11:19 20.07.2019
4933 Mist 24 1013 78 10000 1.5 260 10:37 20.07.2019
4934 Mist 23 1013 73 10000 1.5 260 10:19 20.07.2019
4935 Mist 23 1013 78 10000 1 250 09:45 20.07.2019
4936 Mist 23 1013 78 10000 1.5 280 09:24 20.07.2019
4937 Mist 21 1012 83 10000 1 330 08:47 20.07.2019
4938 Mist 21 1012 83 10000 1 330 08:20 20.07.2019
4939 Mist 22 1011 83 10000 1.5 320 07:26 20.07.2019
4940 Mist 22 1011 78 10000 2.67 70.418 06:43 20.07.2019
4941 Mist 22 1011 78 10000 2.67 70.418 06:43 20.07.2019
4942 Mist 22 1011 78 10000 3.6 140 05:21 20.07.2019
4943 Mist 23 1011 73 10000 4.1 110 04:30 20.07.2019
4944 Mist 23 1012 73 10000 4.6 140 01:22 20.07.2019
4945 Mist 23 1011 69 10000 2.6 50 00:49 20.07.2019
4946 Mist 23 1011 69 10000 2.6 50 00:26 20.07.2019
4947 Mist 23 1010 69 10000 2.6 70 23:49 19.07.2019
4948 Mist 23 1010 69 10000 3.1 80 23:27 19.07.2019
4949 Mist 23 1009 69 10000 5.7 60 22:52 19.07.2019
4950 Mist 23 1009 65 10000 4.6 60 22:26 19.07.2019
4951 Clouds 24 1012 83 10000 4.6 50 21:59 19.07.2019
4952 Clouds 24 1012 83 10000 4.6 50 21:39 19.07.2019
4953 Clear 25 1008 61 10000 7.2 80 21:21 19.07.2019
4954 Haze 24 1012 83 9000 3.6 70 20:42 19.07.2019
4955 Haze 25 1012 78 9000 4.6 60 20:23 19.07.2019
4956 Clouds 25 1012 78 10000 5.1 60 19:39 19.07.2019
4957 Clouds 26 1012 78 10000 5.1 60 18:55 19.07.2019
4958 Clear 27 1008 42 10000 8.7 70 18:37 19.07.2019
4959 Clouds 28 1012 78 10000 5.1 50 18:18 19.07.2019
4960 Clouds 27 1012 78 10000 6.7 60 17:41 19.07.2019
4961 Clear 27 1008 33 10000 9.8 100 17:23 19.07.2019
4962 Clouds 27 1013 78 10000 5.1 90 16:47 19.07.2019
4963 Clear 27 1009 33 10000 12.3 110 16:25 19.07.2019
4964 Clouds 27 1013 78 10000 5.1 90 15:47 19.07.2019
4965 Clear 27 1009 31 10000 8.2 70 15:29 19.07.2019
4966 Clouds 27 1013 78 10000 5.1 80 14:55 19.07.2019
4967 Clouds 27 1013 78 10000 5.1 80 14:37 19.07.2019
4968 Clouds 27 1014 78 10000 5.1 90 14:19 19.07.2019
4969 Clouds 27 1014 78 10000 5.7 90 13:42 19.07.2019
4970 Clear 27 1010 27 10000 9.3 90 13:22 19.07.2019
4971 Clouds 26 1014 83 10000 5.7 100 12:48 19.07.2019
4972 Haze 25 1010 30 10000 6.7 80 12:28 19.07.2019
4973 Haze 24 1014 88 6000 3.6 70 11:47 19.07.2019
4974 Haze 23 1014 88 6000 3.6 70 11:19 19.07.2019
4975 Haze 23 1010 47 10000 6.7 70 10:57 19.07.2019
4976 Haze 23 1010 47 10000 6.7 70 10:57 19.07.2019
4977 Haze 23 1014 88 6000 5.1 90 10:38 19.07.2019
4978 Haze 22 1014 88 7000 5.7 110 10:18 19.07.2019
4979 Haze 22 1014 88 7000 5.7 110 09:43 19.07.2019
4980 Haze 22 1010 60 10000 7.7 70 09:22 19.07.2019
4981 Mist 21 1011 68 10000 4.1 80 08:50 19.07.2019
4982 Mist 20 1011 73 10000 3.6 90 08:28 19.07.2019
4983 Haze 20 1011 82 10000 3.6 70 07:33 19.07.2019
4984 Clear 20 1011 77 10000 2.6 80 06:37 19.07.2019
4985 Clear 20 1011 72 10000 0.5 0 03:53 19.07.2019
4986 Clear 21 1011 64 10000 7.2 70 01:44 19.07.2019
4987 Clear 21 1011 64 10000 7.7 70 00:54 19.07.2019
4988 Clear 21 1011 56 10000 7.7 60 23:59 18.07.2019
4989 Clear 21 1011 56 10000 7.7 60 23:40 18.07.2019
4990 Clear 21 1011 56 10000 7.7 60 23:40 18.07.2019
4991 Clear 21 1011 56 10000 7.7 60 23:22 18.07.2019
4992 Haze 22 1011 60 10000 7.2 60 22:44 18.07.2019
4993 Haze 22 1011 60 10000 7.2 60 22:20 18.07.2019
4994 Fog 22 1013 88 7000 4.1 50 21:56 18.07.2019
4995 Fog 23 1013 88 7000 4.1 50 21:37 18.07.2019
4996 Fog 24 1013 83 7000 3.6 60 21:18 18.07.2019
4997 Haze 24 1013 83 8000 4.1 70 20:42 18.07.2019
4998 Haze 24 1011 44 10000 6.7 60 20:23 18.07.2019
4999 Haze 24 1013 78 9000 3.1 70 19:47 18.07.2019
5000 Clear 24 1011 61 10000 5.1 320 19:27 18.07.2019
5001 Clear 24 1013 78 10000 3.1 80 18:50 18.07.2019
5002 Clear 24 1012 60 10000 6.7 330 18:22 18.07.2019
5003 Clear 26 1013 57 10000 3.6 60 17:45 18.07.2019
5004 Clear 26 1013 57 10000 3.6 60 17:45 18.07.2019
5005 Clear 26 1013 57 10000 3.6 60 17:45 18.07.2019
5006 Clear 26 1012 57 10000 6.7 330 17:26 18.07.2019
5007 Clear 26 1013 57 10000 5.1 320 16:58 18.07.2019
5008 Clear 26 1013 54 10000 3.1 60 16:40 18.07.2019
5009 Clear 26 1013 57 10000 5.1 300 16:21 18.07.2019
5010 Clear 27 1013 57 10000 5.1 320 15:55 18.07.2019
5011 Clear 26 1014 57 10000 5.1 310 15:35 18.07.2019
5012 Clear 25 1014 57 10000 5.1 320 14:55 18.07.2019
5013 Clear 26 1015 57 10000 4.6 310 14:37 18.07.2019
5014 Clear 25 1015 57 10000 4.6 290 13:57 18.07.2019
5015 Clear 26 1015 57 10000 4.6 290 13:36 18.07.2019
5016 Clear 25 1015 57 10000 4.1 290 13:18 18.07.2019
5017 Clear 25 1015 53 10000 4.1 270 12:42 18.07.2019
5018 Clear 24 1015 60 10000 3.1 250 12:18 18.07.2019
5019 Clear 24 1015 60 10000 3.6 250 11:49 18.07.2019
5020 Clear 24 1015 56 10000 5.1 270 11:27 18.07.2019
5021 Clouds 22 1015 68 10000 4.6 260 10:52 18.07.2019
5022 Clouds 20 1014 73 10000 4.1 250 09:52 18.07.2019
5023 Clear 20 1015 72 10000 3.1 210 09:27 18.07.2019
5024 Clear 19 1015 77 10000 2.1 210 08:59 18.07.2019
5025 Clear 19 1015 77 10000 2.1 210 08:41 18.07.2019
5026 Clouds 19 1014 77 10000 5.1 230 08:18 18.07.2019
5027 Clouds 19 1015 77 10000 2.6 210 07:37 18.07.2019
5028 Clouds 19 1015 77 10000 2.6 190 06:58 18.07.2019
5029 Clouds 19 1015 77 10000 2.6 200 06:33 18.07.2019
5030 Clouds 20 1015 77 10000 2.6 200 03:56 18.07.2019
5031 Clouds 20 1016 77 10000 2.6 210 02:51 18.07.2019
5032 Clouds 21 1016 72 10000 2.6 230 01:36 18.07.2019
5033 Clouds 21 1016 72 10000 3.1 230 00:23 18.07.2019
5034 Clouds 21 1016 72 10000 3.6 240 23:40 17.07.2019
5035 Clear 22 1014 73 10000 7.7 270 23:18 17.07.2019
5036 Clouds 22 1015 73 10000 3.1 220 22:41 17.07.2019
5037 Clear 23 1014 73 10000 6.2 270 22:22 17.07.2019
5038 Clouds 23 1015 68 10000 4.6 240 21:58 17.07.2019
5039 Clear 24 1013 64 10000 6.2 280 21:38 17.07.2019
5040 Clear 24 1013 64 10000 6.2 280 21:19 17.07.2019
5041 Clouds 24 1015 64 10000 4.6 240 20:56 17.07.2019
5042 Clouds 24 1013 57 10000 5.1 210 20:38 17.07.2019
5043 Clouds 26 1013 57 10000 5.1 210 20:18 17.07.2019
5044 Clouds 26 1015 53 10000 6.2 240 19:41 17.07.2019
5045 Clouds 26 1013 50 10000 5.7 250 19:20 17.07.2019
5046 Clouds 26 1014 50 10000 5.1 270 18:45 17.07.2019
5047 Clouds 26 1014 42 10000 4.1 230 18:21 17.07.2019
5048 Clouds 26 1016 50 10000 8.2 250 17:57 17.07.2019
5049 Clouds 26 1016 50 10000 9.3 260 17:39 17.07.2019
5050 Clouds 26 1016 50 10000 9.3 260 17:20 17.07.2019
5051 Clouds 26 1016 50 10000 9.3 260 16:40 17.07.2019
5052 Clouds 26 1016 50 10000 9.3 260 16:20 17.07.2019
5053 Clouds 26 1016 50 10000 9.8 260 15:51 17.07.2019
5054 Clouds 26 1017 50 10000 9.8 260 15:29 17.07.2019
5055 Clouds 25 1016 53 10000 9.3 260 14:56 17.07.2019
5056 Clouds 25 1017 53 10000 9.8 260 14:38 17.07.2019
5057 Clouds 25 1017 53 10000 9.8 260 14:19 17.07.2019
5058 Clouds 25 1017 53 10000 9.8 250 13:45 17.07.2019
5059 Clouds 25 1017 53 10000 9.8 250 13:25 17.07.2019
5060 Clouds 25 1017 53 10000 10.3 250 12:44 17.07.2019
5061 Clouds 25 1017 53 10000 9.3 240 12:23 17.07.2019
5062 Clouds 25 1017 53 10000 9.3 240 11:57 17.07.2019
5063 Clouds 24 1016 56 10000 8.2 240 11:38 17.07.2019
5064 Clouds 24 1016 56 10000 8.2 240 11:19 17.07.2019
5065 Clouds 23 1016 64 10000 4.6 210 10:43 17.07.2019
5066 Clouds 23 1016 64 10000 4.6 210 10:20 17.07.2019
5067 Clouds 22 1016 64 10000 4.6 210 09:44 17.07.2019
5068 Clouds 21 1015 64 10000 6.7 230 09:26 17.07.2019
5069 Clouds 20 1016 64 10000 5.1 210 08:44 17.07.2019
5070 Clouds 20 1015 82 10000 2.6 250 08:22 17.07.2019
5071 Haze 20 1015 73 10000 6.2 240 07:51 17.07.2019
5072 Haze 20 1015 73 10000 5.1 240 07:27 17.07.2019
5073 Clouds 20 1014 73 8000 5.7 210 06:58 17.07.2019
5074 Clouds 20 1014 73 8000 5.7 210 06:31 17.07.2019
5075 Clouds 20 1014 73 8000 5.1 220 05:59 17.07.2019
5076 Clouds 20 1014 73 8000 5.1 210 05:32 17.07.2019
5077 Clouds 20 1015 73 8000 5.1 220 04:48 17.07.2019
5078 Clouds 20 1015 77 8000 5.1 230 03:39 17.07.2019
5079 Clouds 21 1016 73 8000 5.1 230 02:25 17.07.2019
5080 Clouds 21 1016 78 8000 4.1 240 01:28 17.07.2019
5081 Clouds 21 1016 78 8000 4.1 230 00:59 17.07.2019
5082 Clouds 21 1016 78 8000 4.1 230 00:59 17.07.2019
5083 Clouds 21 1016 78 8000 4.6 230 00:37 17.07.2019
5084 Clouds 21 1016 78 8000 4.6 230 00:19 17.07.2019
5085 Clouds 21 1015 83 8000 3.6 240 23:41 16.07.2019
5086 Clouds 21 1015 83 8000 3.6 240 23:20 16.07.2019
5087 Clouds 22 1014 77 8000 2.6 260 22:43 16.07.2019
5088 Clouds 22 1014 77 8000 2.6 260 22:24 16.07.2019
5089 Clear 22 1014 77 10000 3.1 260 21:48 16.07.2019
5090 Clear 23 1014 73 10000 3.6 260 21:25 16.07.2019
5091 Clear 23 1014 73 10000 3.6 260 21:25 16.07.2019
5092 Clear 23 1013 69 10000 3.1 270 20:58 16.07.2019
5093 Clear 23 1013 69 10000 3.1 270 20:40 16.07.2019
5094 Clear 23 1013 69 10000 3.1 270 20:21 16.07.2019
5095 Clear 24 1014 60 10000 4.1 280 19:53 16.07.2019
5096 Clear 24 1014 60 10000 4.1 260 19:29 16.07.2019
5097 Clear 24 1014 60 10000 4.1 260 19:29 16.07.2019
5098 Clear 25 1014 57 10000 4.1 270 18:58 16.07.2019
5099 Clear 25 1014 61 10000 4.1 280 18:39 16.07.2019
5100 Clear 25 1014 61 10000 4.1 280 18:20 16.07.2019
5101 Clear 26 1014 57 10000 4.1 270 17:44 16.07.2019
5102 Clear 26 1014 57 10000 4.1 270 17:23 16.07.2019
5103 Clear 27 1014 57 10000 4.6 290 16:48 16.07.2019
5104 Clear 26 1014 57 10000 4.1 270 16:25 16.07.2019
5105 Clear 24 1015 57 10000 5.1 280 15:56 16.07.2019
5106 Clouds 25 1015 57 10000 4.6 260 15:37 16.07.2019
5107 Clouds 24 1015 57 10000 4.6 260 15:18 16.07.2019
5108 Clouds 24 1015 60 10000 5.1 270 14:45 16.07.2019
5109 Clouds 24 1015 60 10000 5.1 270 14:27 16.07.2019
5110 Clouds 25 1015 60 10000 6.7 260 13:47 16.07.2019
5111 Clouds 25 1015 60 10000 6.7 260 13:27 16.07.2019
5112 Clouds 26 1015 60 10000 6.2 250 12:57 16.07.2019
5113 Clouds 26 1015 64 10000 5.1 230 12:38 16.07.2019
5114 Clouds 26 1015 64 10000 5.1 230 12:19 16.07.2019
5115 Clouds 26 1015 64 10000 5.1 230 12:19 16.07.2019
5116 Clouds 24 1015 69 10000 5.1 230 11:44 16.07.2019
5117 Clouds 24 1014 64 10000 6.2 250 11:24 16.07.2019
5118 Clouds 23 1013 69 10000 5.1 280 10:57 16.07.2019
5119 Clouds 23 1014 64 10000 5.1 220 10:38 16.07.2019
5120 Clouds 23 1014 64 10000 5.1 220 10:18 16.07.2019
5121 Clouds 21 1014 77 10000 5.7 240 09:42 16.07.2019
5122 Clouds 21 1014 77 10000 5.7 240 09:20 16.07.2019
5123 Clouds 20 1014 77 10000 5.1 230 08:46 16.07.2019
5124 Clouds 20 1014 77 10000 5.7 230 08:24 16.07.2019
5125 Clouds 20 1014 77 10000 4.1 230 07:50 16.07.2019
5126 Clouds 20 1014 77 10000 4.1 230 07:32 16.07.2019
5127 Clouds 21 1014 77 10000 4.6 220 06:57 16.07.2019
5128 Clear 21 1012 82 10000 7.2 270 06:35 16.07.2019
5129 Clouds 21 1014 77 10000 4.6 210 05:45 16.07.2019
5130 Clouds 21 1014 77 10000 5.1 210 05:24 16.07.2019
5131 Clouds 21 1014 77 10000 5.1 220 04:23 16.07.2019
5132 Clouds 22 1014 82 8000 5.1 220 03:34 16.07.2019
5133 Clouds 23 1014 77 10000 4.1 240 02:41 16.07.2019
5134 Clouds 23 1014 77 10000 4.1 240 02:18 16.07.2019
5135 Clouds 24 1014 88 10000 4.1 240 00:59 16.07.2019
5136 Clouds 24 1014 88 8000 3.1 230 00:22 16.07.2019
5137 Clouds 24 1014 82 8000 2.1 240 23:55 15.07.2019
5138 Clouds 24 1014 82 8000 1.5 250 23:37 15.07.2019
5139 Clouds 25 1014 82 8000 2.1 270 22:56 15.07.2019
5140 Clouds 25 1013 82 10000 2.1 260 22:37 15.07.2019
5141 Clouds 25 1013 82 10000 2.1 260 22:18 15.07.2019
5142 Clear 27 1011 51 10000 6.2 250 21:42 15.07.2019
5143 Clear 27 1011 51 10000 6.2 250 21:20 15.07.2019
5144 Clouds 28 1013 69 10000 3.1 280 20:57 15.07.2019
5145 Clear 28 1013 64 10000 3.6 270 20:39 15.07.2019
5146 Clear 28 1013 64 10000 3.6 270 20:21 15.07.2019
5147 Clear 29 1013 60 10000 4.1 280 19:44 15.07.2019
5148 Clouds 28 1013 60 10000 4.1 270 19:22 15.07.2019
5149 Clouds 29 1014 60 10000 4.6 270 18:57 15.07.2019
5150 Clouds 28 1014 60 10000 4.6 270 18:38 15.07.2019
5151 Clouds 28 1014 60 10000 4.6 270 18:19 15.07.2019
5152 Clouds 29 1014 60 10000 5.1 270 17:44 15.07.2019
5153 Clouds 29 1014 60 10000 5.1 270 17:26 15.07.2019
5154 Clouds 29 1015 64 10000 5.7 270 16:59 15.07.2019
5155 Clouds 29 1015 64 10000 5.7 270 16:59 15.07.2019
5156 Clouds 29 1015 57 10000 6.2 270 16:39 15.07.2019
5157 Clouds 29 1015 57 10000 6.2 270 16:20 15.07.2019
5158 Clouds 29 1015 60 10000 6.2 270 15:55 15.07.2019
5159 Clouds 29 1015 61 10000 6.7 280 15:37 15.07.2019
5160 Clouds 29 1015 61 10000 6.7 280 15:19 15.07.2019
5161 Clouds 28 1015 57 10000 6.2 250 14:43 15.07.2019
5162 Clouds 28 1015 57 10000 6.2 250 14:23 15.07.2019
5163 Clouds 28 1015 57 10000 7.2 260 13:50 15.07.2019
5164 Clouds 28 1015 57 10000 7.2 260 13:50 15.07.2019
5165 Clouds 27 1016 64 10000 5.1 230 13:22 15.07.2019
5166 Clouds 27 1016 64 10000 5.1 230 12:58 15.07.2019
5167 Clouds 27 1015 64 10000 6.2 240 12:40 15.07.2019
5168 Clouds 27 1015 64 10000 6.2 240 12:20 15.07.2019
5169 Clouds 25 1015 64 10000 6.2 240 11:41 15.07.2019
5170 Clouds 25 1015 64 10000 6.2 240 11:22 15.07.2019
5171 Clouds 24 1015 73 10000 5.1 230 10:45 15.07.2019
5172 Clouds 24 1015 73 10000 5.1 230 10:25 15.07.2019
5173 Clouds 23 1015 68 10000 5.1 230 09:47 15.07.2019
5174 Clouds 23 1015 73 10000 5.1 240 09:25 15.07.2019
5175 Clouds 22 1015 77 10000 5.1 240 08:49 15.07.2019
5176 Clouds 22 1015 77 10000 4.6 220 08:27 15.07.2019
5177 Clouds 22 1014 77 10000 4.6 230 07:57 15.07.2019
5178 Clouds 22 1015 77 10000 4.1 220 07:36 15.07.2019
5179 Clouds 22 1015 77 8000 4.6 220 06:50 15.07.2019
5180 Clouds 22 1014 77 8000 5.1 230 06:30 15.07.2019
5181 Clouds 22 1014 77 8000 4.1 230 05:43 15.07.2019
5182 Clouds 22 1015 77 8000 3.6 240 04:52 15.07.2019
5183 Clouds 22 1015 77 8000 4.6 240 04:34 15.07.2019
5184 Clouds 22 1015 77 8000 4.1 240 03:29 15.07.2019
5185 Clouds 22 1015 83 8000 3.6 240 02:26 15.07.2019
5186 Clouds 23 1016 77 8000 3.1 270 01:37 15.07.2019
5187 Clouds 23 1016 83 8000 2.6 280 00:54 15.07.2019
5188 Clouds 23 1016 83 10000 3.1 280 00:28 15.07.2019
5189 Clouds 24 1016 83 10000 3.6 260 23:59 14.07.2019
5190 Clouds 24 1015 83 8000 3.1 290 23:40 14.07.2019
5191 Clouds 24 1015 83 8000 3.1 290 23:20 14.07.2019
5192 Clouds 24 1015 77 8000 3.1 290 22:57 14.07.2019
5193 Clouds 24 1015 77 8000 3.1 290 22:57 14.07.2019
5194 Clouds 24 1015 77 10000 4.1 290 22:38 14.07.2019
5195 Clouds 24 1015 77 10000 4.1 290 22:20 14.07.2019
5196 Clouds 25 1015 77 10000 3.6 290 21:46 14.07.2019
5197 Clouds 25 1015 77 10000 4.1 280 21:19 14.07.2019
5198 Clouds 25 1015 77 10000 4.1 280 21:19 14.07.2019
5199 Clouds 26 1015 73 10000 4.1 280 20:58 14.07.2019
5200 Clouds 25 1015 73 10000 4.6 280 20:38 14.07.2019
5201 Clouds 25 1015 73 10000 4.6 280 20:20 14.07.2019
5202 Clouds 27 1015 69 10000 4.6 280 19:47 14.07.2019
5203 Clouds 27 1015 64 10000 5.1 280 19:28 14.07.2019
5204 Clouds 28 1015 64 10000 4.6 280 18:58 14.07.2019
5205 Clouds 28 1015 64 10000 5.7 280 18:40 14.07.2019
5206 Clouds 28 1015 64 10000 5.7 280 18:21 14.07.2019
5207 Clouds 29 1016 64 10000 5.7 280 17:57 14.07.2019
5208 Clouds 28 1016 61 10000 5.7 280 17:23 14.07.2019
5209 Clouds 29 1016 61 10000 6.2 290 16:53 14.07.2019
5210 Clouds 28 1016 61 10000 5.7 280 16:25 14.07.2019
5211 Clouds 28 1016 61 10000 5.7 280 15:57 14.07.2019
5212 Clouds 28 1016 61 10000 6.7 270 15:35 14.07.2019
5213 Clouds 28 1017 61 10000 6.2 280 14:56 14.07.2019
5214 Clouds 28 1017 57 10000 6.2 280 14:37 14.07.2019
5215 Clouds 28 1017 57 10000 6.2 280 14:18 14.07.2019
5216 Clouds 27 1017 61 10000 5.7 280 13:44 14.07.2019
5217 Clouds 27 1017 61 10000 5.7 270 13:21 14.07.2019
5218 Clouds 26 1017 61 10000 5.1 270 12:43 14.07.2019
5219 Clouds 26 1017 64 10000 5.1 240 12:22 14.07.2019
5220 Clouds 26 1017 64 8000 4.6 250 11:57 14.07.2019
5221 Clouds 25 1016 69 10000 3.6 240 11:38 14.07.2019
5222 Clouds 25 1016 69 10000 3.6 240 11:19 14.07.2019
5223 Clouds 23 1016 78 8000 4.1 240 10:42 14.07.2019
5224 Clouds 23 1016 78 8000 4.1 240 10:19 14.07.2019
5225 Clouds 23 1016 77 8000 3.6 220 09:44 14.07.2019
5226 Clouds 23 1016 77 8000 3.1 220 09:24 14.07.2019
5227 Clouds 22 1016 82 8000 3.1 200 08:45 14.07.2019
5228 Mist 21 1016 88 4000 2.6 220 08:20 14.07.2019
5229 Clouds 21 1016 88 8000 2.6 220 07:39 14.07.2019
5230 Clouds 20 1015 88 10000 2.6 200 06:58 14.07.2019
5231 Clouds 21 1015 82 10000 2.6 200 05:45 14.07.2019
5232 Clouds 21 1016 88 10000 1.5 230 03:48 14.07.2019
5233 Clouds 21 1016 83 10000 2.1 250 03:30 14.07.2019
5234 Clouds 21 1017 83 10000 2.6 240 02:41 14.07.2019
5235 Clouds 22 1017 83 10000 2.6 240 02:22 14.07.2019
5236 Clouds 22 1017 82 10000 2.6 250 01:34 14.07.2019
5237 Clouds 22 1017 83 10000 3.1 240 00:57 14.07.2019
5238 Clouds 22 1017 83 10000 3.6 260 00:39 14.07.2019
5239 Clouds 22 1017 83 10000 3.6 260 00:19 14.07.2019
5240 Clouds 23 1017 83 10000 2.6 260 23:45 13.07.2019
5241 Clouds 23 1017 83 10000 3.1 270 23:25 13.07.2019
5242 Clear 23 1017 83 10000 3.1 270 22:55 13.07.2019
5243 Clear 23 1016 83 10000 3.6 270 22:37 13.07.2019
5244 Clear 23 1016 83 10000 3.6 270 22:18 13.07.2019
5245 Clouds 24 1016 73 10000 4.6 280 21:42 13.07.2019
5246 Clouds 24 1016 73 10000 4.6 280 21:19 13.07.2019
5247 Clouds 26 1015 64 10000 5.1 290 20:42 13.07.2019
5248 Clouds 26 1015 64 10000 5.1 290 20:24 13.07.2019
5249 Clouds 27 1015 64 10000 5.7 290 19:45 13.07.2019
5250 Clouds 27 1015 65 10000 5.7 290 19:26 13.07.2019
5251 Clouds 28 1016 73 0 4.6 260 18:44 13.07.2019
5252 Clouds 28 1016 65 10000 5.1 280 18:21 13.07.2019
5253 Clouds 28 1016 61 10000 5.1 290 17:38 13.07.2019
5254 Clouds 28 1016 61 10000 5.1 290 17:20 13.07.2019
5255 Clouds 28 1016 61 10000 6.2 280 16:47 13.07.2019
5256 Clouds 28 1016 61 10000 6.2 280 16:26 13.07.2019
5257 Clouds 28 1017 57 10000 5.7 270 15:59 13.07.2019
5258 Clouds 28 1017 61 10000 6.2 280 15:40 13.07.2019
5259 Clouds 28 1017 61 10000 6.2 280 15:20 13.07.2019
5260 Clouds 28 1017 61 10000 5.7 270 14:41 13.07.2019
5261 Clouds 28 1017 61 10000 5.7 270 14:21 13.07.2019
5262 Clouds 27 1017 61 10000 5.1 260 13:45 13.07.2019
5263 Clouds 27 1017 54 10000 5.7 260 13:24 13.07.2019
5264 Clouds 26 1017 61 6000 4.6 260 12:42 13.07.2019
5265 Clouds 26 1017 61 6000 4.6 260 12:23 13.07.2019
5266 Clouds 25 1017 65 6000 4.1 270 11:59 13.07.2019
5267 Clouds 24 1017 73 6000 3.1 250 11:38 13.07.2019
5268 Clouds 24 1017 73 6000 3.1 250 11:19 13.07.2019
5269 Clouds 23 1017 88 6000 4.1 250 10:42 13.07.2019
5270 Clouds 23 1017 88 6000 4.1 250 10:23 13.07.2019
5271 Clouds 22 1017 88 6000 3.6 260 09:50 13.07.2019
5272 Clouds 22 1017 88 6000 3.1 230 09:30 13.07.2019
5273 Mist 21 1016 94 4000 3.1 200 08:56 13.07.2019
5274 Mist 21 1016 94 3000 3.1 210 08:28 13.07.2019
5275 Mist 21 1016 94 3000 2.1 200 07:55 13.07.2019
5276 Mist 21 1016 93 4000 2.59 236.869 07:28 13.07.2019
5277 Mist 20 1016 93 3000 2.59 236.869 06:31 13.07.2019
5278 Mist 21 1016 93 3000 2.34 241.171 05:48 13.07.2019
5279 Mist 21 1016 93 4000 1 280 04:40 13.07.2019
5280 Mist 21 1016 93 4000 1 280 04:20 13.07.2019
5281 Clouds 21 1017 88 6000 1 300 03:41 13.07.2019
5282 Clouds 22 1017 88 6000 1 300 03:18 13.07.2019
5283 Clouds 23 1017 88 8000 2.24 237.727 01:53 13.07.2019
5284 Clouds 23 1017 88 8000 2.46 227.587 01:21 13.07.2019
5285 Clouds 22 1017 88 8000 2.46 227.587 00:58 13.07.2019
5286 Clouds 23 1017 83 8000 1 260 00:21 13.07.2019
5287 Clouds 23 1017 88 8000 1.5 260 23:53 12.07.2019
5288 Clouds 23 1017 88 8000 1.5 260 23:33 12.07.2019
5289 Clouds 24 1017 83 8000 1.5 240 22:58 12.07.2019
5290 Clouds 24 1016 78 8000 2.1 270 22:40 12.07.2019
5291 Clouds 24 1016 78 8000 2.1 270 22:40 12.07.2019
5292 Clouds 24 1016 78 8000 2.1 270 22:21 12.07.2019
5293 Clouds 25 1016 78 6000 3.6 270 21:42 12.07.2019
5294 Clouds 25 1016 78 6000 3.6 270 21:19 12.07.2019
5295 Clouds 24 1015 73 6000 3.1 290 20:46 12.07.2019
5296 Clouds 24 1015 73 6000 3.1 290 20:23 12.07.2019
5297 Clouds 25 1015 78 6000 3.1 270 19:44 12.07.2019
5298 Clouds 25 1015 78 6000 3.1 290 19:25 12.07.2019
5299 Clouds 25 1015 83 6000 3.6 260 18:56 12.07.2019
5300 Clear 27 1014 51 10000 3.1 190 18:36 12.07.2019
5301 Clouds 28 1014 61 8000 3.1 70 18:18 12.07.2019
5302 Clouds 26 1015 73 6000 4.6 310 17:42 12.07.2019
5303 Clouds 26 1015 73 6000 4.6 310 17:23 12.07.2019
5304 Clouds 27 1015 61 6000 5.1 300 16:37 12.07.2019
5305 Clouds 27 1015 61 6000 5.1 300 16:37 12.07.2019
5306 Clouds 27 1015 61 6000 5.1 300 16:18 12.07.2019
5307 Clouds 27 1015 57 6000 4.6 280 15:39 12.07.2019
5308 Clouds 27 1015 57 6000 4.6 280 15:20 12.07.2019
5309 Clouds 27 1015 61 6000 4.1 280 14:45 12.07.2019
5310 Clouds 26 1015 69 6000 3.1 300 14:21 12.07.2019
5311 Clear 26 1015 65 10000 1.5 180 13:53 12.07.2019
5312 Clouds 25 1015 78 5000 2.1 280 13:32 12.07.2019
5313 Mist 24 1015 78 4000 3.1 280 12:44 12.07.2019
5314 Mist 24 1015 78 4000 3.1 280 12:24 12.07.2019
5315 Mist 24 1015 78 4000 3.1 280 11:58 12.07.2019
5316 Mist 23 1015 78 4000 2.6 290 11:39 12.07.2019
5317 Mist 23 1015 78 4000 2.6 290 11:19 12.07.2019
5318 Clouds 22 1015 83 5000 2.1 270 10:41 12.07.2019
5319 Clouds 22 1015 83 5000 2.1 270 10:23 12.07.2019
5320 Clouds 22 1014 83 5000 1 0 09:53 12.07.2019
5321 Clouds 22 1013 83 5000 4.1 50 09:29 12.07.2019
5322 Clouds 22 1013 83 5000 4.1 50 09:29 12.07.2019
5323 Clouds 20 1013 88 5000 4.1 360 08:52 12.07.2019
5324 Clouds 22 1015 88 5000 0.5 0 08:25 12.07.2019
5325 Clouds 21 1015 88 5000 1.5 240 07:54 12.07.2019
5326 Clouds 21 1014 88 6000 1.5 250 07:32 12.07.2019
5327 Clouds 22 1014 83 8000 1.56 203.865 06:44 12.07.2019
5328 Clouds 22 1014 83 8000 4.09 209.934 06:25 12.07.2019
5329 Clouds 22 1014 88 6000 1.5 260 04:55 12.07.2019
5330 Clouds 22 1015 77 10000 3.72 204.607 02:55 12.07.2019
5331 Clouds 23 1015 78 10000 1.5 230 01:38 12.07.2019
5332 Clouds 23 1015 83 10000 1.5 220 00:44 12.07.2019
5333 Clouds 23 1015 83 10000 1.5 220 00:19 12.07.2019
5334 Clouds 23 1015 83 10000 2.1 220 23:43 11.07.2019
5335 Clouds 23 1015 83 10000 2.1 220 23:23 11.07.2019
5336 Clouds 23 1014 83 10000 2.6 240 22:48 11.07.2019
5337 Clear 23 1014 83 10000 3.1 240 22:26 11.07.2019
5338 Clear 24 1013 83 10000 3.1 250 21:56 11.07.2019
5339 Clear 24 1013 78 10000 3.6 250 21:36 11.07.2019
5340 Clear 24 1013 78 10000 3.6 250 21:18 11.07.2019
5341 Clear 25 1012 69 10000 4.1 260 20:42 11.07.2019
5342 Clear 25 1012 69 10000 4.1 260 20:22 11.07.2019
5343 -273 0 0 0 0 0 19:56 11.07.2019
5344 Clear 25 1012 65 10000 4.1 260 19:37 11.07.2019
5345 Clear 25 1012 65 10000 4.1 260 19:19 11.07.2019
5346 Clear 26 1012 65 10000 4.1 270 18:41 11.07.2019
5347 Clear 26 1012 65 10000 4.1 270 18:23 11.07.2019
5348 Clear 26 1012 65 10000 4.6 270 17:49 11.07.2019
5349 Clear 26 1012 65 10000 4.6 280 17:30 11.07.2019
5350 Clouds 27 1013 54 10000 6.7 110 16:55 11.07.2019
5351 Clear 26 1012 61 8000 5.1 270 16:37 11.07.2019
5352 Clear 26 1012 61 8000 5.1 270 16:18 11.07.2019
5353 Clouds 27 1012 57 8000 5.1 270 15:40 11.07.2019
5354 Clouds 27 1012 57 8000 5.1 270 15:20 11.07.2019
5355 Clear 26 1012 61 10000 5.7 270 14:44 11.07.2019
5356 Clear 26 1012 61 10000 5.7 270 14:24 11.07.2019
5357 Clear 25 1014 73 10000 6.7 100 13:52 11.07.2019
5358 Clear 25 1012 61 10000 4.6 270 13:33 11.07.2019
5359 Clouds 25 1013 78 10000 7.2 100 12:58 11.07.2019
5360 Clear 25 1012 65 10000 5.1 280 12:38 11.07.2019
5361 Clear 25 1012 65 10000 5.1 280 12:19 11.07.2019
5362 Clear 25 1011 51 10000 4.1 60 11:43 11.07.2019
5363 Clear 25 1011 51 10000 4.1 60 11:24 11.07.2019
5364 Clear 24 1011 54 10000 3.1 70 10:51 11.07.2019
5365 Clear 24 1011 53 10000 2.1 130 10:19 11.07.2019
5366 Clouds 23 1013 78 10000 7.7 110 09:49 11.07.2019
5367 Clear 23 1011 64 10000 2.1 100 09:31 11.07.2019
5368 Clear 21 1011 73 10000 6.75 97.549 08:56 11.07.2019
5369 Clear 21 1011 72 10000 1.5 170 08:36 11.07.2019
5370 Clear 21 1011 72 10000 1.5 170 08:18 11.07.2019
5371 Clear 21 1010 73 10000 2.6 60 07:41 11.07.2019
5372 Clear 20 1010 77 10000 1.5 120 06:42 11.07.2019
5373 Clear 20 1010 77 10000 1.5 120 06:18 11.07.2019
5374 Clear 20 1011 77 10000 0.5 0 05:30 11.07.2019
5375 Clear 20 1011 72 10000 1.5 70 04:55 11.07.2019
5376 Clear 20 1012 68 10000 6.93 97.727 02:41 11.07.2019
5377 Clear 21 1012 68 10000 0.5 0 01:43 11.07.2019
5378 Clear 22 1012 56 10000 1.5 140 00:31 11.07.2019
5379 Clear 22 1012 60 10000 2.6 200 23:49 10.07.2019
5380 Clear 22 1011 41 10000 5.1 130 23:20 10.07.2019
5381 Clear 23 1010 33 10000 5.7 90 22:52 10.07.2019
5382 Clear 23 1010 41 10000 5.1 80 22:22 10.07.2019
5383 Clear 24 1010 44 10000 4.6 60 21:48 10.07.2019
5384 Clear 24 1009 44 10000 6.2 60 21:28 10.07.2019
5385 Clear 24 1009 47 10000 6.2 60 20:58 10.07.2019
5386 Clear 25 1009 42 10000 6.7 60 20:40 10.07.2019
5387 Clear 25 1009 42 10000 6.7 60 20:19 10.07.2019
5388 Clear 25 1009 32 10000 6.7 70 19:54 10.07.2019
5389 Clear 25 1009 35 10000 7.7 60 19:22 10.07.2019
5390 Clear 25 1012 78 10000 5.1 80 18:59 10.07.2019
5391 Clear 26 1009 42 10000 7.7 60 18:41 10.07.2019
5392 Clear 26 1009 42 10000 7.7 60 18:22 10.07.2019
5393 Clear 25 1010 44 10000 10.8 60 17:42 10.07.2019
5394 Clear 25 1010 44 10000 10.8 60 17:22 10.07.2019
5395 Clear 25 1010 48 10000 8.7 60 16:38 10.07.2019
5396 Clear 25 1010 48 10000 8.7 60 16:19 10.07.2019
5397 Clear 25 1011 47 10000 9.3 60 15:46 10.07.2019
5398 Clear 25 1011 39 10000 8.7 60 15:21 10.07.2019
5399 Clear 24 1012 54 10000 3.6 320 14:41 10.07.2019
5400 Clear 24 1012 54 10000 3.6 320 14:23 10.07.2019
5401 Clear 24 1012 54 10000 3.6 320 14:23 10.07.2019
5402 Clear 24 1012 64 10000 6.2 310 13:52 10.07.2019
5403 Clear 24 1012 61 10000 6.2 310 13:19 10.07.2019
5404 Clear 25 1012 61 10000 6.2 310 13:19 10.07.2019
5405 Clear 24 1012 64 10000 4.6 300 12:58 10.07.2019
5406 Clear 24 1012 64 10000 4.6 300 12:58 10.07.2019
5407 Clear 24 1012 57 10000 5.1 320 12:38 10.07.2019
5408 Clear 23 1012 57 10000 5.1 320 12:38 10.07.2019
5409 Clear 24 1012 57 10000 5.1 320 12:19 10.07.2019
5410 Clear 24 1013 57 10000 3.1 310 11:46 10.07.2019
5411 Clear 24 1013 57 10000 3.1 270 11:21 10.07.2019
5412 Clear 22 1013 56 10000 1 0 10:46 10.07.2019
5413 Clear 22 1013 68 10000 1.5 110 10:21 10.07.2019
5414 Clear 20 1013 77 10000 1.5 100 09:44 10.07.2019
5415 Clear 20 1013 82 10000 2.1 110 09:21 10.07.2019
5416 Clear 19 1013 88 10000 2.1 110 08:52 10.07.2019
5417 Clouds 18 1013 88 8000 1.5 100 08:30 10.07.2019
5418 Clouds 18 1013 88 8000 1.5 100 08:30 10.07.2019
5419 Clouds 18 1013 87 8000 3.1 100 07:56 10.07.2019
5420 Clear 18 1013 87 10000 2.6 110 07:33 10.07.2019
5421 Clear 18 1013 87 10000 1.5 100 06:57 10.07.2019
5422 Clouds 19 1013 88 10000 1 0 05:59 10.07.2019
5423 Clouds 20 1013 77 10000 0.5 0 04:51 10.07.2019
5424 Clouds 20 1014 82 10000 1.79 282.321 04:26 10.07.2019
5425 Clouds 21 1015 77 10000 3.8 269.367 00:48 10.07.2019
5426 Clouds 21 1015 82 10000 1 310 00:29 10.07.2019
5427 Clear 22 1015 82 10000 1 260 23:41 09.07.2019
5428 Clear 22 1015 82 10000 1 260 23:21 09.07.2019
5429 Clouds 22 1014 77 10000 2.6 290 22:42 09.07.2019
5430 Clouds 22 1014 77 10000 2.6 290 22:24 09.07.2019
5431 Clear 24 1012 57 10000 4.1 240 21:58 09.07.2019
5432 Clouds 24 1014 68 10000 3.1 300 21:39 09.07.2019
5433 Clouds 24 1014 68 10000 3.1 300 21:21 09.07.2019
5434 Clouds 26 1014 68 10000 3.6 310 20:43 09.07.2019
5435 Clouds 25 1014 68 10000 3.6 310 20:24 09.07.2019
5436 Clouds 26 1014 60 10000 4.1 300 19:42 09.07.2019
5437 Clouds 26 1014 60 10000 4.1 300 19:23 09.07.2019
5438 Clouds 27 1014 64 10000 4.1 300 18:46 09.07.2019
5439 Clouds 26 1014 64 10000 4.6 310 18:25 09.07.2019
5440 Clouds 26 1013 60 10000 7.7 200 17:57 09.07.2019
5441 Clouds 26 1015 57 10000 4.6 280 17:37 09.07.2019
5442 Clouds 27 1015 57 10000 4.6 280 17:19 09.07.2019
5443 Clouds 26 1015 57 10000 4.1 290 16:47 09.07.2019
5444 Clouds 26 1015 60 10000 4.6 280 16:24 09.07.2019
5445 Clouds 26 1014 60 10000 7.2 200 15:49 09.07.2019
5446 Clouds 26 1016 60 10000 5.1 290 15:31 09.07.2019
5447 Clouds 26 1015 60 10000 7.2 190 14:55 09.07.2019
5448 Clouds 26 1016 57 10000 4.6 270 14:37 09.07.2019
5449 Clouds 26 1016 57 10000 4.6 270 14:18 09.07.2019
5450 Clouds 26 1016 57 10000 4.6 270 14:18 09.07.2019
5451 Clouds 26 1017 64 10000 4.6 270 13:43 09.07.2019
5452 Clouds 26 1017 64 10000 4.6 270 13:21 09.07.2019
5453 Clouds 25 1017 64 10000 4.6 290 12:40 09.07.2019
5454 Clouds 25 1017 64 10000 4.6 290 12:40 09.07.2019
5455 Clouds 25 1017 64 10000 4.6 290 12:19 09.07.2019
5456 Clouds 24 1017 60 10000 3.6 270 11:57 09.07.2019
5457 Clouds 23 1017 68 10000 3.6 260 11:38 09.07.2019
5458 Clouds 23 1017 68 10000 3.6 260 11:20 09.07.2019
5459 Clouds 21 1017 68 10000 3.1 270 10:49 09.07.2019
5460 Clouds 21 1017 73 10000 2.6 250 10:27 09.07.2019
5461 Clouds 20 1016 72 10000 3.1 200 09:41 09.07.2019
5462 Clouds 20 1016 72 10000 3.1 200 09:21 09.07.2019
5463 Clouds 20 1016 72 10000 3.1 200 09:21 09.07.2019
5464 Clouds 19 1016 77 10000 2.1 230 08:45 09.07.2019
5465 Clouds 19 1016 82 10000 2.1 210 08:22 09.07.2019
5466 Clear 19 1018 77 10000 1.5 60 03:54 05.07.2019
5467 Clear 19 1018 82 10000 0.5 70 03:25 05.07.2019
5468 Clear 20 1018 77 10000 1 60 02:59 05.07.2019
5469 Clear 20 1018 77 10000 1.5 50 02:37 05.07.2019
5470 Clear 20 1018 77 10000 0.5 40 01:37 05.07.2019
5471 Clear 21 1018 82 10000 1 0 00:57 05.07.2019
5472 Clear 21 1018 82 10000 1.5 330 00:39 05.07.2019
5473 Clear 21 1018 77 10000 1.5 300 23:48 04.07.2019
5474 Clear 22 1017 77 10000 2.1 310 23:20 04.07.2019
5475 Clear 22 1017 72 10000 2.1 310 22:44 04.07.2019
5476 Clear 22 1017 72 10000 2.1 310 22:44 04.07.2019
5477 Clear 22 1017 72 10000 3.1 300 22:24 04.07.2019
5478 Clear 23 1015 57 10000 4.1 220 21:55 04.07.2019
5479 Clear 23 1016 60 10000 3.6 300 21:37 04.07.2019
5480 Clear 23 1016 60 10000 3.6 300 21:37 04.07.2019
5481 Clear 23 1016 60 10000 3.6 300 21:19 04.07.2019
5482 Clear 25 1016 60 10000 4.1 310 20:39 04.07.2019
5483 Clear 25 1016 60 10000 4.1 310 20:21 04.07.2019
5484 Clouds 25 1016 60 10000 4.6 310 19:56 04.07.2019
5485 Clouds 25 1015 56 10000 5.1 310 19:38 04.07.2019
5486 Clouds 25 1015 56 10000 5.1 310 19:19 04.07.2019
5487 Clouds 26 1016 53 10000 5.1 310 18:41 04.07.2019
5488 Clouds 26 1016 53 10000 5.1 310 18:23 04.07.2019
5489 Clouds 26 1016 47 10000 5.1 310 17:44 04.07.2019
5490 Clouds 26 1016 47 10000 5.1 310 17:19 04.07.2019
5491 Clouds 25 1016 50 10000 5.7 330 15:58 04.07.2019
5492 Clouds 25 1016 47 10000 5.1 300 15:39 04.07.2019
5493 Clouds 25 1016 47 10000 5.1 300 15:20 04.07.2019
5494 Clouds 25 1016 53 10000 5.1 310 14:44 04.07.2019
5495 Clouds 25 1017 57 10000 5.1 290 14:25 04.07.2019
5496 Clouds 25 1016 57 10000 5.1 200 13:59 04.07.2019
5497 Clouds 24 1017 50 10000 4.1 290 13:41 04.07.2019
5498 Clouds 24 1017 50 10000 4.1 290 13:22 04.07.2019
5499 Clouds 24 1017 56 10000 3.1 250 12:40 04.07.2019
5500 Clouds 24 1017 56 10000 3.1 250 12:21 04.07.2019
5501 Clouds 24 1017 56 10000 2.1 230 11:59 04.07.2019
5502 Clouds 23 1017 60 10000 2.6 220 11:38 04.07.2019
5503 Clouds 22 1017 60 10000 2.6 220 11:19 04.07.2019
5504 Clouds 22 1016 56 10000 2.6 240 10:40 04.07.2019
5505 Clouds 22 1016 56 10000 2.6 240 10:20 04.07.2019
5506 Clouds 20 1016 68 10000 2.6 200 09:41 04.07.2019
5507 Clouds 20 1016 68 10000 2.6 200 09:23 04.07.2019
5508 Clouds 19 1015 82 10000 5.1 270 08:56 04.07.2019
5509 Clouds 19 1016 72 10000 1 0 08:23 04.07.2019
5510 Clouds 19 1015 72 10000 2.6 200 07:44 04.07.2019
5511 Clouds 19 1015 72 10000 2.6 200 07:22 04.07.2019
5512 Clouds 20 1015 72 10000 2.1 200 06:45 04.07.2019
5513 Clouds 20 1015 72 10000 2.6 200 05:51 04.07.2019
5514 Clouds 20 1015 68 10000 2.6 200 05:32 04.07.2019
5515 Clouds 20 1015 72 10000 4.1 240 02:42 04.07.2019
5516 Clouds 21 1015 72 10000 2.6 250 01:41 04.07.2019
5517 Clouds 21 1015 72 10000 2.6 250 01:21 04.07.2019
5518 Clouds 21 1015 72 10000 2.1 260 23:56 03.07.2019
5519 Clouds 21 1015 72 10000 2.6 250 23:37 03.07.2019
5520 Clouds 21 1015 72 10000 2.6 250 23:18 03.07.2019
5521 Clouds 22 1014 68 10000 3.6 250 22:40 03.07.2019
5522 Clouds 22 1014 68 10000 3.6 250 22:21 03.07.2019
5523 Clear 23 1013 73 10000 1.5 70 21:58 03.07.2019
5524 Clear 23 1014 64 10000 4.1 260 21:38 03.07.2019
5525 Clear 23 1014 64 10000 4.1 260 21:20 03.07.2019
5526 Clear 24 1014 60 10000 5.1 250 20:42 03.07.2019
5527 Clear 24 1014 60 10000 5.1 250 20:23 03.07.2019
5528 Clear 24 1012 65 10000 1.5 70 19:50 03.07.2019
5529 Clear 24 1014 53 10000 5.7 260 19:32 03.07.2019
5530 Clear 24 1014 53 10000 5.7 260 19:32 03.07.2019
5531 Clear 25 1014 50 10000 5.1 280 18:48 03.07.2019
5532 Clear 25 1014 50 10000 5.7 260 18:27 03.07.2019
5533 Clouds 25 1013 61 10000 2.6 70 17:55 03.07.2019
5534 Clouds 25 1013 61 10000 2.6 70 17:55 03.07.2019
5535 Clear 26 1014 53 10000 5.1 240 17:36 03.07.2019
5536 Clear 26 1014 53 10000 5.1 240 17:18 03.07.2019
5537 Clouds 26 1014 50 10000 6.7 260 16:43 03.07.2019
5538 Clouds 26 1014 50 10000 6.7 260 16:43 03.07.2019
5539 Clouds 26 1014 50 10000 6.7 260 16:20 03.07.2019
5540 Clouds 26 1015 47 10000 7.2 260 15:47 03.07.2019
5541 Clouds 26 1015 47 10000 7.2 260 15:29 03.07.2019
5542 Clouds 26 1015 50 10000 6.7 260 14:53 03.07.2019
5543 Clouds 26 1015 50 10000 7.2 260 14:26 03.07.2019
5544 Clouds 25 1015 57 10000 4.6 190 13:59 03.07.2019
5545 Clouds 25 1015 50 10000 6.2 250 13:34 03.07.2019
5546 Clouds 24 1015 60 10000 2.6 200 12:54 03.07.2019
5547 Clouds 24 1014 64 10000 2.1 250 12:21 03.07.2019
5548 Clouds 24 1014 64 10000 2.1 250 11:58 03.07.2019
5549 Clouds 23 1015 56 10000 5.1 220 11:39 03.07.2019
5550 Clouds 23 1015 56 10000 5.1 220 11:20 03.07.2019
5551 Clouds 22 1015 60 10000 5.1 220 10:41 03.07.2019
5552 Clouds 22 1015 60 10000 5.1 220 10:22 03.07.2019
5553 Clouds 21 1015 60 10000 5.1 200 09:43 03.07.2019
5554 Clouds 21 1015 60 10000 5.1 200 09:21 03.07.2019
5555 Clouds 20 1014 64 10000 4.1 200 08:53 03.07.2019
5556 Clouds 19 1014 68 0 2.1 200 08:32 03.07.2019
5557 Clouds 19 1014 68 0 3.6 210 07:57 03.07.2019
5558 Clouds 19 1014 68 0 3.1 190 07:36 03.07.2019
5559 Clouds 20 1014 68 0 4.1 200 06:52 03.07.2019
5560 Clear 20 1014 68 0 4.6 210 05:53 03.07.2019
5561 Clouds 20 1014 68 10000 4.6 190 05:24 03.07.2019
5562 Clouds 20 1015 72 10000 3.6 220 03:50 03.07.2019
5563 Clouds 20 1015 77 8000 3.1 190 02:43 03.07.2019
5564 Clouds 21 1015 77 8000 2.6 210 01:23 03.07.2019
5565 Clouds 22 1015 77 10000 2.6 220 00:58 03.07.2019
5566 Clouds 22 1015 77 8000 3.1 230 00:36 03.07.2019
5567 Clouds 22 1015 77 10000 2.6 230 23:49 02.07.2019
5568 Clouds 23 1015 72 10000 2.6 240 23:21 02.07.2019
5569 Clouds 22 1014 72 10000 2.6 260 22:59 02.07.2019
5570 Clouds 22 1014 72 10000 3.1 250 22:41 02.07.2019
5571 Clouds 22 1014 72 10000 3.1 250 22:22 02.07.2019
5572 Clear 23 1014 68 10000 3.6 260 21:57 02.07.2019
5573 Clear 24 1014 64 10000 3.1 270 21:38 02.07.2019
5574 Clear 25 1014 64 10000 3.1 280 21:18 02.07.2019
5575 Clear 25 1014 60 10000 3.1 280 20:41 02.07.2019
5576 Clear 25 1014 60 10000 3.1 280 20:23 02.07.2019
5577 Clear 25 1014 60 10000 3.1 280 19:57 02.07.2019
5578 Clear 25 1014 57 10000 3.1 280 19:38 02.07.2019
5579 Clear 25 1013 53 10000 11.8 200 19:20 02.07.2019
5580 Clear 26 1015 53 10000 4.1 280 18:45 02.07.2019
5581 Clouds 26 1014 50 10000 7.2 200 18:18 02.07.2019
5582 Clear 26 1015 53 10000 5.7 280 17:40 02.07.2019
5583 Clear 26 1015 53 10000 5.7 280 17:20 02.07.2019
5584 Clear 26 1015 53 10000 5.7 280 17:20 02.07.2019
5585 Clear 27 1015 53 10000 5.1 280 16:46 02.07.2019
5586 Clear 27 1015 53 10000 5.1 280 16:46 02.07.2019
5587 Clear 27 1015 50 10000 5.7 260 16:28 02.07.2019
5588 Clear 27 1015 53 10000 6.2 260 15:44 02.07.2019
5589 Clouds 27 1016 50 10000 6.7 260 15:24 02.07.2019
5590 Clouds 27 1015 50 10000 5.1 200 14:50 02.07.2019
5591 Clouds 27 1015 50 10000 5.1 200 14:32 02.07.2019
5592 Clouds 26 1016 50 10000 7.7 260 13:46 02.07.2019
5593 Clouds 26 1016 50 10000 8.2 260 13:21 02.07.2019
5594 Clouds 26 1015 60 10000 5.1 270 12:59 02.07.2019
5595 Clouds 25 1015 60 10000 5.1 270 12:40 02.07.2019
5596 Clouds 25 1015 64 10000 5.7 270 12:18 02.07.2019
5597 Clouds 24 1016 56 10000 7.2 240 11:42 02.07.2019
5598 Clouds 24 1016 56 10000 7.2 240 11:21 02.07.2019
5599 Clouds 23 1016 53 10000 6.7 240 10:45 02.07.2019
5600 Clouds 23 1015 68 10000 7.2 280 10:24 02.07.2019
5601 Clouds 22 1016 60 10000 5.7 220 09:44 02.07.2019
5602 Clouds 22 1015 77 10000 6.7 270 09:21 02.07.2019
5603 Clouds 21 1016 68 10000 3.6 220 08:42 02.07.2019
5604 Clouds 21 1016 68 10000 3.6 220 08:42 02.07.2019
5605 Clouds 21 1016 68 10000 3.6 220 08:20 02.07.2019
5606 Clouds 20 1014 82 10000 6.7 270 07:53 02.07.2019
5607 Clouds 20 1016 77 10000 3.6 230 07:21 02.07.2019
5608 Clouds 21 1016 77 10000 3.1 220 06:49 02.07.2019
5609 Clouds 21 1016 82 10000 2.1 220 06:25 02.07.2019
5610 Clouds 21 1017 82 10000 3.6 220 04:39 02.07.2019
5611 Clouds 21 1018 82 10000 2.1 230 01:27 02.07.2019
5612 Clouds 23 1017 82 10000 2.1 260 23:47 01.07.2019
5613 Clouds 23 1017 77 10000 2.1 260 23:20 01.07.2019
5614 Clouds 24 1017 82 10000 2.6 250 22:45 01.07.2019
5615 Clouds 24 1016 77 10000 3.1 250 22:27 01.07.2019
5616 Clouds 25 1016 77 10000 4.1 260 21:47 01.07.2019
5617 Clouds 25 1016 73 10000 3.6 260 21:26 01.07.2019
5618 Clouds 26 1016 64 10000 3.1 270 20:51 01.07.2019
5619 Clouds 26 1016 64 10000 3.1 270 20:51 01.07.2019
5620 Clouds 26 1016 64 10000 4.1 260 20:22 01.07.2019
5621 Clouds 26 1016 64 10000 4.1 260 20:22 01.07.2019
5622 Clouds 27 1017 64 10000 3.6 260 19:58 01.07.2019
5623 Clear 27 1014 61 10000 8.2 280 19:40 01.07.2019
5624 Clouds 27 1017 60 10000 4.1 280 19:21 01.07.2019
5625 Clouds 28 1017 60 10000 5.1 270 18:52 01.07.2019
5626 Clear 27 1015 61 10000 6.2 270 18:31 01.07.2019
5627 Clouds 27 1017 60 10000 5.1 270 17:57 01.07.2019
5628 Clouds 27 1017 60 10000 5.1 270 17:57 01.07.2019
5629 Clouds 28 1018 57 10000 5.1 280 17:39 01.07.2019
5630 Clouds 28 1018 57 10000 5.1 280 17:19 01.07.2019
5631 Clear 28 1015 57 10000 7.2 280 16:46 01.07.2019
5632 Clouds 28 1018 60 10000 5.7 280 16:25 01.07.2019
5633 Clouds 28 1016 61 10000 6.2 280 15:47 01.07.2019
5634 Clouds 27 1018 57 10000 5.7 280 15:28 01.07.2019
5635 Clouds 28 1019 57 10000 6.2 270 14:57 01.07.2019
5636 Clouds 27 1019 57 10000 6.2 260 14:37 01.07.2019
5637 Clouds 27 1017 65 10000 6.2 270 14:18 01.07.2019
5638 Clouds 27 1017 57 10000 5.7 230 13:39 01.07.2019
5639 Clouds 27 1019 60 10000 6.7 260 13:20 01.07.2019
5640 Clouds 25 1017 69 10000 6.7 260 12:42 01.07.2019
5641 Clouds 25 1019 69 10000 6.7 250 12:23 01.07.2019
5642 Clouds 25 1017 64 10000 6.7 250 11:57 01.07.2019
5643 Clouds 24 1019 64 10000 5.7 250 11:38 01.07.2019
5644 Clouds 23 1017 78 10000 6.7 270 11:18 01.07.2019
5645 Clouds 23 1018 78 10000 6.7 270 10:42 01.07.2019
5646 Clouds 23 1019 68 10000 5.7 240 10:20 01.07.2019
5647 Clouds 22 1017 87 10000 5.7 270 09:45 01.07.2019
5648 -273 0 0 0 0 0 09:26 01.07.2019
5649 Clouds 21 1018 77 10000 4.1 220 08:44 01.07.2019
5650 Clouds 21 1018 77 10000 4.1 220 08:25 01.07.2019
5651 Clouds 21 1018 77 10000 4.1 210 07:34 01.07.2019
5652 Clouds 21 1018 77 10000 4.6 220 06:51 01.07.2019
5653 Clouds 22 1018 82 10000 4.1 230 04:44 01.07.2019
5654 Clear 23 1018 78 10000 7.7 280 01:20 01.07.2019
5655 Clouds 23 1020 82 8000 4.1 230 00:41 01.07.2019
5656 Clear 23 1018 69 10000 6.2 230 00:20 01.07.2019
5657 Clouds 23 1019 77 8000 4.1 250 23:25 30.06.2019
5658 Clouds 24 1019 77 8000 3.1 230 22:56 30.06.2019
5659 Clouds 24 1018 77 10000 3.6 250 22:24 30.06.2019
5660 Clouds 25 1018 77 10000 4.6 260 21:59 30.06.2019
5661 Clear 25 1016 61 10000 5.1 210 21:41 30.06.2019
5662 Clear 25 1016 57 10000 5.1 210 21:18 30.06.2019
5663 Clear 25 1016 61 10000 7.2 200 20:41 30.06.2019
5664 Clouds 26 1018 69 10000 4.1 270 20:23 30.06.2019
5665 Clear 26 1016 57 10000 8.2 200 19:51 30.06.2019
5666 Clouds 26 1018 60 10000 5.1 260 19:26 30.06.2019
5667 Clear 26 1016 54 10000 7.2 200 18:53 30.06.2019
5668 Clouds 27 1018 61 10000 4.6 270 18:22 30.06.2019
5669 Clear 27 1016 54 10000 7.2 190 17:41 30.06.2019
5670 Clear 27 1016 54 10000 7.2 190 17:20 30.06.2019
5671 Clear 27 1017 54 10000 6.2 190 16:56 30.06.2019
5672 Clouds 27 1018 61 10000 5.1 270 16:33 30.06.2019
5673 Clouds 27 1018 61 10000 6.2 260 15:58 30.06.2019
5674 Clear 27 1019 61 10000 6.2 250 15:36 30.06.2019
5675 Clear 29 1017 51 10000 5.1 210 15:18 30.06.2019
5676 Clear 28 1017 51 10000 4.1 230 14:43 30.06.2019
5677 Clouds 28 1019 61 8000 6.7 260 14:24 30.06.2019
5678 Clouds 27 1018 54 10000 4.6 240 13:43 30.06.2019
5679 Clouds 26 1018 65 10000 6.2 280 13:20 30.06.2019
5680 Clouds 26 1017 65 10000 5.7 270 12:47 30.06.2019
5681 Clouds 25 1017 61 10000 4.1 240 12:24 30.06.2019
5682 Clouds 25 1017 65 10000 4.1 230 11:47 30.06.2019
5683 Clouds 25 1019 60 8000 6.7 250 11:24 30.06.2019
5684 Clouds 24 1017 69 10000 3.1 230 10:56 30.06.2019
5685 Clouds 24 1018 64 8000 5.1 230 10:38 30.06.2019
5686 Clouds 23 1017 73 10000 4.1 250 10:18 30.06.2019
5687 Clouds 23 1017 73 10000 4.1 250 10:18 30.06.2019
5688 Clouds 22 1016 78 10000 4.1 260 09:43 30.06.2019
5689 Clouds 22 1017 73 10000 4.6 230 09:23 30.06.2019
5690 Clouds 21 1017 77 10000 3.6 240 08:57 30.06.2019
5691 Clouds 21 1017 77 10000 3.6 230 08:29 30.06.2019
5692 Clouds 21 1016 77 10000 4.6 230 07:56 30.06.2019
5693 Clouds 21 1016 77 10000 4.6 230 07:28 30.06.2019
5694 Clouds 22 1016 77 10000 3.6 240 06:40 30.06.2019
5695 Clouds 22 1016 77 10000 3.6 230 05:33 30.06.2019
5696 Clouds 22 1016 83 10000 3.6 210 02:52 30.06.2019
5697 Clouds 23 1017 83 10000 2.1 210 01:28 30.06.2019
5698 Clouds 23 1016 83 10000 3.1 220 00:30 30.06.2019
5699 Clouds 23 1016 83 10000 3.1 230 23:55 29.06.2019
5700 Clouds 23 1015 83 10000 2.6 260 23:24 29.06.2019
5701 Clouds 23 1015 83 10000 2.6 270 22:57 29.06.2019
5702 Clouds 24 1015 78 10000 2.6 250 22:37 29.06.2019
5703 Clear 24 1014 61 10000 2.6 190 22:18 29.06.2019
5704 Clear 25 1014 61 10000 4.6 190 21:41 29.06.2019
5705 Clear 25 1015 73 10000 3.1 250 21:22 29.06.2019
5706 Clear 26 1013 51 10000 1.5 200 20:41 29.06.2019
5707 Clear 26 1014 64 10000 3.6 270 20:22 29.06.2019
5708 Clear 27 1013 51 10000 3.1 200 19:48 29.06.2019
5709 Clear 27 1014 57 10000 3.1 280 19:23 29.06.2019
5710 Clear 28 1013 45 10000 4.1 190 18:51 29.06.2019
5711 Clear 28 1014 61 10000 4.1 290 18:26 29.06.2019
5712 Clear 29 1014 45 10000 3.1 180 17:42 29.06.2019
5713 Clear 28 1014 57 10000 4.1 300 17:22 29.06.2019
5714 Clear 28 1014 54 10000 4.1 280 16:57 29.06.2019
5715 Clear 28 1014 57 10000 4.1 280 16:36 29.06.2019
5716 Clear 28 1014 48 10000 3.6 130 15:48 29.06.2019
5717 Clear 28 1015 57 10000 5.1 280 15:24 29.06.2019
5718 Clear 28 1015 48 10000 5.1 120 14:44 29.06.2019
5719 Clear 28 1015 54 10000 4.6 280 14:25 29.06.2019
5720 Clear 27 1015 48 10000 5.1 130 13:46 29.06.2019
5721 Clear 27 1015 57 10000 4.6 280 13:26 29.06.2019
5722 Clear 27 1015 61 10000 4.1 280 12:51 29.06.2019
5723 Clouds 26 1015 61 10000 4.1 280 12:33 29.06.2019
5724 Clouds 25 1015 64 10000 3.6 270 11:54 29.06.2019
5725 Clouds 25 1014 73 10000 2.6 270 11:33 29.06.2019
5726 Clouds 24 1015 64 10000 2.6 270 10:56 29.06.2019
5727 Clouds 24 1015 69 10000 2.1 240 10:36 29.06.2019
5728 Clouds 24 1015 69 10000 2.1 240 10:36 29.06.2019
5729 Clear 23 1014 83 10000 2.1 280 09:59 29.06.2019
5730 Clear 22 1014 83 10000 2.1 280 09:38 29.06.2019
5731 Clear 20 1014 88 10000 2.6 260 08:42 29.06.2019
5732 Clear 21 1014 82 8000 1.5 40 07:46 29.06.2019
5733 Clear 21 1014 82 8000 1.5 40 07:21 29.06.2019
5734 Clear 21 1014 82 8000 1.5 260 06:44 29.06.2019
5735 Clear 21 1014 82 8000 1.5 260 06:21 29.06.2019
5736 Clear 23 1015 77 8000 2.1 200 02:37 29.06.2019
5737 Clear 24 1015 78 8000 3.1 210 00:57 29.06.2019
5738 Clear 24 1015 78 8000 2.6 190 00:23 29.06.2019
5739 Clear 22 1014 78 10000 4.6 190 23:27 28.06.2019
5740 Clear 24 1013 73 10000 2.6 170 22:57 28.06.2019
5741 Clear 24 1013 73 10000 3.6 190 22:36 28.06.2019
5742 Clear 25 1012 65 10000 4.1 190 21:52 28.06.2019
5743 Clear 25 1012 61 10000 2.6 190 21:24 28.06.2019
5744 Clear 26 1013 65 10000 4.1 120 20:48 28.06.2019
5745 Clear 26 1011 48 10000 3.1 190 20:27 28.06.2019
5746 Clouds 27 1013 57 10000 5.1 130 19:53 28.06.2019
5747 Clouds 26 1011 51 10000 7.2 60 19:28 28.06.2019
5748 Clouds 27 1011 54 10000 8.2 70 18:57 28.06.2019
5749 Clouds 27 1011 48 10000 8.7 60 18:38 28.06.2019
5750 Clouds 27 1014 65 10000 6.2 120 18:20 28.06.2019
5751 Clouds 27 1012 48 10000 3.6 60 17:30 28.06.2019
5752 Clouds 27 1014 69 10000 5.7 70 16:51 28.06.2019
5753 Clouds 27 1012 54 10000 4.6 320 16:27 28.06.2019
5754 Clouds 26 1014 69 10000 6.2 60 15:48 28.06.2019
5755 Clear 26 1013 54 10000 4.6 300 15:24 28.06.2019
5756 Clear 26 1014 57 10000 4.1 290 14:56 28.06.2019
5757 Clear 26 1014 61 10000 5.1 280 14:37 28.06.2019
5758 Clouds 26 1015 65 10000 7.2 60 14:18 28.06.2019
5759 Clear 25 1014 60 10000 3.6 300 13:42 28.06.2019
5760 Clouds 25 1015 69 10000 5.1 60 13:20 28.06.2019
5761 Clouds 25 1015 69 10000 3.6 50 12:47 28.06.2019
5762 Clouds 24 1015 73 10000 3.1 60 11:56 28.06.2019
5763 Clear 24 1015 78 10000 2.6 60 11:26 28.06.2019
5764 Clear 23 1015 64 10000 1 0 10:46 28.06.2019
5765 Clear 23 1015 64 10000 1 0 10:22 28.06.2019
5766 Clear 22 1015 78 10000 2.1 70 09:49 28.06.2019
5767 Clear 22 1015 77 10000 0.5 0 09:30 28.06.2019
5768 Clear 18 1015 82 10000 1 280 08:48 28.06.2019
5769 Clear 18 1015 82 10000 1 280 08:26 28.06.2019
5770 Clear 19 1015 82 10000 1 50 07:49 28.06.2019
5771 Clear 19 1015 82 10000 1 50 07:31 28.06.2019
5772 Clear 19 1015 82 10000 1 40 06:31 28.06.2019
5773 Clear 21 1017 82 10000 1 0 01:39 28.06.2019
5774 Clear 21 1017 72 10000 1.84 256.62 00:42 28.06.2019
5775 Clear 21 1017 72 10000 0.5 0 23:51 27.06.2019
5776 Clear 21 1017 72 10000 4.1 340 23:28 27.06.2019
5777 Clear 22 1016 68 10000 3.6 310 22:56 27.06.2019
5778 Clear 22 1016 68 10000 5.1 340 22:37 27.06.2019
5779 Clear 22 1016 73 10000 5.7 200 22:18 27.06.2019
5780 Clear 22 1016 73 10000 4.6 200 21:48 27.06.2019
5781 Clear 23 1016 68 10000 4.6 340 21:29 27.06.2019
5782 Clear 23 1015 69 10000 3.1 210 20:57 27.06.2019
5783 Clear 24 1015 69 10000 3.1 210 20:39 27.06.2019
5784 Clear 24 1015 64 10000 5.1 200 20:19 27.06.2019
5785 Clear 24 1015 64 10000 5.1 200 20:19 27.06.2019
5786 Clear 25 1015 61 10000 3.6 210 19:44 27.06.2019
5787 Clouds 25 1015 60 10000 7.2 350 19:24 27.06.2019
5788 Clouds 25 1015 61 10000 3.1 180 18:43 27.06.2019
5789 Clouds 26 1015 57 10000 2.6 130 18:20 27.06.2019
5790 Clouds 26 1015 57 10000 1.5 150 17:43 27.06.2019
5791 Clouds 26 1016 57 10000 6.2 330 17:22 27.06.2019
5792 Clouds 26 1016 57 10000 1.5 110 16:40 27.06.2019
5793 Clouds 26 1016 57 10000 2.6 90 16:19 27.06.2019
5794 Clouds 26 1016 57 10000 2.6 90 16:19 27.06.2019
5795 Clouds 26 1016 61 10000 2.1 110 15:55 27.06.2019
5796 Clouds 26 1017 57 10000 5.1 320 15:35 27.06.2019
5797 Clouds 26 1017 61 10000 2.1 100 14:58 27.06.2019
5798 Clouds 26 1017 57 10000 3.6 300 14:36 27.06.2019
5799 Clouds 26 1017 61 10000 2.1 110 14:18 27.06.2019
5800 Clouds 25 1017 61 10000 1 100 13:42 27.06.2019
5801 Clouds 25 1018 69 10000 4.1 290 13:24 27.06.2019
5802 Clouds 25 1017 60 10000 3.1 300 12:43 27.06.2019
5803 Clouds 25 1017 60 10000 3.1 300 12:23 27.06.2019
5804 Clouds 24 1017 69 10000 1.5 230 11:45 27.06.2019
5805 Clouds 23 1017 73 10000 2.6 300 11:22 27.06.2019
5806 Clouds 22 1017 68 10000 2.1 290 10:57 27.06.2019
5807 Clouds 22 1017 77 10000 2.1 280 10:36 27.06.2019
5808 Clouds 22 1017 83 10000 5.1 200 10:18 27.06.2019
5809 Clouds 21 1017 83 10000 2.1 200 09:38 27.06.2019
5810 Clouds 21 1017 83 10000 1 70 09:20 27.06.2019
5811 Clouds 20 1016 83 10000 3.6 200 08:46 27.06.2019
5812 Clouds 20 1016 83 10000 3.6 200 08:46 27.06.2019
5813 Clouds 20 1016 83 10000 3.6 200 08:46 27.06.2019
5814 Clouds 20 1016 83 10000 3.6 200 08:26 27.06.2019
5815 Clouds 20 1016 88 10000 2.1 300 07:40 27.06.2019
5816 Clouds 20 1016 88 10000 1.5 300 06:56 27.06.2019
5817 Clouds 20 1016 88 10000 1.5 320 06:29 27.06.2019
5818 Clouds 20 1016 88 10000 1.5 20 03:50 27.06.2019
5819 Clouds 21 1017 88 10000 2.6 310 02:41 27.06.2019
5820 Clouds 22 1017 83 10000 1.5 50 01:18 27.06.2019
5821 Clouds 22 1018 83 10000 2.1 330 00:47 27.06.2019
5822 Clouds 22 1018 83 10000 2.1 330 00:25 27.06.2019
5823 Clouds 22 1017 83 10000 1.5 280 23:45 26.06.2019
5824 Clouds 22 1017 83 10000 1.5 280 23:22 26.06.2019
5825 Clouds 22 1017 83 10000 1.5 280 23:22 26.06.2019
5826 Clouds 22 1017 83 10000 0.5 0 22:55 26.06.2019
5827 Clouds 22 1016 83 10000 1 0 22:37 26.06.2019
5828 Clear 23 1016 73 10000 4.6 190 22:18 26.06.2019
5829 Clear 24 1016 57 10000 4.1 190 21:41 26.06.2019
5830 Clear 24 1015 61 10000 5.1 200 21:20 26.06.2019
5831 Clear 25 1015 57 10000 2.6 170 20:50 26.06.2019
5832 Clouds 25 1015 69 10000 4.6 320 20:31 26.06.2019
5833 Clear 25 1015 57 10000 3.6 130 19:57 26.06.2019
5834 Clouds 25 1015 64 10000 5.7 330 19:38 26.06.2019
5835 Clouds 26 1015 57 10000 5.1 120 19:19 26.06.2019
5836 Clouds 26 1015 54 10000 5.1 120 18:44 26.06.2019
5837 Clouds 26 1015 54 10000 6.2 340 18:22 26.06.2019
5838 Clear 27 1015 44 10000 4.6 120 17:47 26.06.2019
5839 Clouds 27 1016 50 10000 6.2 340 17:27 26.06.2019
5840 Clouds 27 1016 51 10000 4.1 110 16:52 26.06.2019
5841 Clouds 27 1016 51 10000 5.1 330 16:30 26.06.2019
5842 Clouds 27 1017 57 10000 3.6 100 15:58 26.06.2019
5843 Clouds 27 1017 57 10000 3.6 100 15:58 26.06.2019
5844 Clouds 26 1016 44 10000 5.1 330 15:28 26.06.2019
5845 Clouds 26 1017 65 10000 4.1 100 14:57 26.06.2019
5846 Clouds 26 1017 65 10000 4.1 100 14:57 26.06.2019
5847 Clouds 26 1017 54 10000 3.6 290 14:37 26.06.2019
5848 Clouds 26 1018 61 10000 3.1 100 14:18 26.06.2019
5849 Clouds 25 1017 57 10000 2.6 350 13:39 26.06.2019
5850 Clouds 25 1018 61 10000 3.1 90 13:18 26.06.2019
5851 Clouds 25 1018 69 10000 3.1 210 12:40 26.06.2019
5852 Clear 24 1018 69 10000 2.1 100 12:19 26.06.2019
5853 Clouds 23 1018 64 10000 1.5 0 11:25 26.06.2019
5854 Clouds 23 1018 64 10000 1.5 0 11:25 26.06.2019
5855 Clouds 22 1018 73 8000 1.5 300 10:56 26.06.2019
5856 Clouds 22 1018 78 8000 1.5 270 10:38 26.06.2019
5857 Clouds 21 1018 83 10000 4.6 200 10:19 26.06.2019
5858 Clouds 21 1017 83 8000 0.5 250 09:30 26.06.2019
5859 Mist 20 1017 88 10000 0.68 292.163 08:57 26.06.2019
5860 Mist 20 1017 88 10000 0.62 2.036 08:23 26.06.2019
5861 Mist 19 1016 88 10000 0.5 20 07:59 26.06.2019
5862 Mist 19 1016 88 10000 1 70 07:40 26.06.2019
5863 Mist 18 1016 82 10000 0.62 2.036 06:33 26.06.2019
5864 Clear 20 1016 83 10000 6.7 200 02:18 26.06.2019
5865 Clear 21 1016 82 10000 0.5 270 00:36 26.06.2019
5866 Clear 21 1016 82 10000 1 0 23:57 25.06.2019
5867 Clear 21 1016 77 10000 1 0 23:38 25.06.2019
5868 Clear 21 1015 83 10000 1.5 60 23:19 25.06.2019
5869 Clear 21 1015 77 10000 1 0 22:41 25.06.2019
5870 Clear 21 1015 77 10000 1 0 22:22 25.06.2019
5871 Clear 23 1015 68 10000 5.1 340 21:46 25.06.2019
5872 Clear 23 1015 68 10000 5.1 340 21:26 25.06.2019
5873 Clear 24 1014 60 10000 6.7 340 20:50 25.06.2019
5874 Clear 24 1014 60 10000 6.7 340 20:24 25.06.2019
5875 Clear 25 1014 65 10000 5.1 200 19:57 25.06.2019
5876 Clouds 25 1014 53 10000 5.7 330 19:38 25.06.2019
5877 Clear 26 1014 61 10000 6.2 200 19:20 25.06.2019
5878 Clouds 27 1014 54 10000 5.7 340 18:42 25.06.2019
5879 Clouds 27 1014 54 10000 5.7 340 18:23 25.06.2019
5880 -273 0 0 0 0 0 17:45 25.06.2019
5881 -273 0 0 0 0 0 17:26 25.06.2019
5882 -273 0 0 0 0 0 17:26 25.06.2019
5883 -273 0 0 0 0 0 17:26 25.06.2019
5884 Clouds 27 1014 54 10000 5.1 200 16:44 25.06.2019
5885 Clouds 27 1015 57 10000 5.7 310 16:25 25.06.2019
5886 Clear 27 1014 57 10000 5.1 190 15:54 25.06.2019
5887 Clouds 26 1015 61 10000 5.1 290 15:36 25.06.2019
5888 Clear 27 1014 57 10000 5.1 190 15:18 25.06.2019
5889 Clear 27 1014 57 10000 5.1 190 15:18 25.06.2019
5890 Clear 26 1015 65 10000 5.7 190 14:42 25.06.2019
5891 Clouds 26 1016 57 10000 4.1 310 14:23 25.06.2019
5892 Clear 26 1015 61 10000 3.6 180 13:42 25.06.2019
5893 Clouds 26 1016 57 10000 4.1 280 13:21 25.06.2019
5894 Fog 25 1016 69 10000 1.5 70 12:42 25.06.2019
5895 Fog 24 1016 61 10000 4.1 280 12:24 25.06.2019
5896 Fog 23 1016 82 10000 2.6 70 11:44 25.06.2019
5897 Mist 24 1016 73 10000 2.6 50 11:23 25.06.2019
5898 Clear 23 1016 69 10000 3.1 240 10:55 25.06.2019
5899 Clouds 22 1016 73 10000 2.1 220 10:36 25.06.2019
5900 Clouds 22 1016 73 10000 3.1 230 10:18 25.06.2019
5901 Clouds 21 1016 77 10000 3.1 250 09:39 25.06.2019
5902 Clouds 21 1016 83 10000 2.44 234.509 09:21 25.06.2019
5903 Clouds 20 1016 88 10000 1 0 08:50 25.06.2019
5904 Clouds 20 1016 88 10000 1 0 08:50 25.06.2019
5905 Clouds 20 1016 88 10000 1 0 08:29 25.06.2019
5906 Clouds 20 1015 88 10000 1.5 260 07:43 25.06.2019
5907 Clouds 20 1015 88 10000 1.5 260 07:23 25.06.2019
5908 Clouds 20 1015 88 10000 1.5 280 06:42 25.06.2019
5909 Clouds 21 1015 88 10000 0.81 233.89 04:30 25.06.2019
5910 Clouds 22 1016 94 6000 1.5 230 02:25 25.06.2019
5911 Clouds 22 1016 82 10000 1.5 310 00:38 25.06.2019
5912 Clouds 21 1015 78 10000 5.1 220 00:18 25.06.2019
5913 Clouds 21 1015 88 10000 1 0 23:42 24.06.2019
5914 Clouds 21 1015 88 10000 1 0 23:23 24.06.2019
5915 Clear 22 1014 78 10000 5.1 210 22:44 24.06.2019
5916 Clear 23 1014 73 10000 5.1 210 22:19 24.06.2019
5917 Clear 23 1014 69 10000 5.1 210 21:42 24.06.2019
5918 Clear 24 1013 69 10000 5.1 210 21:19 24.06.2019
5919 Clear 24 1013 65 10000 5.1 210 20:58 24.06.2019
5920 Clear 25 1013 65 10000 5.1 210 20:40 24.06.2019
5921 Clouds 24 1014 73 10000 3.6 320 20:21 24.06.2019
5922 Clear 25 1013 69 10000 7.2 190 19:46 24.06.2019
5923 Clouds 25 1014 64 10000 4.1 320 19:21 24.06.2019
5924 Clear 25 1013 69 10000 7.7 190 18:48 24.06.2019
5925 Clouds 25 1015 61 10000 4.6 300 18:29 24.06.2019
5926 Clouds 25 1015 64 10000 5.1 310 17:56 24.06.2019
5927 Clouds 25 1014 64 10000 5.1 310 17:35 24.06.2019
5928 Clear 25 1013 50 10000 5.1 180 16:48 24.06.2019
5929 Clouds 25 1014 61 8000 5.1 300 16:21 24.06.2019
5930 Clear 25 1014 53 10000 6.2 190 15:59 24.06.2019
5931 Clear 25 1015 61 10000 5.1 300 15:38 24.06.2019
5932 Clear 25 1014 57 10000 5.7 190 15:19 24.06.2019
5933 Clear 25 1015 57 10000 3.6 290 14:34 24.06.2019
5934 Clear 24 1014 64 10000 5.7 190 13:50 24.06.2019
5935 Clouds 24 1015 57 10000 3.1 290 13:24 24.06.2019
5936 Clear 23 1014 69 10000 4.6 200 12:44 24.06.2019
5937 Clouds 24 1015 60 10000 3.1 280 12:22 24.06.2019
5938 Clouds 24 1015 60 10000 2.6 0 11:55 24.06.2019
5939 Clouds 23 1015 64 10000 2.1 290 11:37 24.06.2019
5940 Clouds 22 1015 73 10000 1.5 230 11:18 24.06.2019
5941 Clouds 21 1015 73 10000 2.6 250 10:41 24.06.2019
5942 Clouds 20 1014 77 10000 3.1 260 10:20 24.06.2019
5943 Clear 19 1014 82 10000 2.1 250 09:48 24.06.2019
5944 Mist 18 1014 88 10000 2.6 260 09:19 24.06.2019
5945 Mist 18 1014 88 6000 1.85 144.932 08:51 24.06.2019
5946 Mist 18 1014 88 6000 2.15 149.337 08:20 24.06.2019
5947 Fog 18 1014 82 6000 1 300 07:42 24.06.2019
5948 Fog 18 1014 82 6000 1 300 07:23 24.06.2019
5949 Clouds 18 1014 82 6000 3.31 134.413 06:25 24.06.2019
5950 Clouds 18 1014 82 6000 3.31 134.413 05:52 24.06.2019
5951 Clouds 19 1014 88 6000 0.5 0 04:58 24.06.2019
5952 Clouds 19 1014 82 8000 3.31 134.413 03:54 24.06.2019
5953 Clouds 19 1015 82 8000 0.63 28.574 02:48 24.06.2019
5954 Clouds 20 1015 77 8000 1.5 330 01:55 24.06.2019
5955 Clouds 19 1015 82 8000 1.5 320 01:34 24.06.2019
5956 Clouds 20 1014 77 8000 2.1 330 00:55 24.06.2019
5957 Clouds 20 1014 77 8000 2.6 340 00:23 24.06.2019
5958 Clouds 20 1014 72 8000 2.6 350 23:58 23.06.2019
5959 Clouds 20 1014 73 8000 2.6 360 23:40 23.06.2019
5960 Clouds 21 1013 82 10000 1.5 280 23:20 23.06.2019
5961 Clear 21 1012 73 10000 2.6 10 22:41 23.06.2019
5962 Clear 21 1013 77 10000 1 260 22:20 23.06.2019
5963 Clear 22 1012 78 10000 2.6 100 21:42 23.06.2019
5964 Clear 22 1012 68 10000 5.1 340 21:23 23.06.2019
5965 Clear 23 1011 64 10000 3.6 330 20:52 23.06.2019
5966 Clear 23 1011 64 10000 3.6 330 20:52 23.06.2019
5967 Clear 24 1011 57 10000 4.6 350 20:32 23.06.2019
5968 Clear 24 1011 57 10000 5.7 330 19:57 23.06.2019
5969 Clear 25 1012 69 10000 4.1 110 19:38 23.06.2019
5970 Clear 25 1012 69 10000 4.1 110 19:19 23.06.2019
5971 Clear 25 1012 69 10000 4.6 100 18:44 23.06.2019
5972 Clear 25 1013 69 10000 4.1 90 18:20 23.06.2019
5973 Clear 25 1013 69 10000 4.1 90 17:42 23.06.2019
5974 Clouds 25 1011 47 10000 6.2 50 17:22 23.06.2019
5975 Clear 25 1013 69 10000 4.6 90 16:45 23.06.2019
5976 Clouds 25 1012 48 10000 4.6 60 16:25 23.06.2019
5977 Clouds 25 1014 78 10000 4.1 80 15:54 23.06.2019
5978 Clouds 25 1012 54 10000 2.1 260 15:36 23.06.2019
5979 Clouds 24 1014 78 10000 3.6 80 15:18 23.06.2019
5980 Clouds 24 1014 78 10000 3.6 70 14:38 23.06.2019
5981 Clouds 24 1014 78 10000 3.1 80 14:20 23.06.2019
5982 Haze 24 1014 73 10000 3.6 60 13:42 23.06.2019
5983 Haze 23 1014 60 10000 3.6 300 13:21 23.06.2019
5984 Haze 23 1014 78 10000 3.1 60 12:58 23.06.2019
5985 Haze 23 1014 78 10000 3.1 60 12:39 23.06.2019
5986 Clouds 23 1014 78 10000 2.1 50 12:19 23.06.2019
5987 Haze 24 1014 78 10000 2.6 60 11:45 23.06.2019
5988 Haze 23 1013 53 10000 1.5 0 11:25 23.06.2019
5989 Haze 22 1014 88 8000 2.1 60 10:48 23.06.2019
5990 Haze 21 1013 64 10000 0.5 0 10:21 23.06.2019
5991 Haze 20 1013 73 10000 0.5 0 09:57 23.06.2019
5992 Haze 20 1013 77 10000 1.5 130 09:22 23.06.2019
5993 Fog 19 1013 82 10000 2.6 110 08:47 23.06.2019
5994 Fog 18 1014 100 5000 3.1 60 08:28 23.06.2019
5995 Fog 18 1013 82 10000 3.49 94.318 07:56 23.06.2019
5996 Fog 18 1013 82 10000 3.49 94.318 07:38 23.06.2019
5997 Fog 18 1014 93 8000 3.1 50 07:18 23.06.2019
5998 Clear 18 1013 82 10000 0.5 0 06:43 23.06.2019
5999 Clear 19 1012 77 10000 1.5 120 05:42 23.06.2019
6000 Clear 20 1013 82 10000 3.6 60 02:32 23.06.2019
6001 Clear 20 1013 77 10000 5.1 60 01:39 23.06.2019
6002 Clear 20 1013 72 10000 5.1 60 00:58 23.06.2019
6003 Clear 20 1012 64 10000 6.2 60 00:27 23.06.2019
6004 Clear 20 1012 60 10000 5.7 70 23:43 22.06.2019
6005 Clear 20 1012 60 10000 5.7 70 23:24 22.06.2019
6006 Clear 20 1012 64 10000 5.1 70 22:46 22.06.2019
6007 Clear 20 1012 64 10000 5.1 70 22:25 22.06.2019
6008 Haze 21 1014 88 8000 3.1 50 21:42 22.06.2019
6009 Haze 22 1014 88 8000 4.6 50 21:20 22.06.2019
6010 Haze 22 1014 88 8000 4.6 50 21:20 22.06.2019
6011 Clouds 22 1014 88 10000 3.6 50 20:56 22.06.2019
6012 Clear 22 1011 50 10000 7.2 70 20:38 22.06.2019
6013 Clouds 23 1014 88 10000 3.6 50 20:19 22.06.2019
6014 Clouds 23 1014 88 10000 3.1 60 19:40 22.06.2019
6015 Clouds 24 1014 88 10000 3.1 70 19:19 22.06.2019
6016 Clouds 24 1014 83 10000 4.1 90 18:42 22.06.2019
6017 Clear 23 1012 50 10000 7.7 60 18:22 22.06.2019
6018 Clouds 25 1014 82 10000 3.6 80 17:43 22.06.2019
6019 Clear 24 1012 37 10000 8.7 60 17:25 22.06.2019
6020 Clouds 25 1015 82 10000 4.6 80 16:40 22.06.2019
6021 Clear 24 1012 37 10000 8.2 70 16:22 22.06.2019
6022 Haze 24 1015 88 8000 4.1 90 15:43 22.06.2019
6023 Haze 24 1013 42 10000 4.6 80 15:25 22.06.2019
6024 Haze 23 1016 82 8000 4.1 90 14:51 22.06.2019
6025 Haze 22 1014 60 10000 5.1 280 14:31 22.06.2019
6026 Mist 23 1016 82 4000 5.1 60 13:55 22.06.2019
6027 Mist 22 1015 60 10000 4.6 270 13:36 22.06.2019
6028 Mist 22 1016 88 4000 5.1 80 13:18 22.06.2019
6029 Fog 22 1016 88 400 5.1 90 12:41 22.06.2019
6030 Clouds 21 1015 64 10000 2.6 280 11:59 22.06.2019
6031 Clouds 21 1016 82 10000 5.1 90 11:40 22.06.2019
6032 Clouds 21 1016 88 10000 4.6 90 10:54 22.06.2019
6033 Clouds 21 1015 64 10000 3.1 280 10:22 22.06.2019
6034 Clouds 19 1015 72 10000 2.1 290 09:56 22.06.2019
6035 Clouds 19 1015 72 10000 3.32 148.527 09:28 22.06.2019
6036 Clouds 17 1015 82 10000 1 70 08:45 22.06.2019
6037 Clouds 17 1015 82 10000 1 70 08:26 22.06.2019
6038 Clear 16 1015 87 10000 0.5 40 07:43 22.06.2019
6039 Clear 16 1014 82 10000 0.5 0 06:58 22.06.2019
6040 Clear 16 1014 82 10000 0.5 250 06:31 22.06.2019
6041 Clear 19 1015 87 10000 2.1 100 02:38 22.06.2019
6042 Clear 20 1015 82 10000 1 90 01:35 22.06.2019
6043 Clear 20 1016 82 10000 1 0 00:47 22.06.2019
6044 Clear 20 1016 82 10000 1 0 00:22 22.06.2019
6045 Clear 21 1015 82 10000 1 290 23:45 21.06.2019
6046 Clear 21 1015 82 10000 1 290 23:22 21.06.2019
6047 Clear 21 1015 77 10000 1.5 300 22:53 21.06.2019
6048 Clear 21 1015 72 10000 2.1 300 22:25 21.06.2019
6049 Clear 22 1015 68 10000 2.6 310 21:55 21.06.2019
6050 Clear 23 1015 64 10000 2.6 300 21:37 21.06.2019
6051 Clear 24 1013 56 10000 6.2 210 21:18 21.06.2019
6052 Clear 24 1013 56 10000 6.2 210 20:44 21.06.2019
6053 Clear 24 1013 56 10000 6.7 210 20:21 21.06.2019
6054 Clear 25 1015 56 10000 3.6 310 19:35 21.06.2019
6055 Clear 25 1013 53 10000 6.7 210 18:50 21.06.2019
6056 Clear 25 1015 56 10000 4.1 310 18:30 21.06.2019
6057 Clear 26 1013 41 10000 5.7 260 17:47 21.06.2019
6058 Clear 26 1016 56 10000 5.1 310 17:28 21.06.2019
6059 Clear 26 1014 47 10000 6.7 210 16:41 21.06.2019
6060 Clouds 26 1016 60 10000 6.2 310 16:22 21.06.2019
6061 Clouds 26 1014 53 10000 7.2 190 15:40 21.06.2019
6062 Clouds 25 1016 56 10000 5.1 300 15:21 21.06.2019
6063 Clear 25 1015 57 10000 7.2 190 14:50 21.06.2019
6064 Clouds 25 1017 60 10000 4.6 290 14:30 21.06.2019
6065 Clouds 25 1017 60 10000 4.6 310 13:55 21.06.2019
6066 Clouds 25 1017 60 10000 4.6 300 13:33 21.06.2019
6067 Clouds 24 1017 60 10000 4.6 300 12:59 21.06.2019
6068 Clouds 24 1017 60 10000 4.6 290 12:39 21.06.2019
6069 Clear 23 1015 56 10000 4.6 220 12:18 21.06.2019
6070 Clear 23 1015 56 10000 4.6 220 12:18 21.06.2019
6071 Clear 23 1016 60 10000 5.1 200 11:46 21.06.2019
6072 Clouds 23 1017 68 10000 4.6 280 11:24 21.06.2019
6073 Clouds 22 1017 64 10000 4.6 270 10:51 21.06.2019
6074 Clouds 21 1016 64 10000 3.1 220 10:22 21.06.2019
6075 Clouds 20 1017 72 10000 4.1 250 09:58 21.06.2019
6076 Clouds 20 1017 77 10000 3.6 230 09:39 21.06.2019
6077 Clouds 19 1015 72 10000 4.1 220 09:19 21.06.2019
6078 Clouds 19 1017 82 10000 3.1 210 08:42 21.06.2019
6079 Clouds 19 1017 82 10000 3.1 210 08:22 21.06.2019
6080 Clouds 19 1017 82 10000 3.1 210 08:22 21.06.2019
6081 Clear 18 1016 88 10000 3.1 200 07:50 21.06.2019
6082 Clear 18 1016 88 10000 3.1 200 07:27 21.06.2019
6083 Clear 18 1016 82 10000 2.6 200 06:53 21.06.2019
6084 Clear 19 1015 77 10000 5.1 220 06:20 21.06.2019
6085 Clouds 19 1016 77 10000 3.1 250 05:25 21.06.2019
6086 Clouds 19 1016 82 10000 3.1 240 04:22 21.06.2019
6087 Clouds 19 1017 82 10000 3.1 250 03:33 21.06.2019
6088 Clouds 19 1017 82 10000 4.1 260 02:47 21.06.2019
6089 Clouds 20 1017 77 10000 4.1 270 01:38 21.06.2019
6090 Clouds 20 1017 77 10000 3.6 270 00:53 21.06.2019
6091 Clear 20 1015 72 10000 9.8 260 00:19 21.06.2019
6092 Clouds 20 1016 77 10000 3.1 260 23:44 20.06.2019
6093 Clear 20 1014 64 10000 10.3 250 23:21 20.06.2019
6094 Clouds 20 1016 77 10000 3.6 270 22:46 20.06.2019
6095 Clouds 20 1016 77 10000 3.6 270 22:27 20.06.2019
6096 Clouds 22 1016 68 10000 4.1 280 21:57 20.06.2019
6097 Clouds 22 1016 64 10000 4.1 290 21:39 20.06.2019
6098 Clouds 23 1014 60 10000 7.2 250 21:19 20.06.2019
6099 Clouds 23 1014 56 10000 9.3 250 20:46 20.06.2019
6100 Clouds 24 1015 60 10000 5.1 280 20:26 20.06.2019
6101 Clouds 24 1015 56 10000 5.1 270 19:55 20.06.2019
6102 Clouds 24 1015 60 10000 5.1 280 19:37 20.06.2019
6103 Clouds 25 1014 56 10000 8.7 270 19:18 20.06.2019
6104 Clouds 25 1016 60 10000 5.1 290 18:42 20.06.2019
6105 Clouds 25 1016 60 10000 5.1 290 18:23 20.06.2019
6106 Clouds 25 1016 53 10000 4.6 280 17:51 20.06.2019
6107 Clouds 25 1016 53 10000 4.6 280 17:51 20.06.2019
6108 Clouds 25 1016 57 10000 4.6 290 17:32 20.06.2019
6109 Clouds 26 1016 57 10000 5.1 270 16:49 20.06.2019
6110 Clouds 26 1016 57 10000 5.1 270 16:21 20.06.2019
6111 Clouds 26 1016 57 10000 5.1 290 15:59 20.06.2019
6112 Clouds 26 1015 50 10000 7.7 250 15:40 20.06.2019
6113 Clouds 25 1017 60 10000 5.7 270 15:22 20.06.2019
6114 Clouds 26 1015 47 10000 7.2 250 14:46 20.06.2019
6115 Clouds 25 1015 47 10000 7.7 250 14:23 20.06.2019
6116 Clouds 25 1015 50 10000 7.7 260 13:41 20.06.2019
6117 Rain 24 1015 53 10000 7.2 260 13:20 20.06.2019
6118 Clouds 23 1016 56 10000 7.2 260 12:49 20.06.2019
6119 Clouds 23 1017 77 8000 5.1 240 12:24 20.06.2019
6120 Clouds 23 1015 64 10000 7.2 260 11:49 20.06.2019
6121 Clouds 23 1017 68 8000 4.1 260 11:30 20.06.2019
6122 Clouds 22 1015 64 10000 6.7 250 10:58 20.06.2019
6123 Clouds 22 1017 73 8000 4.1 260 10:39 20.06.2019
6124 Clouds 22 1017 73 8000 4.1 260 10:20 20.06.2019
6125 Clouds 21 1015 68 10000 7.2 250 09:40 20.06.2019
6126 Clouds 20 1017 88 8000 2.6 260 09:22 20.06.2019
6127 Clouds 19 1015 77 10000 6.7 230 08:46 20.06.2019
6128 Clouds 19 1015 77 10000 6.7 230 08:27 20.06.2019
6129 Clouds 19 1016 88 8000 1.5 270 07:54 20.06.2019
6130 Clouds 18 1016 88 8000 1 0 07:28 20.06.2019
6131 Clouds 19 1016 88 8000 1 270 06:30 20.06.2019
6132 Clouds 19 1016 88 8000 2.1 270 05:41 20.06.2019
6133 Clouds 19 1017 88 8000 2.1 280 03:32 20.06.2019
6134 Clouds 20 1017 88 8000 2.1 300 00:34 20.06.2019
6135 Clouds 20 1017 88 8000 3.1 300 23:58 19.06.2019
6136 Clouds 20 1017 82 8000 2.6 290 23:39 19.06.2019
6137 Clear 21 1015 73 10000 10.3 270 23:21 19.06.2019
6138 Clouds 21 1016 82 10000 3.1 280 22:47 19.06.2019
6139 Clouds 21 1016 82 10000 3.1 280 22:47 19.06.2019
6140 Clear 23 1014 68 10000 10.3 280 22:18 19.06.2019
6141 Clouds 23 1014 64 10000 8.2 270 21:46 19.06.2019
6142 Clouds 23 1016 73 10000 3.6 290 21:25 19.06.2019
6143 Clouds 25 1016 68 10000 5.1 290 20:56 19.06.2019
6144 Clouds 25 1016 68 10000 5.1 290 20:37 19.06.2019
6145 Clear 26 1014 60 10000 7.2 270 20:19 19.06.2019
6146 Clear 25 1014 60 10000 7.7 270 19:40 19.06.2019
6147 Clouds 26 1014 57 10000 7.2 260 19:20 19.06.2019
6148 Clouds 27 1014 51 10000 7.2 250 18:48 19.06.2019
6149 Clouds 26 1016 60 10000 4.6 300 18:21 19.06.2019
6150 Clouds 26 1014 57 10000 5.7 210 17:38 19.06.2019
6151 Clouds 25 1017 50 10000 4.6 310 16:59 19.06.2019
6152 Clouds 25 1015 64 10000 7.7 190 16:39 19.06.2019
6153 Clouds 26 1015 60 10000 8.2 180 16:21 19.06.2019
6154 Clouds 26 1017 53 10000 3.6 290 15:53 19.06.2019
6155 Clouds 26 1017 53 10000 4.6 300 15:27 19.06.2019
6156 Clouds 26 1018 57 10000 4.1 320 14:51 19.06.2019
6157 Clouds 25 1018 60 10000 3.6 310 14:32 19.06.2019
6158 Clouds 25 1018 64 10000 4.1 300 13:59 19.06.2019
6159 Clouds 25 1016 57 10000 6.2 260 13:41 19.06.2019
6160 Clouds 25 1018 57 10000 4.6 310 13:23 19.06.2019
6161 Clouds 24 1016 60 10000 6.7 260 12:44 19.06.2019
6162 Clouds 24 1018 64 10000 5.1 330 12:22 19.06.2019
6163 Clouds 23 1017 64 10000 4.1 330 11:55 19.06.2019
6164 Clouds 23 1017 68 10000 4.1 310 11:37 19.06.2019
6165 Clouds 21 1016 68 10000 7.7 260 11:18 19.06.2019
6166 Clouds 21 1017 68 10000 7.2 260 10:41 19.06.2019
6167 Clouds 21 1017 73 10000 2.6 270 10:23 19.06.2019
6168 Clouds 20 1017 77 10000 6.7 260 09:41 19.06.2019
6169 Clouds 20 1016 77 10000 5.7 250 09:21 19.06.2019
6170 -273 0 0 0 0 0 08:50 19.06.2019
6171 Clouds 19 1017 82 10000 1 0 08:29 19.06.2019
6172 Clouds 19 1017 77 10000 2.1 200 07:48 19.06.2019
6173 Clouds 19 1017 77 10000 2.1 200 07:29 19.06.2019
6174 Clouds 19 1017 82 10000 2.1 210 06:53 19.06.2019
6175 Clouds 19 1016 82 10000 2.1 220 06:29 19.06.2019
6176 Clouds 19 1017 82 10000 0.5 0 05:49 19.06.2019
6177 Clouds 18 1017 82 10000 1 0 04:41 19.06.2019
6178 Clouds 18 1017 82 10000 3.08 263.027 03:33 19.06.2019
6179 Clouds 18 1017 82 10000 3 253.332 02:28 19.06.2019
6180 Clear 19 1018 82 10000 1 0 01:27 19.06.2019
6181 Clear 19 1018 77 10000 1 0 00:43 19.06.2019
6182 Clear 19 1017 82 10000 7.2 260 00:20 19.06.2019
6183 Clear 20 1018 77 10000 1 270 23:53 18.06.2019
6184 Clear 20 1018 77 10000 1 270 23:28 18.06.2019
6185 Clear 21 1017 72 10000 1.5 270 22:49 18.06.2019
6186 Clear 21 1017 72 10000 1.5 270 22:25 18.06.2019
6187 Clear 21 1017 72 10000 1.5 270 22:25 18.06.2019
6188 Clear 23 1017 68 10000 2.6 290 21:57 18.06.2019
6189 Clear 23 1017 64 10000 3.1 280 21:39 18.06.2019
6190 Clear 23 1017 64 10000 3.1 280 21:20 18.06.2019
6191 Clear 24 1017 56 10000 4.1 300 20:43 18.06.2019
6192 Clear 24 1017 56 10000 4.1 300 20:25 18.06.2019
6193 Clear 24 1017 56 10000 4.1 290 19:42 18.06.2019
6194 Clear 24 1017 56 10000 4.1 290 19:24 18.06.2019
6195 Clear 25 1017 53 10000 4.1 310 18:59 18.06.2019
6196 Clear 25 1017 53 10000 3.6 290 18:39 18.06.2019
6197 Clear 25 1015 41 10000 5.1 220 18:21 18.06.2019
6198 Clear 25 1017 49 10000 4.6 280 17:39 18.06.2019
6199 Clear 24 1016 44 10000 3.6 200 17:20 18.06.2019
6200 Clear 24 1016 47 10000 4.6 200 16:46 18.06.2019
6201 -273 0 0 0 0 0 16:27 18.06.2019
6202 Clear 23 1016 53 10000 5.1 190 15:43 18.06.2019
6203 Clouds 23 1018 53 10000 5.1 290 15:25 18.06.2019
6204 Clouds 24 1018 53 10000 5.1 280 14:59 18.06.2019
6205 Clear 24 1016 50 10000 4.6 200 14:41 18.06.2019
6206 Clouds 24 1018 53 10000 5.1 280 14:21 18.06.2019
6207 Clear 24 1017 53 10000 3.6 220 13:52 18.06.2019
6208 Clouds 24 1018 53 10000 5.1 280 13:31 18.06.2019
6209 Clear 23 1017 56 10000 3.6 220 12:48 18.06.2019
6210 Clouds 23 1018 53 10000 4.6 260 12:30 18.06.2019
6211 Clouds 22 1017 60 10000 4.1 250 11:59 18.06.2019
6212 Clouds 22 1017 60 10000 4.1 250 11:40 18.06.2019
6213 Clouds 20 1017 64 10000 4.6 280 11:20 18.06.2019
6214 Clouds 20 1018 60 10000 4.6 250 10:55 18.06.2019
6215 Clouds 20 1018 60 10000 4.6 240 10:36 18.06.2019
6216 Clouds 19 1017 72 10000 5.1 280 10:18 18.06.2019
6217 Clouds 19 1017 63 10000 3.6 260 09:36 18.06.2019
6218 Clouds 18 1016 82 10000 4.1 280 09:18 18.06.2019
6219 Clouds 17 1017 77 10000 3.1 240 08:42 18.06.2019
6220 Clouds 17 1016 82 10000 3.1 240 08:21 18.06.2019
6221 Clouds 17 1016 82 8000 2.1 230 07:37 18.06.2019
6222 Clouds 17 1016 77 10000 3.6 230 07:18 18.06.2019
6223 Clouds 16 1016 87 10000 2.55 263.861 05:38 18.06.2019
6224 Clouds 16 1016 88 10000 1.5 240 04:23 18.06.2019
6225 Clouds 17 1016 82 10000 1 280 02:51 18.06.2019
6226 Clear 17 1016 82 10000 1 0 01:52 18.06.2019
6227 Clear 17 1016 82 10000 1 0 01:24 18.06.2019
6228 Clear 19 1016 82 10000 2.6 330 00:41 18.06.2019
6229 Clear 19 1016 82 10000 2.6 330 00:23 18.06.2019
6230 Clear 19 1015 77 10000 2.6 350 23:39 17.06.2019
6231 Clear 19 1015 82 9000 2.6 80 23:19 17.06.2019
6232 Clear 19 1015 82 9000 2.6 80 23:19 17.06.2019
6233 Clear 19 1015 72 10000 3.6 340 22:41 17.06.2019
6234 Clear 20 1015 88 10000 2.1 90 22:21 17.06.2019
6235 Clear 19 1015 72 10000 3.6 340 22:21 17.06.2019
6236 Clear 20 1015 68 10000 4.1 350 21:55 17.06.2019
6237 Clear 20 1015 68 10000 4.1 340 21:36 17.06.2019
6238 Clear 21 1015 82 10000 3.1 70 21:18 17.06.2019
6239 Clear 21 1015 64 10000 5.1 330 20:36 17.06.2019
6240 Clear 22 1015 82 10000 3.6 80 20:18 17.06.2019
6241 Clear 23 1015 60 10000 6.2 330 19:41 17.06.2019
6242 Clear 23 1015 60 10000 6.2 330 19:21 17.06.2019
6243 Clear 23 1015 56 10000 6.7 340 18:55 17.06.2019
6244 Clear 23 1015 56 10000 7.2 340 18:36 17.06.2019
6245 Clear 23 1016 73 10000 4.1 100 18:18 17.06.2019
6246 Clear 23 1015 53 10000 6.7 330 17:41 17.06.2019
6247 Clear 23 1015 53 10000 6.7 330 17:23 17.06.2019
6248 Clear 23 1016 57 10000 6.2 330 16:43 17.06.2019
6249 Clear 23 1016 57 10000 6.2 330 16:25 17.06.2019
6250 Clear 23 1016 57 10000 5.7 320 15:55 17.06.2019
6251 Clear 23 1016 57 10000 5.7 320 15:37 17.06.2019
6252 Clear 23 1016 57 10000 5.7 320 15:18 17.06.2019
6253 Clear 23 1017 60 10000 4.1 320 14:42 17.06.2019
6254 Clear 23 1017 60 10000 4.1 320 14:23 17.06.2019
6255 Clear 22 1017 60 10000 4.6 300 13:47 17.06.2019
6256 Clear 22 1018 60 10000 4.6 300 13:22 17.06.2019
6257 Clear 22 1017 56 10000 4.1 300 12:48 17.06.2019
6258 Clear 22 1018 56 10000 3.1 310 12:30 17.06.2019
6259 Clear 22 1017 56 10000 2.6 280 11:45 17.06.2019
6260 Clear 21 1018 60 10000 1.5 280 11:26 17.06.2019
6261 Clouds 19 1018 68 10000 1 0 10:57 17.06.2019
6262 Clouds 19 1018 77 8000 1 0 10:39 17.06.2019
6263 Clouds 18 1018 77 8000 1 0 10:21 17.06.2019
6264 Clouds 17 1018 88 6000 1 0 09:39 17.06.2019
6265 Clouds 17 1018 88 6000 1 0 09:20 17.06.2019
6266 Clouds 15 1018 87 5000 2.1 100 08:41 17.06.2019
6267 Clouds 15 1018 87 5000 2.1 100 08:22 17.06.2019
6268 Mist 15 1017 93 4000 2.6 120 07:40 17.06.2019
6269 Mist 15 1017 93 4000 2.6 120 07:20 17.06.2019
6270 Clouds 16 1017 87 6000 2.1 100 06:30 17.06.2019
6271 Mist 16 1017 87 4000 2.6 100 05:42 17.06.2019
6272 Clear 15 1018 87 7000 3.12 106.157 04:33 17.06.2019
6273 Clear 16 1018 87 7000 1 40 03:33 17.06.2019
6274 Clear 16 1018 87 7000 0.84 48.038 02:51 17.06.2019
6275 Clear 17 1018 82 7000 0.5 0 02:32 17.06.2019
6276 Clear 17 1018 82 7000 0.5 0 02:32 17.06.2019
6277 Clear 18 1018 82 10000 0.84 48.038 01:39 17.06.2019
6278 Clear 18 1019 82 10000 1 0 00:59 17.06.2019
6279 Clear 18 1019 77 10000 0.42 62.039 00:40 17.06.2019
6280 Clear 18 1019 77 10000 1.26 333.354 00:20 17.06.2019
6281 Clear 18 1018 72 10000 1.26 333.354 23:40 16.06.2019
6282 Clear 18 1018 72 10000 1.26 333.354 23:21 16.06.2019
6283 Clear 19 1018 77 10000 1 0 22:47 16.06.2019
6284 Clear 19 1018 72 10000 2.1 350 22:21 16.06.2019
6285 Clear 20 1018 77 10000 3.1 110 21:59 16.06.2019
6286 Clear 21 1018 64 10000 3.6 330 21:40 16.06.2019
6287 Clear 21 1018 64 10000 3.6 330 21:21 16.06.2019
6288 Clear 21 1018 68 10000 3.6 110 20:55 16.06.2019
6289 Clear 22 1017 56 10000 4.6 340 20:37 16.06.2019
6290 Clear 22 1017 56 10000 4.6 340 20:18 16.06.2019
6291 Clear 22 1017 56 10000 4.6 340 20:18 16.06.2019
6292 Clear 22 1017 56 10000 5.7 310 19:40 16.06.2019
6293 Clear 22 1017 56 10000 5.7 310 19:22 16.06.2019
6294 Clear 23 1018 60 10000 4.6 100 18:57 16.06.2019
6295 Clear 23 1018 60 10000 4.6 100 18:57 16.06.2019
6296 Clear 23 1018 53 10000 4.1 300 18:38 16.06.2019
6297 Clear 23 1018 53 10000 4.1 300 18:19 16.06.2019
6298 Clouds 23 1018 53 10000 4.1 310 17:42 16.06.2019
6299 Clouds 23 1018 53 10000 4.1 310 17:22 16.06.2019
6300 Clouds 23 1018 53 10000 4.1 310 17:22 16.06.2019
6301 Clouds 23 1018 60 10000 4.6 290 16:56 16.06.2019
6302 Clouds 23 1018 60 10000 4.6 290 16:56 16.06.2019
6303 Clouds 23 1018 60 10000 4.6 290 16:56 16.06.2019
6304 Clouds 23 1018 57 10000 4.1 310 16:38 16.06.2019
6305 Clouds 23 1018 57 10000 4.1 310 16:19 16.06.2019
6306 Clouds 23 1018 60 10000 4.6 300 15:41 16.06.2019
6307 Clouds 23 1018 60 10000 4.6 300 15:23 16.06.2019
6308 Clouds 22 1018 64 10000 4.6 280 14:43 16.06.2019
6309 Clouds 22 1018 64 10000 4.6 280 14:23 16.06.2019
6310 Clouds 22 1018 60 10000 2.1 280 13:51 16.06.2019
6311 Clouds 22 1018 60 10000 4.6 270 13:26 16.06.2019
6312 Clear 22 1018 56 10000 4.1 260 12:57 16.06.2019
6313 Clear 22 1018 56 10000 4.1 260 12:57 16.06.2019
6314 Clear 21 1018 56 10000 3.6 250 12:38 16.06.2019
6315 Clear 21 1018 56 10000 3.6 250 12:18 16.06.2019
6316 Clear 20 1018 60 10000 1 0 11:40 16.06.2019
6317 Clear 20 1018 60 10000 1 0 11:19 16.06.2019
6318 Clear 19 1018 64 10000 1.5 260 10:45 16.06.2019
6319 Clear 19 1018 60 10000 1 0 10:20 16.06.2019
6320 Clear 19 1018 60 10000 1 0 10:20 16.06.2019
6321 Clear 17 1017 72 10000 1 0 09:48 16.06.2019
6322 Clear 17 1017 72 10000 1 0 09:26 16.06.2019
6323 Clear 16 1017 82 10000 1.5 100 08:50 16.06.2019
6324 Clouds 15 1017 88 10000 3.1 50 08:23 16.06.2019
6325 Clear 15 1016 87 10000 2.1 100 07:54 16.06.2019
6326 Clear 15 1017 82 10000 1.5 100 07:36 16.06.2019
6327 Clouds 16 1016 87 0 2.6 110 06:57 16.06.2019
6328 Clouds 16 1016 87 0 2.6 100 06:27 16.06.2019
6329 Clear 16 1016 87 10000 2.6 100 05:29 16.06.2019
6330 Clear 16 1016 82 10000 1 90 04:36 16.06.2019
6331 Clear 17 1016 82 10000 1.5 90 03:51 16.06.2019
6332 Clear 17 1017 82 10000 1 60 03:30 16.06.2019
6333 Clear 18 1017 82 10000 1 50 01:57 16.06.2019
6334 Clear 18 1018 82 10000 1 0 01:37 16.06.2019
6335 Clear 18 1018 82 10000 1 0 01:18 16.06.2019
6336 Clear 19 1018 77 10000 1.66 297.153 00:39 16.06.2019
6337 Clear 19 1018 77 10000 4.09 322.197 00:19 16.06.2019
6338 Clear 20 1018 72 10000 4.09 322.197 23:40 15.06.2019
6339 Clear 21 1018 72 10000 4.09 322.197 23:21 15.06.2019
6340 Clear 22 1018 68 10000 1.5 320 22:49 15.06.2019
6341 Clear 21 1018 68 10000 2.1 320 22:26 15.06.2019
6342 Clear 22 1018 63 10000 2.1 300 21:45 15.06.2019
6343 Clear 22 1018 56 10000 3.6 310 21:27 15.06.2019
6344 Clear 24 1018 52 10000 4.1 330 20:46 15.06.2019
6345 Clear 24 1017 52 10000 4.6 310 20:27 15.06.2019
6346 Clear 24 1015 49 10000 8.2 200 19:57 15.06.2019
6347 Clear 24 1015 49 10000 8.2 200 19:38 15.06.2019
6348 Clear 24 1017 46 10000 5.1 330 19:20 15.06.2019
6349 Clear 24 1018 49 10000 5.7 310 18:37 15.06.2019
6350 Clear 24 1018 49 10000 5.7 310 18:19 15.06.2019
6351 Clear 25 1018 49 10000 5.1 300 17:43 15.06.2019
6352 Clear 25 1018 49 10000 5.1 300 17:21 15.06.2019
6353 Clear 25 1016 53 10000 7.7 190 16:45 15.06.2019
6354 Clear 25 1019 43 10000 4.6 300 16:19 15.06.2019
6355 Clear 25 1019 46 10000 4.6 290 15:42 15.06.2019
6356 Clear 25 1019 46 10000 4.6 290 15:22 15.06.2019
6357 Clear 25 1019 46 10000 3.6 290 14:42 15.06.2019
6358 Clear 25 1019 46 10000 3.6 290 14:18 15.06.2019
6359 Clear 25 1019 43 10000 3.6 310 13:55 15.06.2019
6360 Clear 24 1020 46 10000 3.6 300 13:36 15.06.2019
6361 Clear 24 1020 46 10000 3.6 300 13:18 15.06.2019
6362 Clouds 23 1020 49 10000 3.6 300 12:42 15.06.2019
6363 Clouds 23 1020 49 10000 3.6 300 12:23 15.06.2019
6364 Clouds 21 1020 46 10000 2.6 290 11:48 15.06.2019
6365 Clouds 21 1020 60 10000 3.1 270 11:29 15.06.2019
6366 Clouds 20 1020 60 10000 3.6 280 10:46 15.06.2019
6367 Clouds 20 1020 60 10000 3.1 280 10:25 15.06.2019
6368 Clouds 19 1020 59 10000 1.5 280 09:48 15.06.2019
6369 Clouds 18 1020 72 10000 4.15 317.628 09:27 15.06.2019
6370 Clouds 17 1020 77 10000 5.28 336.175 08:55 15.06.2019
6371 Clear 16 1020 82 10000 1 0 08:37 15.06.2019
6372 Clear 16 1020 82 10000 1 0 08:18 15.06.2019
6373 Clear 16 1020 82 10000 1 0 08:18 15.06.2019
6374 Clear 15 1019 81 10000 0.5 40 07:26 15.06.2019
6375 Clear 15 1019 81 10000 0.5 40 07:25 15.06.2019
6376 Clear 15 1019 81 10000 1 0 06:48 15.06.2019
6377 Clear 15 1019 76 10000 1 120 06:25 15.06.2019
6378 Clear 16 1019 72 10000 1 0 05:39 15.06.2019
6379 Clear 16 1019 72 10000 1 0 05:39 15.06.2019
6380 Clear 16 1019 77 10000 2.1 300 04:51 15.06.2019
6381 Clear 16 1019 72 10000 2.1 290 03:51 15.06.2019
6382 Clear 16 1020 72 10000 2.1 300 03:21 15.06.2019
6383 Clouds 17 1020 63 10000 2.6 300 02:30 15.06.2019
6384 Clouds 17 1020 67 10000 2.6 290 01:53 15.06.2019
6385 Clouds 17 1021 67 10000 3.1 290 01:19 15.06.2019
6386 Clear 18 1020 63 10000 4.1 300 00:40 15.06.2019
6387 Clear 18 1020 59 10000 4.1 290 23:55 14.06.2019
6388 Clear 18 1020 55 10000 4.1 290 23:37 14.06.2019
6389 Clear 18 1020 55 10000 4.1 290 23:18 14.06.2019
6390 Clouds 19 1018 63 10000 7.2 250 22:40 14.06.2019
6391 Clear 19 1018 45 10000 7.7 260 22:19 14.06.2019
6392 Clouds 19 1019 55 10000 3.6 280 21:41 14.06.2019
6393 Clouds 19 1019 55 10000 3.6 280 21:23 14.06.2019
6394 Clouds 20 1018 49 10000 7.2 240 20:44 14.06.2019
6395 Clouds 21 1019 45 10000 5.1 280 20:19 14.06.2019
6396 -273 0 0 0 0 0 19:57 14.06.2019
6397 Clouds 22 1017 52 10000 8.7 250 19:37 14.06.2019
6398 Clouds 22 1019 43 10000 5.1 270 19:18 14.06.2019
6399 Clouds 22 1018 49 10000 6.2 260 18:43 14.06.2019
6400 Clouds 22 1018 49 10000 6.2 260 18:25 14.06.2019
6401 Clouds 22 1018 49 10000 6.2 260 18:25 14.06.2019
6402 Clouds 23 1019 37 10000 5.1 270 17:57 14.06.2019
6403 Clouds 23 1019 37 10000 4.6 280 17:39 14.06.2019
6404 Clouds 23 1019 37 10000 4.6 280 17:19 14.06.2019
6405 Clouds 23 1019 40 10000 5.1 300 16:46 14.06.2019
6406 Clouds 23 1019 40 10000 4.6 280 16:21 14.06.2019
6407 Clouds 22 1019 43 10000 5.1 290 15:57 14.06.2019
6408 Clouds 22 1019 40 10000 4.6 290 15:38 14.06.2019
6409 Clouds 23 1019 40 10000 4.6 290 15:18 14.06.2019
6410 Clouds 22 1019 37 10000 5.1 300 14:40 14.06.2019
6411 Clouds 22 1019 37 10000 5.1 300 14:21 14.06.2019
6412 Clouds 22 1019 35 10000 5.1 280 13:44 14.06.2019
6413 Clouds 22 1018 49 10000 8.7 260 13:24 14.06.2019
6414 Clouds 21 1019 40 10000 6.2 280 12:45 14.06.2019
6415 Clouds 21 1019 43 10000 7.2 270 12:26 14.06.2019
6416 Clouds 20 1019 45 10000 8.2 270 11:58 14.06.2019
6417 Clouds 20 1018 46 10000 8.7 260 11:39 14.06.2019
6418 Clouds 20 1018 46 10000 8.7 260 11:20 14.06.2019
6419 Clouds 20 1018 49 10000 8.7 260 10:44 14.06.2019
6420 Clouds 20 1018 55 10000 8.7 260 10:20 14.06.2019
6421 Clouds 19 1017 52 10000 8.2 260 09:48 14.06.2019
6422 Clouds 18 1017 55 10000 7.7 250 09:25 14.06.2019
6423 Clouds 18 1017 55 10000 7.7 250 09:25 14.06.2019
6424 Clouds 18 1017 55 10000 7.2 260 08:47 14.06.2019
6425 Clouds 18 1016 55 10000 7.2 250 08:19 14.06.2019
6426 Clouds 18 1016 55 10000 7.2 260 07:51 14.06.2019
6427 Clouds 18 1016 55 10000 7.2 260 07:51 14.06.2019
6428 Clouds 18 1016 59 10000 7.2 250 07:21 14.06.2019
6429 Clouds 18 1015 59 10000 7.7 240 06:35 14.06.2019
6430 -273 0 0 0 0 0 05:58 14.06.2019
6431 Clouds 18 1015 63 10000 7.2 240 05:26 14.06.2019
6432 Clouds 18 1015 63 10000 6.2 230 04:46 14.06.2019
6433 Clouds 19 1015 67 10000 6.2 240 03:52 14.06.2019
6434 Clouds 19 1015 68 10000 5.7 230 03:26 14.06.2019
6435 Clouds 19 1015 68 10000 5.1 230 02:56 14.06.2019
6436 Clouds 19 1015 72 10000 5.7 240 02:27 14.06.2019
6437 Clouds 19 1015 72 10000 5.7 240 02:27 14.06.2019
6438 Clouds 19 1015 72 10000 5.7 240 02:27 14.06.2019
6439 Clouds 20 1015 68 10000 5.1 230 00:59 14.06.2019
6440 Clouds 20 1015 72 10000 3.6 220 00:24 14.06.2019
6441 Clouds 20 1014 68 10000 3.6 260 23:59 13.06.2019
6442 Clouds 20 1014 68 10000 3.6 260 23:41 13.06.2019
6443 Clouds 20 1014 68 10000 3.6 260 23:22 13.06.2019
6444 Clouds 20 1013 68 10000 3.1 290 22:40 13.06.2019
6445 Clouds 20 1013 68 10000 3.1 290 22:22 13.06.2019
6446 Clouds 21 1011 68 10000 5.7 310 21:40 13.06.2019
6447 Clouds 21 1011 68 10000 5.7 310 21:20 13.06.2019
6448 Clear 21 1010 68 10000 2.1 70 20:57 13.06.2019
6449 Clear 21 1010 68 10000 2.1 70 20:57 13.06.2019
6450 Clouds 22 1010 60 10000 4.1 10 20:38 13.06.2019
6451 Clouds 22 1010 60 10000 4.1 10 20:19 13.06.2019
6452 Clouds 23 1009 53 10000 4.6 50 19:41 13.06.2019
6453 Clouds 23 1009 53 10000 4.6 50 19:22 13.06.2019
6454 Clouds 23 1010 68 10000 4.6 120 18:57 13.06.2019
6455 Clouds 24 1009 57 10000 6.7 40 18:39 13.06.2019
6456 Clouds 22 1009 57 10000 6.7 40 18:21 13.06.2019
6457 Clouds 23 1009 53 10000 8.2 60 17:42 13.06.2019
6458 Clouds 23 1009 53 10000 8.2 60 17:20 13.06.2019
6459 Clouds 23 1010 68 10000 3.6 100 16:50 13.06.2019
6460 Clouds 23 1009 53 10000 8.2 60 16:22 13.06.2019
6461 Clouds 24 1009 57 10000 8.7 60 15:59 13.06.2019
6462 Clouds 22 1009 54 10000 8.7 60 15:39 13.06.2019
6463 Clouds 22 1009 54 10000 8.7 60 15:19 13.06.2019
6464 Clouds 22 1009 57 10000 7.2 60 14:46 13.06.2019
6465 Clouds 22 1009 57 10000 7.2 60 14:27 13.06.2019
6466 Clouds 22 1009 53 10000 6.2 60 13:47 13.06.2019
6467 Clouds 23 1011 77 10000 4.6 60 13:22 13.06.2019
6468 Clouds 23 1011 77 10000 6.2 60 12:58 13.06.2019
6469 Clouds 22 1009 54 10000 6.2 80 12:38 13.06.2019
6470 Clouds 22 1009 54 10000 6.2 80 12:19 13.06.2019
6471 Clouds 22 1009 53 10000 5.7 80 11:43 13.06.2019
6472 Clouds 22 1009 53 10000 5.7 80 11:24 13.06.2019
6473 Clouds 21 1009 57 10000 6.2 90 10:47 13.06.2019
6474 Clouds 21 1009 60 10000 6.2 90 10:28 13.06.2019
6475 Clouds 20 1009 64 10000 6.7 100 09:50 13.06.2019
6476 Clouds 20 1008 68 10000 5.7 100 09:25 13.06.2019
6477 Clouds 20 1008 68 10000 5.7 100 09:25 13.06.2019
6478 Clouds 19 1008 72 10000 4.6 100 08:50 13.06.2019
6479 Clouds 19 1008 72 10000 5.1 90 08:30 13.06.2019
6480 Clouds 19 1008 72 10000 5.1 90 07:59 13.06.2019
6481 Clouds 19 1008 72 10000 5.1 90 07:59 13.06.2019
6482 Clouds 19 1008 72 10000 5.7 100 07:31 13.06.2019
6483 Clouds 19 1008 72 10000 5.1 100 06:52 13.06.2019
6484 Clouds 19 1008 68 10000 5.7 90 06:24 13.06.2019
6485 Clouds 19 1008 72 10000 5.7 100 05:57 13.06.2019
6486 Clouds 19 1008 68 10000 6.2 100 05:38 13.06.2019
6487 Clouds 19 1008 68 10000 6.2 100 05:18 13.06.2019
6488 Clouds 19 1008 68 10000 6.7 90 03:36 13.06.2019
6489 Clouds 19 1009 68 10000 7.7 90 01:43 13.06.2019
6490 Clouds 19 1009 64 10000 7.2 90 00:29 13.06.2019
6491 Clouds 20 1008 64 10000 8.2 80 23:26 12.06.2019
6492 Clouds 20 1008 64 10000 6.7 90 22:47 12.06.2019
6493 Clouds 20 1008 60 10000 7.2 80 22:28 12.06.2019
6494 Clouds 20 1008 64 10000 6.7 80 21:59 12.06.2019
6495 Clouds 20 1008 60 10000 7.2 70 21:40 12.06.2019
6496 Clouds 20 1008 60 10000 7.2 70 21:40 12.06.2019
6497 Clouds 20 1008 60 10000 7.2 70 21:22 12.06.2019
6498 Clouds 21 1008 56 10000 8.7 70 20:48 12.06.2019
6499 Clouds 22 1008 53 10000 9.3 70 20:29 12.06.2019
6500 Clouds 22 1011 77 10000 4.6 80 19:57 12.06.2019
6501 Clouds 23 1008 44 10000 7.7 80 19:37 12.06.2019
6502 Clouds 23 1008 44 10000 7.7 80 19:19 12.06.2019
6503 Clouds 23 1008 47 10000 8.7 50 18:42 12.06.2019
6504 Clouds 23 1008 47 10000 8.7 50 18:23 12.06.2019
6505 Clouds 23 1009 44 10000 8.7 70 17:45 12.06.2019
6506 Clouds 23 1009 44 10000 8.7 70 17:21 12.06.2019
6507 Clouds 23 1009 44 10000 8.7 70 17:21 12.06.2019
6508 Clouds 24 1009 42 10000 8.7 80 16:43 12.06.2019
6509 Clouds 24 1009 42 10000 8.7 80 16:24 12.06.2019
6510 -273 0 0 0 0 0 15:57 12.06.2019
6511 Clouds 24 1010 42 10000 8.2 80 15:32 12.06.2019
6512 Clouds 23 1010 47 10000 9.3 70 14:55 12.06.2019
6513 Clouds 23 1010 47 10000 9.3 70 14:55 12.06.2019
6514 Clouds 23 1010 47 10000 9.3 70 14:31 12.06.2019
6515 Clouds 23 1010 47 10000 9.3 70 13:56 12.06.2019
6516 Clear 23 1011 50 10000 8.2 70 13:37 12.06.2019
6517 Clear 23 1011 50 10000 8.2 70 13:18 12.06.2019
6518 Clouds 22 1011 57 10000 7.7 50 12:40 12.06.2019
6519 Clouds 22 1011 57 10000 7.7 50 12:20 12.06.2019
6520 Clouds 22 1011 57 8000 7.2 70 11:48 12.06.2019
6521 Clouds 22 1011 60 8000 6.7 70 11:29 12.06.2019
6522 Clouds 21 1011 64 8000 7.2 70 10:57 12.06.2019
6523 Clouds 20 1011 73 8000 6.2 80 10:39 12.06.2019
6524 Clouds 19 1013 82 10000 8.2 50 09:59 12.06.2019
6525 Clouds 19 1011 82 8000 6.2 70 09:41 12.06.2019
6526 Clouds 19 1011 82 8000 6.2 70 09:19 12.06.2019
6527 Clouds 17 1012 88 10000 7.2 40 08:28 12.06.2019
6528 Clouds 17 1011 82 10000 3.1 80 07:56 12.06.2019
6529 Clear 17 1011 82 10000 3.1 70 07:18 12.06.2019
6530 Clear 16 1011 87 10000 2.1 70 06:33 12.06.2019
6531 Clear 17 1010 82 10000 3.49 171.74 05:25 12.06.2019
6532 Clouds 19 1011 77 10000 2.1 170 02:21 12.06.2019
6533 Clouds 20 1012 82 10000 2.1 210 00:46 12.06.2019
6534 Clouds 19 1012 82 10000 1.5 250 23:54 11.06.2019
6535 Clouds 20 1012 82 10000 2.1 240 23:35 11.06.2019
6536 Clouds 20 1012 77 10000 1.5 250 22:57 11.06.2019
6537 Clouds 20 1012 77 10000 2.6 290 22:38 11.06.2019
6538 Clouds 21 1012 77 10000 2.6 290 22:18 11.06.2019
6539 Clouds 21 1012 77 10000 2.6 290 22:18 11.06.2019
6540 Clouds 22 1012 68 10000 3.1 260 21:41 11.06.2019
6541 Clouds 22 1012 68 10000 3.1 260 21:23 11.06.2019
6542 Clouds 22 1012 68 10000 4.1 260 20:57 11.06.2019
6543 Clouds 23 1012 60 10000 5.1 250 20:39 11.06.2019
6544 Clouds 23 1012 60 10000 5.1 250 20:21 11.06.2019
6545 Clouds 24 1012 60 10000 5.1 270 19:45 11.06.2019
6546 -273 0 0 0 0 0 19:27 11.06.2019
6547 Clouds 24 1013 53 10000 5.7 270 18:42 11.06.2019
6548 Clouds 24 1013 53 10000 5.7 270 18:19 11.06.2019
6549 Clouds 24 1013 46 10000 6.2 270 17:41 11.06.2019
6550 Clouds 24 1013 46 10000 6.2 270 17:20 11.06.2019
6551 Clouds 24 1013 53 10000 5.1 270 16:43 11.06.2019
6552 Clouds 24 1013 53 10000 5.1 270 16:23 11.06.2019
6553 Clouds 24 1014 49 10000 5.1 290 15:43 11.06.2019
6554 Clouds 24 1014 49 10000 5.1 290 15:25 11.06.2019
6555 Clouds 24 1012 53 10000 6.7 270 14:54 11.06.2019
6556 Clouds 24 1014 49 10000 5.7 280 14:25 11.06.2019
6557 Clouds 23 1014 52 10000 6.2 270 13:58 11.06.2019
6558 Clouds 23 1014 56 10000 6.2 270 13:37 11.06.2019
6559 Clouds 21 1014 52 10000 5.7 260 13:19 11.06.2019
6560 Clouds 21 1015 64 10000 5.7 250 12:41 11.06.2019
6561 Clouds 21 1015 64 10000 5.7 250 12:21 11.06.2019
6562 Clouds 21 1015 64 10000 5.7 250 12:21 11.06.2019
6563 Clouds 22 1012 56 10000 6.7 230 11:50 11.06.2019
6564 Clouds 22 1014 60 10000 7.7 240 11:32 11.06.2019
6565 Clouds 21 1014 68 10000 6.7 230 10:50 11.06.2019
6566 Clouds 20 1014 68 10000 6.7 220 10:27 11.06.2019
6567 Clouds 19 1012 72 10000 6.7 220 09:51 11.06.2019
6568 Clouds 19 1014 72 10000 5.1 210 09:26 11.06.2019
6569 Clouds 18 1014 82 10000 5.7 200 08:56 11.06.2019
6570 Clouds 18 1012 77 10000 5.1 220 08:38 11.06.2019
6571 Clear 18 1011 52 10000 5.1 270 08:19 11.06.2019
6572 Clouds 18 1014 77 10000 4.6 200 07:32 11.06.2019
6573 Clouds 18 1014 77 10000 4.6 200 06:52 11.06.2019
6574 Clouds 18 1014 82 10000 3.6 210 05:21 11.06.2019
6575 Clouds 18 1015 82 10000 3.1 210 04:27 11.06.2019
6576 Clouds 18 1016 82 10000 2.1 230 01:53 11.06.2019
6577 Clouds 18 1017 82 10000 2.1 260 00:49 11.06.2019
6578 Clouds 18 1017 82 10000 2.1 280 00:23 11.06.2019
6579 Clouds 18 1017 82 10000 2.1 280 23:44 10.06.2019
6580 Clouds 19 1017 77 10000 2.6 280 23:19 10.06.2019
6581 Clouds 19 1016 77 10000 3.1 280 22:42 10.06.2019
6582 Clouds 19 1016 77 10000 3.1 280 22:24 10.06.2019
6583 Clouds 21 1016 63 10000 4.1 290 21:41 10.06.2019
6584 Clouds 21 1016 63 10000 4.1 290 21:23 10.06.2019
6585 Clouds 22 1017 64 10000 4.6 290 20:59 10.06.2019
6586 Clouds 22 1016 60 10000 4.6 280 20:40 10.06.2019
6587 Clouds 22 1016 60 10000 4.6 280 20:21 10.06.2019
6588 Clouds 23 1017 56 10000 5.7 300 19:43 10.06.2019
6589 Clouds 23 1017 56 10000 5.7 300 19:22 10.06.2019
6590 Clouds 24 1017 56 10000 5.7 300 18:56 10.06.2019
6591 Clouds 24 1017 56 10000 5.7 290 18:38 10.06.2019
6592 Clouds 24 1017 56 10000 5.7 290 18:19 10.06.2019
6593 Clouds 24 1015 50 10000 5.7 230 17:43 10.06.2019
6594 Clouds 24 1015 50 10000 5.7 230 17:23 10.06.2019
6595 Clouds 24 1018 56 10000 5.1 280 16:48 10.06.2019
6596 Clouds 24 1018 56 10000 5.1 290 16:30 10.06.2019
6597 Clouds 24 1018 56 10000 5.7 280 15:57 10.06.2019
6598 Clouds 24 1019 56 10000 6.2 270 15:38 10.06.2019
6599 Clouds 24 1019 56 10000 6.2 270 15:19 10.06.2019
6600 Clouds 23 1017 60 10000 7.2 210 14:41 10.06.2019
6601 Clouds 23 1017 60 10000 7.2 210 14:22 10.06.2019
6602 Clouds 23 1019 56 10000 5.7 280 13:45 10.06.2019
6603 Clouds 23 1019 56 10000 5.1 290 13:24 10.06.2019
6604 Clouds 22 1019 56 10000 5.1 270 12:48 10.06.2019
6605 Clouds 22 1019 60 10000 4.6 290 12:29 10.06.2019
6606 Clouds 21 1019 60 10000 4.6 280 11:52 10.06.2019
6607 Clouds 21 1019 64 10000 4.6 290 11:30 10.06.2019
6608 Clouds 20 1019 64 10000 4.1 270 10:58 10.06.2019
6609 Clouds 20 1019 64 10000 4.6 280 10:38 10.06.2019
6610 Clouds 20 1019 64 10000 4.6 280 10:18 10.06.2019
6611 Clouds 19 1019 68 10000 3.6 250 09:48 10.06.2019
6612 Clouds 19 1019 72 10000 3.1 220 09:29 10.06.2019
6613 Clouds 18 1019 72 10000 3.6 210 08:48 10.06.2019
6614 Clouds 18 1019 72 10000 4.1 210 08:26 10.06.2019
6615 Clouds 18 1019 72 8000 2.1 300 07:27 10.06.2019
6616 Clouds 18 1019 72 8000 3.6 220 04:42 10.06.2019
6617 Clouds 18 1020 72 8000 4.6 210 02:19 10.06.2019
6618 Clouds 18 1021 77 10000 3.1 200 01:32 10.06.2019
6619 Clouds 18 1021 77 10000 3.1 230 00:59 10.06.2019
6620 Clouds 18 1020 77 10000 2.6 240 00:31 10.06.2019
6621 Clouds 18 1020 72 10000 2.6 250 23:45 09.06.2019
6622 Clouds 19 1020 72 10000 3.1 250 23:21 09.06.2019
6623 Clouds 19 1020 68 10000 3.1 270 22:45 09.06.2019
6624 Clouds 19 1020 63 10000 3.6 260 22:26 09.06.2019
6625 Clouds 21 1020 63 10000 4.6 270 21:46 09.06.2019
6626 Clouds 21 1020 63 10000 5.1 270 21:28 09.06.2019
6627 Clouds 23 1019 52 10000 5.7 270 20:58 09.06.2019
6628 Clouds 23 1019 49 10000 5.1 280 20:40 09.06.2019
6629 Clouds 23 1019 49 10000 5.1 280 20:21 09.06.2019
6630 Clouds 24 1019 46 10000 4.6 290 19:42 09.06.2019
6631 Clouds 24 1019 46 10000 4.6 290 19:18 09.06.2019
6632 Clouds 25 1019 53 10000 5.1 290 18:43 09.06.2019
6633 Clouds 25 1019 53 10000 5.1 290 18:24 09.06.2019
6634 Clouds 25 1019 56 10000 4.6 290 17:48 09.06.2019
6635 Clouds 25 1019 56 10000 4.6 260 17:29 09.06.2019
6636 Clear 25 1019 60 10000 4.6 270 16:57 09.06.2019
6637 Clear 25 1020 53 10000 6.2 260 16:38 09.06.2019
6638 Clear 25 1020 53 10000 6.2 260 16:19 09.06.2019
6639 Clear 25 1019 53 10000 7.2 250 15:48 09.06.2019
6640 Clear 23 1020 56 10000 6.7 250 15:28 09.06.2019
6641 Clear 22 1020 56 10000 7.7 260 14:47 09.06.2019
6642 Clear 22 1020 53 10000 7.7 250 14:29 09.06.2019
6643 Clouds 23 1020 53 10000 8.2 250 13:56 09.06.2019
6644 Clouds 22 1020 53 10000 8.7 250 13:37 09.06.2019
6645 Clouds 22 1020 56 10000 8.2 250 12:46 09.06.2019
6646 Clouds 22 1020 56 10000 6.7 240 12:27 09.06.2019
6647 Clouds 21 1020 60 10000 7.2 250 11:48 09.06.2019
6648 Clouds 21 1020 64 10000 6.2 250 11:29 09.06.2019
6649 Clouds 20 1020 68 10000 6.7 250 10:47 09.06.2019
6650 Clouds 21 1019 64 10000 5.1 230 10:25 09.06.2019
6651 Clouds 20 1019 72 10000 4.6 230 09:56 09.06.2019
6652 Clouds 19 1019 72 10000 4.1 220 09:37 09.06.2019
6653 Haze 19 1019 72 10000 4.1 220 09:18 09.06.2019
6654 Haze 18 1019 77 10000 3.6 200 08:42 09.06.2019
6655 Haze 19 1019 77 10000 4.1 220 07:50 09.06.2019
6656 Clouds 19 1018 82 10000 3.6 190 06:33 09.06.2019
6657 Clouds 19 1018 82 10000 5.1 190 05:47 09.06.2019
6658 Clouds 19 1018 72 10000 1 0 02:52 09.06.2019
6659 Clouds 19 1018 68 10000 2.1 60 01:36 09.06.2019
6660 Clouds 19 1018 68 10000 2.1 60 01:36 09.06.2019
6661 Clouds 19 1018 68 10000 2.1 60 01:18 09.06.2019
6662 Clouds 19 1018 72 10000 2.6 80 00:21 09.06.2019
6663 Clouds 19 1018 68 10000 3.6 70 23:38 08.06.2019
6664 Clouds 19 1018 68 10000 3.6 70 23:20 08.06.2019
6665 Clouds 21 1017 60 10000 5.1 60 22:43 08.06.2019
6666 Clouds 21 1017 60 10000 5.1 60 22:25 08.06.2019
6667 Clear 21 1016 60 10000 6.2 60 21:53 08.06.2019
6668 Clear 21 1016 56 10000 6.2 60 21:35 08.06.2019
6669 Clear 21 1016 56 10000 6.2 60 21:34 08.06.2019
6670 Clear 21 1016 53 10000 6.2 60 20:59 08.06.2019
6671 Clear 21 1016 56 10000 7.7 60 20:40 08.06.2019
6672 Clear 21 1016 56 10000 7.7 60 20:21 08.06.2019
6673 Clear 22 1015 53 10000 8.7 60 19:42 08.06.2019
6674 Clear 22 1015 53 10000 8.7 60 19:42 08.06.2019
6675 Clear 22 1015 53 10000 8.7 60 19:22 08.06.2019
6676 Clear 23 1015 53 10000 9.8 60 18:58 08.06.2019
6677 Clouds 22 1015 53 10000 10.3 60 18:39 08.06.2019
6678 Clouds 22 1015 53 10000 10.3 60 18:18 08.06.2019
6679 Clear 24 1015 36 10000 7.7 50 17:41 08.06.2019
6680 Clear 24 1015 36 10000 7.7 50 17:18 08.06.2019
6681 Clouds 24 1016 34 10000 8.2 50 16:45 08.06.2019
6682 Clouds 24 1016 37 10000 5.7 30 16:20 08.06.2019
6683 Clouds 24 1017 42 10000 3.6 40 15:40 08.06.2019
6684 Clouds 24 1017 42 10000 3.6 40 15:39 08.06.2019
6685 Clouds 23 1018 82 10000 3.6 80 14:58 08.06.2019
6686 Clouds 23 1018 82 10000 4.6 90 14:40 08.06.2019
6687 Clouds 23 1017 53 10000 4.1 300 14:21 08.06.2019
6688 Clouds 22 1017 53 10000 4.1 300 13:37 08.06.2019
6689 Clouds 22 1017 50 10000 3.1 300 12:47 08.06.2019
6690 Clouds 22 1017 53 10000 3.1 280 12:24 08.06.2019
6691 Clouds 22 1017 49 10000 1.08 191.061 11:44 08.06.2019
6692 Clouds 22 1017 49 10000 1.08 191.061 11:23 08.06.2019
6693 Clouds 21 1017 56 10000 1.5 210 10:45 08.06.2019
6694 Clouds 21 1017 60 10000 2.1 190 10:23 08.06.2019
6695 Clouds 18 1017 63 10000 2.6 200 09:50 08.06.2019
6696 Clouds 18 1017 72 10000 1.5 210 09:24 08.06.2019
6697 Clouds 16 1017 82 10000 0.53 175.791 08:31 08.06.2019
6698 Clouds